<?xml version="1.0" encoding="UTF-8" standalone="no" ?>
<gpx xmlns="http://www.topografix.com/GPX/1/1" xmlns:xsi="http://www.w3.org/2001/XMLSchema-instance" xsi:schemaLocation="http://www.topografix.com/GPX/1/1 http://www.topografix.com/GPX/1/1/gpx.xsd" version="1.1" creator="VisuGPX - https://www.visugpx.com">
  <metadata>
    <name>Paris - Roubaix VTT 2017</name>
    <desc><![CDATA[ATTENTION à la distance : 122 km]]></desc>
  </metadata>
  <trk>
    <name><![CDATA[OR-6895297--Wallers:A- Raid VTT 2017 - Total 125 km]]></name>
    <trkseg>
      <trkpt lat="50.38488" lon="3.42636">
        <ele>38</ele>
        <time>2017-08-19T21:30:40Z</time>
      </trkpt>
      <trkpt lat="50.38505" lon="3.42618">
        <ele>38</ele>
        <time>2017-08-19T21:32:40Z</time>
      </trkpt>
      <trkpt lat="50.38683" lon="3.42436">
        <ele>35</ele>
        <time>2017-08-19T21:34:40Z</time>
      </trkpt>
      <trkpt lat="50.38736" lon="3.42381">
        <ele>34</ele>
        <time>2017-08-19T21:36:40Z</time>
      </trkpt>
      <trkpt lat="50.38754" lon="3.42365">
        <ele>34</ele>
        <time>2017-08-19T21:38:40Z</time>
      </trkpt>
      <trkpt lat="50.38768" lon="3.42359">
        <ele>34</ele>
        <time>2017-08-19T21:40:40Z</time>
      </trkpt>
      <trkpt lat="50.38779" lon="3.42356">
        <ele>35</ele>
        <time>2017-08-19T21:42:40Z</time>
      </trkpt>
      <trkpt lat="50.38779" lon="3.42356">
        <ele>35</ele>
        <time>2017-08-19T21:44:40Z</time>
      </trkpt>
      <trkpt lat="50.38786" lon="3.42437">
        <ele>34</ele>
        <time>2017-08-19T21:46:40Z</time>
      </trkpt>
      <trkpt lat="50.38786" lon="3.42437">
        <ele>34</ele>
        <time>2017-08-19T21:48:40Z</time>
      </trkpt>
      <trkpt lat="50.38802" lon="3.42422">
        <ele>34</ele>
        <time>2017-08-19T21:50:40Z</time>
      </trkpt>
      <trkpt lat="50.38806" lon="3.42419">
        <ele>34</ele>
        <time>2017-08-19T21:52:40Z</time>
      </trkpt>
      <trkpt lat="50.38822" lon="3.42402">
        <ele>35</ele>
        <time>2017-08-19T21:54:40Z</time>
      </trkpt>
      <trkpt lat="50.38822" lon="3.42402">
        <ele>35</ele>
        <time>2017-08-19T21:56:40Z</time>
      </trkpt>
      <trkpt lat="50.38827" lon="3.42396">
        <ele>35</ele>
        <time>2017-08-19T21:58:40Z</time>
      </trkpt>
      <trkpt lat="50.38833" lon="3.4239">
        <ele>36</ele>
        <time>2017-08-19T22:00:40Z</time>
      </trkpt>
      <trkpt lat="50.38843" lon="3.4238">
        <ele>36</ele>
        <time>2017-08-19T22:02:40Z</time>
      </trkpt>
      <trkpt lat="50.38959" lon="3.42261">
        <ele>37</ele>
        <time>2017-08-19T22:04:40Z</time>
      </trkpt>
      <trkpt lat="50.39506" lon="3.41694">
        <ele>26</ele>
        <time>2017-08-19T22:06:40Z</time>
      </trkpt>
      <trkpt lat="50.39674" lon="3.41521">
        <ele>23</ele>
        <time>2017-08-19T22:08:40Z</time>
      </trkpt>
      <trkpt lat="50.39731" lon="3.41463">
        <ele>25</ele>
        <time>2017-08-19T22:10:40Z</time>
      </trkpt>
      <trkpt lat="50.39789" lon="3.41402">
        <ele>24</ele>
        <time>2017-08-19T22:12:40Z</time>
      </trkpt>
      <trkpt lat="50.3986" lon="3.41327">
        <ele>25</ele>
        <time>2017-08-19T22:14:40Z</time>
      </trkpt>
      <trkpt lat="50.39882" lon="3.41305">
        <ele>25</ele>
        <time>2017-08-19T22:16:40Z</time>
      </trkpt>
      <trkpt lat="50.39961" lon="3.41222">
        <ele>25</ele>
        <time>2017-08-19T22:18:40Z</time>
      </trkpt>
      <trkpt lat="50.40024" lon="3.41156">
        <ele>25</ele>
        <time>2017-08-19T22:20:40Z</time>
      </trkpt>
      <trkpt lat="50.40024" lon="3.41156">
        <ele>25</ele>
        <time>2017-08-19T22:22:40Z</time>
      </trkpt>
      <trkpt lat="50.39871" lon="3.40786">
        <ele>24</ele>
        <time>2017-08-19T22:24:40Z</time>
      </trkpt>
      <trkpt lat="50.3987" lon="3.40785">
        <ele>24</ele>
        <time>2017-08-19T22:26:40Z</time>
      </trkpt>
      <trkpt lat="50.39869" lon="3.40783">
        <ele>24</ele>
        <time>2017-08-19T22:28:40Z</time>
      </trkpt>
      <trkpt lat="50.39834" lon="3.40698">
        <ele>25</ele>
        <time>2017-08-19T22:30:40Z</time>
      </trkpt>
      <trkpt lat="50.39832" lon="3.40693">
        <ele>25</ele>
        <time>2017-08-19T22:32:40Z</time>
      </trkpt>
      <trkpt lat="50.39824" lon="3.40674">
        <ele>25</ele>
        <time>2017-08-19T22:34:40Z</time>
      </trkpt>
      <trkpt lat="50.39805" lon="3.40629">
        <ele>25</ele>
        <time>2017-08-19T22:36:40Z</time>
      </trkpt>
      <trkpt lat="50.39629" lon="3.40216">
        <ele>24</ele>
        <time>2017-08-19T22:38:40Z</time>
      </trkpt>
      <trkpt lat="50.39614" lon="3.40178">
        <ele>24</ele>
        <time>2017-08-19T22:40:40Z</time>
      </trkpt>
      <trkpt lat="50.39566" lon="3.4006">
        <ele>25</ele>
        <time>2017-08-19T22:42:40Z</time>
      </trkpt>
      <trkpt lat="50.39563" lon="3.40043">
        <ele>26</ele>
        <time>2017-08-19T22:44:40Z</time>
      </trkpt>
      <trkpt lat="50.39563" lon="3.40043">
        <ele>26</ele>
        <time>2017-08-19T22:46:40Z</time>
      </trkpt>
      <trkpt lat="50.39565" lon="3.40031">
        <ele>25</ele>
        <time>2017-08-19T22:48:40Z</time>
      </trkpt>
      <trkpt lat="50.39591" lon="3.39805">
        <ele>24</ele>
        <time>2017-08-19T22:50:40Z</time>
      </trkpt>
      <trkpt lat="50.39605" lon="3.39692">
        <ele>21</ele>
        <time>2017-08-19T22:52:40Z</time>
      </trkpt>
      <trkpt lat="50.39607" lon="3.39683">
        <ele>21</ele>
        <time>2017-08-19T22:54:40Z</time>
      </trkpt>
      <trkpt lat="50.39612" lon="3.39642">
        <ele>21</ele>
        <time>2017-08-19T22:56:40Z</time>
      </trkpt>
      <trkpt lat="50.39616" lon="3.39613">
        <ele>22</ele>
        <time>2017-08-19T22:58:40Z</time>
      </trkpt>
      <trkpt lat="50.39629" lon="3.39511">
        <ele>25</ele>
        <time>2017-08-19T23:00:40Z</time>
      </trkpt>
      <trkpt lat="50.39633" lon="3.39478">
        <ele>26</ele>
        <time>2017-08-19T23:02:40Z</time>
      </trkpt>
      <trkpt lat="50.39638" lon="3.3944">
        <ele>27</ele>
        <time>2017-08-19T23:04:40Z</time>
      </trkpt>
      <trkpt lat="50.39656" lon="3.39304">
        <ele>29</ele>
        <time>2017-08-19T23:06:40Z</time>
      </trkpt>
      <trkpt lat="50.39686" lon="3.39072">
        <ele>29</ele>
        <time>2017-08-19T23:08:40Z</time>
      </trkpt>
      <trkpt lat="50.39695" lon="3.39006">
        <ele>29</ele>
        <time>2017-08-19T23:10:40Z</time>
      </trkpt>
      <trkpt lat="50.39703" lon="3.38946">
        <ele>29</ele>
        <time>2017-08-19T23:12:40Z</time>
      </trkpt>
      <trkpt lat="50.39714" lon="3.38866">
        <ele>29</ele>
        <time>2017-08-19T23:14:40Z</time>
      </trkpt>
      <trkpt lat="50.39729" lon="3.3875">
        <ele>29</ele>
        <time>2017-08-19T23:16:40Z</time>
      </trkpt>
      <trkpt lat="50.39738" lon="3.38689">
        <ele>28</ele>
        <time>2017-08-19T23:18:40Z</time>
      </trkpt>
      <trkpt lat="50.39753" lon="3.38584">
        <ele>27</ele>
        <time>2017-08-19T23:20:40Z</time>
      </trkpt>
      <trkpt lat="50.39754" lon="3.38574">
        <ele>27</ele>
        <time>2017-08-19T23:22:40Z</time>
      </trkpt>
      <trkpt lat="50.39755" lon="3.38564">
        <ele>27</ele>
        <time>2017-08-19T23:24:40Z</time>
      </trkpt>
      <trkpt lat="50.39769" lon="3.38451">
        <ele>26</ele>
        <time>2017-08-19T23:26:40Z</time>
      </trkpt>
      <trkpt lat="50.39789" lon="3.3829">
        <ele>25</ele>
        <time>2017-08-19T23:28:40Z</time>
      </trkpt>
      <trkpt lat="50.39803" lon="3.38185">
        <ele>23</ele>
        <time>2017-08-19T23:30:40Z</time>
      </trkpt>
      <trkpt lat="50.39814" lon="3.38094">
        <ele>23</ele>
        <time>2017-08-19T23:32:40Z</time>
      </trkpt>
      <trkpt lat="50.39843" lon="3.37888">
        <ele>25</ele>
        <time>2017-08-19T23:34:40Z</time>
      </trkpt>
      <trkpt lat="50.39845" lon="3.37878">
        <ele>25</ele>
        <time>2017-08-19T23:36:40Z</time>
      </trkpt>
      <trkpt lat="50.39851" lon="3.3787">
        <ele>25</ele>
        <time>2017-08-19T23:38:40Z</time>
      </trkpt>
      <trkpt lat="50.39858" lon="3.37859">
        <ele>25</ele>
        <time>2017-08-19T23:40:40Z</time>
      </trkpt>
      <trkpt lat="50.39859" lon="3.37857">
        <ele>25</ele>
        <time>2017-08-19T23:42:40Z</time>
      </trkpt>
      <trkpt lat="50.39866" lon="3.37841">
        <ele>25</ele>
        <time>2017-08-19T23:44:40Z</time>
      </trkpt>
      <trkpt lat="50.39868" lon="3.37836">
        <ele>25</ele>
        <time>2017-08-19T23:46:40Z</time>
      </trkpt>
      <trkpt lat="50.39876" lon="3.37819">
        <ele>25</ele>
        <time>2017-08-19T23:48:40Z</time>
      </trkpt>
      <trkpt lat="50.39882" lon="3.37808">
        <ele>25</ele>
        <time>2017-08-19T23:50:40Z</time>
      </trkpt>
      <trkpt lat="50.39889" lon="3.37795">
        <ele>26</ele>
        <time>2017-08-19T23:52:40Z</time>
      </trkpt>
      <trkpt lat="50.39893" lon="3.37788">
        <ele>26</ele>
        <time>2017-08-19T23:54:40Z</time>
      </trkpt>
      <trkpt lat="50.39894" lon="3.37781">
        <ele>26</ele>
        <time>2017-08-19T23:56:40Z</time>
      </trkpt>
      <trkpt lat="50.39895" lon="3.3777">
        <ele>26</ele>
        <time>2017-08-19T23:58:40Z</time>
      </trkpt>
      <trkpt lat="50.39895" lon="3.3777">
        <ele>26</ele>
        <time>2017-08-20T00:00:40Z</time>
      </trkpt>
      <trkpt lat="50.3988" lon="3.37769">
        <ele>27</ele>
        <time>2017-08-20T00:02:40Z</time>
      </trkpt>
      <trkpt lat="50.39867" lon="3.37769">
        <ele>27</ele>
        <time>2017-08-20T00:04:40Z</time>
      </trkpt>
      <trkpt lat="50.39861" lon="3.37768">
        <ele>27</ele>
        <time>2017-08-20T00:06:40Z</time>
      </trkpt>
      <trkpt lat="50.39848" lon="3.37768">
        <ele>27</ele>
        <time>2017-08-20T00:08:40Z</time>
      </trkpt>
      <trkpt lat="50.3982" lon="3.37763">
        <ele>26</ele>
        <time>2017-08-20T00:10:40Z</time>
      </trkpt>
      <trkpt lat="50.39801" lon="3.37757">
        <ele>25</ele>
        <time>2017-08-20T00:12:40Z</time>
      </trkpt>
      <trkpt lat="50.39773" lon="3.37754">
        <ele>23</ele>
        <time>2017-08-20T00:14:40Z</time>
      </trkpt>
      <trkpt lat="50.39766" lon="3.37756">
        <ele>22</ele>
        <time>2017-08-20T00:16:40Z</time>
      </trkpt>
      <trkpt lat="50.39759" lon="3.37756">
        <ele>22</ele>
        <time>2017-08-20T00:18:40Z</time>
      </trkpt>
      <trkpt lat="50.39733" lon="3.37764">
        <ele>20</ele>
        <time>2017-08-20T00:20:40Z</time>
      </trkpt>
      <trkpt lat="50.39722" lon="3.37767">
        <ele>19</ele>
        <time>2017-08-20T00:22:40Z</time>
      </trkpt>
      <trkpt lat="50.39708" lon="3.37768">
        <ele>18</ele>
        <time>2017-08-20T00:24:40Z</time>
      </trkpt>
      <trkpt lat="50.39662" lon="3.37765">
        <ele>16</ele>
        <time>2017-08-20T00:26:40Z</time>
      </trkpt>
      <trkpt lat="50.39643" lon="3.3776">
        <ele>16</ele>
        <time>2017-08-20T00:28:40Z</time>
      </trkpt>
      <trkpt lat="50.39616" lon="3.3775">
        <ele>17</ele>
        <time>2017-08-20T00:30:40Z</time>
      </trkpt>
      <trkpt lat="50.39599" lon="3.37741">
        <ele>17</ele>
        <time>2017-08-20T00:32:40Z</time>
      </trkpt>
      <trkpt lat="50.39588" lon="3.37732">
        <ele>17</ele>
        <time>2017-08-20T00:34:40Z</time>
      </trkpt>
      <trkpt lat="50.3958" lon="3.37722">
        <ele>17</ele>
        <time>2017-08-20T00:36:40Z</time>
      </trkpt>
      <trkpt lat="50.39558" lon="3.3769">
        <ele>17</ele>
        <time>2017-08-20T00:38:40Z</time>
      </trkpt>
      <trkpt lat="50.39548" lon="3.37675">
        <ele>17</ele>
        <time>2017-08-20T00:40:40Z</time>
      </trkpt>
      <trkpt lat="50.39516" lon="3.37628">
        <ele>17</ele>
        <time>2017-08-20T00:42:40Z</time>
      </trkpt>
      <trkpt lat="50.39502" lon="3.37611">
        <ele>18</ele>
        <time>2017-08-20T00:44:40Z</time>
      </trkpt>
      <trkpt lat="50.3949" lon="3.37596">
        <ele>18</ele>
        <time>2017-08-20T00:46:40Z</time>
      </trkpt>
      <trkpt lat="50.39479" lon="3.37587">
        <ele>17</ele>
        <time>2017-08-20T00:48:40Z</time>
      </trkpt>
      <trkpt lat="50.3942" lon="3.3755">
        <ele>16</ele>
        <time>2017-08-20T00:50:40Z</time>
      </trkpt>
      <trkpt lat="50.3931" lon="3.37483">
        <ele>16</ele>
        <time>2017-08-20T00:52:40Z</time>
      </trkpt>
      <trkpt lat="50.39303" lon="3.37479">
        <ele>16</ele>
        <time>2017-08-20T00:54:40Z</time>
      </trkpt>
      <trkpt lat="50.39285" lon="3.37468">
        <ele>16</ele>
        <time>2017-08-20T00:56:40Z</time>
      </trkpt>
      <trkpt lat="50.3928" lon="3.37465">
        <ele>16</ele>
        <time>2017-08-20T00:58:40Z</time>
      </trkpt>
      <trkpt lat="50.39197" lon="3.37419">
        <ele>16</ele>
        <time>2017-08-20T01:00:40Z</time>
      </trkpt>
      <trkpt lat="50.39152" lon="3.37399">
        <ele>16</ele>
        <time>2017-08-20T01:02:40Z</time>
      </trkpt>
      <trkpt lat="50.39114" lon="3.37385">
        <ele>16</ele>
        <time>2017-08-20T01:04:40Z</time>
      </trkpt>
      <trkpt lat="50.39079" lon="3.37372">
        <ele>17</ele>
        <time>2017-08-20T01:06:40Z</time>
      </trkpt>
      <trkpt lat="50.39066" lon="3.37366">
        <ele>16</ele>
        <time>2017-08-20T01:08:40Z</time>
      </trkpt>
      <trkpt lat="50.39053" lon="3.37355">
        <ele>16</ele>
        <time>2017-08-20T01:10:40Z</time>
      </trkpt>
      <trkpt lat="50.39028" lon="3.37329">
        <ele>16</ele>
        <time>2017-08-20T01:12:40Z</time>
      </trkpt>
      <trkpt lat="50.3896" lon="3.37256">
        <ele>16</ele>
        <time>2017-08-20T01:14:40Z</time>
      </trkpt>
      <trkpt lat="50.3896" lon="3.37256">
        <ele>16</ele>
        <time>2017-08-20T01:16:40Z</time>
      </trkpt>
      <trkpt lat="50.38936" lon="3.37299">
        <ele>16</ele>
        <time>2017-08-20T01:18:40Z</time>
      </trkpt>
      <trkpt lat="50.38931" lon="3.37308">
        <ele>16</ele>
        <time>2017-08-20T01:20:40Z</time>
      </trkpt>
      <trkpt lat="50.38927" lon="3.37314">
        <ele>16</ele>
        <time>2017-08-20T01:22:40Z</time>
      </trkpt>
      <trkpt lat="50.38919" lon="3.37323">
        <ele>16</ele>
        <time>2017-08-20T01:24:40Z</time>
      </trkpt>
      <trkpt lat="50.3889" lon="3.37344">
        <ele>16</ele>
        <time>2017-08-20T01:26:40Z</time>
      </trkpt>
      <trkpt lat="50.38785" lon="3.37424">
        <ele>15</ele>
        <time>2017-08-20T01:28:40Z</time>
      </trkpt>
      <trkpt lat="50.38662" lon="3.3752">
        <ele>15</ele>
        <time>2017-08-20T01:30:40Z</time>
      </trkpt>
      <trkpt lat="50.38653" lon="3.37528">
        <ele>15</ele>
        <time>2017-08-20T01:32:40Z</time>
      </trkpt>
      <trkpt lat="50.38625" lon="3.37551">
        <ele>15</ele>
        <time>2017-08-20T01:34:40Z</time>
      </trkpt>
      <trkpt lat="50.38582" lon="3.37586">
        <ele>15</ele>
        <time>2017-08-20T01:36:40Z</time>
      </trkpt>
      <trkpt lat="50.38573" lon="3.37594">
        <ele>15</ele>
        <time>2017-08-20T01:38:40Z</time>
      </trkpt>
      <trkpt lat="50.38569" lon="3.37598">
        <ele>15</ele>
        <time>2017-08-20T01:40:40Z</time>
      </trkpt>
      <trkpt lat="50.38564" lon="3.37602">
        <ele>15</ele>
        <time>2017-08-20T01:42:40Z</time>
      </trkpt>
      <trkpt lat="50.38525" lon="3.37644">
        <ele>16</ele>
        <time>2017-08-20T01:44:40Z</time>
      </trkpt>
      <trkpt lat="50.38521" lon="3.3765">
        <ele>17</ele>
        <time>2017-08-20T01:46:40Z</time>
      </trkpt>
      <trkpt lat="50.38519" lon="3.37659">
        <ele>17</ele>
        <time>2017-08-20T01:48:40Z</time>
      </trkpt>
      <trkpt lat="50.38517" lon="3.37669">
        <ele>17</ele>
        <time>2017-08-20T01:50:40Z</time>
      </trkpt>
      <trkpt lat="50.38513" lon="3.37695">
        <ele>17</ele>
        <time>2017-08-20T01:52:40Z</time>
      </trkpt>
      <trkpt lat="50.38503" lon="3.37757">
        <ele>17</ele>
        <time>2017-08-20T01:54:40Z</time>
      </trkpt>
      <trkpt lat="50.38485" lon="3.37865">
        <ele>16</ele>
        <time>2017-08-20T01:56:40Z</time>
      </trkpt>
      <trkpt lat="50.38467" lon="3.37962">
        <ele>17</ele>
        <time>2017-08-20T01:58:40Z</time>
      </trkpt>
      <trkpt lat="50.38458" lon="3.37991">
        <ele>17</ele>
        <time>2017-08-20T02:00:40Z</time>
      </trkpt>
      <trkpt lat="50.38444" lon="3.38041">
        <ele>18</ele>
        <time>2017-08-20T02:02:40Z</time>
      </trkpt>
      <trkpt lat="50.3843" lon="3.38076">
        <ele>18</ele>
        <time>2017-08-20T02:04:40Z</time>
      </trkpt>
      <trkpt lat="50.38425" lon="3.38087">
        <ele>18</ele>
        <time>2017-08-20T02:06:40Z</time>
      </trkpt>
      <trkpt lat="50.38418" lon="3.38098">
        <ele>18</ele>
        <time>2017-08-20T02:08:40Z</time>
      </trkpt>
      <trkpt lat="50.38412" lon="3.38103">
        <ele>18</ele>
        <time>2017-08-20T02:10:40Z</time>
      </trkpt>
      <trkpt lat="50.38403" lon="3.38108">
        <ele>18</ele>
        <time>2017-08-20T02:12:40Z</time>
      </trkpt>
      <trkpt lat="50.38374" lon="3.38119">
        <ele>18</ele>
        <time>2017-08-20T02:14:40Z</time>
      </trkpt>
      <trkpt lat="50.38361" lon="3.38125">
        <ele>18</ele>
        <time>2017-08-20T02:16:40Z</time>
      </trkpt>
      <trkpt lat="50.38351" lon="3.38127">
        <ele>18</ele>
        <time>2017-08-20T02:18:40Z</time>
      </trkpt>
      <trkpt lat="50.38341" lon="3.3813">
        <ele>18</ele>
        <time>2017-08-20T02:20:40Z</time>
      </trkpt>
      <trkpt lat="50.38326" lon="3.38134">
        <ele>17</ele>
        <time>2017-08-20T02:22:40Z</time>
      </trkpt>
      <trkpt lat="50.38324" lon="3.38135">
        <ele>17</ele>
        <time>2017-08-20T02:24:40Z</time>
      </trkpt>
      <trkpt lat="50.3832" lon="3.38136">
        <ele>17</ele>
        <time>2017-08-20T02:26:40Z</time>
      </trkpt>
      <trkpt lat="50.38316" lon="3.38137">
        <ele>17</ele>
        <time>2017-08-20T02:28:40Z</time>
      </trkpt>
      <trkpt lat="50.38307" lon="3.38141">
        <ele>17</ele>
        <time>2017-08-20T02:30:40Z</time>
      </trkpt>
      <trkpt lat="50.38302" lon="3.38146">
        <ele>17</ele>
        <time>2017-08-20T02:32:40Z</time>
      </trkpt>
      <trkpt lat="50.38297" lon="3.3815">
        <ele>17</ele>
        <time>2017-08-20T02:34:40Z</time>
      </trkpt>
      <trkpt lat="50.38285" lon="3.38165">
        <ele>16</ele>
        <time>2017-08-20T02:36:40Z</time>
      </trkpt>
      <trkpt lat="50.38262" lon="3.382">
        <ele>16</ele>
        <time>2017-08-20T02:38:40Z</time>
      </trkpt>
      <trkpt lat="50.3817" lon="3.3835">
        <ele>15</ele>
        <time>2017-08-20T02:40:40Z</time>
      </trkpt>
      <trkpt lat="50.38131" lon="3.38421">
        <ele>15</ele>
        <time>2017-08-20T02:42:40Z</time>
      </trkpt>
      <trkpt lat="50.38103" lon="3.38478">
        <ele>14</ele>
        <time>2017-08-20T02:44:40Z</time>
      </trkpt>
      <trkpt lat="50.38064" lon="3.38562">
        <ele>14</ele>
        <time>2017-08-20T02:46:40Z</time>
      </trkpt>
      <trkpt lat="50.38014" lon="3.38669">
        <ele>14</ele>
        <time>2017-08-20T02:48:40Z</time>
      </trkpt>
      <trkpt lat="50.37984" lon="3.38739">
        <ele>15</ele>
        <time>2017-08-20T02:50:40Z</time>
      </trkpt>
      <trkpt lat="50.37969" lon="3.38768">
        <ele>16</ele>
        <time>2017-08-20T02:52:40Z</time>
      </trkpt>
      <trkpt lat="50.37969" lon="3.38768">
        <ele>16</ele>
        <time>2017-08-20T02:54:40Z</time>
      </trkpt>
      <trkpt lat="50.37969" lon="3.38769">
        <ele>16</ele>
        <time>2017-08-20T02:56:40Z</time>
      </trkpt>
      <trkpt lat="50.37937" lon="3.38836">
        <ele>17</ele>
        <time>2017-08-20T02:58:40Z</time>
      </trkpt>
      <trkpt lat="50.37927" lon="3.38855">
        <ele>17</ele>
        <time>2017-08-20T03:00:40Z</time>
      </trkpt>
      <trkpt lat="50.37893" lon="3.3893">
        <ele>17</ele>
        <time>2017-08-20T03:02:40Z</time>
      </trkpt>
      <trkpt lat="50.37842" lon="3.39032">
        <ele>18</ele>
        <time>2017-08-20T03:04:40Z</time>
      </trkpt>
      <trkpt lat="50.37839" lon="3.39039">
        <ele>18</ele>
        <time>2017-08-20T03:06:40Z</time>
      </trkpt>
      <trkpt lat="50.37813" lon="3.39094">
        <ele>18</ele>
        <time>2017-08-20T03:08:40Z</time>
      </trkpt>
      <trkpt lat="50.3779" lon="3.39144">
        <ele>19</ele>
        <time>2017-08-20T03:10:40Z</time>
      </trkpt>
      <trkpt lat="50.3776" lon="3.39202">
        <ele>19</ele>
        <time>2017-08-20T03:12:40Z</time>
      </trkpt>
      <trkpt lat="50.37749" lon="3.39228">
        <ele>19</ele>
        <time>2017-08-20T03:14:40Z</time>
      </trkpt>
      <trkpt lat="50.37736" lon="3.39263">
        <ele>19</ele>
        <time>2017-08-20T03:16:40Z</time>
      </trkpt>
      <trkpt lat="50.37736" lon="3.39263">
        <ele>19</ele>
        <time>2017-08-20T03:18:40Z</time>
      </trkpt>
      <trkpt lat="50.37629" lon="3.39205">
        <ele>20</ele>
        <time>2017-08-20T03:20:40Z</time>
      </trkpt>
      <trkpt lat="50.3758" lon="3.39182">
        <ele>20</ele>
        <time>2017-08-20T03:22:40Z</time>
      </trkpt>
      <trkpt lat="50.37559" lon="3.39173">
        <ele>20</ele>
        <time>2017-08-20T03:24:40Z</time>
      </trkpt>
      <trkpt lat="50.37551" lon="3.39171">
        <ele>20</ele>
        <time>2017-08-20T03:26:40Z</time>
      </trkpt>
      <trkpt lat="50.37525" lon="3.39168">
        <ele>21</ele>
        <time>2017-08-20T03:28:40Z</time>
      </trkpt>
      <trkpt lat="50.37502" lon="3.39171">
        <ele>21</ele>
        <time>2017-08-20T03:30:40Z</time>
      </trkpt>
      <trkpt lat="50.37502" lon="3.39171">
        <ele>21</ele>
        <time>2017-08-20T03:32:40Z</time>
      </trkpt>
      <trkpt lat="50.37494" lon="3.39157">
        <ele>21</ele>
        <time>2017-08-20T03:34:40Z</time>
      </trkpt>
      <trkpt lat="50.37475" lon="3.3913">
        <ele>21</ele>
        <time>2017-08-20T03:36:40Z</time>
      </trkpt>
      <trkpt lat="50.37458" lon="3.39091">
        <ele>22</ele>
        <time>2017-08-20T03:38:40Z</time>
      </trkpt>
      <trkpt lat="50.37436" lon="3.39037">
        <ele>22</ele>
        <time>2017-08-20T03:40:40Z</time>
      </trkpt>
      <trkpt lat="50.37425" lon="3.39021">
        <ele>22</ele>
        <time>2017-08-20T03:42:40Z</time>
      </trkpt>
      <trkpt lat="50.37415" lon="3.3901">
        <ele>22</ele>
        <time>2017-08-20T03:44:40Z</time>
      </trkpt>
      <trkpt lat="50.3739" lon="3.38989">
        <ele>22</ele>
        <time>2017-08-20T03:46:40Z</time>
      </trkpt>
      <trkpt lat="50.37385" lon="3.38985">
        <ele>22</ele>
        <time>2017-08-20T03:48:40Z</time>
      </trkpt>
      <trkpt lat="50.37378" lon="3.38981">
        <ele>22</ele>
        <time>2017-08-20T03:50:40Z</time>
      </trkpt>
      <trkpt lat="50.37362" lon="3.38969">
        <ele>22</ele>
        <time>2017-08-20T03:52:40Z</time>
      </trkpt>
      <trkpt lat="50.37362" lon="3.38969">
        <ele>22</ele>
        <time>2017-08-20T03:54:40Z</time>
      </trkpt>
      <trkpt lat="50.37367" lon="3.38954">
        <ele>22</ele>
        <time>2017-08-20T03:56:40Z</time>
      </trkpt>
      <trkpt lat="50.37371" lon="3.38945">
        <ele>22</ele>
        <time>2017-08-20T03:58:40Z</time>
      </trkpt>
      <trkpt lat="50.37376" lon="3.38938">
        <ele>22</ele>
        <time>2017-08-20T04:00:40Z</time>
      </trkpt>
      <trkpt lat="50.37385" lon="3.38931">
        <ele>22</ele>
        <time>2017-08-20T04:02:40Z</time>
      </trkpt>
      <trkpt lat="50.37394" lon="3.38925">
        <ele>22</ele>
        <time>2017-08-20T04:04:40Z</time>
      </trkpt>
      <trkpt lat="50.37402" lon="3.38916">
        <ele>22</ele>
        <time>2017-08-20T04:06:40Z</time>
      </trkpt>
      <trkpt lat="50.37402" lon="3.38916">
        <ele>22</ele>
        <time>2017-08-20T04:08:40Z</time>
      </trkpt>
      <trkpt lat="50.37403" lon="3.38914">
        <ele>22</ele>
        <time>2017-08-20T04:10:40Z</time>
      </trkpt>
      <trkpt lat="50.37406" lon="3.38909">
        <ele>22</ele>
        <time>2017-08-20T04:12:40Z</time>
      </trkpt>
      <trkpt lat="50.37413" lon="3.38894">
        <ele>22</ele>
        <time>2017-08-20T04:14:40Z</time>
      </trkpt>
      <trkpt lat="50.37417" lon="3.38883">
        <ele>22</ele>
        <time>2017-08-20T04:16:40Z</time>
      </trkpt>
      <trkpt lat="50.37419" lon="3.38869">
        <ele>22</ele>
        <time>2017-08-20T04:18:40Z</time>
      </trkpt>
      <trkpt lat="50.3742" lon="3.38846">
        <ele>22</ele>
        <time>2017-08-20T04:20:40Z</time>
      </trkpt>
      <trkpt lat="50.3742" lon="3.3878">
        <ele>21</ele>
        <time>2017-08-20T04:22:40Z</time>
      </trkpt>
      <trkpt lat="50.37419" lon="3.38776">
        <ele>21</ele>
        <time>2017-08-20T04:24:40Z</time>
      </trkpt>
      <trkpt lat="50.37417" lon="3.38755">
        <ele>21</ele>
        <time>2017-08-20T04:26:40Z</time>
      </trkpt>
      <trkpt lat="50.37416" lon="3.38751">
        <ele>21</ele>
        <time>2017-08-20T04:28:40Z</time>
      </trkpt>
      <trkpt lat="50.37414" lon="3.38739">
        <ele>21</ele>
        <time>2017-08-20T04:30:40Z</time>
      </trkpt>
      <trkpt lat="50.37411" lon="3.38719">
        <ele>21</ele>
        <time>2017-08-20T04:32:40Z</time>
      </trkpt>
      <trkpt lat="50.37408" lon="3.38702">
        <ele>21</ele>
        <time>2017-08-20T04:34:40Z</time>
      </trkpt>
      <trkpt lat="50.37408" lon="3.38693">
        <ele>21</ele>
        <time>2017-08-20T04:36:40Z</time>
      </trkpt>
      <trkpt lat="50.37408" lon="3.38682">
        <ele>21</ele>
        <time>2017-08-20T04:38:40Z</time>
      </trkpt>
      <trkpt lat="50.3741" lon="3.3854">
        <ele>21</ele>
        <time>2017-08-20T04:40:40Z</time>
      </trkpt>
      <trkpt lat="50.37408" lon="3.38324">
        <ele>20</ele>
        <time>2017-08-20T04:42:40Z</time>
      </trkpt>
      <trkpt lat="50.37407" lon="3.38286">
        <ele>20</ele>
        <time>2017-08-20T04:44:40Z</time>
      </trkpt>
      <trkpt lat="50.37406" lon="3.38274">
        <ele>20</ele>
        <time>2017-08-20T04:46:40Z</time>
      </trkpt>
      <trkpt lat="50.37406" lon="3.38274">
        <ele>20</ele>
        <time>2017-08-20T04:48:40Z</time>
      </trkpt>
      <trkpt lat="50.37414" lon="3.38267">
        <ele>20</ele>
        <time>2017-08-20T04:50:40Z</time>
      </trkpt>
      <trkpt lat="50.37414" lon="3.38267">
        <ele>20</ele>
        <time>2017-08-20T04:52:40Z</time>
      </trkpt>
      <trkpt lat="50.37425" lon="3.38256">
        <ele>20</ele>
        <time>2017-08-20T04:54:40Z</time>
      </trkpt>
      <trkpt lat="50.37432" lon="3.38242">
        <ele>20</ele>
        <time>2017-08-20T04:56:40Z</time>
      </trkpt>
      <trkpt lat="50.37439" lon="3.3822">
        <ele>20</ele>
        <time>2017-08-20T04:58:40Z</time>
      </trkpt>
      <trkpt lat="50.37445" lon="3.38189">
        <ele>20</ele>
        <time>2017-08-20T05:00:40Z</time>
      </trkpt>
      <trkpt lat="50.37447" lon="3.38177">
        <ele>20</ele>
        <time>2017-08-20T05:02:40Z</time>
      </trkpt>
      <trkpt lat="50.37451" lon="3.38157">
        <ele>20</ele>
        <time>2017-08-20T05:04:40Z</time>
      </trkpt>
      <trkpt lat="50.37457" lon="3.38133">
        <ele>20</ele>
        <time>2017-08-20T05:06:40Z</time>
      </trkpt>
      <trkpt lat="50.37467" lon="3.38085">
        <ele>20</ele>
        <time>2017-08-20T05:08:40Z</time>
      </trkpt>
      <trkpt lat="50.37472" lon="3.38059">
        <ele>20</ele>
        <time>2017-08-20T05:10:40Z</time>
      </trkpt>
      <trkpt lat="50.37477" lon="3.38014">
        <ele>20</ele>
        <time>2017-08-20T05:12:40Z</time>
      </trkpt>
      <trkpt lat="50.37479" lon="3.37961">
        <ele>20</ele>
        <time>2017-08-20T05:14:40Z</time>
      </trkpt>
      <trkpt lat="50.37481" lon="3.37927">
        <ele>20</ele>
        <time>2017-08-20T05:16:40Z</time>
      </trkpt>
      <trkpt lat="50.37483" lon="3.37901">
        <ele>20</ele>
        <time>2017-08-20T05:18:40Z</time>
      </trkpt>
      <trkpt lat="50.37483" lon="3.37901">
        <ele>20</ele>
        <time>2017-08-20T05:20:40Z</time>
      </trkpt>
      <trkpt lat="50.37458" lon="3.37891">
        <ele>21</ele>
        <time>2017-08-20T05:22:40Z</time>
      </trkpt>
      <trkpt lat="50.37437" lon="3.37887">
        <ele>21</ele>
        <time>2017-08-20T05:24:40Z</time>
      </trkpt>
      <trkpt lat="50.37413" lon="3.3789">
        <ele>21</ele>
        <time>2017-08-20T05:26:40Z</time>
      </trkpt>
      <trkpt lat="50.37387" lon="3.37894">
        <ele>21</ele>
        <time>2017-08-20T05:28:40Z</time>
      </trkpt>
      <trkpt lat="50.37365" lon="3.37895">
        <ele>21</ele>
        <time>2017-08-20T05:30:40Z</time>
      </trkpt>
      <trkpt lat="50.37349" lon="3.37895">
        <ele>21</ele>
        <time>2017-08-20T05:32:40Z</time>
      </trkpt>
      <trkpt lat="50.37337" lon="3.37892">
        <ele>21</ele>
        <time>2017-08-20T05:34:40Z</time>
      </trkpt>
      <trkpt lat="50.37322" lon="3.37889">
        <ele>21</ele>
        <time>2017-08-20T05:36:40Z</time>
      </trkpt>
      <trkpt lat="50.37305" lon="3.37885">
        <ele>21</ele>
        <time>2017-08-20T05:38:40Z</time>
      </trkpt>
      <trkpt lat="50.37298" lon="3.37884">
        <ele>21</ele>
        <time>2017-08-20T05:40:40Z</time>
      </trkpt>
      <trkpt lat="50.37297" lon="3.37884">
        <ele>21</ele>
        <time>2017-08-20T05:42:40Z</time>
      </trkpt>
      <trkpt lat="50.37282" lon="3.3788">
        <ele>21</ele>
        <time>2017-08-20T05:44:40Z</time>
      </trkpt>
      <trkpt lat="50.37263" lon="3.3788">
        <ele>21</ele>
        <time>2017-08-20T05:46:40Z</time>
      </trkpt>
      <trkpt lat="50.37239" lon="3.37883">
        <ele>21</ele>
        <time>2017-08-20T05:48:40Z</time>
      </trkpt>
      <trkpt lat="50.37217" lon="3.37888">
        <ele>21</ele>
        <time>2017-08-20T05:50:40Z</time>
      </trkpt>
      <trkpt lat="50.37209" lon="3.3789">
        <ele>21</ele>
        <time>2017-08-20T05:52:40Z</time>
      </trkpt>
      <trkpt lat="50.37173" lon="3.37904">
        <ele>22</ele>
        <time>2017-08-20T05:54:40Z</time>
      </trkpt>
      <trkpt lat="50.37144" lon="3.37918">
        <ele>23</ele>
        <time>2017-08-20T05:56:40Z</time>
      </trkpt>
      <trkpt lat="50.37111" lon="3.37934">
        <ele>23</ele>
        <time>2017-08-20T05:58:40Z</time>
      </trkpt>
      <trkpt lat="50.37084" lon="3.37946">
        <ele>24</ele>
        <time>2017-08-20T06:00:40Z</time>
      </trkpt>
      <trkpt lat="50.37057" lon="3.37957">
        <ele>24</ele>
        <time>2017-08-20T06:02:40Z</time>
      </trkpt>
      <trkpt lat="50.37038" lon="3.37963">
        <ele>25</ele>
        <time>2017-08-20T06:04:40Z</time>
      </trkpt>
      <trkpt lat="50.37033" lon="3.37965">
        <ele>25</ele>
        <time>2017-08-20T06:06:40Z</time>
      </trkpt>
      <trkpt lat="50.36985" lon="3.37976">
        <ele>26</ele>
        <time>2017-08-20T06:08:40Z</time>
      </trkpt>
      <trkpt lat="50.36979" lon="3.37977">
        <ele>26</ele>
        <time>2017-08-20T06:10:40Z</time>
      </trkpt>
      <trkpt lat="50.36948" lon="3.37982">
        <ele>27</ele>
        <time>2017-08-20T06:12:40Z</time>
      </trkpt>
      <trkpt lat="50.36932" lon="3.37985">
        <ele>27</ele>
        <time>2017-08-20T06:14:40Z</time>
      </trkpt>
      <trkpt lat="50.36922" lon="3.37987">
        <ele>28</ele>
        <time>2017-08-20T06:16:40Z</time>
      </trkpt>
      <trkpt lat="50.36909" lon="3.3799">
        <ele>28</ele>
        <time>2017-08-20T06:18:40Z</time>
      </trkpt>
      <trkpt lat="50.36889" lon="3.37999">
        <ele>29</ele>
        <time>2017-08-20T06:20:40Z</time>
      </trkpt>
      <trkpt lat="50.36867" lon="3.3801">
        <ele>29</ele>
        <time>2017-08-20T06:22:40Z</time>
      </trkpt>
      <trkpt lat="50.36846" lon="3.38018">
        <ele>30</ele>
        <time>2017-08-20T06:24:40Z</time>
      </trkpt>
      <trkpt lat="50.36829" lon="3.38023">
        <ele>30</ele>
        <time>2017-08-20T06:26:40Z</time>
      </trkpt>
      <trkpt lat="50.36804" lon="3.38031">
        <ele>30</ele>
        <time>2017-08-20T06:28:40Z</time>
      </trkpt>
      <trkpt lat="50.368" lon="3.38032">
        <ele>30</ele>
        <time>2017-08-20T06:30:40Z</time>
      </trkpt>
      <trkpt lat="50.36779" lon="3.38042">
        <ele>31</ele>
        <time>2017-08-20T06:32:40Z</time>
      </trkpt>
      <trkpt lat="50.36763" lon="3.3805">
        <ele>31</ele>
        <time>2017-08-20T06:34:40Z</time>
      </trkpt>
      <trkpt lat="50.36758" lon="3.38053">
        <ele>31</ele>
        <time>2017-08-20T06:36:40Z</time>
      </trkpt>
      <trkpt lat="50.36758" lon="3.38053">
        <ele>31</ele>
        <time>2017-08-20T06:38:40Z</time>
      </trkpt>
      <trkpt lat="50.36762" lon="3.38071">
        <ele>31</ele>
        <time>2017-08-20T06:40:40Z</time>
      </trkpt>
      <trkpt lat="50.36762" lon="3.38071">
        <ele>31</ele>
        <time>2017-08-20T06:42:40Z</time>
      </trkpt>
      <trkpt lat="50.36747" lon="3.38079">
        <ele>31</ele>
        <time>2017-08-20T06:44:40Z</time>
      </trkpt>
      <trkpt lat="50.36744" lon="3.38081">
        <ele>31</ele>
        <time>2017-08-20T06:46:40Z</time>
      </trkpt>
      <trkpt lat="50.36722" lon="3.38095">
        <ele>31</ele>
        <time>2017-08-20T06:48:40Z</time>
      </trkpt>
      <trkpt lat="50.36708" lon="3.38103">
        <ele>31</ele>
        <time>2017-08-20T06:50:40Z</time>
      </trkpt>
      <trkpt lat="50.36701" lon="3.38107">
        <ele>31</ele>
        <time>2017-08-20T06:52:40Z</time>
      </trkpt>
      <trkpt lat="50.36682" lon="3.38117">
        <ele>31</ele>
        <time>2017-08-20T06:54:40Z</time>
      </trkpt>
      <trkpt lat="50.36665" lon="3.38124">
        <ele>32</ele>
        <time>2017-08-20T06:56:40Z</time>
      </trkpt>
      <trkpt lat="50.36655" lon="3.38129">
        <ele>32</ele>
        <time>2017-08-20T06:58:40Z</time>
      </trkpt>
      <trkpt lat="50.36627" lon="3.3814">
        <ele>32</ele>
        <time>2017-08-20T07:00:40Z</time>
      </trkpt>
      <trkpt lat="50.36608" lon="3.38147">
        <ele>32</ele>
        <time>2017-08-20T07:02:40Z</time>
      </trkpt>
      <trkpt lat="50.36588" lon="3.38152">
        <ele>33</ele>
        <time>2017-08-20T07:04:40Z</time>
      </trkpt>
      <trkpt lat="50.3656" lon="3.38153">
        <ele>33</ele>
        <time>2017-08-20T07:06:40Z</time>
      </trkpt>
      <trkpt lat="50.36554" lon="3.38153">
        <ele>33</ele>
        <time>2017-08-20T07:08:40Z</time>
      </trkpt>
      <trkpt lat="50.36534" lon="3.38155">
        <ele>34</ele>
        <time>2017-08-20T07:10:40Z</time>
      </trkpt>
      <trkpt lat="50.36508" lon="3.38158">
        <ele>34</ele>
        <time>2017-08-20T07:12:40Z</time>
      </trkpt>
      <trkpt lat="50.36482" lon="3.38161">
        <ele>34</ele>
        <time>2017-08-20T07:14:40Z</time>
      </trkpt>
      <trkpt lat="50.36456" lon="3.38165">
        <ele>34</ele>
        <time>2017-08-20T07:16:40Z</time>
      </trkpt>
      <trkpt lat="50.36431" lon="3.38172">
        <ele>34</ele>
        <time>2017-08-20T07:18:40Z</time>
      </trkpt>
      <trkpt lat="50.36427" lon="3.38174">
        <ele>34</ele>
        <time>2017-08-20T07:20:40Z</time>
      </trkpt>
      <trkpt lat="50.36417" lon="3.38176">
        <ele>34</ele>
        <time>2017-08-20T07:22:40Z</time>
      </trkpt>
      <trkpt lat="50.36377" lon="3.38187">
        <ele>34</ele>
        <time>2017-08-20T07:24:40Z</time>
      </trkpt>
      <trkpt lat="50.36331" lon="3.382">
        <ele>35</ele>
        <time>2017-08-20T07:26:40Z</time>
      </trkpt>
      <trkpt lat="50.36329" lon="3.382">
        <ele>35</ele>
        <time>2017-08-20T07:28:40Z</time>
      </trkpt>
      <trkpt lat="50.36301" lon="3.38206">
        <ele>35</ele>
        <time>2017-08-20T07:30:40Z</time>
      </trkpt>
      <trkpt lat="50.36278" lon="3.38208">
        <ele>35</ele>
        <time>2017-08-20T07:32:40Z</time>
      </trkpt>
      <trkpt lat="50.36252" lon="3.38207">
        <ele>35</ele>
        <time>2017-08-20T07:34:40Z</time>
      </trkpt>
      <trkpt lat="50.36218" lon="3.38204">
        <ele>35</ele>
        <time>2017-08-20T07:36:40Z</time>
      </trkpt>
      <trkpt lat="50.36182" lon="3.38199">
        <ele>35</ele>
        <time>2017-08-20T07:38:40Z</time>
      </trkpt>
      <trkpt lat="50.36148" lon="3.38192">
        <ele>35</ele>
        <time>2017-08-20T07:40:40Z</time>
      </trkpt>
      <trkpt lat="50.3612" lon="3.38189">
        <ele>35</ele>
        <time>2017-08-20T07:42:40Z</time>
      </trkpt>
      <trkpt lat="50.36112" lon="3.38189">
        <ele>35</ele>
        <time>2017-08-20T07:44:40Z</time>
      </trkpt>
      <trkpt lat="50.36099" lon="3.38189">
        <ele>35</ele>
        <time>2017-08-20T07:46:40Z</time>
      </trkpt>
      <trkpt lat="50.36081" lon="3.38195">
        <ele>35</ele>
        <time>2017-08-20T07:48:40Z</time>
      </trkpt>
      <trkpt lat="50.36058" lon="3.38206">
        <ele>35</ele>
        <time>2017-08-20T07:50:40Z</time>
      </trkpt>
      <trkpt lat="50.36031" lon="3.38222">
        <ele>36</ele>
        <time>2017-08-20T07:52:40Z</time>
      </trkpt>
      <trkpt lat="50.36012" lon="3.38233">
        <ele>36</ele>
        <time>2017-08-20T07:54:40Z</time>
      </trkpt>
      <trkpt lat="50.36003" lon="3.38239">
        <ele>36</ele>
        <time>2017-08-20T07:56:40Z</time>
      </trkpt>
      <trkpt lat="50.35972" lon="3.38254">
        <ele>36</ele>
        <time>2017-08-20T07:58:40Z</time>
      </trkpt>
      <trkpt lat="50.35949" lon="3.38263">
        <ele>36</ele>
        <time>2017-08-20T08:00:40Z</time>
      </trkpt>
      <trkpt lat="50.35923" lon="3.3827">
        <ele>36</ele>
        <time>2017-08-20T08:02:40Z</time>
      </trkpt>
      <trkpt lat="50.35912" lon="3.38271">
        <ele>36</ele>
        <time>2017-08-20T08:04:40Z</time>
      </trkpt>
      <trkpt lat="50.35893" lon="3.38274">
        <ele>35</ele>
        <time>2017-08-20T08:06:40Z</time>
      </trkpt>
      <trkpt lat="50.35856" lon="3.38276">
        <ele>35</ele>
        <time>2017-08-20T08:08:40Z</time>
      </trkpt>
      <trkpt lat="50.35795" lon="3.38277">
        <ele>35</ele>
        <time>2017-08-20T08:10:40Z</time>
      </trkpt>
      <trkpt lat="50.35785" lon="3.38277">
        <ele>35</ele>
        <time>2017-08-20T08:12:40Z</time>
      </trkpt>
      <trkpt lat="50.35713" lon="3.38278">
        <ele>36</ele>
        <time>2017-08-20T08:14:40Z</time>
      </trkpt>
      <trkpt lat="50.35682" lon="3.3828">
        <ele>36</ele>
        <time>2017-08-20T08:16:40Z</time>
      </trkpt>
      <trkpt lat="50.35664" lon="3.3828">
        <ele>36</ele>
        <time>2017-08-20T08:18:40Z</time>
      </trkpt>
      <trkpt lat="50.35645" lon="3.38277">
        <ele>36</ele>
        <time>2017-08-20T08:20:40Z</time>
      </trkpt>
      <trkpt lat="50.35635" lon="3.38275">
        <ele>36</ele>
        <time>2017-08-20T08:22:40Z</time>
      </trkpt>
      <trkpt lat="50.3562" lon="3.38272">
        <ele>36</ele>
        <time>2017-08-20T08:24:40Z</time>
      </trkpt>
      <trkpt lat="50.35543" lon="3.38254">
        <ele>37</ele>
        <time>2017-08-20T08:26:40Z</time>
      </trkpt>
      <trkpt lat="50.35488" lon="3.38243">
        <ele>38</ele>
        <time>2017-08-20T08:28:40Z</time>
      </trkpt>
      <trkpt lat="50.35462" lon="3.38238">
        <ele>38</ele>
        <time>2017-08-20T08:30:40Z</time>
      </trkpt>
      <trkpt lat="50.35444" lon="3.38239">
        <ele>38</ele>
        <time>2017-08-20T08:32:40Z</time>
      </trkpt>
      <trkpt lat="50.35426" lon="3.38244">
        <ele>38</ele>
        <time>2017-08-20T08:34:40Z</time>
      </trkpt>
      <trkpt lat="50.35426" lon="3.38244">
        <ele>38</ele>
        <time>2017-08-20T08:36:40Z</time>
      </trkpt>
      <trkpt lat="50.35425" lon="3.38211">
        <ele>38</ele>
        <time>2017-08-20T08:38:40Z</time>
      </trkpt>
      <trkpt lat="50.35425" lon="3.3817">
        <ele>38</ele>
        <time>2017-08-20T08:40:40Z</time>
      </trkpt>
      <trkpt lat="50.35426" lon="3.38156">
        <ele>38</ele>
        <time>2017-08-20T08:42:40Z</time>
      </trkpt>
      <trkpt lat="50.35426" lon="3.38152">
        <ele>38</ele>
        <time>2017-08-20T08:44:40Z</time>
      </trkpt>
      <trkpt lat="50.35427" lon="3.38134">
        <ele>38</ele>
        <time>2017-08-20T08:46:40Z</time>
      </trkpt>
      <trkpt lat="50.3543" lon="3.38083">
        <ele>38</ele>
        <time>2017-08-20T08:48:40Z</time>
      </trkpt>
      <trkpt lat="50.35437" lon="3.38005">
        <ele>38</ele>
        <time>2017-08-20T08:50:40Z</time>
      </trkpt>
      <trkpt lat="50.35443" lon="3.37926">
        <ele>39</ele>
        <time>2017-08-20T08:52:40Z</time>
      </trkpt>
      <trkpt lat="50.35446" lon="3.37869">
        <ele>39</ele>
        <time>2017-08-20T08:54:40Z</time>
      </trkpt>
      <trkpt lat="50.3545" lon="3.3782">
        <ele>39</ele>
        <time>2017-08-20T08:56:40Z</time>
      </trkpt>
      <trkpt lat="50.35453" lon="3.37788">
        <ele>40</ele>
        <time>2017-08-20T08:58:40Z</time>
      </trkpt>
      <trkpt lat="50.35455" lon="3.37721">
        <ele>40</ele>
        <time>2017-08-20T09:00:40Z</time>
      </trkpt>
      <trkpt lat="50.35457" lon="3.37664">
        <ele>41</ele>
        <time>2017-08-20T09:02:40Z</time>
      </trkpt>
      <trkpt lat="50.3546" lon="3.37612">
        <ele>40</ele>
        <time>2017-08-20T09:04:40Z</time>
      </trkpt>
      <trkpt lat="50.35462" lon="3.3757">
        <ele>40</ele>
        <time>2017-08-20T09:06:40Z</time>
      </trkpt>
      <trkpt lat="50.35462" lon="3.3756">
        <ele>40</ele>
        <time>2017-08-20T09:08:40Z</time>
      </trkpt>
      <trkpt lat="50.35466" lon="3.37514">
        <ele>40</ele>
        <time>2017-08-20T09:10:40Z</time>
      </trkpt>
      <trkpt lat="50.35473" lon="3.3747">
        <ele>41</ele>
        <time>2017-08-20T09:12:40Z</time>
      </trkpt>
      <trkpt lat="50.35482" lon="3.37422">
        <ele>41</ele>
        <time>2017-08-20T09:14:40Z</time>
      </trkpt>
      <trkpt lat="50.35488" lon="3.37382">
        <ele>41</ele>
        <time>2017-08-20T09:16:40Z</time>
      </trkpt>
      <trkpt lat="50.35491" lon="3.37357">
        <ele>41</ele>
        <time>2017-08-20T09:18:40Z</time>
      </trkpt>
      <trkpt lat="50.35499" lon="3.3732">
        <ele>41</ele>
        <time>2017-08-20T09:20:40Z</time>
      </trkpt>
      <trkpt lat="50.35502" lon="3.37305">
        <ele>40</ele>
        <time>2017-08-20T09:22:40Z</time>
      </trkpt>
      <trkpt lat="50.35507" lon="3.37276">
        <ele>40</ele>
        <time>2017-08-20T09:24:40Z</time>
      </trkpt>
      <trkpt lat="50.35515" lon="3.3724">
        <ele>39</ele>
        <time>2017-08-20T09:26:40Z</time>
      </trkpt>
      <trkpt lat="50.35518" lon="3.37229">
        <ele>39</ele>
        <time>2017-08-20T09:28:40Z</time>
      </trkpt>
      <trkpt lat="50.35518" lon="3.37229">
        <ele>39</ele>
        <time>2017-08-20T09:30:40Z</time>
      </trkpt>
      <trkpt lat="50.3552" lon="3.37223">
        <ele>39</ele>
        <time>2017-08-20T09:32:40Z</time>
      </trkpt>
      <trkpt lat="50.35536" lon="3.37175">
        <ele>38</ele>
        <time>2017-08-20T09:34:40Z</time>
      </trkpt>
      <trkpt lat="50.35549" lon="3.37134">
        <ele>38</ele>
        <time>2017-08-20T09:36:40Z</time>
      </trkpt>
      <trkpt lat="50.35558" lon="3.37105">
        <ele>38</ele>
        <time>2017-08-20T09:38:40Z</time>
      </trkpt>
      <trkpt lat="50.35563" lon="3.37088">
        <ele>37</ele>
        <time>2017-08-20T09:40:40Z</time>
      </trkpt>
      <trkpt lat="50.35575" lon="3.3705">
        <ele>37</ele>
        <time>2017-08-20T09:42:40Z</time>
      </trkpt>
      <trkpt lat="50.35583" lon="3.37025">
        <ele>36</ele>
        <time>2017-08-20T09:44:40Z</time>
      </trkpt>
      <trkpt lat="50.3559" lon="3.36995">
        <ele>36</ele>
        <time>2017-08-20T09:46:40Z</time>
      </trkpt>
      <trkpt lat="50.35596" lon="3.36966">
        <ele>35</ele>
        <time>2017-08-20T09:48:40Z</time>
      </trkpt>
      <trkpt lat="50.35602" lon="3.36918">
        <ele>35</ele>
        <time>2017-08-20T09:50:40Z</time>
      </trkpt>
      <trkpt lat="50.3561" lon="3.36868">
        <ele>35</ele>
        <time>2017-08-20T09:52:40Z</time>
      </trkpt>
      <trkpt lat="50.35614" lon="3.36834">
        <ele>35</ele>
        <time>2017-08-20T09:54:40Z</time>
      </trkpt>
      <trkpt lat="50.35615" lon="3.36805">
        <ele>34</ele>
        <time>2017-08-20T09:56:40Z</time>
      </trkpt>
      <trkpt lat="50.35615" lon="3.36773">
        <ele>34</ele>
        <time>2017-08-20T09:58:40Z</time>
      </trkpt>
      <trkpt lat="50.35613" lon="3.36736">
        <ele>34</ele>
        <time>2017-08-20T10:00:40Z</time>
      </trkpt>
      <trkpt lat="50.35609" lon="3.36669">
        <ele>34</ele>
        <time>2017-08-20T10:02:40Z</time>
      </trkpt>
      <trkpt lat="50.35605" lon="3.36621">
        <ele>34</ele>
        <time>2017-08-20T10:04:40Z</time>
      </trkpt>
      <trkpt lat="50.35601" lon="3.36582">
        <ele>34</ele>
        <time>2017-08-20T10:06:40Z</time>
      </trkpt>
      <trkpt lat="50.35599" lon="3.36548">
        <ele>34</ele>
        <time>2017-08-20T10:08:40Z</time>
      </trkpt>
      <trkpt lat="50.35598" lon="3.36528">
        <ele>34</ele>
        <time>2017-08-20T10:10:40Z</time>
      </trkpt>
      <trkpt lat="50.35598" lon="3.36507">
        <ele>34</ele>
        <time>2017-08-20T10:12:40Z</time>
      </trkpt>
      <trkpt lat="50.35602" lon="3.36482">
        <ele>34</ele>
        <time>2017-08-20T10:14:40Z</time>
      </trkpt>
      <trkpt lat="50.35611" lon="3.36404">
        <ele>33</ele>
        <time>2017-08-20T10:16:40Z</time>
      </trkpt>
      <trkpt lat="50.35616" lon="3.36368">
        <ele>33</ele>
        <time>2017-08-20T10:18:40Z</time>
      </trkpt>
      <trkpt lat="50.3562" lon="3.36334">
        <ele>33</ele>
        <time>2017-08-20T10:20:40Z</time>
      </trkpt>
      <trkpt lat="50.35622" lon="3.3631">
        <ele>33</ele>
        <time>2017-08-20T10:22:40Z</time>
      </trkpt>
      <trkpt lat="50.35623" lon="3.36302">
        <ele>33</ele>
        <time>2017-08-20T10:24:40Z</time>
      </trkpt>
      <trkpt lat="50.35633" lon="3.36216">
        <ele>32</ele>
        <time>2017-08-20T10:26:40Z</time>
      </trkpt>
      <trkpt lat="50.35639" lon="3.36189">
        <ele>31</ele>
        <time>2017-08-20T10:28:40Z</time>
      </trkpt>
      <trkpt lat="50.35648" lon="3.36163">
        <ele>31</ele>
        <time>2017-08-20T10:30:40Z</time>
      </trkpt>
      <trkpt lat="50.35654" lon="3.36144">
        <ele>30</ele>
        <time>2017-08-20T10:32:40Z</time>
      </trkpt>
      <trkpt lat="50.35666" lon="3.36096">
        <ele>29</ele>
        <time>2017-08-20T10:34:40Z</time>
      </trkpt>
      <trkpt lat="50.35681" lon="3.36049">
        <ele>29</ele>
        <time>2017-08-20T10:36:40Z</time>
      </trkpt>
      <trkpt lat="50.35694" lon="3.36002">
        <ele>29</ele>
        <time>2017-08-20T10:38:40Z</time>
      </trkpt>
      <trkpt lat="50.35699" lon="3.35979">
        <ele>29</ele>
        <time>2017-08-20T10:40:40Z</time>
      </trkpt>
      <trkpt lat="50.35703" lon="3.35947">
        <ele>29</ele>
        <time>2017-08-20T10:42:40Z</time>
      </trkpt>
      <trkpt lat="50.35708" lon="3.35889">
        <ele>29</ele>
        <time>2017-08-20T10:44:40Z</time>
      </trkpt>
      <trkpt lat="50.35714" lon="3.35837">
        <ele>28</ele>
        <time>2017-08-20T10:46:40Z</time>
      </trkpt>
      <trkpt lat="50.35714" lon="3.35826">
        <ele>28</ele>
        <time>2017-08-20T10:48:40Z</time>
      </trkpt>
      <trkpt lat="50.35714" lon="3.3582">
        <ele>28</ele>
        <time>2017-08-20T10:50:40Z</time>
      </trkpt>
      <trkpt lat="50.35713" lon="3.35815">
        <ele>28</ele>
        <time>2017-08-20T10:52:40Z</time>
      </trkpt>
      <trkpt lat="50.35713" lon="3.35815">
        <ele>28</ele>
        <time>2017-08-20T10:54:40Z</time>
      </trkpt>
      <trkpt lat="50.35722" lon="3.35799">
        <ele>28</ele>
        <time>2017-08-20T10:56:40Z</time>
      </trkpt>
      <trkpt lat="50.35737" lon="3.35776">
        <ele>27</ele>
        <time>2017-08-20T10:58:40Z</time>
      </trkpt>
      <trkpt lat="50.3575" lon="3.35763">
        <ele>26</ele>
        <time>2017-08-20T11:00:40Z</time>
      </trkpt>
      <trkpt lat="50.3575" lon="3.35763">
        <ele>26</ele>
        <time>2017-08-20T11:02:40Z</time>
      </trkpt>
      <trkpt lat="50.35747" lon="3.3575">
        <ele>26</ele>
        <time>2017-08-20T11:04:40Z</time>
      </trkpt>
      <trkpt lat="50.35747" lon="3.3575">
        <ele>26</ele>
        <time>2017-08-20T11:06:40Z</time>
      </trkpt>
      <trkpt lat="50.35752" lon="3.3574">
        <ele>26</ele>
        <time>2017-08-20T11:08:40Z</time>
      </trkpt>
      <trkpt lat="50.35758" lon="3.35711">
        <ele>26</ele>
        <time>2017-08-20T11:10:40Z</time>
      </trkpt>
      <trkpt lat="50.35777" lon="3.35627">
        <ele>25</ele>
        <time>2017-08-20T11:12:40Z</time>
      </trkpt>
      <trkpt lat="50.35779" lon="3.35616">
        <ele>24</ele>
        <time>2017-08-20T11:14:40Z</time>
      </trkpt>
      <trkpt lat="50.358" lon="3.3551">
        <ele>23</ele>
        <time>2017-08-20T11:16:40Z</time>
      </trkpt>
      <trkpt lat="50.35811" lon="3.35457">
        <ele>23</ele>
        <time>2017-08-20T11:18:40Z</time>
      </trkpt>
      <trkpt lat="50.35811" lon="3.35454">
        <ele>23</ele>
        <time>2017-08-20T11:20:40Z</time>
      </trkpt>
      <trkpt lat="50.35815" lon="3.35435">
        <ele>23</ele>
        <time>2017-08-20T11:22:40Z</time>
      </trkpt>
      <trkpt lat="50.35832" lon="3.3535">
        <ele>22</ele>
        <time>2017-08-20T11:24:40Z</time>
      </trkpt>
      <trkpt lat="50.35845" lon="3.3528">
        <ele>23</ele>
        <time>2017-08-20T11:26:40Z</time>
      </trkpt>
      <trkpt lat="50.35853" lon="3.35237">
        <ele>23</ele>
        <time>2017-08-20T11:28:40Z</time>
      </trkpt>
      <trkpt lat="50.35861" lon="3.35197">
        <ele>23</ele>
        <time>2017-08-20T11:30:40Z</time>
      </trkpt>
      <trkpt lat="50.35871" lon="3.35144">
        <ele>23</ele>
        <time>2017-08-20T11:32:40Z</time>
      </trkpt>
      <trkpt lat="50.35877" lon="3.35112">
        <ele>23</ele>
        <time>2017-08-20T11:34:40Z</time>
      </trkpt>
      <trkpt lat="50.35889" lon="3.35051">
        <ele>23</ele>
        <time>2017-08-20T11:36:40Z</time>
      </trkpt>
      <trkpt lat="50.359" lon="3.35007">
        <ele>23</ele>
        <time>2017-08-20T11:38:40Z</time>
      </trkpt>
      <trkpt lat="50.35902" lon="3.34996">
        <ele>23</ele>
        <time>2017-08-20T11:40:40Z</time>
      </trkpt>
      <trkpt lat="50.35912" lon="3.34957">
        <ele>24</ele>
        <time>2017-08-20T11:42:40Z</time>
      </trkpt>
      <trkpt lat="50.35914" lon="3.34935">
        <ele>24</ele>
        <time>2017-08-20T11:44:40Z</time>
      </trkpt>
      <trkpt lat="50.35916" lon="3.3489">
        <ele>24</ele>
        <time>2017-08-20T11:46:40Z</time>
      </trkpt>
      <trkpt lat="50.35915" lon="3.34869">
        <ele>25</ele>
        <time>2017-08-20T11:48:40Z</time>
      </trkpt>
      <trkpt lat="50.35909" lon="3.34832">
        <ele>25</ele>
        <time>2017-08-20T11:50:40Z</time>
      </trkpt>
      <trkpt lat="50.35905" lon="3.3482">
        <ele>25</ele>
        <time>2017-08-20T11:52:40Z</time>
      </trkpt>
      <trkpt lat="50.35878" lon="3.34778">
        <ele>25</ele>
        <time>2017-08-20T11:54:40Z</time>
      </trkpt>
      <trkpt lat="50.35877" lon="3.34765">
        <ele>25</ele>
        <time>2017-08-20T11:56:40Z</time>
      </trkpt>
      <trkpt lat="50.35872" lon="3.34686">
        <ele>26</ele>
        <time>2017-08-20T11:58:40Z</time>
      </trkpt>
      <trkpt lat="50.35874" lon="3.34624">
        <ele>26</ele>
        <time>2017-08-20T12:00:40Z</time>
      </trkpt>
      <trkpt lat="50.35877" lon="3.34585">
        <ele>26</ele>
        <time>2017-08-20T12:02:40Z</time>
      </trkpt>
      <trkpt lat="50.3588" lon="3.3456">
        <ele>26</ele>
        <time>2017-08-20T12:04:40Z</time>
      </trkpt>
      <trkpt lat="50.35885" lon="3.3451">
        <ele>26</ele>
        <time>2017-08-20T12:06:40Z</time>
      </trkpt>
      <trkpt lat="50.35897" lon="3.34397">
        <ele>26</ele>
        <time>2017-08-20T12:08:40Z</time>
      </trkpt>
      <trkpt lat="50.35904" lon="3.34346">
        <ele>26</ele>
        <time>2017-08-20T12:10:40Z</time>
      </trkpt>
      <trkpt lat="50.35918" lon="3.34252">
        <ele>27</ele>
        <time>2017-08-20T12:12:40Z</time>
      </trkpt>
      <trkpt lat="50.35922" lon="3.34217">
        <ele>27</ele>
        <time>2017-08-20T12:14:40Z</time>
      </trkpt>
      <trkpt lat="50.35927" lon="3.34158">
        <ele>27</ele>
        <time>2017-08-20T12:16:40Z</time>
      </trkpt>
      <trkpt lat="50.35931" lon="3.34069">
        <ele>28</ele>
        <time>2017-08-20T12:18:40Z</time>
      </trkpt>
      <trkpt lat="50.35932" lon="3.34062">
        <ele>28</ele>
        <time>2017-08-20T12:20:40Z</time>
      </trkpt>
      <trkpt lat="50.35933" lon="3.34043">
        <ele>28</ele>
        <time>2017-08-20T12:22:40Z</time>
      </trkpt>
      <trkpt lat="50.35935" lon="3.34">
        <ele>28</ele>
        <time>2017-08-20T12:24:40Z</time>
      </trkpt>
      <trkpt lat="50.35937" lon="3.33965">
        <ele>28</ele>
        <time>2017-08-20T12:26:40Z</time>
      </trkpt>
      <trkpt lat="50.35938" lon="3.33928">
        <ele>28</ele>
        <time>2017-08-20T12:28:40Z</time>
      </trkpt>
      <trkpt lat="50.3594" lon="3.33849">
        <ele>28</ele>
        <time>2017-08-20T12:30:40Z</time>
      </trkpt>
      <trkpt lat="50.35938" lon="3.33763">
        <ele>28</ele>
        <time>2017-08-20T12:32:40Z</time>
      </trkpt>
      <trkpt lat="50.35932" lon="3.33716">
        <ele>28</ele>
        <time>2017-08-20T12:34:40Z</time>
      </trkpt>
      <trkpt lat="50.35913" lon="3.33582">
        <ele>30</ele>
        <time>2017-08-20T12:36:40Z</time>
      </trkpt>
      <trkpt lat="50.35908" lon="3.33522">
        <ele>31</ele>
        <time>2017-08-20T12:38:40Z</time>
      </trkpt>
      <trkpt lat="50.35908" lon="3.33522">
        <ele>31</ele>
        <time>2017-08-20T12:40:40Z</time>
      </trkpt>
      <trkpt lat="50.35904" lon="3.33453">
        <ele>31</ele>
        <time>2017-08-20T12:42:40Z</time>
      </trkpt>
      <trkpt lat="50.359" lon="3.3339">
        <ele>31</ele>
        <time>2017-08-20T12:44:40Z</time>
      </trkpt>
      <trkpt lat="50.35897" lon="3.33322">
        <ele>31</ele>
        <time>2017-08-20T12:46:40Z</time>
      </trkpt>
      <trkpt lat="50.35893" lon="3.33249">
        <ele>31</ele>
        <time>2017-08-20T12:48:40Z</time>
      </trkpt>
      <trkpt lat="50.35893" lon="3.332">
        <ele>31</ele>
        <time>2017-08-20T12:50:40Z</time>
      </trkpt>
      <trkpt lat="50.35893" lon="3.33195">
        <ele>31</ele>
        <time>2017-08-20T12:52:40Z</time>
      </trkpt>
      <trkpt lat="50.35893" lon="3.3318">
        <ele>31</ele>
        <time>2017-08-20T12:54:40Z</time>
      </trkpt>
      <trkpt lat="50.35889" lon="3.3313">
        <ele>31</ele>
        <time>2017-08-20T12:56:40Z</time>
      </trkpt>
      <trkpt lat="50.35885" lon="3.33113">
        <ele>31</ele>
        <time>2017-08-20T12:58:40Z</time>
      </trkpt>
      <trkpt lat="50.35878" lon="3.33069">
        <ele>30</ele>
        <time>2017-08-20T13:00:40Z</time>
      </trkpt>
      <trkpt lat="50.35872" lon="3.33048">
        <ele>30</ele>
        <time>2017-08-20T13:02:40Z</time>
      </trkpt>
      <trkpt lat="50.35872" lon="3.33048">
        <ele>30</ele>
        <time>2017-08-20T13:04:40Z</time>
      </trkpt>
      <trkpt lat="50.35902" lon="3.33024">
        <ele>30</ele>
        <time>2017-08-20T13:06:40Z</time>
      </trkpt>
      <trkpt lat="50.35982" lon="3.3296">
        <ele>28</ele>
        <time>2017-08-20T13:08:40Z</time>
      </trkpt>
      <trkpt lat="50.3599" lon="3.32955">
        <ele>28</ele>
        <time>2017-08-20T13:10:40Z</time>
      </trkpt>
      <trkpt lat="50.35995" lon="3.32952">
        <ele>28</ele>
        <time>2017-08-20T13:12:40Z</time>
      </trkpt>
      <trkpt lat="50.35998" lon="3.32949">
        <ele>27</ele>
        <time>2017-08-20T13:14:40Z</time>
      </trkpt>
      <trkpt lat="50.36001" lon="3.32948">
        <ele>27</ele>
        <time>2017-08-20T13:16:40Z</time>
      </trkpt>
      <trkpt lat="50.36005" lon="3.32948">
        <ele>27</ele>
        <time>2017-08-20T13:18:40Z</time>
      </trkpt>
      <trkpt lat="50.36007" lon="3.32948">
        <ele>27</ele>
        <time>2017-08-20T13:20:40Z</time>
      </trkpt>
      <trkpt lat="50.3601" lon="3.32948">
        <ele>27</ele>
        <time>2017-08-20T13:22:40Z</time>
      </trkpt>
      <trkpt lat="50.36011" lon="3.32947">
        <ele>27</ele>
        <time>2017-08-20T13:24:40Z</time>
      </trkpt>
      <trkpt lat="50.36013" lon="3.32945">
        <ele>27</ele>
        <time>2017-08-20T13:26:40Z</time>
      </trkpt>
      <trkpt lat="50.36013" lon="3.32945">
        <ele>27</ele>
        <time>2017-08-20T13:28:40Z</time>
      </trkpt>
      <trkpt lat="50.3602" lon="3.32915">
        <ele>27</ele>
        <time>2017-08-20T13:30:40Z</time>
      </trkpt>
      <trkpt lat="50.36025" lon="3.32907">
        <ele>27</ele>
        <time>2017-08-20T13:32:40Z</time>
      </trkpt>
      <trkpt lat="50.36086" lon="3.32857">
        <ele>27</ele>
        <time>2017-08-20T13:34:40Z</time>
      </trkpt>
      <trkpt lat="50.36088" lon="3.32856">
        <ele>27</ele>
        <time>2017-08-20T13:36:40Z</time>
      </trkpt>
      <trkpt lat="50.36092" lon="3.32856">
        <ele>27</ele>
        <time>2017-08-20T13:38:40Z</time>
      </trkpt>
      <trkpt lat="50.36094" lon="3.32856">
        <ele>27</ele>
        <time>2017-08-20T13:40:40Z</time>
      </trkpt>
      <trkpt lat="50.36097" lon="3.32857">
        <ele>27</ele>
        <time>2017-08-20T13:42:40Z</time>
      </trkpt>
      <trkpt lat="50.361" lon="3.32859">
        <ele>27</ele>
        <time>2017-08-20T13:44:40Z</time>
      </trkpt>
      <trkpt lat="50.36102" lon="3.3286">
        <ele>27</ele>
        <time>2017-08-20T13:46:40Z</time>
      </trkpt>
      <trkpt lat="50.36105" lon="3.32858">
        <ele>27</ele>
        <time>2017-08-20T13:48:40Z</time>
      </trkpt>
      <trkpt lat="50.36107" lon="3.32856">
        <ele>27</ele>
        <time>2017-08-20T13:50:40Z</time>
      </trkpt>
      <trkpt lat="50.36111" lon="3.32852">
        <ele>27</ele>
        <time>2017-08-20T13:52:40Z</time>
      </trkpt>
      <trkpt lat="50.36156" lon="3.32818">
        <ele>27</ele>
        <time>2017-08-20T13:54:40Z</time>
      </trkpt>
      <trkpt lat="50.36184" lon="3.32798">
        <ele>26</ele>
        <time>2017-08-20T13:56:40Z</time>
      </trkpt>
      <trkpt lat="50.36201" lon="3.32781">
        <ele>26</ele>
        <time>2017-08-20T13:58:40Z</time>
      </trkpt>
      <trkpt lat="50.36472" lon="3.32564">
        <ele>21</ele>
        <time>2017-08-20T14:00:40Z</time>
      </trkpt>
      <trkpt lat="50.36513" lon="3.32538">
        <ele>21</ele>
        <time>2017-08-20T14:02:40Z</time>
      </trkpt>
      <trkpt lat="50.36512" lon="3.32536">
        <ele>21</ele>
        <time>2017-08-20T14:04:40Z</time>
      </trkpt>
      <trkpt lat="50.36532" lon="3.32523">
        <ele>21</ele>
        <time>2017-08-20T14:06:40Z</time>
      </trkpt>
      <trkpt lat="50.36614" lon="3.32473">
        <ele>21</ele>
        <time>2017-08-20T14:08:40Z</time>
      </trkpt>
      <trkpt lat="50.36698" lon="3.32421">
        <ele>20</ele>
        <time>2017-08-20T14:10:40Z</time>
      </trkpt>
      <trkpt lat="50.36749" lon="3.3239">
        <ele>20</ele>
        <time>2017-08-20T14:12:40Z</time>
      </trkpt>
      <trkpt lat="50.36782" lon="3.32374">
        <ele>20</ele>
        <time>2017-08-20T14:14:40Z</time>
      </trkpt>
      <trkpt lat="50.36809" lon="3.32364">
        <ele>19</ele>
        <time>2017-08-20T14:16:40Z</time>
      </trkpt>
      <trkpt lat="50.36833" lon="3.32358">
        <ele>19</ele>
        <time>2017-08-20T14:18:40Z</time>
      </trkpt>
      <trkpt lat="50.36855" lon="3.32356">
        <ele>19</ele>
        <time>2017-08-20T14:20:40Z</time>
      </trkpt>
      <trkpt lat="50.36878" lon="3.32356">
        <ele>18</ele>
        <time>2017-08-20T14:22:40Z</time>
      </trkpt>
      <trkpt lat="50.36904" lon="3.32359">
        <ele>18</ele>
        <time>2017-08-20T14:24:40Z</time>
      </trkpt>
      <trkpt lat="50.36937" lon="3.32368">
        <ele>18</ele>
        <time>2017-08-20T14:26:40Z</time>
      </trkpt>
      <trkpt lat="50.36977" lon="3.32383">
        <ele>18</ele>
        <time>2017-08-20T14:28:40Z</time>
      </trkpt>
      <trkpt lat="50.36992" lon="3.3239">
        <ele>18</ele>
        <time>2017-08-20T14:30:40Z</time>
      </trkpt>
      <trkpt lat="50.37" lon="3.32398">
        <ele>18</ele>
        <time>2017-08-20T14:32:40Z</time>
      </trkpt>
      <trkpt lat="50.37011" lon="3.32411">
        <ele>18</ele>
        <time>2017-08-20T14:34:40Z</time>
      </trkpt>
      <trkpt lat="50.37019" lon="3.3242">
        <ele>18</ele>
        <time>2017-08-20T14:36:40Z</time>
      </trkpt>
      <trkpt lat="50.37026" lon="3.32426">
        <ele>18</ele>
        <time>2017-08-20T14:38:40Z</time>
      </trkpt>
      <trkpt lat="50.37026" lon="3.32426">
        <ele>18</ele>
        <time>2017-08-20T14:40:40Z</time>
      </trkpt>
      <trkpt lat="50.37025" lon="3.3242">
        <ele>18</ele>
        <time>2017-08-20T14:42:40Z</time>
      </trkpt>
      <trkpt lat="50.37025" lon="3.32408">
        <ele>18</ele>
        <time>2017-08-20T14:44:40Z</time>
      </trkpt>
      <trkpt lat="50.37018" lon="3.32265">
        <ele>19</ele>
        <time>2017-08-20T14:46:40Z</time>
      </trkpt>
      <trkpt lat="50.37016" lon="3.3224">
        <ele>19</ele>
        <time>2017-08-20T14:48:40Z</time>
      </trkpt>
      <trkpt lat="50.37016" lon="3.32231">
        <ele>19</ele>
        <time>2017-08-20T14:50:40Z</time>
      </trkpt>
      <trkpt lat="50.37016" lon="3.32229">
        <ele>19</ele>
        <time>2017-08-20T14:52:40Z</time>
      </trkpt>
      <trkpt lat="50.37016" lon="3.32227">
        <ele>19</ele>
        <time>2017-08-20T14:54:40Z</time>
      </trkpt>
      <trkpt lat="50.37016" lon="3.3222">
        <ele>19</ele>
        <time>2017-08-20T14:56:40Z</time>
      </trkpt>
      <trkpt lat="50.37014" lon="3.32138">
        <ele>19</ele>
        <time>2017-08-20T14:58:40Z</time>
      </trkpt>
      <trkpt lat="50.37012" lon="3.3212">
        <ele>19</ele>
        <time>2017-08-20T15:00:40Z</time>
      </trkpt>
      <trkpt lat="50.37012" lon="3.3211">
        <ele>19</ele>
        <time>2017-08-20T15:02:40Z</time>
      </trkpt>
      <trkpt lat="50.3701" lon="3.32101">
        <ele>19</ele>
        <time>2017-08-20T15:04:40Z</time>
      </trkpt>
      <trkpt lat="50.37005" lon="3.3209">
        <ele>19</ele>
        <time>2017-08-20T15:06:40Z</time>
      </trkpt>
      <trkpt lat="50.37002" lon="3.32088">
        <ele>19</ele>
        <time>2017-08-20T15:08:40Z</time>
      </trkpt>
      <trkpt lat="50.36995" lon="3.32083">
        <ele>19</ele>
        <time>2017-08-20T15:10:40Z</time>
      </trkpt>
      <trkpt lat="50.36986" lon="3.32074">
        <ele>19</ele>
        <time>2017-08-20T15:12:40Z</time>
      </trkpt>
      <trkpt lat="50.36982" lon="3.32064">
        <ele>19</ele>
        <time>2017-08-20T15:14:40Z</time>
      </trkpt>
      <trkpt lat="50.36976" lon="3.32022">
        <ele>19</ele>
        <time>2017-08-20T15:16:40Z</time>
      </trkpt>
      <trkpt lat="50.36964" lon="3.31964">
        <ele>19</ele>
        <time>2017-08-20T15:18:40Z</time>
      </trkpt>
      <trkpt lat="50.36945" lon="3.31909">
        <ele>20</ele>
        <time>2017-08-20T15:20:40Z</time>
      </trkpt>
      <trkpt lat="50.36936" lon="3.31891">
        <ele>20</ele>
        <time>2017-08-20T15:22:40Z</time>
      </trkpt>
      <trkpt lat="50.36928" lon="3.3188">
        <ele>20</ele>
        <time>2017-08-20T15:24:40Z</time>
      </trkpt>
      <trkpt lat="50.36917" lon="3.31871">
        <ele>20</ele>
        <time>2017-08-20T15:26:40Z</time>
      </trkpt>
      <trkpt lat="50.36869" lon="3.31848">
        <ele>20</ele>
        <time>2017-08-20T15:28:40Z</time>
      </trkpt>
      <trkpt lat="50.36863" lon="3.31843">
        <ele>20</ele>
        <time>2017-08-20T15:30:40Z</time>
      </trkpt>
      <trkpt lat="50.36857" lon="3.31836">
        <ele>20</ele>
        <time>2017-08-20T15:32:40Z</time>
      </trkpt>
      <trkpt lat="50.36852" lon="3.31828">
        <ele>20</ele>
        <time>2017-08-20T15:34:40Z</time>
      </trkpt>
      <trkpt lat="50.36849" lon="3.31822">
        <ele>20</ele>
        <time>2017-08-20T15:36:40Z</time>
      </trkpt>
      <trkpt lat="50.36826" lon="3.31764">
        <ele>20</ele>
        <time>2017-08-20T15:38:40Z</time>
      </trkpt>
      <trkpt lat="50.36815" lon="3.31732">
        <ele>20</ele>
        <time>2017-08-20T15:40:40Z</time>
      </trkpt>
      <trkpt lat="50.36812" lon="3.31714">
        <ele>20</ele>
        <time>2017-08-20T15:42:40Z</time>
      </trkpt>
      <trkpt lat="50.36812" lon="3.31714">
        <ele>20</ele>
        <time>2017-08-20T15:44:40Z</time>
      </trkpt>
      <trkpt lat="50.36821" lon="3.31706">
        <ele>20</ele>
        <time>2017-08-20T15:46:40Z</time>
      </trkpt>
      <trkpt lat="50.36861" lon="3.31682">
        <ele>21</ele>
        <time>2017-08-20T15:48:40Z</time>
      </trkpt>
      <trkpt lat="50.36938" lon="3.31641">
        <ele>22</ele>
        <time>2017-08-20T15:50:40Z</time>
      </trkpt>
      <trkpt lat="50.37023" lon="3.31598">
        <ele>19</ele>
        <time>2017-08-20T15:52:40Z</time>
      </trkpt>
      <trkpt lat="50.3715" lon="3.31531">
        <ele>19</ele>
        <time>2017-08-20T15:54:40Z</time>
      </trkpt>
      <trkpt lat="50.3722" lon="3.31493">
        <ele>19</ele>
        <time>2017-08-20T15:56:40Z</time>
      </trkpt>
      <trkpt lat="50.37262" lon="3.31471">
        <ele>19</ele>
        <time>2017-08-20T15:58:40Z</time>
      </trkpt>
      <trkpt lat="50.37287" lon="3.31458">
        <ele>19</ele>
        <time>2017-08-20T16:00:40Z</time>
      </trkpt>
      <trkpt lat="50.37299" lon="3.31453">
        <ele>19</ele>
        <time>2017-08-20T16:02:40Z</time>
      </trkpt>
      <trkpt lat="50.37307" lon="3.31453">
        <ele>19</ele>
        <time>2017-08-20T16:04:40Z</time>
      </trkpt>
      <trkpt lat="50.37314" lon="3.31454">
        <ele>19</ele>
        <time>2017-08-20T16:06:40Z</time>
      </trkpt>
      <trkpt lat="50.37321" lon="3.31458">
        <ele>19</ele>
        <time>2017-08-20T16:08:40Z</time>
      </trkpt>
      <trkpt lat="50.3733" lon="3.31463">
        <ele>20</ele>
        <time>2017-08-20T16:10:40Z</time>
      </trkpt>
      <trkpt lat="50.37338" lon="3.3147">
        <ele>20</ele>
        <time>2017-08-20T16:12:40Z</time>
      </trkpt>
      <trkpt lat="50.3736" lon="3.31488">
        <ele>20</ele>
        <time>2017-08-20T16:14:40Z</time>
      </trkpt>
      <trkpt lat="50.37386" lon="3.31508">
        <ele>19</ele>
        <time>2017-08-20T16:16:40Z</time>
      </trkpt>
      <trkpt lat="50.3741" lon="3.31529">
        <ele>19</ele>
        <time>2017-08-20T16:18:40Z</time>
      </trkpt>
      <trkpt lat="50.37482" lon="3.3159">
        <ele>19</ele>
        <time>2017-08-20T16:20:40Z</time>
      </trkpt>
      <trkpt lat="50.37531" lon="3.31633">
        <ele>18</ele>
        <time>2017-08-20T16:22:40Z</time>
      </trkpt>
      <trkpt lat="50.37561" lon="3.31654">
        <ele>18</ele>
        <time>2017-08-20T16:24:40Z</time>
      </trkpt>
      <trkpt lat="50.37634" lon="3.31699">
        <ele>18</ele>
        <time>2017-08-20T16:26:40Z</time>
      </trkpt>
      <trkpt lat="50.37667" lon="3.31721">
        <ele>18</ele>
        <time>2017-08-20T16:28:40Z</time>
      </trkpt>
      <trkpt lat="50.37692" lon="3.31737">
        <ele>18</ele>
        <time>2017-08-20T16:30:40Z</time>
      </trkpt>
      <trkpt lat="50.37706" lon="3.31746">
        <ele>18</ele>
        <time>2017-08-20T16:32:40Z</time>
      </trkpt>
      <trkpt lat="50.37717" lon="3.31752">
        <ele>18</ele>
        <time>2017-08-20T16:34:40Z</time>
      </trkpt>
      <trkpt lat="50.37726" lon="3.31754">
        <ele>18</ele>
        <time>2017-08-20T16:36:40Z</time>
      </trkpt>
      <trkpt lat="50.37735" lon="3.31753">
        <ele>18</ele>
        <time>2017-08-20T16:38:40Z</time>
      </trkpt>
      <trkpt lat="50.3775" lon="3.31751">
        <ele>18</ele>
        <time>2017-08-20T16:40:40Z</time>
      </trkpt>
      <trkpt lat="50.37779" lon="3.31745">
        <ele>18</ele>
        <time>2017-08-20T16:42:40Z</time>
      </trkpt>
      <trkpt lat="50.37815" lon="3.31739">
        <ele>18</ele>
        <time>2017-08-20T16:44:40Z</time>
      </trkpt>
      <trkpt lat="50.37842" lon="3.31735">
        <ele>18</ele>
        <time>2017-08-20T16:46:40Z</time>
      </trkpt>
      <trkpt lat="50.37855" lon="3.31733">
        <ele>18</ele>
        <time>2017-08-20T16:48:40Z</time>
      </trkpt>
      <trkpt lat="50.37862" lon="3.31731">
        <ele>18</ele>
        <time>2017-08-20T16:50:40Z</time>
      </trkpt>
      <trkpt lat="50.37888" lon="3.31719">
        <ele>18</ele>
        <time>2017-08-20T16:52:40Z</time>
      </trkpt>
      <trkpt lat="50.37905" lon="3.31714">
        <ele>18</ele>
        <time>2017-08-20T16:54:40Z</time>
      </trkpt>
      <trkpt lat="50.37926" lon="3.31708">
        <ele>18</ele>
        <time>2017-08-20T16:56:40Z</time>
      </trkpt>
      <trkpt lat="50.37949" lon="3.31705">
        <ele>17</ele>
        <time>2017-08-20T16:58:40Z</time>
      </trkpt>
      <trkpt lat="50.38053" lon="3.31694">
        <ele>17</ele>
        <time>2017-08-20T17:00:40Z</time>
      </trkpt>
      <trkpt lat="50.38056" lon="3.31694">
        <ele>17</ele>
        <time>2017-08-20T17:02:40Z</time>
      </trkpt>
      <trkpt lat="50.38078" lon="3.31692">
        <ele>17</ele>
        <time>2017-08-20T17:04:40Z</time>
      </trkpt>
      <trkpt lat="50.38136" lon="3.31686">
        <ele>17</ele>
        <time>2017-08-20T17:06:40Z</time>
      </trkpt>
      <trkpt lat="50.38169" lon="3.31682">
        <ele>17</ele>
        <time>2017-08-20T17:08:40Z</time>
      </trkpt>
      <trkpt lat="50.3819" lon="3.31678">
        <ele>17</ele>
        <time>2017-08-20T17:10:40Z</time>
      </trkpt>
      <trkpt lat="50.38213" lon="3.31674">
        <ele>17</ele>
        <time>2017-08-20T17:12:40Z</time>
      </trkpt>
      <trkpt lat="50.38241" lon="3.31669">
        <ele>17</ele>
        <time>2017-08-20T17:14:40Z</time>
      </trkpt>
      <trkpt lat="50.38278" lon="3.31663">
        <ele>17</ele>
        <time>2017-08-20T17:16:40Z</time>
      </trkpt>
      <trkpt lat="50.38304" lon="3.3166">
        <ele>17</ele>
        <time>2017-08-20T17:18:40Z</time>
      </trkpt>
      <trkpt lat="50.3832" lon="3.31654">
        <ele>17</ele>
        <time>2017-08-20T17:20:40Z</time>
      </trkpt>
      <trkpt lat="50.38331" lon="3.31649">
        <ele>17</ele>
        <time>2017-08-20T17:22:40Z</time>
      </trkpt>
      <trkpt lat="50.38347" lon="3.31641">
        <ele>17</ele>
        <time>2017-08-20T17:24:40Z</time>
      </trkpt>
      <trkpt lat="50.38357" lon="3.31639">
        <ele>17</ele>
        <time>2017-08-20T17:26:40Z</time>
      </trkpt>
      <trkpt lat="50.38379" lon="3.31634">
        <ele>16</ele>
        <time>2017-08-20T17:28:40Z</time>
      </trkpt>
      <trkpt lat="50.38552" lon="3.31609">
        <ele>16</ele>
        <time>2017-08-20T17:30:40Z</time>
      </trkpt>
      <trkpt lat="50.38574" lon="3.31607">
        <ele>16</ele>
        <time>2017-08-20T17:32:40Z</time>
      </trkpt>
      <trkpt lat="50.38589" lon="3.31608">
        <ele>16</ele>
        <time>2017-08-20T17:34:40Z</time>
      </trkpt>
      <trkpt lat="50.38601" lon="3.3161">
        <ele>16</ele>
        <time>2017-08-20T17:36:40Z</time>
      </trkpt>
      <trkpt lat="50.38614" lon="3.31617">
        <ele>16</ele>
        <time>2017-08-20T17:38:40Z</time>
      </trkpt>
      <trkpt lat="50.3871" lon="3.31672">
        <ele>15</ele>
        <time>2017-08-20T17:40:40Z</time>
      </trkpt>
      <trkpt lat="50.38719" lon="3.31675">
        <ele>15</ele>
        <time>2017-08-20T17:42:40Z</time>
      </trkpt>
      <trkpt lat="50.3873" lon="3.31677">
        <ele>15</ele>
        <time>2017-08-20T17:44:40Z</time>
      </trkpt>
      <trkpt lat="50.38744" lon="3.31677">
        <ele>15</ele>
        <time>2017-08-20T17:46:40Z</time>
      </trkpt>
      <trkpt lat="50.3875" lon="3.31678">
        <ele>15</ele>
        <time>2017-08-20T17:48:40Z</time>
      </trkpt>
      <trkpt lat="50.38766" lon="3.31678">
        <ele>15</ele>
        <time>2017-08-20T17:50:40Z</time>
      </trkpt>
      <trkpt lat="50.38777" lon="3.31679">
        <ele>15</ele>
        <time>2017-08-20T17:52:40Z</time>
      </trkpt>
      <trkpt lat="50.38832" lon="3.31679">
        <ele>15</ele>
        <time>2017-08-20T17:54:40Z</time>
      </trkpt>
      <trkpt lat="50.38903" lon="3.3168">
        <ele>14</ele>
        <time>2017-08-20T17:56:40Z</time>
      </trkpt>
      <trkpt lat="50.38922" lon="3.3168">
        <ele>14</ele>
        <time>2017-08-20T17:58:40Z</time>
      </trkpt>
      <trkpt lat="50.38929" lon="3.3168">
        <ele>15</ele>
        <time>2017-08-20T18:00:40Z</time>
      </trkpt>
      <trkpt lat="50.38931" lon="3.3168">
        <ele>15</ele>
        <time>2017-08-20T18:02:40Z</time>
      </trkpt>
      <trkpt lat="50.3894" lon="3.31678">
        <ele>15</ele>
        <time>2017-08-20T18:04:40Z</time>
      </trkpt>
      <trkpt lat="50.38953" lon="3.31674">
        <ele>15</ele>
        <time>2017-08-20T18:06:40Z</time>
      </trkpt>
      <trkpt lat="50.38978" lon="3.31665">
        <ele>15</ele>
        <time>2017-08-20T18:08:40Z</time>
      </trkpt>
      <trkpt lat="50.39022" lon="3.31652">
        <ele>16</ele>
        <time>2017-08-20T18:10:40Z</time>
      </trkpt>
      <trkpt lat="50.39122" lon="3.31626">
        <ele>16</ele>
        <time>2017-08-20T18:12:40Z</time>
      </trkpt>
      <trkpt lat="50.39208" lon="3.31604">
        <ele>17</ele>
        <time>2017-08-20T18:14:40Z</time>
      </trkpt>
      <trkpt lat="50.39229" lon="3.31598">
        <ele>17</ele>
        <time>2017-08-20T18:16:40Z</time>
      </trkpt>
      <trkpt lat="50.39286" lon="3.3158">
        <ele>16</ele>
        <time>2017-08-20T18:18:40Z</time>
      </trkpt>
      <trkpt lat="50.39324" lon="3.3157">
        <ele>16</ele>
        <time>2017-08-20T18:20:40Z</time>
      </trkpt>
      <trkpt lat="50.3936" lon="3.31559">
        <ele>16</ele>
        <time>2017-08-20T18:22:40Z</time>
      </trkpt>
      <trkpt lat="50.39364" lon="3.31557">
        <ele>16</ele>
        <time>2017-08-20T18:24:40Z</time>
      </trkpt>
      <trkpt lat="50.3937" lon="3.31556">
        <ele>16</ele>
        <time>2017-08-20T18:26:40Z</time>
      </trkpt>
      <trkpt lat="50.39374" lon="3.31555">
        <ele>16</ele>
        <time>2017-08-20T18:28:40Z</time>
      </trkpt>
      <trkpt lat="50.39432" lon="3.31535">
        <ele>16</ele>
        <time>2017-08-20T18:30:40Z</time>
      </trkpt>
      <trkpt lat="50.39432" lon="3.31535">
        <ele>16</ele>
        <time>2017-08-20T18:32:40Z</time>
      </trkpt>
      <trkpt lat="50.39429" lon="3.31506">
        <ele>16</ele>
        <time>2017-08-20T18:34:40Z</time>
      </trkpt>
      <trkpt lat="50.39426" lon="3.31478">
        <ele>16</ele>
        <time>2017-08-20T18:36:40Z</time>
      </trkpt>
      <trkpt lat="50.39415" lon="3.31358">
        <ele>16</ele>
        <time>2017-08-20T18:38:40Z</time>
      </trkpt>
      <trkpt lat="50.39414" lon="3.31357">
        <ele>16</ele>
        <time>2017-08-20T18:40:40Z</time>
      </trkpt>
      <trkpt lat="50.39408" lon="3.31358">
        <ele>16</ele>
        <time>2017-08-20T18:42:40Z</time>
      </trkpt>
      <trkpt lat="50.39362" lon="3.31369">
        <ele>15</ele>
        <time>2017-08-20T18:44:40Z</time>
      </trkpt>
      <trkpt lat="50.39358" lon="3.31369">
        <ele>15</ele>
        <time>2017-08-20T18:46:40Z</time>
      </trkpt>
      <trkpt lat="50.39354" lon="3.31365">
        <ele>14</ele>
        <time>2017-08-20T18:48:40Z</time>
      </trkpt>
      <trkpt lat="50.39352" lon="3.31354">
        <ele>14</ele>
        <time>2017-08-20T18:50:40Z</time>
      </trkpt>
      <trkpt lat="50.39336" lon="3.31182">
        <ele>15</ele>
        <time>2017-08-20T18:52:40Z</time>
      </trkpt>
      <trkpt lat="50.39333" lon="3.31153">
        <ele>15</ele>
        <time>2017-08-20T18:54:40Z</time>
      </trkpt>
      <trkpt lat="50.39332" lon="3.31139">
        <ele>15</ele>
        <time>2017-08-20T18:56:40Z</time>
      </trkpt>
      <trkpt lat="50.3933" lon="3.31129">
        <ele>15</ele>
        <time>2017-08-20T18:58:40Z</time>
      </trkpt>
      <trkpt lat="50.39329" lon="3.31124">
        <ele>15</ele>
        <time>2017-08-20T19:00:40Z</time>
      </trkpt>
      <trkpt lat="50.39327" lon="3.3112">
        <ele>15</ele>
        <time>2017-08-20T19:02:40Z</time>
      </trkpt>
      <trkpt lat="50.39323" lon="3.31119">
        <ele>15</ele>
        <time>2017-08-20T19:04:40Z</time>
      </trkpt>
      <trkpt lat="50.39323" lon="3.31119">
        <ele>15</ele>
        <time>2017-08-20T19:06:40Z</time>
      </trkpt>
      <trkpt lat="50.39315" lon="3.31123">
        <ele>15</ele>
        <time>2017-08-20T19:08:40Z</time>
      </trkpt>
      <trkpt lat="50.39311" lon="3.31126">
        <ele>15</ele>
        <time>2017-08-20T19:10:40Z</time>
      </trkpt>
      <trkpt lat="50.39305" lon="3.31127">
        <ele>15</ele>
        <time>2017-08-20T19:12:40Z</time>
      </trkpt>
      <trkpt lat="50.39299" lon="3.31129">
        <ele>15</ele>
        <time>2017-08-20T19:14:40Z</time>
      </trkpt>
      <trkpt lat="50.39293" lon="3.31131">
        <ele>15</ele>
        <time>2017-08-20T19:16:40Z</time>
      </trkpt>
      <trkpt lat="50.39289" lon="3.31132">
        <ele>15</ele>
        <time>2017-08-20T19:18:40Z</time>
      </trkpt>
      <trkpt lat="50.39286" lon="3.31131">
        <ele>15</ele>
        <time>2017-08-20T19:20:40Z</time>
      </trkpt>
      <trkpt lat="50.39282" lon="3.31117">
        <ele>15</ele>
        <time>2017-08-20T19:22:40Z</time>
      </trkpt>
      <trkpt lat="50.3928" lon="3.31097">
        <ele>15</ele>
        <time>2017-08-20T19:24:40Z</time>
      </trkpt>
      <trkpt lat="50.39275" lon="3.31082">
        <ele>15</ele>
        <time>2017-08-20T19:26:40Z</time>
      </trkpt>
      <trkpt lat="50.3927" lon="3.31076">
        <ele>15</ele>
        <time>2017-08-20T19:28:40Z</time>
      </trkpt>
      <trkpt lat="50.39266" lon="3.31073">
        <ele>15</ele>
        <time>2017-08-20T19:30:40Z</time>
      </trkpt>
      <trkpt lat="50.39262" lon="3.31065">
        <ele>15</ele>
        <time>2017-08-20T19:32:40Z</time>
      </trkpt>
      <trkpt lat="50.39236" lon="3.30965">
        <ele>15</ele>
        <time>2017-08-20T19:34:40Z</time>
      </trkpt>
      <trkpt lat="50.39226" lon="3.30849">
        <ele>16</ele>
        <time>2017-08-20T19:36:40Z</time>
      </trkpt>
      <trkpt lat="50.39215" lon="3.30727">
        <ele>15</ele>
        <time>2017-08-20T19:38:40Z</time>
      </trkpt>
      <trkpt lat="50.39198" lon="3.30555">
        <ele>15</ele>
        <time>2017-08-20T19:40:40Z</time>
      </trkpt>
      <trkpt lat="50.39198" lon="3.30555">
        <ele>15</ele>
        <time>2017-08-20T19:42:40Z</time>
      </trkpt>
      <trkpt lat="50.39203" lon="3.30554">
        <ele>15</ele>
        <time>2017-08-20T19:44:40Z</time>
      </trkpt>
      <trkpt lat="50.39205" lon="3.30552">
        <ele>15</ele>
        <time>2017-08-20T19:46:40Z</time>
      </trkpt>
      <trkpt lat="50.39206" lon="3.30548">
        <ele>15</ele>
        <time>2017-08-20T19:48:40Z</time>
      </trkpt>
      <trkpt lat="50.39206" lon="3.30544">
        <ele>15</ele>
        <time>2017-08-20T19:50:40Z</time>
      </trkpt>
      <trkpt lat="50.39168" lon="3.30159">
        <ele>16</ele>
        <time>2017-08-20T19:52:40Z</time>
      </trkpt>
      <trkpt lat="50.39168" lon="3.30152">
        <ele>16</ele>
        <time>2017-08-20T19:54:40Z</time>
      </trkpt>
      <trkpt lat="50.39169" lon="3.30147">
        <ele>16</ele>
        <time>2017-08-20T19:56:40Z</time>
      </trkpt>
      <trkpt lat="50.39172" lon="3.30145">
        <ele>16</ele>
        <time>2017-08-20T19:58:40Z</time>
      </trkpt>
      <trkpt lat="50.39174" lon="3.30143">
        <ele>16</ele>
        <time>2017-08-20T20:00:40Z</time>
      </trkpt>
      <trkpt lat="50.39263" lon="3.3012">
        <ele>19</ele>
        <time>2017-08-20T20:02:40Z</time>
      </trkpt>
      <trkpt lat="50.3929" lon="3.30112">
        <ele>19</ele>
        <time>2017-08-20T20:04:40Z</time>
      </trkpt>
      <trkpt lat="50.3931" lon="3.30107">
        <ele>19</ele>
        <time>2017-08-20T20:06:40Z</time>
      </trkpt>
      <trkpt lat="50.39357" lon="3.30094">
        <ele>19</ele>
        <time>2017-08-20T20:08:40Z</time>
      </trkpt>
      <trkpt lat="50.39388" lon="3.30086">
        <ele>18</ele>
        <time>2017-08-20T20:10:40Z</time>
      </trkpt>
      <trkpt lat="50.39411" lon="3.3008">
        <ele>17</ele>
        <time>2017-08-20T20:12:40Z</time>
      </trkpt>
      <trkpt lat="50.39492" lon="3.30058">
        <ele>16</ele>
        <time>2017-08-20T20:14:40Z</time>
      </trkpt>
      <trkpt lat="50.39556" lon="3.3004">
        <ele>15</ele>
        <time>2017-08-20T20:16:40Z</time>
      </trkpt>
      <trkpt lat="50.3958" lon="3.30034">
        <ele>14</ele>
        <time>2017-08-20T20:18:40Z</time>
      </trkpt>
      <trkpt lat="50.39586" lon="3.30035">
        <ele>14</ele>
        <time>2017-08-20T20:20:40Z</time>
      </trkpt>
      <trkpt lat="50.39586" lon="3.30035">
        <ele>14</ele>
        <time>2017-08-20T20:22:40Z</time>
      </trkpt>
      <trkpt lat="50.39583" lon="3.30017">
        <ele>14</ele>
        <time>2017-08-20T20:24:40Z</time>
      </trkpt>
      <trkpt lat="50.39579" lon="3.29986">
        <ele>14</ele>
        <time>2017-08-20T20:26:40Z</time>
      </trkpt>
      <trkpt lat="50.39574" lon="3.29954">
        <ele>15</ele>
        <time>2017-08-20T20:28:40Z</time>
      </trkpt>
      <trkpt lat="50.39571" lon="3.29934">
        <ele>15</ele>
        <time>2017-08-20T20:30:40Z</time>
      </trkpt>
      <trkpt lat="50.39568" lon="3.29913">
        <ele>15</ele>
        <time>2017-08-20T20:32:40Z</time>
      </trkpt>
      <trkpt lat="50.39564" lon="3.29895">
        <ele>15</ele>
        <time>2017-08-20T20:34:40Z</time>
      </trkpt>
      <trkpt lat="50.39563" lon="3.29884">
        <ele>15</ele>
        <time>2017-08-20T20:36:40Z</time>
      </trkpt>
      <trkpt lat="50.39562" lon="3.29878">
        <ele>15</ele>
        <time>2017-08-20T20:38:40Z</time>
      </trkpt>
      <trkpt lat="50.3956" lon="3.29857">
        <ele>15</ele>
        <time>2017-08-20T20:40:40Z</time>
      </trkpt>
      <trkpt lat="50.39543" lon="3.2971">
        <ele>15</ele>
        <time>2017-08-20T20:42:40Z</time>
      </trkpt>
      <trkpt lat="50.39533" lon="3.29624">
        <ele>16</ele>
        <time>2017-08-20T20:44:40Z</time>
      </trkpt>
      <trkpt lat="50.39527" lon="3.29565">
        <ele>17</ele>
        <time>2017-08-20T20:46:40Z</time>
      </trkpt>
      <trkpt lat="50.39526" lon="3.29557">
        <ele>17</ele>
        <time>2017-08-20T20:48:40Z</time>
      </trkpt>
      <trkpt lat="50.39524" lon="3.29536">
        <ele>18</ele>
        <time>2017-08-20T20:50:40Z</time>
      </trkpt>
      <trkpt lat="50.39519" lon="3.29492">
        <ele>18</ele>
        <time>2017-08-20T20:52:40Z</time>
      </trkpt>
      <trkpt lat="50.39519" lon="3.29491">
        <ele>18</ele>
        <time>2017-08-20T20:54:40Z</time>
      </trkpt>
      <trkpt lat="50.39512" lon="3.29422">
        <ele>18</ele>
        <time>2017-08-20T20:56:40Z</time>
      </trkpt>
      <trkpt lat="50.39512" lon="3.29416">
        <ele>18</ele>
        <time>2017-08-20T20:58:40Z</time>
      </trkpt>
      <trkpt lat="50.39513" lon="3.2941">
        <ele>17</ele>
        <time>2017-08-20T21:00:40Z</time>
      </trkpt>
      <trkpt lat="50.39515" lon="3.29405">
        <ele>17</ele>
        <time>2017-08-20T21:02:40Z</time>
      </trkpt>
      <trkpt lat="50.39519" lon="3.29399">
        <ele>17</ele>
        <time>2017-08-20T21:04:40Z</time>
      </trkpt>
      <trkpt lat="50.39585" lon="3.29361">
        <ele>15</ele>
        <time>2017-08-20T21:06:40Z</time>
      </trkpt>
      <trkpt lat="50.3965" lon="3.29331">
        <ele>16</ele>
        <time>2017-08-20T21:08:40Z</time>
      </trkpt>
      <trkpt lat="50.39655" lon="3.2933">
        <ele>16</ele>
        <time>2017-08-20T21:10:40Z</time>
      </trkpt>
      <trkpt lat="50.39655" lon="3.29329">
        <ele>16</ele>
        <time>2017-08-20T21:12:40Z</time>
      </trkpt>
      <trkpt lat="50.3966" lon="3.29329">
        <ele>16</ele>
        <time>2017-08-20T21:14:40Z</time>
      </trkpt>
      <trkpt lat="50.39664" lon="3.29328">
        <ele>16</ele>
        <time>2017-08-20T21:16:40Z</time>
      </trkpt>
      <trkpt lat="50.39667" lon="3.29328">
        <ele>16</ele>
        <time>2017-08-20T21:18:40Z</time>
      </trkpt>
      <trkpt lat="50.3967" lon="3.2933">
        <ele>16</ele>
        <time>2017-08-20T21:20:40Z</time>
      </trkpt>
      <trkpt lat="50.39673" lon="3.29327">
        <ele>16</ele>
        <time>2017-08-20T21:22:40Z</time>
      </trkpt>
      <trkpt lat="50.39675" lon="3.29324">
        <ele>16</ele>
        <time>2017-08-20T21:24:40Z</time>
      </trkpt>
      <trkpt lat="50.39676" lon="3.29324">
        <ele>16</ele>
        <time>2017-08-20T21:26:40Z</time>
      </trkpt>
      <trkpt lat="50.39679" lon="3.2932">
        <ele>16</ele>
        <time>2017-08-20T21:28:40Z</time>
      </trkpt>
      <trkpt lat="50.39684" lon="3.29316">
        <ele>16</ele>
        <time>2017-08-20T21:30:40Z</time>
      </trkpt>
      <trkpt lat="50.3969" lon="3.29311">
        <ele>17</ele>
        <time>2017-08-20T21:32:40Z</time>
      </trkpt>
      <trkpt lat="50.39696" lon="3.29306">
        <ele>17</ele>
        <time>2017-08-20T21:34:40Z</time>
      </trkpt>
      <trkpt lat="50.39698" lon="3.29304">
        <ele>17</ele>
        <time>2017-08-20T21:36:40Z</time>
      </trkpt>
      <trkpt lat="50.39704" lon="3.293">
        <ele>17</ele>
        <time>2017-08-20T21:38:40Z</time>
      </trkpt>
      <trkpt lat="50.39707" lon="3.29297">
        <ele>17</ele>
        <time>2017-08-20T21:40:40Z</time>
      </trkpt>
      <trkpt lat="50.39707" lon="3.29297">
        <ele>17</ele>
        <time>2017-08-20T21:42:40Z</time>
      </trkpt>
      <trkpt lat="50.39706" lon="3.2929">
        <ele>17</ele>
        <time>2017-08-20T21:44:40Z</time>
      </trkpt>
      <trkpt lat="50.39706" lon="3.29279">
        <ele>17</ele>
        <time>2017-08-20T21:46:40Z</time>
      </trkpt>
      <trkpt lat="50.39706" lon="3.29273">
        <ele>17</ele>
        <time>2017-08-20T21:48:40Z</time>
      </trkpt>
      <trkpt lat="50.39705" lon="3.29266">
        <ele>17</ele>
        <time>2017-08-20T21:50:40Z</time>
      </trkpt>
      <trkpt lat="50.39704" lon="3.29227">
        <ele>16</ele>
        <time>2017-08-20T21:52:40Z</time>
      </trkpt>
      <trkpt lat="50.39702" lon="3.29204">
        <ele>16</ele>
        <time>2017-08-20T21:54:40Z</time>
      </trkpt>
      <trkpt lat="50.39701" lon="3.29178">
        <ele>16</ele>
        <time>2017-08-20T21:56:40Z</time>
      </trkpt>
      <trkpt lat="50.39701" lon="3.29173">
        <ele>16</ele>
        <time>2017-08-20T21:58:40Z</time>
      </trkpt>
      <trkpt lat="50.39701" lon="3.29169">
        <ele>16</ele>
        <time>2017-08-20T22:00:40Z</time>
      </trkpt>
      <trkpt lat="50.39701" lon="3.29168">
        <ele>16</ele>
        <time>2017-08-20T22:02:40Z</time>
      </trkpt>
      <trkpt lat="50.397" lon="3.29165">
        <ele>16</ele>
        <time>2017-08-20T22:04:40Z</time>
      </trkpt>
      <trkpt lat="50.39698" lon="3.29107">
        <ele>16</ele>
        <time>2017-08-20T22:06:40Z</time>
      </trkpt>
      <trkpt lat="50.39686" lon="3.28859">
        <ele>17</ele>
        <time>2017-08-20T22:08:40Z</time>
      </trkpt>
      <trkpt lat="50.3967" lon="3.28534">
        <ele>16</ele>
        <time>2017-08-20T22:10:40Z</time>
      </trkpt>
      <trkpt lat="50.39661" lon="3.28354">
        <ele>16</ele>
        <time>2017-08-20T22:12:40Z</time>
      </trkpt>
      <trkpt lat="50.39658" lon="3.28291">
        <ele>17</ele>
        <time>2017-08-20T22:14:40Z</time>
      </trkpt>
      <trkpt lat="50.39657" lon="3.28274">
        <ele>17</ele>
        <time>2017-08-20T22:16:40Z</time>
      </trkpt>
      <trkpt lat="50.39654" lon="3.28245">
        <ele>17</ele>
        <time>2017-08-20T22:18:40Z</time>
      </trkpt>
      <trkpt lat="50.3965" lon="3.28217">
        <ele>17</ele>
        <time>2017-08-20T22:20:40Z</time>
      </trkpt>
      <trkpt lat="50.39651" lon="3.28214">
        <ele>17</ele>
        <time>2017-08-20T22:22:40Z</time>
      </trkpt>
      <trkpt lat="50.39651" lon="3.2821">
        <ele>17</ele>
        <time>2017-08-20T22:24:40Z</time>
      </trkpt>
      <trkpt lat="50.39651" lon="3.28202">
        <ele>17</ele>
        <time>2017-08-20T22:26:40Z</time>
      </trkpt>
      <trkpt lat="50.39648" lon="3.28164">
        <ele>17</ele>
        <time>2017-08-20T22:28:40Z</time>
      </trkpt>
      <trkpt lat="50.39647" lon="3.28144">
        <ele>17</ele>
        <time>2017-08-20T22:30:40Z</time>
      </trkpt>
      <trkpt lat="50.39646" lon="3.2813">
        <ele>17</ele>
        <time>2017-08-20T22:32:40Z</time>
      </trkpt>
      <trkpt lat="50.39646" lon="3.2813">
        <ele>17</ele>
        <time>2017-08-20T22:34:40Z</time>
      </trkpt>
      <trkpt lat="50.39646" lon="3.28129">
        <ele>17</ele>
        <time>2017-08-20T22:36:40Z</time>
      </trkpt>
      <trkpt lat="50.39646" lon="3.28128">
        <ele>17</ele>
        <time>2017-08-20T22:38:40Z</time>
      </trkpt>
      <trkpt lat="50.39647" lon="3.28128">
        <ele>17</ele>
        <time>2017-08-20T22:40:40Z</time>
      </trkpt>
      <trkpt lat="50.39647" lon="3.28127">
        <ele>17</ele>
        <time>2017-08-20T22:42:40Z</time>
      </trkpt>
      <trkpt lat="50.39647" lon="3.28126">
        <ele>17</ele>
        <time>2017-08-20T22:44:40Z</time>
      </trkpt>
      <trkpt lat="50.39648" lon="3.28126">
        <ele>17</ele>
        <time>2017-08-20T22:46:40Z</time>
      </trkpt>
      <trkpt lat="50.39648" lon="3.28125">
        <ele>17</ele>
        <time>2017-08-20T22:48:40Z</time>
      </trkpt>
      <trkpt lat="50.39649" lon="3.28122">
        <ele>17</ele>
        <time>2017-08-20T22:50:40Z</time>
      </trkpt>
      <trkpt lat="50.39649" lon="3.28121">
        <ele>17</ele>
        <time>2017-08-20T22:52:40Z</time>
      </trkpt>
      <trkpt lat="50.39649" lon="3.28119">
        <ele>17</ele>
        <time>2017-08-20T22:54:40Z</time>
      </trkpt>
      <trkpt lat="50.39649" lon="3.28118">
        <ele>17</ele>
        <time>2017-08-20T22:56:40Z</time>
      </trkpt>
      <trkpt lat="50.39649" lon="3.28116">
        <ele>17</ele>
        <time>2017-08-20T22:58:40Z</time>
      </trkpt>
      <trkpt lat="50.39649" lon="3.28115">
        <ele>17</ele>
        <time>2017-08-20T23:00:40Z</time>
      </trkpt>
      <trkpt lat="50.39649" lon="3.28113">
        <ele>16</ele>
        <time>2017-08-20T23:02:40Z</time>
      </trkpt>
      <trkpt lat="50.39649" lon="3.28112">
        <ele>16</ele>
        <time>2017-08-20T23:04:40Z</time>
      </trkpt>
      <trkpt lat="50.39649" lon="3.2811">
        <ele>16</ele>
        <time>2017-08-20T23:06:40Z</time>
      </trkpt>
      <trkpt lat="50.39649" lon="3.28109">
        <ele>16</ele>
        <time>2017-08-20T23:08:40Z</time>
      </trkpt>
      <trkpt lat="50.39649" lon="3.28107">
        <ele>16</ele>
        <time>2017-08-20T23:10:40Z</time>
      </trkpt>
      <trkpt lat="50.39648" lon="3.28106">
        <ele>16</ele>
        <time>2017-08-20T23:12:40Z</time>
      </trkpt>
      <trkpt lat="50.39648" lon="3.28105">
        <ele>16</ele>
        <time>2017-08-20T23:14:40Z</time>
      </trkpt>
      <trkpt lat="50.39647" lon="3.28104">
        <ele>16</ele>
        <time>2017-08-20T23:16:40Z</time>
      </trkpt>
      <trkpt lat="50.39647" lon="3.28103">
        <ele>16</ele>
        <time>2017-08-20T23:18:40Z</time>
      </trkpt>
      <trkpt lat="50.39646" lon="3.28102">
        <ele>16</ele>
        <time>2017-08-20T23:20:40Z</time>
      </trkpt>
      <trkpt lat="50.39646" lon="3.28101">
        <ele>16</ele>
        <time>2017-08-20T23:22:40Z</time>
      </trkpt>
      <trkpt lat="50.39645" lon="3.281">
        <ele>16</ele>
        <time>2017-08-20T23:24:40Z</time>
      </trkpt>
      <trkpt lat="50.39645" lon="3.28099">
        <ele>16</ele>
        <time>2017-08-20T23:26:40Z</time>
      </trkpt>
      <trkpt lat="50.39644" lon="3.28099">
        <ele>16</ele>
        <time>2017-08-20T23:28:40Z</time>
      </trkpt>
      <trkpt lat="50.39643" lon="3.28098">
        <ele>16</ele>
        <time>2017-08-20T23:30:40Z</time>
      </trkpt>
      <trkpt lat="50.39643" lon="3.28097">
        <ele>16</ele>
        <time>2017-08-20T23:32:40Z</time>
      </trkpt>
      <trkpt lat="50.39642" lon="3.28092">
        <ele>16</ele>
        <time>2017-08-20T23:34:40Z</time>
      </trkpt>
      <trkpt lat="50.3964" lon="3.28083">
        <ele>16</ele>
        <time>2017-08-20T23:36:40Z</time>
      </trkpt>
      <trkpt lat="50.39637" lon="3.28065">
        <ele>16</ele>
        <time>2017-08-20T23:38:40Z</time>
      </trkpt>
      <trkpt lat="50.39635" lon="3.28049">
        <ele>16</ele>
        <time>2017-08-20T23:40:40Z</time>
      </trkpt>
      <trkpt lat="50.39631" lon="3.28029">
        <ele>16</ele>
        <time>2017-08-20T23:42:40Z</time>
      </trkpt>
      <trkpt lat="50.3963" lon="3.28018">
        <ele>16</ele>
        <time>2017-08-20T23:44:40Z</time>
      </trkpt>
      <trkpt lat="50.3963" lon="3.28018">
        <ele>16</ele>
        <time>2017-08-20T23:46:40Z</time>
      </trkpt>
      <trkpt lat="50.39626" lon="3.28019">
        <ele>16</ele>
        <time>2017-08-20T23:48:40Z</time>
      </trkpt>
      <trkpt lat="50.39616" lon="3.28022">
        <ele>17</ele>
        <time>2017-08-20T23:50:40Z</time>
      </trkpt>
      <trkpt lat="50.39616" lon="3.28022">
        <ele>17</ele>
        <time>2017-08-20T23:52:40Z</time>
      </trkpt>
      <trkpt lat="50.3959" lon="3.27819">
        <ele>17</ele>
        <time>2017-08-20T23:54:40Z</time>
      </trkpt>
      <trkpt lat="50.3959" lon="3.27819">
        <ele>17</ele>
        <time>2017-08-20T23:56:40Z</time>
      </trkpt>
      <trkpt lat="50.39586" lon="3.27818">
        <ele>17</ele>
        <time>2017-08-20T23:58:40Z</time>
      </trkpt>
      <trkpt lat="50.39507" lon="3.27789">
        <ele>17</ele>
        <time>2017-08-21T00:00:40Z</time>
      </trkpt>
      <trkpt lat="50.39501" lon="3.27787">
        <ele>17</ele>
        <time>2017-08-21T00:02:40Z</time>
      </trkpt>
      <trkpt lat="50.39482" lon="3.27781">
        <ele>17</ele>
        <time>2017-08-21T00:04:40Z</time>
      </trkpt>
      <trkpt lat="50.39458" lon="3.2777">
        <ele>16</ele>
        <time>2017-08-21T00:06:40Z</time>
      </trkpt>
      <trkpt lat="50.39426" lon="3.27756">
        <ele>15</ele>
        <time>2017-08-21T00:08:40Z</time>
      </trkpt>
      <trkpt lat="50.39377" lon="3.27737">
        <ele>15</ele>
        <time>2017-08-21T00:10:40Z</time>
      </trkpt>
      <trkpt lat="50.39254" lon="3.27695">
        <ele>15</ele>
        <time>2017-08-21T00:12:40Z</time>
      </trkpt>
      <trkpt lat="50.39223" lon="3.27683">
        <ele>15</ele>
        <time>2017-08-21T00:14:40Z</time>
      </trkpt>
      <trkpt lat="50.39115" lon="3.27648">
        <ele>15</ele>
        <time>2017-08-21T00:16:40Z</time>
      </trkpt>
      <trkpt lat="50.39081" lon="3.27637">
        <ele>16</ele>
        <time>2017-08-21T00:18:40Z</time>
      </trkpt>
      <trkpt lat="50.39053" lon="3.27627">
        <ele>16</ele>
        <time>2017-08-21T00:20:40Z</time>
      </trkpt>
      <trkpt lat="50.39024" lon="3.27616">
        <ele>16</ele>
        <time>2017-08-21T00:22:40Z</time>
      </trkpt>
      <trkpt lat="50.38989" lon="3.27608">
        <ele>17</ele>
        <time>2017-08-21T00:24:40Z</time>
      </trkpt>
      <trkpt lat="50.38956" lon="3.27607">
        <ele>17</ele>
        <time>2017-08-21T00:26:40Z</time>
      </trkpt>
      <trkpt lat="50.38947" lon="3.27608">
        <ele>17</ele>
        <time>2017-08-21T00:28:40Z</time>
      </trkpt>
      <trkpt lat="50.38947" lon="3.27608">
        <ele>17</ele>
        <time>2017-08-21T00:30:40Z</time>
      </trkpt>
      <trkpt lat="50.38946" lon="3.27589">
        <ele>17</ele>
        <time>2017-08-21T00:32:40Z</time>
      </trkpt>
      <trkpt lat="50.38938" lon="3.27387">
        <ele>18</ele>
        <time>2017-08-21T00:34:40Z</time>
      </trkpt>
      <trkpt lat="50.38937" lon="3.2738">
        <ele>18</ele>
        <time>2017-08-21T00:36:40Z</time>
      </trkpt>
      <trkpt lat="50.38937" lon="3.2738">
        <ele>18</ele>
        <time>2017-08-21T00:38:40Z</time>
      </trkpt>
      <trkpt lat="50.38952" lon="3.27384">
        <ele>18</ele>
        <time>2017-08-21T00:40:40Z</time>
      </trkpt>
      <trkpt lat="50.39021" lon="3.27408">
        <ele>17</ele>
        <time>2017-08-21T00:42:40Z</time>
      </trkpt>
      <trkpt lat="50.39037" lon="3.27415">
        <ele>17</ele>
        <time>2017-08-21T00:44:40Z</time>
      </trkpt>
      <trkpt lat="50.39046" lon="3.27417">
        <ele>16</ele>
        <time>2017-08-21T00:46:40Z</time>
      </trkpt>
      <trkpt lat="50.39049" lon="3.27415">
        <ele>16</ele>
        <time>2017-08-21T00:48:40Z</time>
      </trkpt>
      <trkpt lat="50.39049" lon="3.27413">
        <ele>16</ele>
        <time>2017-08-21T00:50:40Z</time>
      </trkpt>
      <trkpt lat="50.39044" lon="3.27248">
        <ele>16</ele>
        <time>2017-08-21T00:52:40Z</time>
      </trkpt>
      <trkpt lat="50.39034" lon="3.27048">
        <ele>15</ele>
        <time>2017-08-21T00:54:40Z</time>
      </trkpt>
      <trkpt lat="50.3903" lon="3.26978">
        <ele>15</ele>
        <time>2017-08-21T00:56:40Z</time>
      </trkpt>
      <trkpt lat="50.39026" lon="3.26862">
        <ele>15</ele>
        <time>2017-08-21T00:58:40Z</time>
      </trkpt>
      <trkpt lat="50.39026" lon="3.26843">
        <ele>15</ele>
        <time>2017-08-21T01:00:40Z</time>
      </trkpt>
      <trkpt lat="50.39025" lon="3.26785">
        <ele>16</ele>
        <time>2017-08-21T01:02:40Z</time>
      </trkpt>
      <trkpt lat="50.39016" lon="3.26571">
        <ele>15</ele>
        <time>2017-08-21T01:04:40Z</time>
      </trkpt>
      <trkpt lat="50.39016" lon="3.26565">
        <ele>15</ele>
        <time>2017-08-21T01:06:40Z</time>
      </trkpt>
      <trkpt lat="50.39014" lon="3.26546">
        <ele>15</ele>
        <time>2017-08-21T01:08:40Z</time>
      </trkpt>
      <trkpt lat="50.39014" lon="3.26508">
        <ele>15</ele>
        <time>2017-08-21T01:10:40Z</time>
      </trkpt>
      <trkpt lat="50.39014" lon="3.26498">
        <ele>15</ele>
        <time>2017-08-21T01:12:40Z</time>
      </trkpt>
      <trkpt lat="50.39014" lon="3.26491">
        <ele>15</ele>
        <time>2017-08-21T01:14:40Z</time>
      </trkpt>
      <trkpt lat="50.39009" lon="3.2627">
        <ele>19</ele>
        <time>2017-08-21T01:16:40Z</time>
      </trkpt>
      <trkpt lat="50.39006" lon="3.26255">
        <ele>20</ele>
        <time>2017-08-21T01:18:40Z</time>
      </trkpt>
      <trkpt lat="50.39002" lon="3.26247">
        <ele>20</ele>
        <time>2017-08-21T01:20:40Z</time>
      </trkpt>
      <trkpt lat="50.38998" lon="3.26244">
        <ele>20</ele>
        <time>2017-08-21T01:22:40Z</time>
      </trkpt>
      <trkpt lat="50.38938" lon="3.26227">
        <ele>18</ele>
        <time>2017-08-21T01:24:40Z</time>
      </trkpt>
      <trkpt lat="50.3889" lon="3.26212">
        <ele>17</ele>
        <time>2017-08-21T01:26:40Z</time>
      </trkpt>
      <trkpt lat="50.3889" lon="3.26212">
        <ele>17</ele>
        <time>2017-08-21T01:28:40Z</time>
      </trkpt>
      <trkpt lat="50.38885" lon="3.26116">
        <ele>18</ele>
        <time>2017-08-21T01:30:40Z</time>
      </trkpt>
      <trkpt lat="50.38883" lon="3.26044">
        <ele>19</ele>
        <time>2017-08-21T01:32:40Z</time>
      </trkpt>
      <trkpt lat="50.3888" lon="3.25968">
        <ele>21</ele>
        <time>2017-08-21T01:34:40Z</time>
      </trkpt>
      <trkpt lat="50.38878" lon="3.25917">
        <ele>22</ele>
        <time>2017-08-21T01:36:40Z</time>
      </trkpt>
      <trkpt lat="50.38877" lon="3.25899">
        <ele>22</ele>
        <time>2017-08-21T01:38:40Z</time>
      </trkpt>
      <trkpt lat="50.38874" lon="3.25886">
        <ele>22</ele>
        <time>2017-08-21T01:40:40Z</time>
      </trkpt>
      <trkpt lat="50.38868" lon="3.25863">
        <ele>22</ele>
        <time>2017-08-21T01:42:40Z</time>
      </trkpt>
      <trkpt lat="50.38863" lon="3.25846">
        <ele>22</ele>
        <time>2017-08-21T01:44:40Z</time>
      </trkpt>
      <trkpt lat="50.38861" lon="3.25838">
        <ele>22</ele>
        <time>2017-08-21T01:46:40Z</time>
      </trkpt>
      <trkpt lat="50.3886" lon="3.25834">
        <ele>22</ele>
        <time>2017-08-21T01:48:40Z</time>
      </trkpt>
      <trkpt lat="50.38859" lon="3.25829">
        <ele>22</ele>
        <time>2017-08-21T01:50:40Z</time>
      </trkpt>
      <trkpt lat="50.38858" lon="3.25813">
        <ele>22</ele>
        <time>2017-08-21T01:52:40Z</time>
      </trkpt>
      <trkpt lat="50.38857" lon="3.25772">
        <ele>21</ele>
        <time>2017-08-21T01:54:40Z</time>
      </trkpt>
      <trkpt lat="50.38854" lon="3.2569">
        <ele>21</ele>
        <time>2017-08-21T01:56:40Z</time>
      </trkpt>
      <trkpt lat="50.3885" lon="3.25572">
        <ele>18</ele>
        <time>2017-08-21T01:58:40Z</time>
      </trkpt>
      <trkpt lat="50.38845" lon="3.25461">
        <ele>16</ele>
        <time>2017-08-21T02:00:40Z</time>
      </trkpt>
      <trkpt lat="50.38843" lon="3.25404">
        <ele>17</ele>
        <time>2017-08-21T02:02:40Z</time>
      </trkpt>
      <trkpt lat="50.38843" lon="3.25393">
        <ele>17</ele>
        <time>2017-08-21T02:04:40Z</time>
      </trkpt>
      <trkpt lat="50.38843" lon="3.25381">
        <ele>17</ele>
        <time>2017-08-21T02:06:40Z</time>
      </trkpt>
      <trkpt lat="50.38839" lon="3.25303">
        <ele>17</ele>
        <time>2017-08-21T02:08:40Z</time>
      </trkpt>
      <trkpt lat="50.38838" lon="3.25258">
        <ele>16</ele>
        <time>2017-08-21T02:10:40Z</time>
      </trkpt>
      <trkpt lat="50.38836" lon="3.25233">
        <ele>16</ele>
        <time>2017-08-21T02:12:40Z</time>
      </trkpt>
      <trkpt lat="50.38833" lon="3.25217">
        <ele>16</ele>
        <time>2017-08-21T02:14:40Z</time>
      </trkpt>
      <trkpt lat="50.3883" lon="3.25201">
        <ele>16</ele>
        <time>2017-08-21T02:16:40Z</time>
      </trkpt>
      <trkpt lat="50.38827" lon="3.25188">
        <ele>16</ele>
        <time>2017-08-21T02:18:40Z</time>
      </trkpt>
      <trkpt lat="50.38825" lon="3.2518">
        <ele>16</ele>
        <time>2017-08-21T02:20:40Z</time>
      </trkpt>
      <trkpt lat="50.38822" lon="3.25171">
        <ele>16</ele>
        <time>2017-08-21T02:22:40Z</time>
      </trkpt>
      <trkpt lat="50.38817" lon="3.2516">
        <ele>16</ele>
        <time>2017-08-21T02:24:40Z</time>
      </trkpt>
      <trkpt lat="50.3881" lon="3.25147">
        <ele>16</ele>
        <time>2017-08-21T02:26:40Z</time>
      </trkpt>
      <trkpt lat="50.38803" lon="3.25135">
        <ele>17</ele>
        <time>2017-08-21T02:28:40Z</time>
      </trkpt>
      <trkpt lat="50.38794" lon="3.25116">
        <ele>17</ele>
        <time>2017-08-21T02:30:40Z</time>
      </trkpt>
      <trkpt lat="50.38785" lon="3.25096">
        <ele>17</ele>
        <time>2017-08-21T02:32:40Z</time>
      </trkpt>
      <trkpt lat="50.38781" lon="3.25087">
        <ele>17</ele>
        <time>2017-08-21T02:34:40Z</time>
      </trkpt>
      <trkpt lat="50.38779" lon="3.25082">
        <ele>17</ele>
        <time>2017-08-21T02:36:40Z</time>
      </trkpt>
      <trkpt lat="50.38778" lon="3.25079">
        <ele>17</ele>
        <time>2017-08-21T02:38:40Z</time>
      </trkpt>
      <trkpt lat="50.38778" lon="3.25075">
        <ele>17</ele>
        <time>2017-08-21T02:40:40Z</time>
      </trkpt>
      <trkpt lat="50.38778" lon="3.2507">
        <ele>17</ele>
        <time>2017-08-21T02:42:40Z</time>
      </trkpt>
      <trkpt lat="50.38779" lon="3.25065">
        <ele>17</ele>
        <time>2017-08-21T02:44:40Z</time>
      </trkpt>
      <trkpt lat="50.3878" lon="3.25058">
        <ele>16</ele>
        <time>2017-08-21T02:46:40Z</time>
      </trkpt>
      <trkpt lat="50.3878" lon="3.25058">
        <ele>16</ele>
        <time>2017-08-21T02:48:40Z</time>
      </trkpt>
      <trkpt lat="50.38787" lon="3.25065">
        <ele>16</ele>
        <time>2017-08-21T02:50:40Z</time>
      </trkpt>
      <trkpt lat="50.38804" lon="3.2508">
        <ele>16</ele>
        <time>2017-08-21T02:52:40Z</time>
      </trkpt>
      <trkpt lat="50.38804" lon="3.2508">
        <ele>16</ele>
        <time>2017-08-21T02:54:40Z</time>
      </trkpt>
      <trkpt lat="50.3881" lon="3.25065">
        <ele>16</ele>
        <time>2017-08-21T02:56:40Z</time>
      </trkpt>
      <trkpt lat="50.38817" lon="3.25045">
        <ele>16</ele>
        <time>2017-08-21T02:58:40Z</time>
      </trkpt>
      <trkpt lat="50.38829" lon="3.25023">
        <ele>16</ele>
        <time>2017-08-21T03:00:40Z</time>
      </trkpt>
      <trkpt lat="50.3884" lon="3.25004">
        <ele>16</ele>
        <time>2017-08-21T03:02:40Z</time>
      </trkpt>
      <trkpt lat="50.3887" lon="3.24951">
        <ele>17</ele>
        <time>2017-08-21T03:04:40Z</time>
      </trkpt>
      <trkpt lat="50.38879" lon="3.2493">
        <ele>17</ele>
        <time>2017-08-21T03:06:40Z</time>
      </trkpt>
      <trkpt lat="50.389" lon="3.24868">
        <ele>17</ele>
        <time>2017-08-21T03:08:40Z</time>
      </trkpt>
      <trkpt lat="50.38918" lon="3.24818">
        <ele>17</ele>
        <time>2017-08-21T03:10:40Z</time>
      </trkpt>
      <trkpt lat="50.38923" lon="3.24808">
        <ele>17</ele>
        <time>2017-08-21T03:12:40Z</time>
      </trkpt>
      <trkpt lat="50.38928" lon="3.24802">
        <ele>17</ele>
        <time>2017-08-21T03:14:40Z</time>
      </trkpt>
      <trkpt lat="50.38947" lon="3.24785">
        <ele>17</ele>
        <time>2017-08-21T03:16:40Z</time>
      </trkpt>
      <trkpt lat="50.38958" lon="3.24771">
        <ele>17</ele>
        <time>2017-08-21T03:18:40Z</time>
      </trkpt>
      <trkpt lat="50.38958" lon="3.24771">
        <ele>17</ele>
        <time>2017-08-21T03:20:40Z</time>
      </trkpt>
      <trkpt lat="50.389" lon="3.24684">
        <ele>17</ele>
        <time>2017-08-21T03:22:40Z</time>
      </trkpt>
      <trkpt lat="50.38811" lon="3.24555">
        <ele>18</ele>
        <time>2017-08-21T03:24:40Z</time>
      </trkpt>
      <trkpt lat="50.38724" lon="3.24424">
        <ele>18</ele>
        <time>2017-08-21T03:26:40Z</time>
      </trkpt>
      <trkpt lat="50.38718" lon="3.24417">
        <ele>18</ele>
        <time>2017-08-21T03:28:40Z</time>
      </trkpt>
      <trkpt lat="50.38711" lon="3.24405">
        <ele>18</ele>
        <time>2017-08-21T03:30:40Z</time>
      </trkpt>
      <trkpt lat="50.38707" lon="3.24396">
        <ele>18</ele>
        <time>2017-08-21T03:32:40Z</time>
      </trkpt>
      <trkpt lat="50.38704" lon="3.2439">
        <ele>18</ele>
        <time>2017-08-21T03:34:40Z</time>
      </trkpt>
      <trkpt lat="50.38699" lon="3.24373">
        <ele>19</ele>
        <time>2017-08-21T03:36:40Z</time>
      </trkpt>
      <trkpt lat="50.38695" lon="3.24355">
        <ele>19</ele>
        <time>2017-08-21T03:38:40Z</time>
      </trkpt>
      <trkpt lat="50.38694" lon="3.24347">
        <ele>19</ele>
        <time>2017-08-21T03:40:40Z</time>
      </trkpt>
      <trkpt lat="50.38694" lon="3.24337">
        <ele>19</ele>
        <time>2017-08-21T03:42:40Z</time>
      </trkpt>
      <trkpt lat="50.38695" lon="3.24324">
        <ele>19</ele>
        <time>2017-08-21T03:44:40Z</time>
      </trkpt>
      <trkpt lat="50.38694" lon="3.24309">
        <ele>20</ele>
        <time>2017-08-21T03:46:40Z</time>
      </trkpt>
      <trkpt lat="50.38695" lon="3.24291">
        <ele>21</ele>
        <time>2017-08-21T03:48:40Z</time>
      </trkpt>
      <trkpt lat="50.38697" lon="3.24277">
        <ele>21</ele>
        <time>2017-08-21T03:50:40Z</time>
      </trkpt>
      <trkpt lat="50.38699" lon="3.2426">
        <ele>22</ele>
        <time>2017-08-21T03:52:40Z</time>
      </trkpt>
      <trkpt lat="50.387" lon="3.24256">
        <ele>22</ele>
        <time>2017-08-21T03:54:40Z</time>
      </trkpt>
      <trkpt lat="50.38703" lon="3.24241">
        <ele>22</ele>
        <time>2017-08-21T03:56:40Z</time>
      </trkpt>
      <trkpt lat="50.38711" lon="3.24214">
        <ele>22</ele>
        <time>2017-08-21T03:58:40Z</time>
      </trkpt>
      <trkpt lat="50.38729" lon="3.24157">
        <ele>21</ele>
        <time>2017-08-21T04:00:40Z</time>
      </trkpt>
      <trkpt lat="50.3875" lon="3.24092">
        <ele>17</ele>
        <time>2017-08-21T04:02:40Z</time>
      </trkpt>
      <trkpt lat="50.38761" lon="3.24056">
        <ele>17</ele>
        <time>2017-08-21T04:04:40Z</time>
      </trkpt>
      <trkpt lat="50.38771" lon="3.24027">
        <ele>17</ele>
        <time>2017-08-21T04:06:40Z</time>
      </trkpt>
      <trkpt lat="50.38775" lon="3.2401">
        <ele>17</ele>
        <time>2017-08-21T04:08:40Z</time>
      </trkpt>
      <trkpt lat="50.3878" lon="3.23989">
        <ele>17</ele>
        <time>2017-08-21T04:10:40Z</time>
      </trkpt>
      <trkpt lat="50.38784" lon="3.23968">
        <ele>18</ele>
        <time>2017-08-21T04:12:40Z</time>
      </trkpt>
      <trkpt lat="50.38786" lon="3.23948">
        <ele>18</ele>
        <time>2017-08-21T04:14:40Z</time>
      </trkpt>
      <trkpt lat="50.38787" lon="3.2393">
        <ele>18</ele>
        <time>2017-08-21T04:16:40Z</time>
      </trkpt>
      <trkpt lat="50.38788" lon="3.23908">
        <ele>18</ele>
        <time>2017-08-21T04:18:40Z</time>
      </trkpt>
      <trkpt lat="50.38788" lon="3.23888">
        <ele>18</ele>
        <time>2017-08-21T04:20:40Z</time>
      </trkpt>
      <trkpt lat="50.38788" lon="3.23862">
        <ele>18</ele>
        <time>2017-08-21T04:22:40Z</time>
      </trkpt>
      <trkpt lat="50.3879" lon="3.23837">
        <ele>18</ele>
        <time>2017-08-21T04:24:40Z</time>
      </trkpt>
      <trkpt lat="50.38791" lon="3.23815">
        <ele>18</ele>
        <time>2017-08-21T04:26:40Z</time>
      </trkpt>
      <trkpt lat="50.38794" lon="3.23792">
        <ele>18</ele>
        <time>2017-08-21T04:28:40Z</time>
      </trkpt>
      <trkpt lat="50.38796" lon="3.23774">
        <ele>18</ele>
        <time>2017-08-21T04:30:40Z</time>
      </trkpt>
      <trkpt lat="50.38805" lon="3.23717">
        <ele>18</ele>
        <time>2017-08-21T04:32:40Z</time>
      </trkpt>
      <trkpt lat="50.38816" lon="3.23653">
        <ele>18</ele>
        <time>2017-08-21T04:34:40Z</time>
      </trkpt>
      <trkpt lat="50.38817" lon="3.23645">
        <ele>18</ele>
        <time>2017-08-21T04:36:40Z</time>
      </trkpt>
      <trkpt lat="50.38822" lon="3.23621">
        <ele>18</ele>
        <time>2017-08-21T04:38:40Z</time>
      </trkpt>
      <trkpt lat="50.38824" lon="3.23612">
        <ele>19</ele>
        <time>2017-08-21T04:40:40Z</time>
      </trkpt>
      <trkpt lat="50.38831" lon="3.23571">
        <ele>19</ele>
        <time>2017-08-21T04:42:40Z</time>
      </trkpt>
      <trkpt lat="50.38834" lon="3.23553">
        <ele>19</ele>
        <time>2017-08-21T04:44:40Z</time>
      </trkpt>
      <trkpt lat="50.38834" lon="3.23553">
        <ele>19</ele>
        <time>2017-08-21T04:46:40Z</time>
      </trkpt>
      <trkpt lat="50.38835" lon="3.23553">
        <ele>19</ele>
        <time>2017-08-21T04:48:40Z</time>
      </trkpt>
      <trkpt lat="50.38839" lon="3.23554">
        <ele>19</ele>
        <time>2017-08-21T04:50:40Z</time>
      </trkpt>
      <trkpt lat="50.38864" lon="3.23557">
        <ele>19</ele>
        <time>2017-08-21T04:52:40Z</time>
      </trkpt>
      <trkpt lat="50.38864" lon="3.23557">
        <ele>19</ele>
        <time>2017-08-21T04:54:40Z</time>
      </trkpt>
      <trkpt lat="50.38868" lon="3.2355">
        <ele>19</ele>
        <time>2017-08-21T04:56:40Z</time>
      </trkpt>
      <trkpt lat="50.38873" lon="3.23539">
        <ele>19</ele>
        <time>2017-08-21T04:58:40Z</time>
      </trkpt>
      <trkpt lat="50.38887" lon="3.23508">
        <ele>20</ele>
        <time>2017-08-21T05:00:40Z</time>
      </trkpt>
      <trkpt lat="50.38906" lon="3.23475">
        <ele>20</ele>
        <time>2017-08-21T05:02:40Z</time>
      </trkpt>
      <trkpt lat="50.38917" lon="3.23446">
        <ele>19</ele>
        <time>2017-08-21T05:04:40Z</time>
      </trkpt>
      <trkpt lat="50.38928" lon="3.23412">
        <ele>19</ele>
        <time>2017-08-21T05:06:40Z</time>
      </trkpt>
      <trkpt lat="50.38942" lon="3.23365">
        <ele>19</ele>
        <time>2017-08-21T05:08:40Z</time>
      </trkpt>
      <trkpt lat="50.38948" lon="3.23343">
        <ele>19</ele>
        <time>2017-08-21T05:10:40Z</time>
      </trkpt>
      <trkpt lat="50.38953" lon="3.23326">
        <ele>19</ele>
        <time>2017-08-21T05:12:40Z</time>
      </trkpt>
      <trkpt lat="50.38969" lon="3.23295">
        <ele>19</ele>
        <time>2017-08-21T05:14:40Z</time>
      </trkpt>
      <trkpt lat="50.38998" lon="3.23254">
        <ele>19</ele>
        <time>2017-08-21T05:16:40Z</time>
      </trkpt>
      <trkpt lat="50.39017" lon="3.23224">
        <ele>19</ele>
        <time>2017-08-21T05:18:40Z</time>
      </trkpt>
      <trkpt lat="50.39036" lon="3.23199">
        <ele>19</ele>
        <time>2017-08-21T05:20:40Z</time>
      </trkpt>
      <trkpt lat="50.39052" lon="3.23176">
        <ele>19</ele>
        <time>2017-08-21T05:22:40Z</time>
      </trkpt>
      <trkpt lat="50.39064" lon="3.23161">
        <ele>19</ele>
        <time>2017-08-21T05:24:40Z</time>
      </trkpt>
      <trkpt lat="50.39077" lon="3.2315">
        <ele>19</ele>
        <time>2017-08-21T05:26:40Z</time>
      </trkpt>
      <trkpt lat="50.391" lon="3.23141">
        <ele>19</ele>
        <time>2017-08-21T05:28:40Z</time>
      </trkpt>
      <trkpt lat="50.3912" lon="3.23134">
        <ele>19</ele>
        <time>2017-08-21T05:30:40Z</time>
      </trkpt>
      <trkpt lat="50.3913" lon="3.23134">
        <ele>19</ele>
        <time>2017-08-21T05:32:40Z</time>
      </trkpt>
      <trkpt lat="50.39139" lon="3.23134">
        <ele>19</ele>
        <time>2017-08-21T05:34:40Z</time>
      </trkpt>
      <trkpt lat="50.39147" lon="3.23138">
        <ele>19</ele>
        <time>2017-08-21T05:36:40Z</time>
      </trkpt>
      <trkpt lat="50.39153" lon="3.23143">
        <ele>20</ele>
        <time>2017-08-21T05:38:40Z</time>
      </trkpt>
      <trkpt lat="50.39153" lon="3.23143">
        <ele>20</ele>
        <time>2017-08-21T05:40:40Z</time>
      </trkpt>
      <trkpt lat="50.3916" lon="3.23135">
        <ele>20</ele>
        <time>2017-08-21T05:42:40Z</time>
      </trkpt>
      <trkpt lat="50.39167" lon="3.23126">
        <ele>20</ele>
        <time>2017-08-21T05:44:40Z</time>
      </trkpt>
      <trkpt lat="50.39175" lon="3.23113">
        <ele>19</ele>
        <time>2017-08-21T05:46:40Z</time>
      </trkpt>
      <trkpt lat="50.39179" lon="3.23104">
        <ele>19</ele>
        <time>2017-08-21T05:48:40Z</time>
      </trkpt>
      <trkpt lat="50.39181" lon="3.23096">
        <ele>19</ele>
        <time>2017-08-21T05:50:40Z</time>
      </trkpt>
      <trkpt lat="50.39186" lon="3.23072">
        <ele>19</ele>
        <time>2017-08-21T05:52:40Z</time>
      </trkpt>
      <trkpt lat="50.39192" lon="3.23029">
        <ele>18</ele>
        <time>2017-08-21T05:54:40Z</time>
      </trkpt>
      <trkpt lat="50.39196" lon="3.23018">
        <ele>18</ele>
        <time>2017-08-21T05:56:40Z</time>
      </trkpt>
      <trkpt lat="50.39201" lon="3.23009">
        <ele>18</ele>
        <time>2017-08-21T05:58:40Z</time>
      </trkpt>
      <trkpt lat="50.39216" lon="3.22986">
        <ele>18</ele>
        <time>2017-08-21T06:00:40Z</time>
      </trkpt>
      <trkpt lat="50.39233" lon="3.22958">
        <ele>18</ele>
        <time>2017-08-21T06:02:40Z</time>
      </trkpt>
      <trkpt lat="50.39251" lon="3.22924">
        <ele>18</ele>
        <time>2017-08-21T06:04:40Z</time>
      </trkpt>
      <trkpt lat="50.39258" lon="3.22913">
        <ele>18</ele>
        <time>2017-08-21T06:06:40Z</time>
      </trkpt>
      <trkpt lat="50.39275" lon="3.22883">
        <ele>18</ele>
        <time>2017-08-21T06:08:40Z</time>
      </trkpt>
      <trkpt lat="50.3929" lon="3.22855">
        <ele>18</ele>
        <time>2017-08-21T06:10:40Z</time>
      </trkpt>
      <trkpt lat="50.39318" lon="3.22792">
        <ele>17</ele>
        <time>2017-08-21T06:12:40Z</time>
      </trkpt>
      <trkpt lat="50.39337" lon="3.22758">
        <ele>17</ele>
        <time>2017-08-21T06:14:40Z</time>
      </trkpt>
      <trkpt lat="50.39351" lon="3.22738">
        <ele>17</ele>
        <time>2017-08-21T06:16:40Z</time>
      </trkpt>
      <trkpt lat="50.39359" lon="3.2273">
        <ele>17</ele>
        <time>2017-08-21T06:18:40Z</time>
      </trkpt>
      <trkpt lat="50.39369" lon="3.22721">
        <ele>17</ele>
        <time>2017-08-21T06:20:40Z</time>
      </trkpt>
      <trkpt lat="50.39369" lon="3.22721">
        <ele>17</ele>
        <time>2017-08-21T06:22:40Z</time>
      </trkpt>
      <trkpt lat="50.39372" lon="3.22709">
        <ele>17</ele>
        <time>2017-08-21T06:24:40Z</time>
      </trkpt>
      <trkpt lat="50.39383" lon="3.22682">
        <ele>18</ele>
        <time>2017-08-21T06:26:40Z</time>
      </trkpt>
      <trkpt lat="50.39399" lon="3.2264">
        <ele>18</ele>
        <time>2017-08-21T06:28:40Z</time>
      </trkpt>
      <trkpt lat="50.39465" lon="3.22463">
        <ele>17</ele>
        <time>2017-08-21T06:30:40Z</time>
      </trkpt>
      <trkpt lat="50.39475" lon="3.22428">
        <ele>17</ele>
        <time>2017-08-21T06:32:40Z</time>
      </trkpt>
      <trkpt lat="50.39481" lon="3.22399">
        <ele>17</ele>
        <time>2017-08-21T06:34:40Z</time>
      </trkpt>
      <trkpt lat="50.39486" lon="3.22377">
        <ele>17</ele>
        <time>2017-08-21T06:36:40Z</time>
      </trkpt>
      <trkpt lat="50.39499" lon="3.22329">
        <ele>17</ele>
        <time>2017-08-21T06:38:40Z</time>
      </trkpt>
      <trkpt lat="50.39505" lon="3.2231">
        <ele>17</ele>
        <time>2017-08-21T06:40:40Z</time>
      </trkpt>
      <trkpt lat="50.39511" lon="3.22295">
        <ele>18</ele>
        <time>2017-08-21T06:42:40Z</time>
      </trkpt>
      <trkpt lat="50.39514" lon="3.22288">
        <ele>18</ele>
        <time>2017-08-21T06:44:40Z</time>
      </trkpt>
      <trkpt lat="50.39525" lon="3.2226">
        <ele>18</ele>
        <time>2017-08-21T06:46:40Z</time>
      </trkpt>
      <trkpt lat="50.39532" lon="3.22244">
        <ele>18</ele>
        <time>2017-08-21T06:48:40Z</time>
      </trkpt>
      <trkpt lat="50.39537" lon="3.22231">
        <ele>18</ele>
        <time>2017-08-21T06:50:40Z</time>
      </trkpt>
      <trkpt lat="50.3954" lon="3.22221">
        <ele>18</ele>
        <time>2017-08-21T06:52:40Z</time>
      </trkpt>
      <trkpt lat="50.39551" lon="3.22152">
        <ele>18</ele>
        <time>2017-08-21T06:54:40Z</time>
      </trkpt>
      <trkpt lat="50.39561" lon="3.22099">
        <ele>17</ele>
        <time>2017-08-21T06:56:40Z</time>
      </trkpt>
      <trkpt lat="50.39589" lon="3.22">
        <ele>17</ele>
        <time>2017-08-21T06:58:40Z</time>
      </trkpt>
      <trkpt lat="50.39623" lon="3.21893">
        <ele>16</ele>
        <time>2017-08-21T07:00:40Z</time>
      </trkpt>
      <trkpt lat="50.39632" lon="3.21869">
        <ele>16</ele>
        <time>2017-08-21T07:02:40Z</time>
      </trkpt>
      <trkpt lat="50.39641" lon="3.21848">
        <ele>16</ele>
        <time>2017-08-21T07:04:40Z</time>
      </trkpt>
      <trkpt lat="50.39649" lon="3.21832">
        <ele>16</ele>
        <time>2017-08-21T07:06:40Z</time>
      </trkpt>
      <trkpt lat="50.39657" lon="3.21817">
        <ele>16</ele>
        <time>2017-08-21T07:08:40Z</time>
      </trkpt>
      <trkpt lat="50.39667" lon="3.21803">
        <ele>16</ele>
        <time>2017-08-21T07:10:40Z</time>
      </trkpt>
      <trkpt lat="50.39679" lon="3.2179">
        <ele>15</ele>
        <time>2017-08-21T07:12:40Z</time>
      </trkpt>
      <trkpt lat="50.39691" lon="3.2178">
        <ele>15</ele>
        <time>2017-08-21T07:14:40Z</time>
      </trkpt>
      <trkpt lat="50.39706" lon="3.21769">
        <ele>15</ele>
        <time>2017-08-21T07:16:40Z</time>
      </trkpt>
      <trkpt lat="50.39725" lon="3.21757">
        <ele>15</ele>
        <time>2017-08-21T07:18:40Z</time>
      </trkpt>
      <trkpt lat="50.39757" lon="3.2174">
        <ele>15</ele>
        <time>2017-08-21T07:20:40Z</time>
      </trkpt>
      <trkpt lat="50.39769" lon="3.21732">
        <ele>15</ele>
        <time>2017-08-21T07:22:40Z</time>
      </trkpt>
      <trkpt lat="50.39784" lon="3.21719">
        <ele>15</ele>
        <time>2017-08-21T07:24:40Z</time>
      </trkpt>
      <trkpt lat="50.39791" lon="3.21714">
        <ele>15</ele>
        <time>2017-08-21T07:26:40Z</time>
      </trkpt>
      <trkpt lat="50.39796" lon="3.21711">
        <ele>16</ele>
        <time>2017-08-21T07:28:40Z</time>
      </trkpt>
      <trkpt lat="50.39803" lon="3.21709">
        <ele>16</ele>
        <time>2017-08-21T07:30:40Z</time>
      </trkpt>
      <trkpt lat="50.39809" lon="3.21709">
        <ele>16</ele>
        <time>2017-08-21T07:32:40Z</time>
      </trkpt>
      <trkpt lat="50.39814" lon="3.21709">
        <ele>16</ele>
        <time>2017-08-21T07:34:40Z</time>
      </trkpt>
      <trkpt lat="50.39852" lon="3.21719">
        <ele>16</ele>
        <time>2017-08-21T07:36:40Z</time>
      </trkpt>
      <trkpt lat="50.39883" lon="3.21728">
        <ele>16</ele>
        <time>2017-08-21T07:38:40Z</time>
      </trkpt>
      <trkpt lat="50.39895" lon="3.21731">
        <ele>16</ele>
        <time>2017-08-21T07:40:40Z</time>
      </trkpt>
      <trkpt lat="50.39902" lon="3.21731">
        <ele>16</ele>
        <time>2017-08-21T07:42:40Z</time>
      </trkpt>
      <trkpt lat="50.39959" lon="3.2172">
        <ele>16</ele>
        <time>2017-08-21T07:44:40Z</time>
      </trkpt>
      <trkpt lat="50.39988" lon="3.21714">
        <ele>16</ele>
        <time>2017-08-21T07:46:40Z</time>
      </trkpt>
      <trkpt lat="50.3999" lon="3.21714">
        <ele>16</ele>
        <time>2017-08-21T07:48:40Z</time>
      </trkpt>
      <trkpt lat="50.39994" lon="3.21713">
        <ele>16</ele>
        <time>2017-08-21T07:50:40Z</time>
      </trkpt>
      <trkpt lat="50.40029" lon="3.21706">
        <ele>16</ele>
        <time>2017-08-21T07:52:40Z</time>
      </trkpt>
      <trkpt lat="50.40033" lon="3.21705">
        <ele>16</ele>
        <time>2017-08-21T07:54:40Z</time>
      </trkpt>
      <trkpt lat="50.40039" lon="3.21705">
        <ele>16</ele>
        <time>2017-08-21T07:56:40Z</time>
      </trkpt>
      <trkpt lat="50.4009" lon="3.21695">
        <ele>15</ele>
        <time>2017-08-21T07:58:40Z</time>
      </trkpt>
      <trkpt lat="50.40137" lon="3.21685">
        <ele>16</ele>
        <time>2017-08-21T08:00:40Z</time>
      </trkpt>
      <trkpt lat="50.40181" lon="3.21677">
        <ele>16</ele>
        <time>2017-08-21T08:02:40Z</time>
      </trkpt>
      <trkpt lat="50.40206" lon="3.2167">
        <ele>16</ele>
        <time>2017-08-21T08:04:40Z</time>
      </trkpt>
      <trkpt lat="50.40209" lon="3.2167">
        <ele>16</ele>
        <time>2017-08-21T08:06:40Z</time>
      </trkpt>
      <trkpt lat="50.40237" lon="3.21666">
        <ele>16</ele>
        <time>2017-08-21T08:08:40Z</time>
      </trkpt>
      <trkpt lat="50.40241" lon="3.21664">
        <ele>16</ele>
        <time>2017-08-21T08:10:40Z</time>
      </trkpt>
      <trkpt lat="50.40258" lon="3.21662">
        <ele>16</ele>
        <time>2017-08-21T08:12:40Z</time>
      </trkpt>
      <trkpt lat="50.40319" lon="3.21663">
        <ele>16</ele>
        <time>2017-08-21T08:14:40Z</time>
      </trkpt>
      <trkpt lat="50.40539" lon="3.2166">
        <ele>16</ele>
        <time>2017-08-21T08:16:40Z</time>
      </trkpt>
      <trkpt lat="50.40641" lon="3.21659">
        <ele>16</ele>
        <time>2017-08-21T08:18:40Z</time>
      </trkpt>
      <trkpt lat="50.40654" lon="3.21655">
        <ele>16</ele>
        <time>2017-08-21T08:20:40Z</time>
      </trkpt>
      <trkpt lat="50.40656" lon="3.21655">
        <ele>16</ele>
        <time>2017-08-21T08:22:40Z</time>
      </trkpt>
      <trkpt lat="50.40663" lon="3.21652">
        <ele>16</ele>
        <time>2017-08-21T08:24:40Z</time>
      </trkpt>
      <trkpt lat="50.40671" lon="3.2165">
        <ele>16</ele>
        <time>2017-08-21T08:26:40Z</time>
      </trkpt>
      <trkpt lat="50.40675" lon="3.21649">
        <ele>16</ele>
        <time>2017-08-21T08:28:40Z</time>
      </trkpt>
      <trkpt lat="50.40679" lon="3.21647">
        <ele>16</ele>
        <time>2017-08-21T08:30:40Z</time>
      </trkpt>
      <trkpt lat="50.40688" lon="3.21636">
        <ele>16</ele>
        <time>2017-08-21T08:32:40Z</time>
      </trkpt>
      <trkpt lat="50.40708" lon="3.21618">
        <ele>16</ele>
        <time>2017-08-21T08:34:40Z</time>
      </trkpt>
      <trkpt lat="50.40723" lon="3.21609">
        <ele>16</ele>
        <time>2017-08-21T08:36:40Z</time>
      </trkpt>
      <trkpt lat="50.40723" lon="3.21609">
        <ele>16</ele>
        <time>2017-08-21T08:38:40Z</time>
      </trkpt>
      <trkpt lat="50.40732" lon="3.21595">
        <ele>16</ele>
        <time>2017-08-21T08:40:40Z</time>
      </trkpt>
      <trkpt lat="50.40744" lon="3.21579">
        <ele>16</ele>
        <time>2017-08-21T08:42:40Z</time>
      </trkpt>
      <trkpt lat="50.40786" lon="3.21537">
        <ele>17</ele>
        <time>2017-08-21T08:44:40Z</time>
      </trkpt>
      <trkpt lat="50.40881" lon="3.21441">
        <ele>18</ele>
        <time>2017-08-21T08:46:40Z</time>
      </trkpt>
      <trkpt lat="50.40907" lon="3.21412">
        <ele>18</ele>
        <time>2017-08-21T08:48:40Z</time>
      </trkpt>
      <trkpt lat="50.40913" lon="3.21405">
        <ele>18</ele>
        <time>2017-08-21T08:50:40Z</time>
      </trkpt>
      <trkpt lat="50.40918" lon="3.21395">
        <ele>18</ele>
        <time>2017-08-21T08:52:40Z</time>
      </trkpt>
      <trkpt lat="50.40921" lon="3.21387">
        <ele>18</ele>
        <time>2017-08-21T08:54:40Z</time>
      </trkpt>
      <trkpt lat="50.40947" lon="3.21291">
        <ele>19</ele>
        <time>2017-08-21T08:56:40Z</time>
      </trkpt>
      <trkpt lat="50.40953" lon="3.2127">
        <ele>19</ele>
        <time>2017-08-21T08:58:40Z</time>
      </trkpt>
      <trkpt lat="50.40962" lon="3.21236">
        <ele>19</ele>
        <time>2017-08-21T09:00:40Z</time>
      </trkpt>
      <trkpt lat="50.40983" lon="3.21162">
        <ele>19</ele>
        <time>2017-08-21T09:02:40Z</time>
      </trkpt>
      <trkpt lat="50.40996" lon="3.2113">
        <ele>19</ele>
        <time>2017-08-21T09:04:40Z</time>
      </trkpt>
      <trkpt lat="50.41012" lon="3.21095">
        <ele>18</ele>
        <time>2017-08-21T09:06:40Z</time>
      </trkpt>
      <trkpt lat="50.41035" lon="3.21042">
        <ele>18</ele>
        <time>2017-08-21T09:08:40Z</time>
      </trkpt>
      <trkpt lat="50.41045" lon="3.21022">
        <ele>18</ele>
        <time>2017-08-21T09:10:40Z</time>
      </trkpt>
      <trkpt lat="50.41058" lon="3.20997">
        <ele>18</ele>
        <time>2017-08-21T09:12:40Z</time>
      </trkpt>
      <trkpt lat="50.41072" lon="3.20972">
        <ele>18</ele>
        <time>2017-08-21T09:14:40Z</time>
      </trkpt>
      <trkpt lat="50.41164" lon="3.20841">
        <ele>18</ele>
        <time>2017-08-21T09:16:40Z</time>
      </trkpt>
      <trkpt lat="50.41183" lon="3.20816">
        <ele>18</ele>
        <time>2017-08-21T09:18:40Z</time>
      </trkpt>
      <trkpt lat="50.41299" lon="3.2067">
        <ele>20</ele>
        <time>2017-08-21T09:20:40Z</time>
      </trkpt>
      <trkpt lat="50.41322" lon="3.20637">
        <ele>20</ele>
        <time>2017-08-21T09:22:40Z</time>
      </trkpt>
      <trkpt lat="50.41344" lon="3.206">
        <ele>20</ele>
        <time>2017-08-21T09:24:40Z</time>
      </trkpt>
      <trkpt lat="50.41383" lon="3.20537">
        <ele>20</ele>
        <time>2017-08-21T09:26:40Z</time>
      </trkpt>
      <trkpt lat="50.41406" lon="3.20495">
        <ele>20</ele>
        <time>2017-08-21T09:28:40Z</time>
      </trkpt>
      <trkpt lat="50.41515" lon="3.2027">
        <ele>20</ele>
        <time>2017-08-21T09:30:40Z</time>
      </trkpt>
      <trkpt lat="50.41519" lon="3.20263">
        <ele>20</ele>
        <time>2017-08-21T09:32:40Z</time>
      </trkpt>
      <trkpt lat="50.41523" lon="3.20257">
        <ele>20</ele>
        <time>2017-08-21T09:34:40Z</time>
      </trkpt>
      <trkpt lat="50.41527" lon="3.2025">
        <ele>20</ele>
        <time>2017-08-21T09:36:40Z</time>
      </trkpt>
      <trkpt lat="50.41529" lon="3.20245">
        <ele>20</ele>
        <time>2017-08-21T09:38:40Z</time>
      </trkpt>
      <trkpt lat="50.41532" lon="3.2024">
        <ele>20</ele>
        <time>2017-08-21T09:40:40Z</time>
      </trkpt>
      <trkpt lat="50.41533" lon="3.20236">
        <ele>20</ele>
        <time>2017-08-21T09:42:40Z</time>
      </trkpt>
      <trkpt lat="50.41535" lon="3.20231">
        <ele>19</ele>
        <time>2017-08-21T09:44:40Z</time>
      </trkpt>
      <trkpt lat="50.41535" lon="3.20228">
        <ele>19</ele>
        <time>2017-08-21T09:46:40Z</time>
      </trkpt>
      <trkpt lat="50.41536" lon="3.20226">
        <ele>19</ele>
        <time>2017-08-21T09:48:40Z</time>
      </trkpt>
      <trkpt lat="50.41537" lon="3.20225">
        <ele>19</ele>
        <time>2017-08-21T09:50:40Z</time>
      </trkpt>
      <trkpt lat="50.41538" lon="3.20225">
        <ele>19</ele>
        <time>2017-08-21T09:52:40Z</time>
      </trkpt>
      <trkpt lat="50.4154" lon="3.20222">
        <ele>19</ele>
        <time>2017-08-21T09:54:40Z</time>
      </trkpt>
      <trkpt lat="50.41541" lon="3.2022">
        <ele>19</ele>
        <time>2017-08-21T09:56:40Z</time>
      </trkpt>
      <trkpt lat="50.41541" lon="3.20217">
        <ele>19</ele>
        <time>2017-08-21T09:58:40Z</time>
      </trkpt>
      <trkpt lat="50.41541" lon="3.20214">
        <ele>19</ele>
        <time>2017-08-21T10:00:40Z</time>
      </trkpt>
      <trkpt lat="50.4154" lon="3.20212">
        <ele>19</ele>
        <time>2017-08-21T10:02:40Z</time>
      </trkpt>
      <trkpt lat="50.41549" lon="3.20208">
        <ele>19</ele>
        <time>2017-08-21T10:04:40Z</time>
      </trkpt>
      <trkpt lat="50.41556" lon="3.20204">
        <ele>19</ele>
        <time>2017-08-21T10:06:40Z</time>
      </trkpt>
      <trkpt lat="50.41556" lon="3.20204">
        <ele>19</ele>
        <time>2017-08-21T10:08:40Z</time>
      </trkpt>
      <trkpt lat="50.41556" lon="3.20192">
        <ele>19</ele>
        <time>2017-08-21T10:10:40Z</time>
      </trkpt>
      <trkpt lat="50.41554" lon="3.20169">
        <ele>19</ele>
        <time>2017-08-21T10:12:40Z</time>
      </trkpt>
      <trkpt lat="50.41553" lon="3.2016">
        <ele>19</ele>
        <time>2017-08-21T10:14:40Z</time>
      </trkpt>
      <trkpt lat="50.41552" lon="3.2015">
        <ele>19</ele>
        <time>2017-08-21T10:16:40Z</time>
      </trkpt>
      <trkpt lat="50.41545" lon="3.20105">
        <ele>19</ele>
        <time>2017-08-21T10:18:40Z</time>
      </trkpt>
      <trkpt lat="50.4154" lon="3.20077">
        <ele>18</ele>
        <time>2017-08-21T10:20:40Z</time>
      </trkpt>
      <trkpt lat="50.41527" lon="3.2002">
        <ele>18</ele>
        <time>2017-08-21T10:22:40Z</time>
      </trkpt>
      <trkpt lat="50.41507" lon="3.19942">
        <ele>17</ele>
        <time>2017-08-21T10:24:40Z</time>
      </trkpt>
      <trkpt lat="50.41495" lon="3.19892">
        <ele>17</ele>
        <time>2017-08-21T10:26:40Z</time>
      </trkpt>
      <trkpt lat="50.41478" lon="3.19842">
        <ele>17</ele>
        <time>2017-08-21T10:28:40Z</time>
      </trkpt>
      <trkpt lat="50.41462" lon="3.19799">
        <ele>17</ele>
        <time>2017-08-21T10:30:40Z</time>
      </trkpt>
      <trkpt lat="50.41431" lon="3.19717">
        <ele>17</ele>
        <time>2017-08-21T10:32:40Z</time>
      </trkpt>
      <trkpt lat="50.41378" lon="3.19577">
        <ele>18</ele>
        <time>2017-08-21T10:34:40Z</time>
      </trkpt>
      <trkpt lat="50.41324" lon="3.19439">
        <ele>17</ele>
        <time>2017-08-21T10:36:40Z</time>
      </trkpt>
      <trkpt lat="50.41317" lon="3.19419">
        <ele>17</ele>
        <time>2017-08-21T10:38:40Z</time>
      </trkpt>
      <trkpt lat="50.41312" lon="3.19408">
        <ele>17</ele>
        <time>2017-08-21T10:40:40Z</time>
      </trkpt>
      <trkpt lat="50.4131" lon="3.19405">
        <ele>17</ele>
        <time>2017-08-21T10:42:40Z</time>
      </trkpt>
      <trkpt lat="50.41306" lon="3.19402">
        <ele>17</ele>
        <time>2017-08-21T10:44:40Z</time>
      </trkpt>
      <trkpt lat="50.41306" lon="3.19402">
        <ele>17</ele>
        <time>2017-08-21T10:46:40Z</time>
      </trkpt>
      <trkpt lat="50.41304" lon="3.19384">
        <ele>17</ele>
        <time>2017-08-21T10:48:40Z</time>
      </trkpt>
      <trkpt lat="50.41298" lon="3.19334">
        <ele>17</ele>
        <time>2017-08-21T10:50:40Z</time>
      </trkpt>
      <trkpt lat="50.41291" lon="3.19277">
        <ele>18</ele>
        <time>2017-08-21T10:52:40Z</time>
      </trkpt>
      <trkpt lat="50.41289" lon="3.19242">
        <ele>18</ele>
        <time>2017-08-21T10:54:40Z</time>
      </trkpt>
      <trkpt lat="50.41289" lon="3.19233">
        <ele>18</ele>
        <time>2017-08-21T10:56:40Z</time>
      </trkpt>
      <trkpt lat="50.41291" lon="3.19225">
        <ele>18</ele>
        <time>2017-08-21T10:58:40Z</time>
      </trkpt>
      <trkpt lat="50.41295" lon="3.19217">
        <ele>18</ele>
        <time>2017-08-21T11:00:40Z</time>
      </trkpt>
      <trkpt lat="50.41327" lon="3.19172">
        <ele>19</ele>
        <time>2017-08-21T11:02:40Z</time>
      </trkpt>
      <trkpt lat="50.41334" lon="3.19163">
        <ele>19</ele>
        <time>2017-08-21T11:04:40Z</time>
      </trkpt>
      <trkpt lat="50.41338" lon="3.19155">
        <ele>19</ele>
        <time>2017-08-21T11:06:40Z</time>
      </trkpt>
      <trkpt lat="50.41342" lon="3.19143">
        <ele>19</ele>
        <time>2017-08-21T11:08:40Z</time>
      </trkpt>
      <trkpt lat="50.41348" lon="3.19122">
        <ele>19</ele>
        <time>2017-08-21T11:10:40Z</time>
      </trkpt>
      <trkpt lat="50.41363" lon="3.1905">
        <ele>19</ele>
        <time>2017-08-21T11:12:40Z</time>
      </trkpt>
      <trkpt lat="50.41367" lon="3.19021">
        <ele>19</ele>
        <time>2017-08-21T11:14:40Z</time>
      </trkpt>
      <trkpt lat="50.41367" lon="3.19021">
        <ele>19</ele>
        <time>2017-08-21T11:16:40Z</time>
      </trkpt>
      <trkpt lat="50.41404" lon="3.19032">
        <ele>20</ele>
        <time>2017-08-21T11:18:40Z</time>
      </trkpt>
      <trkpt lat="50.41413" lon="3.19033">
        <ele>20</ele>
        <time>2017-08-21T11:20:40Z</time>
      </trkpt>
      <trkpt lat="50.41423" lon="3.19032">
        <ele>20</ele>
        <time>2017-08-21T11:22:40Z</time>
      </trkpt>
      <trkpt lat="50.41433" lon="3.1903">
        <ele>20</ele>
        <time>2017-08-21T11:24:40Z</time>
      </trkpt>
      <trkpt lat="50.41449" lon="3.19022">
        <ele>20</ele>
        <time>2017-08-21T11:26:40Z</time>
      </trkpt>
      <trkpt lat="50.41464" lon="3.19007">
        <ele>19</ele>
        <time>2017-08-21T11:28:40Z</time>
      </trkpt>
      <trkpt lat="50.41469" lon="3.19001">
        <ele>19</ele>
        <time>2017-08-21T11:30:40Z</time>
      </trkpt>
      <trkpt lat="50.41477" lon="3.18987">
        <ele>19</ele>
        <time>2017-08-21T11:32:40Z</time>
      </trkpt>
      <trkpt lat="50.4153" lon="3.18883">
        <ele>19</ele>
        <time>2017-08-21T11:34:40Z</time>
      </trkpt>
      <trkpt lat="50.41548" lon="3.18846">
        <ele>19</ele>
        <time>2017-08-21T11:36:40Z</time>
      </trkpt>
      <trkpt lat="50.41561" lon="3.18818">
        <ele>19</ele>
        <time>2017-08-21T11:38:40Z</time>
      </trkpt>
      <trkpt lat="50.41567" lon="3.18802">
        <ele>19</ele>
        <time>2017-08-21T11:40:40Z</time>
      </trkpt>
      <trkpt lat="50.41588" lon="3.18755">
        <ele>19</ele>
        <time>2017-08-21T11:42:40Z</time>
      </trkpt>
      <trkpt lat="50.41638" lon="3.18637">
        <ele>19</ele>
        <time>2017-08-21T11:44:40Z</time>
      </trkpt>
      <trkpt lat="50.41641" lon="3.18626">
        <ele>19</ele>
        <time>2017-08-21T11:46:40Z</time>
      </trkpt>
      <trkpt lat="50.41644" lon="3.18609">
        <ele>19</ele>
        <time>2017-08-21T11:48:40Z</time>
      </trkpt>
      <trkpt lat="50.41646" lon="3.18594">
        <ele>19</ele>
        <time>2017-08-21T11:50:40Z</time>
      </trkpt>
      <trkpt lat="50.41646" lon="3.18547">
        <ele>19</ele>
        <time>2017-08-21T11:52:40Z</time>
      </trkpt>
      <trkpt lat="50.41647" lon="3.18524">
        <ele>19</ele>
        <time>2017-08-21T11:54:40Z</time>
      </trkpt>
      <trkpt lat="50.41649" lon="3.18512">
        <ele>19</ele>
        <time>2017-08-21T11:56:40Z</time>
      </trkpt>
      <trkpt lat="50.41652" lon="3.185">
        <ele>19</ele>
        <time>2017-08-21T11:58:40Z</time>
      </trkpt>
      <trkpt lat="50.41657" lon="3.18488">
        <ele>19</ele>
        <time>2017-08-21T12:00:40Z</time>
      </trkpt>
      <trkpt lat="50.41662" lon="3.18478">
        <ele>19</ele>
        <time>2017-08-21T12:02:40Z</time>
      </trkpt>
      <trkpt lat="50.41668" lon="3.18468">
        <ele>19</ele>
        <time>2017-08-21T12:04:40Z</time>
      </trkpt>
      <trkpt lat="50.41675" lon="3.18461">
        <ele>19</ele>
        <time>2017-08-21T12:06:40Z</time>
      </trkpt>
      <trkpt lat="50.41683" lon="3.18454">
        <ele>19</ele>
        <time>2017-08-21T12:08:40Z</time>
      </trkpt>
      <trkpt lat="50.41691" lon="3.1845">
        <ele>19</ele>
        <time>2017-08-21T12:10:40Z</time>
      </trkpt>
      <trkpt lat="50.41698" lon="3.18447">
        <ele>19</ele>
        <time>2017-08-21T12:12:40Z</time>
      </trkpt>
      <trkpt lat="50.41723" lon="3.18443">
        <ele>20</ele>
        <time>2017-08-21T12:14:40Z</time>
      </trkpt>
      <trkpt lat="50.41747" lon="3.18439">
        <ele>20</ele>
        <time>2017-08-21T12:16:40Z</time>
      </trkpt>
      <trkpt lat="50.41779" lon="3.18428">
        <ele>20</ele>
        <time>2017-08-21T12:18:40Z</time>
      </trkpt>
      <trkpt lat="50.41795" lon="3.18424">
        <ele>21</ele>
        <time>2017-08-21T12:20:40Z</time>
      </trkpt>
      <trkpt lat="50.41811" lon="3.18426">
        <ele>21</ele>
        <time>2017-08-21T12:22:40Z</time>
      </trkpt>
      <trkpt lat="50.41841" lon="3.18433">
        <ele>21</ele>
        <time>2017-08-21T12:24:40Z</time>
      </trkpt>
      <trkpt lat="50.41854" lon="3.18438">
        <ele>21</ele>
        <time>2017-08-21T12:26:40Z</time>
      </trkpt>
      <trkpt lat="50.41864" lon="3.18445">
        <ele>21</ele>
        <time>2017-08-21T12:28:40Z</time>
      </trkpt>
      <trkpt lat="50.41924" lon="3.18498">
        <ele>21</ele>
        <time>2017-08-21T12:30:40Z</time>
      </trkpt>
      <trkpt lat="50.41932" lon="3.18505">
        <ele>21</ele>
        <time>2017-08-21T12:32:40Z</time>
      </trkpt>
      <trkpt lat="50.41945" lon="3.18522">
        <ele>21</ele>
        <time>2017-08-21T12:34:40Z</time>
      </trkpt>
      <trkpt lat="50.41967" lon="3.18557">
        <ele>21</ele>
        <time>2017-08-21T12:36:40Z</time>
      </trkpt>
      <trkpt lat="50.41978" lon="3.18577">
        <ele>21</ele>
        <time>2017-08-21T12:38:40Z</time>
      </trkpt>
      <trkpt lat="50.41991" lon="3.18605">
        <ele>21</ele>
        <time>2017-08-21T12:40:40Z</time>
      </trkpt>
      <trkpt lat="50.41991" lon="3.18605">
        <ele>21</ele>
        <time>2017-08-21T12:42:40Z</time>
      </trkpt>
      <trkpt lat="50.41994" lon="3.18612">
        <ele>21</ele>
        <time>2017-08-21T12:44:40Z</time>
      </trkpt>
      <trkpt lat="50.42001" lon="3.18629">
        <ele>22</ele>
        <time>2017-08-21T12:46:40Z</time>
      </trkpt>
      <trkpt lat="50.42007" lon="3.1865">
        <ele>22</ele>
        <time>2017-08-21T12:48:40Z</time>
      </trkpt>
      <trkpt lat="50.42007" lon="3.1865">
        <ele>22</ele>
        <time>2017-08-21T12:50:40Z</time>
      </trkpt>
      <trkpt lat="50.42035" lon="3.18608">
        <ele>21</ele>
        <time>2017-08-21T12:52:40Z</time>
      </trkpt>
      <trkpt lat="50.42042" lon="3.18594">
        <ele>21</ele>
        <time>2017-08-21T12:54:40Z</time>
      </trkpt>
      <trkpt lat="50.42043" lon="3.18586">
        <ele>20</ele>
        <time>2017-08-21T12:56:40Z</time>
      </trkpt>
      <trkpt lat="50.42049" lon="3.18537">
        <ele>20</ele>
        <time>2017-08-21T12:58:40Z</time>
      </trkpt>
      <trkpt lat="50.42053" lon="3.18519">
        <ele>20</ele>
        <time>2017-08-21T13:00:40Z</time>
      </trkpt>
      <trkpt lat="50.42066" lon="3.18469">
        <ele>20</ele>
        <time>2017-08-21T13:02:40Z</time>
      </trkpt>
      <trkpt lat="50.42071" lon="3.18445">
        <ele>19</ele>
        <time>2017-08-21T13:04:40Z</time>
      </trkpt>
      <trkpt lat="50.42084" lon="3.18362">
        <ele>18</ele>
        <time>2017-08-21T13:06:40Z</time>
      </trkpt>
      <trkpt lat="50.42086" lon="3.18354">
        <ele>18</ele>
        <time>2017-08-21T13:08:40Z</time>
      </trkpt>
      <trkpt lat="50.42088" lon="3.18348">
        <ele>18</ele>
        <time>2017-08-21T13:10:40Z</time>
      </trkpt>
      <trkpt lat="50.4209" lon="3.18345">
        <ele>18</ele>
        <time>2017-08-21T13:12:40Z</time>
      </trkpt>
      <trkpt lat="50.42104" lon="3.18338">
        <ele>18</ele>
        <time>2017-08-21T13:14:40Z</time>
      </trkpt>
      <trkpt lat="50.42117" lon="3.18328">
        <ele>18</ele>
        <time>2017-08-21T13:16:40Z</time>
      </trkpt>
      <trkpt lat="50.42132" lon="3.18315">
        <ele>19</ele>
        <time>2017-08-21T13:18:40Z</time>
      </trkpt>
      <trkpt lat="50.42144" lon="3.18299">
        <ele>19</ele>
        <time>2017-08-21T13:20:40Z</time>
      </trkpt>
      <trkpt lat="50.42153" lon="3.18283">
        <ele>19</ele>
        <time>2017-08-21T13:22:40Z</time>
      </trkpt>
      <trkpt lat="50.42155" lon="3.1828">
        <ele>20</ele>
        <time>2017-08-21T13:24:40Z</time>
      </trkpt>
      <trkpt lat="50.42164" lon="3.18256">
        <ele>20</ele>
        <time>2017-08-21T13:26:40Z</time>
      </trkpt>
      <trkpt lat="50.42172" lon="3.18232">
        <ele>20</ele>
        <time>2017-08-21T13:28:40Z</time>
      </trkpt>
      <trkpt lat="50.42195" lon="3.18145">
        <ele>20</ele>
        <time>2017-08-21T13:30:40Z</time>
      </trkpt>
      <trkpt lat="50.42203" lon="3.18116">
        <ele>20</ele>
        <time>2017-08-21T13:32:40Z</time>
      </trkpt>
      <trkpt lat="50.42206" lon="3.18107">
        <ele>20</ele>
        <time>2017-08-21T13:34:40Z</time>
      </trkpt>
      <trkpt lat="50.42208" lon="3.181">
        <ele>20</ele>
        <time>2017-08-21T13:36:40Z</time>
      </trkpt>
      <trkpt lat="50.42211" lon="3.18094">
        <ele>20</ele>
        <time>2017-08-21T13:38:40Z</time>
      </trkpt>
      <trkpt lat="50.42215" lon="3.18088">
        <ele>20</ele>
        <time>2017-08-21T13:40:40Z</time>
      </trkpt>
      <trkpt lat="50.42215" lon="3.18088">
        <ele>20</ele>
        <time>2017-08-21T13:42:40Z</time>
      </trkpt>
      <trkpt lat="50.42224" lon="3.18071">
        <ele>20</ele>
        <time>2017-08-21T13:44:40Z</time>
      </trkpt>
      <trkpt lat="50.42229" lon="3.1806">
        <ele>20</ele>
        <time>2017-08-21T13:46:40Z</time>
      </trkpt>
      <trkpt lat="50.42232" lon="3.18055">
        <ele>20</ele>
        <time>2017-08-21T13:48:40Z</time>
      </trkpt>
      <trkpt lat="50.42237" lon="3.18052">
        <ele>20</ele>
        <time>2017-08-21T13:50:40Z</time>
      </trkpt>
      <trkpt lat="50.42314" lon="3.18017">
        <ele>19</ele>
        <time>2017-08-21T13:52:40Z</time>
      </trkpt>
      <trkpt lat="50.42343" lon="3.18002">
        <ele>19</ele>
        <time>2017-08-21T13:54:40Z</time>
      </trkpt>
      <trkpt lat="50.42356" lon="3.17994">
        <ele>19</ele>
        <time>2017-08-21T13:56:40Z</time>
      </trkpt>
      <trkpt lat="50.42402" lon="3.17975">
        <ele>20</ele>
        <time>2017-08-21T13:58:40Z</time>
      </trkpt>
      <trkpt lat="50.42426" lon="3.17964">
        <ele>20</ele>
        <time>2017-08-21T14:00:40Z</time>
      </trkpt>
      <trkpt lat="50.42426" lon="3.17964">
        <ele>20</ele>
        <time>2017-08-21T14:02:40Z</time>
      </trkpt>
      <trkpt lat="50.42473" lon="3.18037">
        <ele>21</ele>
        <time>2017-08-21T14:04:40Z</time>
      </trkpt>
      <trkpt lat="50.42547" lon="3.18152">
        <ele>23</ele>
        <time>2017-08-21T14:06:40Z</time>
      </trkpt>
      <trkpt lat="50.42613" lon="3.18253">
        <ele>23</ele>
        <time>2017-08-21T14:08:40Z</time>
      </trkpt>
      <trkpt lat="50.42613" lon="3.18253">
        <ele>23</ele>
        <time>2017-08-21T14:10:40Z</time>
      </trkpt>
      <trkpt lat="50.42607" lon="3.18258">
        <ele>23</ele>
        <time>2017-08-21T14:12:40Z</time>
      </trkpt>
      <trkpt lat="50.42603" lon="3.1826">
        <ele>23</ele>
        <time>2017-08-21T14:14:40Z</time>
      </trkpt>
      <trkpt lat="50.42596" lon="3.18261">
        <ele>23</ele>
        <time>2017-08-21T14:16:40Z</time>
      </trkpt>
      <trkpt lat="50.42592" lon="3.1826">
        <ele>23</ele>
        <time>2017-08-21T14:18:40Z</time>
      </trkpt>
      <trkpt lat="50.42581" lon="3.18255">
        <ele>23</ele>
        <time>2017-08-21T14:20:40Z</time>
      </trkpt>
      <trkpt lat="50.42577" lon="3.18254">
        <ele>23</ele>
        <time>2017-08-21T14:22:40Z</time>
      </trkpt>
      <trkpt lat="50.42533" lon="3.18258">
        <ele>22</ele>
        <time>2017-08-21T14:24:40Z</time>
      </trkpt>
      <trkpt lat="50.42522" lon="3.18258">
        <ele>22</ele>
        <time>2017-08-21T14:26:40Z</time>
      </trkpt>
      <trkpt lat="50.42507" lon="3.18257">
        <ele>22</ele>
        <time>2017-08-21T14:28:40Z</time>
      </trkpt>
      <trkpt lat="50.42501" lon="3.18256">
        <ele>22</ele>
        <time>2017-08-21T14:30:40Z</time>
      </trkpt>
      <trkpt lat="50.42381" lon="3.18222">
        <ele>21</ele>
        <time>2017-08-21T14:32:40Z</time>
      </trkpt>
      <trkpt lat="50.42358" lon="3.18216">
        <ele>21</ele>
        <time>2017-08-21T14:34:40Z</time>
      </trkpt>
      <trkpt lat="50.42358" lon="3.18216">
        <ele>21</ele>
        <time>2017-08-21T14:36:40Z</time>
      </trkpt>
      <trkpt lat="50.42349" lon="3.18228">
        <ele>21</ele>
        <time>2017-08-21T14:38:40Z</time>
      </trkpt>
      <trkpt lat="50.42333" lon="3.18243">
        <ele>21</ele>
        <time>2017-08-21T14:40:40Z</time>
      </trkpt>
      <trkpt lat="50.42302" lon="3.18277">
        <ele>21</ele>
        <time>2017-08-21T14:42:40Z</time>
      </trkpt>
      <trkpt lat="50.42302" lon="3.18277">
        <ele>21</ele>
        <time>2017-08-21T14:44:40Z</time>
      </trkpt>
      <trkpt lat="50.42302" lon="3.18282">
        <ele>21</ele>
        <time>2017-08-21T14:46:40Z</time>
      </trkpt>
      <trkpt lat="50.42299" lon="3.18324">
        <ele>21</ele>
        <time>2017-08-21T14:48:40Z</time>
      </trkpt>
      <trkpt lat="50.42287" lon="3.18432">
        <ele>21</ele>
        <time>2017-08-21T14:50:40Z</time>
      </trkpt>
      <trkpt lat="50.42283" lon="3.18458">
        <ele>21</ele>
        <time>2017-08-21T14:52:40Z</time>
      </trkpt>
      <trkpt lat="50.42273" lon="3.18501">
        <ele>21</ele>
        <time>2017-08-21T14:54:40Z</time>
      </trkpt>
      <trkpt lat="50.42269" lon="3.18519">
        <ele>21</ele>
        <time>2017-08-21T14:56:40Z</time>
      </trkpt>
      <trkpt lat="50.42266" lon="3.18537">
        <ele>21</ele>
        <time>2017-08-21T14:58:40Z</time>
      </trkpt>
      <trkpt lat="50.42259" lon="3.18588">
        <ele>21</ele>
        <time>2017-08-21T15:00:40Z</time>
      </trkpt>
      <trkpt lat="50.42255" lon="3.1862">
        <ele>21</ele>
        <time>2017-08-21T15:02:40Z</time>
      </trkpt>
      <trkpt lat="50.42249" lon="3.1869">
        <ele>21</ele>
        <time>2017-08-21T15:04:40Z</time>
      </trkpt>
      <trkpt lat="50.42243" lon="3.18768">
        <ele>21</ele>
        <time>2017-08-21T15:06:40Z</time>
      </trkpt>
      <trkpt lat="50.4224" lon="3.18805">
        <ele>21</ele>
        <time>2017-08-21T15:08:40Z</time>
      </trkpt>
      <trkpt lat="50.42235" lon="3.18869">
        <ele>21</ele>
        <time>2017-08-21T15:10:40Z</time>
      </trkpt>
      <trkpt lat="50.42235" lon="3.18888">
        <ele>21</ele>
        <time>2017-08-21T15:12:40Z</time>
      </trkpt>
      <trkpt lat="50.42237" lon="3.18909">
        <ele>21</ele>
        <time>2017-08-21T15:14:40Z</time>
      </trkpt>
      <trkpt lat="50.42237" lon="3.18928">
        <ele>21</ele>
        <time>2017-08-21T15:16:40Z</time>
      </trkpt>
      <trkpt lat="50.42234" lon="3.18966">
        <ele>21</ele>
        <time>2017-08-21T15:18:40Z</time>
      </trkpt>
      <trkpt lat="50.42232" lon="3.18975">
        <ele>21</ele>
        <time>2017-08-21T15:20:40Z</time>
      </trkpt>
      <trkpt lat="50.42226" lon="3.19001">
        <ele>20</ele>
        <time>2017-08-21T15:22:40Z</time>
      </trkpt>
      <trkpt lat="50.42218" lon="3.19027">
        <ele>20</ele>
        <time>2017-08-21T15:24:40Z</time>
      </trkpt>
      <trkpt lat="50.42208" lon="3.19054">
        <ele>21</ele>
        <time>2017-08-21T15:26:40Z</time>
      </trkpt>
      <trkpt lat="50.42194" lon="3.19094">
        <ele>21</ele>
        <time>2017-08-21T15:28:40Z</time>
      </trkpt>
      <trkpt lat="50.42193" lon="3.19097">
        <ele>21</ele>
        <time>2017-08-21T15:30:40Z</time>
      </trkpt>
      <trkpt lat="50.42174" lon="3.19149">
        <ele>20</ele>
        <time>2017-08-21T15:32:40Z</time>
      </trkpt>
      <trkpt lat="50.42161" lon="3.19185">
        <ele>20</ele>
        <time>2017-08-21T15:34:40Z</time>
      </trkpt>
      <trkpt lat="50.42157" lon="3.19195">
        <ele>20</ele>
        <time>2017-08-21T15:36:40Z</time>
      </trkpt>
      <trkpt lat="50.42149" lon="3.19213">
        <ele>20</ele>
        <time>2017-08-21T15:38:40Z</time>
      </trkpt>
      <trkpt lat="50.42142" lon="3.1923">
        <ele>20</ele>
        <time>2017-08-21T15:40:40Z</time>
      </trkpt>
      <trkpt lat="50.42139" lon="3.19241">
        <ele>20</ele>
        <time>2017-08-21T15:42:40Z</time>
      </trkpt>
      <trkpt lat="50.42135" lon="3.19257">
        <ele>20</ele>
        <time>2017-08-21T15:44:40Z</time>
      </trkpt>
      <trkpt lat="50.42132" lon="3.19274">
        <ele>20</ele>
        <time>2017-08-21T15:46:40Z</time>
      </trkpt>
      <trkpt lat="50.42132" lon="3.19274">
        <ele>20</ele>
        <time>2017-08-21T15:48:40Z</time>
      </trkpt>
      <trkpt lat="50.42081" lon="3.19276">
        <ele>22</ele>
        <time>2017-08-21T15:50:40Z</time>
      </trkpt>
      <trkpt lat="50.42081" lon="3.19276">
        <ele>22</ele>
        <time>2017-08-21T15:52:40Z</time>
      </trkpt>
      <trkpt lat="50.42082" lon="3.19291">
        <ele>21</ele>
        <time>2017-08-21T15:54:40Z</time>
      </trkpt>
      <trkpt lat="50.42093" lon="3.19384">
        <ele>21</ele>
        <time>2017-08-21T15:56:40Z</time>
      </trkpt>
      <trkpt lat="50.42093" lon="3.19431">
        <ele>21</ele>
        <time>2017-08-21T15:58:40Z</time>
      </trkpt>
      <trkpt lat="50.42092" lon="3.19479">
        <ele>20</ele>
        <time>2017-08-21T16:00:40Z</time>
      </trkpt>
      <trkpt lat="50.42091" lon="3.19497">
        <ele>20</ele>
        <time>2017-08-21T16:02:40Z</time>
      </trkpt>
      <trkpt lat="50.42089" lon="3.19507">
        <ele>20</ele>
        <time>2017-08-21T16:04:40Z</time>
      </trkpt>
      <trkpt lat="50.42089" lon="3.19507">
        <ele>20</ele>
        <time>2017-08-21T16:06:40Z</time>
      </trkpt>
      <trkpt lat="50.42102" lon="3.19509">
        <ele>20</ele>
        <time>2017-08-21T16:08:40Z</time>
      </trkpt>
      <trkpt lat="50.42137" lon="3.19516">
        <ele>20</ele>
        <time>2017-08-21T16:10:40Z</time>
      </trkpt>
      <trkpt lat="50.42149" lon="3.19522">
        <ele>20</ele>
        <time>2017-08-21T16:12:40Z</time>
      </trkpt>
      <trkpt lat="50.42181" lon="3.19543">
        <ele>20</ele>
        <time>2017-08-21T16:14:40Z</time>
      </trkpt>
      <trkpt lat="50.42201" lon="3.1956">
        <ele>20</ele>
        <time>2017-08-21T16:16:40Z</time>
      </trkpt>
      <trkpt lat="50.42209" lon="3.19569">
        <ele>19</ele>
        <time>2017-08-21T16:18:40Z</time>
      </trkpt>
      <trkpt lat="50.4225" lon="3.19613">
        <ele>19</ele>
        <time>2017-08-21T16:20:40Z</time>
      </trkpt>
      <trkpt lat="50.42262" lon="3.19627">
        <ele>19</ele>
        <time>2017-08-21T16:22:40Z</time>
      </trkpt>
      <trkpt lat="50.42278" lon="3.19647">
        <ele>19</ele>
        <time>2017-08-21T16:24:40Z</time>
      </trkpt>
      <trkpt lat="50.42291" lon="3.19664">
        <ele>19</ele>
        <time>2017-08-21T16:26:40Z</time>
      </trkpt>
      <trkpt lat="50.42346" lon="3.19739">
        <ele>18</ele>
        <time>2017-08-21T16:28:40Z</time>
      </trkpt>
      <trkpt lat="50.42363" lon="3.19762">
        <ele>18</ele>
        <time>2017-08-21T16:30:40Z</time>
      </trkpt>
      <trkpt lat="50.42369" lon="3.19768">
        <ele>18</ele>
        <time>2017-08-21T16:32:40Z</time>
      </trkpt>
      <trkpt lat="50.42372" lon="3.1977">
        <ele>18</ele>
        <time>2017-08-21T16:34:40Z</time>
      </trkpt>
      <trkpt lat="50.42394" lon="3.19796">
        <ele>19</ele>
        <time>2017-08-21T16:36:40Z</time>
      </trkpt>
      <trkpt lat="50.42411" lon="3.1982">
        <ele>19</ele>
        <time>2017-08-21T16:38:40Z</time>
      </trkpt>
      <trkpt lat="50.42426" lon="3.19845">
        <ele>19</ele>
        <time>2017-08-21T16:40:40Z</time>
      </trkpt>
      <trkpt lat="50.42443" lon="3.19877">
        <ele>19</ele>
        <time>2017-08-21T16:42:40Z</time>
      </trkpt>
      <trkpt lat="50.42458" lon="3.19904">
        <ele>19</ele>
        <time>2017-08-21T16:44:40Z</time>
      </trkpt>
      <trkpt lat="50.42469" lon="3.19922">
        <ele>19</ele>
        <time>2017-08-21T16:46:40Z</time>
      </trkpt>
      <trkpt lat="50.42472" lon="3.19926">
        <ele>19</ele>
        <time>2017-08-21T16:48:40Z</time>
      </trkpt>
      <trkpt lat="50.42477" lon="3.1993">
        <ele>19</ele>
        <time>2017-08-21T16:50:40Z</time>
      </trkpt>
      <trkpt lat="50.42481" lon="3.19932">
        <ele>19</ele>
        <time>2017-08-21T16:52:40Z</time>
      </trkpt>
      <trkpt lat="50.42486" lon="3.19932">
        <ele>19</ele>
        <time>2017-08-21T16:54:40Z</time>
      </trkpt>
      <trkpt lat="50.42491" lon="3.19931">
        <ele>19</ele>
        <time>2017-08-21T16:56:40Z</time>
      </trkpt>
      <trkpt lat="50.42495" lon="3.1993">
        <ele>19</ele>
        <time>2017-08-21T16:58:40Z</time>
      </trkpt>
      <trkpt lat="50.425" lon="3.19926">
        <ele>19</ele>
        <time>2017-08-21T17:00:40Z</time>
      </trkpt>
      <trkpt lat="50.42508" lon="3.19921">
        <ele>19</ele>
        <time>2017-08-21T17:02:40Z</time>
      </trkpt>
      <trkpt lat="50.42515" lon="3.19914">
        <ele>19</ele>
        <time>2017-08-21T17:04:40Z</time>
      </trkpt>
      <trkpt lat="50.4252" lon="3.19907">
        <ele>19</ele>
        <time>2017-08-21T17:06:40Z</time>
      </trkpt>
      <trkpt lat="50.42539" lon="3.19883">
        <ele>19</ele>
        <time>2017-08-21T17:08:40Z</time>
      </trkpt>
      <trkpt lat="50.4257" lon="3.1984">
        <ele>19</ele>
        <time>2017-08-21T17:10:40Z</time>
      </trkpt>
      <trkpt lat="50.426" lon="3.19797">
        <ele>19</ele>
        <time>2017-08-21T17:12:40Z</time>
      </trkpt>
      <trkpt lat="50.4262" lon="3.19767">
        <ele>20</ele>
        <time>2017-08-21T17:14:40Z</time>
      </trkpt>
      <trkpt lat="50.42625" lon="3.19761">
        <ele>20</ele>
        <time>2017-08-21T17:16:40Z</time>
      </trkpt>
      <trkpt lat="50.42627" lon="3.1976">
        <ele>20</ele>
        <time>2017-08-21T17:18:40Z</time>
      </trkpt>
      <trkpt lat="50.42628" lon="3.19759">
        <ele>20</ele>
        <time>2017-08-21T17:20:40Z</time>
      </trkpt>
      <trkpt lat="50.42632" lon="3.19759">
        <ele>20</ele>
        <time>2017-08-21T17:22:40Z</time>
      </trkpt>
      <trkpt lat="50.42634" lon="3.1976">
        <ele>20</ele>
        <time>2017-08-21T17:24:40Z</time>
      </trkpt>
      <trkpt lat="50.42639" lon="3.19763">
        <ele>20</ele>
        <time>2017-08-21T17:26:40Z</time>
      </trkpt>
      <trkpt lat="50.42656" lon="3.1978">
        <ele>20</ele>
        <time>2017-08-21T17:28:40Z</time>
      </trkpt>
      <trkpt lat="50.42677" lon="3.19802">
        <ele>19</ele>
        <time>2017-08-21T17:30:40Z</time>
      </trkpt>
      <trkpt lat="50.42692" lon="3.19818">
        <ele>19</ele>
        <time>2017-08-21T17:32:40Z</time>
      </trkpt>
      <trkpt lat="50.42701" lon="3.19828">
        <ele>19</ele>
        <time>2017-08-21T17:34:40Z</time>
      </trkpt>
      <trkpt lat="50.42718" lon="3.1985">
        <ele>20</ele>
        <time>2017-08-21T17:36:40Z</time>
      </trkpt>
      <trkpt lat="50.42724" lon="3.19863">
        <ele>20</ele>
        <time>2017-08-21T17:38:40Z</time>
      </trkpt>
      <trkpt lat="50.42736" lon="3.19888">
        <ele>20</ele>
        <time>2017-08-21T17:40:40Z</time>
      </trkpt>
      <trkpt lat="50.42742" lon="3.19904">
        <ele>20</ele>
        <time>2017-08-21T17:42:40Z</time>
      </trkpt>
      <trkpt lat="50.42748" lon="3.19923">
        <ele>20</ele>
        <time>2017-08-21T17:44:40Z</time>
      </trkpt>
      <trkpt lat="50.42752" lon="3.19929">
        <ele>20</ele>
        <time>2017-08-21T17:46:40Z</time>
      </trkpt>
      <trkpt lat="50.42755" lon="3.19933">
        <ele>20</ele>
        <time>2017-08-21T17:48:40Z</time>
      </trkpt>
      <trkpt lat="50.42762" lon="3.19942">
        <ele>20</ele>
        <time>2017-08-21T17:50:40Z</time>
      </trkpt>
      <trkpt lat="50.42766" lon="3.19947">
        <ele>20</ele>
        <time>2017-08-21T17:52:40Z</time>
      </trkpt>
      <trkpt lat="50.42782" lon="3.19964">
        <ele>20</ele>
        <time>2017-08-21T17:54:40Z</time>
      </trkpt>
      <trkpt lat="50.42827" lon="3.20008">
        <ele>19</ele>
        <time>2017-08-21T17:56:40Z</time>
      </trkpt>
      <trkpt lat="50.42899" lon="3.20088">
        <ele>19</ele>
        <time>2017-08-21T17:58:40Z</time>
      </trkpt>
      <trkpt lat="50.42911" lon="3.20103">
        <ele>19</ele>
        <time>2017-08-21T18:00:40Z</time>
      </trkpt>
      <trkpt lat="50.42921" lon="3.20114">
        <ele>19</ele>
        <time>2017-08-21T18:02:40Z</time>
      </trkpt>
      <trkpt lat="50.42967" lon="3.20167">
        <ele>20</ele>
        <time>2017-08-21T18:04:40Z</time>
      </trkpt>
      <trkpt lat="50.4302" lon="3.20229">
        <ele>20</ele>
        <time>2017-08-21T18:06:40Z</time>
      </trkpt>
      <trkpt lat="50.43027" lon="3.2024">
        <ele>20</ele>
        <time>2017-08-21T18:08:40Z</time>
      </trkpt>
      <trkpt lat="50.43031" lon="3.20248">
        <ele>20</ele>
        <time>2017-08-21T18:10:40Z</time>
      </trkpt>
      <trkpt lat="50.43052" lon="3.20313">
        <ele>20</ele>
        <time>2017-08-21T18:12:40Z</time>
      </trkpt>
      <trkpt lat="50.4306" lon="3.20333">
        <ele>20</ele>
        <time>2017-08-21T18:14:40Z</time>
      </trkpt>
      <trkpt lat="50.43076" lon="3.20362">
        <ele>20</ele>
        <time>2017-08-21T18:16:40Z</time>
      </trkpt>
      <trkpt lat="50.43085" lon="3.20376">
        <ele>20</ele>
        <time>2017-08-21T18:18:40Z</time>
      </trkpt>
      <trkpt lat="50.43093" lon="3.20388">
        <ele>20</ele>
        <time>2017-08-21T18:20:40Z</time>
      </trkpt>
      <trkpt lat="50.431" lon="3.204">
        <ele>20</ele>
        <time>2017-08-21T18:22:40Z</time>
      </trkpt>
      <trkpt lat="50.43115" lon="3.20433">
        <ele>20</ele>
        <time>2017-08-21T18:24:40Z</time>
      </trkpt>
      <trkpt lat="50.43119" lon="3.20441">
        <ele>20</ele>
        <time>2017-08-21T18:26:40Z</time>
      </trkpt>
      <trkpt lat="50.4313" lon="3.20459">
        <ele>20</ele>
        <time>2017-08-21T18:28:40Z</time>
      </trkpt>
      <trkpt lat="50.43144" lon="3.20473">
        <ele>20</ele>
        <time>2017-08-21T18:30:40Z</time>
      </trkpt>
      <trkpt lat="50.43164" lon="3.20485">
        <ele>20</ele>
        <time>2017-08-21T18:32:40Z</time>
      </trkpt>
      <trkpt lat="50.4317" lon="3.20492">
        <ele>20</ele>
        <time>2017-08-21T18:34:40Z</time>
      </trkpt>
      <trkpt lat="50.43178" lon="3.20501">
        <ele>20</ele>
        <time>2017-08-21T18:36:40Z</time>
      </trkpt>
      <trkpt lat="50.43185" lon="3.20512">
        <ele>20</ele>
        <time>2017-08-21T18:38:40Z</time>
      </trkpt>
      <trkpt lat="50.43194" lon="3.20527">
        <ele>20</ele>
        <time>2017-08-21T18:40:40Z</time>
      </trkpt>
      <trkpt lat="50.43205" lon="3.20543">
        <ele>20</ele>
        <time>2017-08-21T18:42:40Z</time>
      </trkpt>
      <trkpt lat="50.43219" lon="3.20559">
        <ele>21</ele>
        <time>2017-08-21T18:44:40Z</time>
      </trkpt>
      <trkpt lat="50.43244" lon="3.20587">
        <ele>21</ele>
        <time>2017-08-21T18:46:40Z</time>
      </trkpt>
      <trkpt lat="50.43284" lon="3.20626">
        <ele>22</ele>
        <time>2017-08-21T18:48:40Z</time>
      </trkpt>
      <trkpt lat="50.43334" lon="3.20672">
        <ele>22</ele>
        <time>2017-08-21T18:50:40Z</time>
      </trkpt>
      <trkpt lat="50.43377" lon="3.207">
        <ele>23</ele>
        <time>2017-08-21T18:52:40Z</time>
      </trkpt>
      <trkpt lat="50.43383" lon="3.20705">
        <ele>23</ele>
        <time>2017-08-21T18:54:40Z</time>
      </trkpt>
      <trkpt lat="50.43391" lon="3.20715">
        <ele>23</ele>
        <time>2017-08-21T18:56:40Z</time>
      </trkpt>
      <trkpt lat="50.43395" lon="3.20724">
        <ele>23</ele>
        <time>2017-08-21T18:58:40Z</time>
      </trkpt>
      <trkpt lat="50.434" lon="3.20741">
        <ele>23</ele>
        <time>2017-08-21T19:00:40Z</time>
      </trkpt>
      <trkpt lat="50.434" lon="3.20741">
        <ele>23</ele>
        <time>2017-08-21T19:02:40Z</time>
      </trkpt>
      <trkpt lat="50.43416" lon="3.2074">
        <ele>23</ele>
        <time>2017-08-21T19:04:40Z</time>
      </trkpt>
      <trkpt lat="50.4345" lon="3.20742">
        <ele>23</ele>
        <time>2017-08-21T19:06:40Z</time>
      </trkpt>
      <trkpt lat="50.43526" lon="3.20745">
        <ele>24</ele>
        <time>2017-08-21T19:08:40Z</time>
      </trkpt>
      <trkpt lat="50.43526" lon="3.20745">
        <ele>24</ele>
        <time>2017-08-21T19:10:40Z</time>
      </trkpt>
      <trkpt lat="50.43532" lon="3.20745">
        <ele>24</ele>
        <time>2017-08-21T19:12:40Z</time>
      </trkpt>
      <trkpt lat="50.43537" lon="3.20745">
        <ele>24</ele>
        <time>2017-08-21T19:14:40Z</time>
      </trkpt>
      <trkpt lat="50.43542" lon="3.20746">
        <ele>24</ele>
        <time>2017-08-21T19:16:40Z</time>
      </trkpt>
      <trkpt lat="50.43559" lon="3.20752">
        <ele>24</ele>
        <time>2017-08-21T19:18:40Z</time>
      </trkpt>
      <trkpt lat="50.43578" lon="3.2076">
        <ele>24</ele>
        <time>2017-08-21T19:20:40Z</time>
      </trkpt>
      <trkpt lat="50.43592" lon="3.20766">
        <ele>24</ele>
        <time>2017-08-21T19:22:40Z</time>
      </trkpt>
      <trkpt lat="50.43646" lon="3.20795">
        <ele>24</ele>
        <time>2017-08-21T19:24:40Z</time>
      </trkpt>
      <trkpt lat="50.43687" lon="3.2082">
        <ele>24</ele>
        <time>2017-08-21T19:26:40Z</time>
      </trkpt>
      <trkpt lat="50.43701" lon="3.20834">
        <ele>24</ele>
        <time>2017-08-21T19:28:40Z</time>
      </trkpt>
      <trkpt lat="50.43707" lon="3.20841">
        <ele>24</ele>
        <time>2017-08-21T19:30:40Z</time>
      </trkpt>
      <trkpt lat="50.43713" lon="3.20847">
        <ele>24</ele>
        <time>2017-08-21T19:32:40Z</time>
      </trkpt>
      <trkpt lat="50.43723" lon="3.20856">
        <ele>24</ele>
        <time>2017-08-21T19:34:40Z</time>
      </trkpt>
      <trkpt lat="50.43728" lon="3.20863">
        <ele>24</ele>
        <time>2017-08-21T19:36:40Z</time>
      </trkpt>
      <trkpt lat="50.43739" lon="3.20875">
        <ele>23</ele>
        <time>2017-08-21T19:38:40Z</time>
      </trkpt>
      <trkpt lat="50.43754" lon="3.20887">
        <ele>23</ele>
        <time>2017-08-21T19:40:40Z</time>
      </trkpt>
      <trkpt lat="50.43781" lon="3.20901">
        <ele>23</ele>
        <time>2017-08-21T19:42:40Z</time>
      </trkpt>
      <trkpt lat="50.43839" lon="3.20932">
        <ele>22</ele>
        <time>2017-08-21T19:44:40Z</time>
      </trkpt>
      <trkpt lat="50.43967" lon="3.21002">
        <ele>22</ele>
        <time>2017-08-21T19:46:40Z</time>
      </trkpt>
      <trkpt lat="50.44" lon="3.21019">
        <ele>22</ele>
        <time>2017-08-21T19:48:40Z</time>
      </trkpt>
      <trkpt lat="50.44082" lon="3.21065">
        <ele>21</ele>
        <time>2017-08-21T19:50:40Z</time>
      </trkpt>
      <trkpt lat="50.44154" lon="3.21103">
        <ele>24</ele>
        <time>2017-08-21T19:52:40Z</time>
      </trkpt>
      <trkpt lat="50.44206" lon="3.2113">
        <ele>25</ele>
        <time>2017-08-21T19:54:40Z</time>
      </trkpt>
      <trkpt lat="50.44249" lon="3.21155">
        <ele>25</ele>
        <time>2017-08-21T19:56:40Z</time>
      </trkpt>
      <trkpt lat="50.44257" lon="3.2116">
        <ele>25</ele>
        <time>2017-08-21T19:58:40Z</time>
      </trkpt>
      <trkpt lat="50.44272" lon="3.21172">
        <ele>24</ele>
        <time>2017-08-21T20:00:40Z</time>
      </trkpt>
      <trkpt lat="50.44277" lon="3.21178">
        <ele>24</ele>
        <time>2017-08-21T20:02:40Z</time>
      </trkpt>
      <trkpt lat="50.44283" lon="3.21187">
        <ele>24</ele>
        <time>2017-08-21T20:04:40Z</time>
      </trkpt>
      <trkpt lat="50.44299" lon="3.21226">
        <ele>23</ele>
        <time>2017-08-21T20:06:40Z</time>
      </trkpt>
      <trkpt lat="50.44303" lon="3.21237">
        <ele>23</ele>
        <time>2017-08-21T20:08:40Z</time>
      </trkpt>
      <trkpt lat="50.44308" lon="3.21244">
        <ele>23</ele>
        <time>2017-08-21T20:10:40Z</time>
      </trkpt>
      <trkpt lat="50.44316" lon="3.21251">
        <ele>22</ele>
        <time>2017-08-21T20:12:40Z</time>
      </trkpt>
      <trkpt lat="50.44316" lon="3.21251">
        <ele>22</ele>
        <time>2017-08-21T20:14:40Z</time>
      </trkpt>
      <trkpt lat="50.44317" lon="3.21257">
        <ele>22</ele>
        <time>2017-08-21T20:16:40Z</time>
      </trkpt>
      <trkpt lat="50.44336" lon="3.2132">
        <ele>21</ele>
        <time>2017-08-21T20:18:40Z</time>
      </trkpt>
      <trkpt lat="50.44344" lon="3.21353">
        <ele>21</ele>
        <time>2017-08-21T20:20:40Z</time>
      </trkpt>
      <trkpt lat="50.44347" lon="3.21381">
        <ele>21</ele>
        <time>2017-08-21T20:22:40Z</time>
      </trkpt>
      <trkpt lat="50.44348" lon="3.21403">
        <ele>21</ele>
        <time>2017-08-21T20:24:40Z</time>
      </trkpt>
      <trkpt lat="50.44346" lon="3.21418">
        <ele>21</ele>
        <time>2017-08-21T20:26:40Z</time>
      </trkpt>
      <trkpt lat="50.44342" lon="3.21439">
        <ele>21</ele>
        <time>2017-08-21T20:28:40Z</time>
      </trkpt>
      <trkpt lat="50.44339" lon="3.21447">
        <ele>21</ele>
        <time>2017-08-21T20:30:40Z</time>
      </trkpt>
      <trkpt lat="50.44334" lon="3.21461">
        <ele>21</ele>
        <time>2017-08-21T20:32:40Z</time>
      </trkpt>
      <trkpt lat="50.44321" lon="3.21488">
        <ele>21</ele>
        <time>2017-08-21T20:34:40Z</time>
      </trkpt>
      <trkpt lat="50.44321" lon="3.21488">
        <ele>21</ele>
        <time>2017-08-21T20:36:40Z</time>
      </trkpt>
      <trkpt lat="50.44353" lon="3.21536">
        <ele>21</ele>
        <time>2017-08-21T20:38:40Z</time>
      </trkpt>
      <trkpt lat="50.4436" lon="3.2155">
        <ele>21</ele>
        <time>2017-08-21T20:40:40Z</time>
      </trkpt>
      <trkpt lat="50.44371" lon="3.21572">
        <ele>21</ele>
        <time>2017-08-21T20:42:40Z</time>
      </trkpt>
      <trkpt lat="50.44384" lon="3.21598">
        <ele>21</ele>
        <time>2017-08-21T20:44:40Z</time>
      </trkpt>
      <trkpt lat="50.44407" lon="3.21628">
        <ele>20</ele>
        <time>2017-08-21T20:46:40Z</time>
      </trkpt>
      <trkpt lat="50.44433" lon="3.2165">
        <ele>20</ele>
        <time>2017-08-21T20:48:40Z</time>
      </trkpt>
      <trkpt lat="50.4445" lon="3.21663">
        <ele>20</ele>
        <time>2017-08-21T20:50:40Z</time>
      </trkpt>
      <trkpt lat="50.44478" lon="3.21684">
        <ele>20</ele>
        <time>2017-08-21T20:52:40Z</time>
      </trkpt>
      <trkpt lat="50.44486" lon="3.2169">
        <ele>20</ele>
        <time>2017-08-21T20:54:40Z</time>
      </trkpt>
      <trkpt lat="50.44491" lon="3.21695">
        <ele>20</ele>
        <time>2017-08-21T20:56:40Z</time>
      </trkpt>
      <trkpt lat="50.44505" lon="3.21706">
        <ele>20</ele>
        <time>2017-08-21T20:58:40Z</time>
      </trkpt>
      <trkpt lat="50.44514" lon="3.21708">
        <ele>20</ele>
        <time>2017-08-21T21:00:40Z</time>
      </trkpt>
      <trkpt lat="50.44525" lon="3.21708">
        <ele>20</ele>
        <time>2017-08-21T21:02:40Z</time>
      </trkpt>
      <trkpt lat="50.44541" lon="3.21706">
        <ele>20</ele>
        <time>2017-08-21T21:04:40Z</time>
      </trkpt>
      <trkpt lat="50.44602" lon="3.21685">
        <ele>20</ele>
        <time>2017-08-21T21:06:40Z</time>
      </trkpt>
      <trkpt lat="50.44614" lon="3.21682">
        <ele>21</ele>
        <time>2017-08-21T21:08:40Z</time>
      </trkpt>
      <trkpt lat="50.44614" lon="3.21682">
        <ele>21</ele>
        <time>2017-08-21T21:10:40Z</time>
      </trkpt>
      <trkpt lat="50.44615" lon="3.21677">
        <ele>21</ele>
        <time>2017-08-21T21:12:40Z</time>
      </trkpt>
      <trkpt lat="50.44616" lon="3.21673">
        <ele>21</ele>
        <time>2017-08-21T21:14:40Z</time>
      </trkpt>
      <trkpt lat="50.44623" lon="3.21659">
        <ele>21</ele>
        <time>2017-08-21T21:16:40Z</time>
      </trkpt>
      <trkpt lat="50.44636" lon="3.21642">
        <ele>21</ele>
        <time>2017-08-21T21:18:40Z</time>
      </trkpt>
      <trkpt lat="50.44663" lon="3.2161">
        <ele>21</ele>
        <time>2017-08-21T21:20:40Z</time>
      </trkpt>
      <trkpt lat="50.44664" lon="3.21608">
        <ele>21</ele>
        <time>2017-08-21T21:22:40Z</time>
      </trkpt>
      <trkpt lat="50.44695" lon="3.21579">
        <ele>21</ele>
        <time>2017-08-21T21:24:40Z</time>
      </trkpt>
      <trkpt lat="50.44711" lon="3.21564">
        <ele>21</ele>
        <time>2017-08-21T21:26:40Z</time>
      </trkpt>
      <trkpt lat="50.44713" lon="3.21561">
        <ele>21</ele>
        <time>2017-08-21T21:28:40Z</time>
      </trkpt>
      <trkpt lat="50.44716" lon="3.21556">
        <ele>21</ele>
        <time>2017-08-21T21:30:40Z</time>
      </trkpt>
      <trkpt lat="50.44733" lon="3.21492">
        <ele>21</ele>
        <time>2017-08-21T21:32:40Z</time>
      </trkpt>
      <trkpt lat="50.44738" lon="3.21479">
        <ele>21</ele>
        <time>2017-08-21T21:34:40Z</time>
      </trkpt>
      <trkpt lat="50.44746" lon="3.21462">
        <ele>21</ele>
        <time>2017-08-21T21:36:40Z</time>
      </trkpt>
      <trkpt lat="50.44757" lon="3.21446">
        <ele>21</ele>
        <time>2017-08-21T21:38:40Z</time>
      </trkpt>
      <trkpt lat="50.44758" lon="3.21443">
        <ele>21</ele>
        <time>2017-08-21T21:40:40Z</time>
      </trkpt>
      <trkpt lat="50.44899" lon="3.21479">
        <ele>23</ele>
        <time>2017-08-21T21:42:40Z</time>
      </trkpt>
      <trkpt lat="50.4493" lon="3.2157">
        <ele>23</ele>
        <time>2017-08-21T21:44:40Z</time>
      </trkpt>
      <trkpt lat="50.44924" lon="3.21574">
        <ele>23</ele>
        <time>2017-08-21T21:46:40Z</time>
      </trkpt>
      <trkpt lat="50.44927" lon="3.21584">
        <ele>23</ele>
        <time>2017-08-21T21:48:40Z</time>
      </trkpt>
      <trkpt lat="50.44931" lon="3.21608">
        <ele>23</ele>
        <time>2017-08-21T21:50:40Z</time>
      </trkpt>
      <trkpt lat="50.44932" lon="3.21628">
        <ele>23</ele>
        <time>2017-08-21T21:52:40Z</time>
      </trkpt>
      <trkpt lat="50.44933" lon="3.21644">
        <ele>23</ele>
        <time>2017-08-21T21:54:40Z</time>
      </trkpt>
      <trkpt lat="50.44934" lon="3.21686">
        <ele>23</ele>
        <time>2017-08-21T21:56:40Z</time>
      </trkpt>
      <trkpt lat="50.44936" lon="3.21715">
        <ele>23</ele>
        <time>2017-08-21T21:58:40Z</time>
      </trkpt>
      <trkpt lat="50.44935" lon="3.21725">
        <ele>24</ele>
        <time>2017-08-21T22:00:40Z</time>
      </trkpt>
      <trkpt lat="50.4493" lon="3.21739">
        <ele>24</ele>
        <time>2017-08-21T22:02:40Z</time>
      </trkpt>
      <trkpt lat="50.44922" lon="3.21749">
        <ele>24</ele>
        <time>2017-08-21T22:04:40Z</time>
      </trkpt>
      <trkpt lat="50.44916" lon="3.21755">
        <ele>24</ele>
        <time>2017-08-21T22:06:40Z</time>
      </trkpt>
      <trkpt lat="50.44908" lon="3.21759">
        <ele>24</ele>
        <time>2017-08-21T22:08:40Z</time>
      </trkpt>
      <trkpt lat="50.44908" lon="3.21759">
        <ele>24</ele>
        <time>2017-08-21T22:10:40Z</time>
      </trkpt>
      <trkpt lat="50.44913" lon="3.21776">
        <ele>25</ele>
        <time>2017-08-21T22:12:40Z</time>
      </trkpt>
      <trkpt lat="50.44915" lon="3.21782">
        <ele>25</ele>
        <time>2017-08-21T22:14:40Z</time>
      </trkpt>
      <trkpt lat="50.44923" lon="3.21794">
        <ele>25</ele>
        <time>2017-08-21T22:16:40Z</time>
      </trkpt>
      <trkpt lat="50.44929" lon="3.21801">
        <ele>25</ele>
        <time>2017-08-21T22:18:40Z</time>
      </trkpt>
      <trkpt lat="50.44958" lon="3.21832">
        <ele>25</ele>
        <time>2017-08-21T22:20:40Z</time>
      </trkpt>
      <trkpt lat="50.44965" lon="3.21841">
        <ele>25</ele>
        <time>2017-08-21T22:22:40Z</time>
      </trkpt>
      <trkpt lat="50.44976" lon="3.2186">
        <ele>25</ele>
        <time>2017-08-21T22:24:40Z</time>
      </trkpt>
      <trkpt lat="50.45012" lon="3.21926">
        <ele>25</ele>
        <time>2017-08-21T22:26:40Z</time>
      </trkpt>
      <trkpt lat="50.45018" lon="3.21941">
        <ele>25</ele>
        <time>2017-08-21T22:28:40Z</time>
      </trkpt>
      <trkpt lat="50.45019" lon="3.21948">
        <ele>25</ele>
        <time>2017-08-21T22:30:40Z</time>
      </trkpt>
      <trkpt lat="50.45019" lon="3.21948">
        <ele>25</ele>
        <time>2017-08-21T22:32:40Z</time>
      </trkpt>
      <trkpt lat="50.45025" lon="3.21941">
        <ele>25</ele>
        <time>2017-08-21T22:34:40Z</time>
      </trkpt>
      <trkpt lat="50.45027" lon="3.21929">
        <ele>25</ele>
        <time>2017-08-21T22:36:40Z</time>
      </trkpt>
      <trkpt lat="50.45034" lon="3.21829">
        <ele>25</ele>
        <time>2017-08-21T22:38:40Z</time>
      </trkpt>
      <trkpt lat="50.45036" lon="3.2182">
        <ele>25</ele>
        <time>2017-08-21T22:40:40Z</time>
      </trkpt>
      <trkpt lat="50.45049" lon="3.21766">
        <ele>25</ele>
        <time>2017-08-21T22:42:40Z</time>
      </trkpt>
      <trkpt lat="50.45049" lon="3.21766">
        <ele>25</ele>
        <time>2017-08-21T22:44:40Z</time>
      </trkpt>
      <trkpt lat="50.45073" lon="3.21784">
        <ele>25</ele>
        <time>2017-08-21T22:46:40Z</time>
      </trkpt>
      <trkpt lat="50.45084" lon="3.21795">
        <ele>26</ele>
        <time>2017-08-21T22:48:40Z</time>
      </trkpt>
      <trkpt lat="50.4516" lon="3.21874">
        <ele>25</ele>
        <time>2017-08-21T22:50:40Z</time>
      </trkpt>
      <trkpt lat="50.45161" lon="3.21875">
        <ele>25</ele>
        <time>2017-08-21T22:52:40Z</time>
      </trkpt>
      <trkpt lat="50.45196" lon="3.21914">
        <ele>25</ele>
        <time>2017-08-21T22:54:40Z</time>
      </trkpt>
      <trkpt lat="50.45217" lon="3.21936">
        <ele>26</ele>
        <time>2017-08-21T22:56:40Z</time>
      </trkpt>
      <trkpt lat="50.45254" lon="3.21974">
        <ele>26</ele>
        <time>2017-08-21T22:58:40Z</time>
      </trkpt>
      <trkpt lat="50.45281" lon="3.21997">
        <ele>26</ele>
        <time>2017-08-21T23:00:40Z</time>
      </trkpt>
      <trkpt lat="50.45299" lon="3.22014">
        <ele>25</ele>
        <time>2017-08-21T23:02:40Z</time>
      </trkpt>
      <trkpt lat="50.45315" lon="3.22031">
        <ele>25</ele>
        <time>2017-08-21T23:04:40Z</time>
      </trkpt>
      <trkpt lat="50.4539" lon="3.22116">
        <ele>26</ele>
        <time>2017-08-21T23:06:40Z</time>
      </trkpt>
      <trkpt lat="50.45404" lon="3.2213">
        <ele>26</ele>
        <time>2017-08-21T23:08:40Z</time>
      </trkpt>
      <trkpt lat="50.45509" lon="3.22229">
        <ele>29</ele>
        <time>2017-08-21T23:10:40Z</time>
      </trkpt>
      <trkpt lat="50.45519" lon="3.22238">
        <ele>29</ele>
        <time>2017-08-21T23:12:40Z</time>
      </trkpt>
      <trkpt lat="50.45538" lon="3.22264">
        <ele>30</ele>
        <time>2017-08-21T23:14:40Z</time>
      </trkpt>
      <trkpt lat="50.45538" lon="3.22264">
        <ele>30</ele>
        <time>2017-08-21T23:16:40Z</time>
      </trkpt>
      <trkpt lat="50.45549" lon="3.22245">
        <ele>30</ele>
        <time>2017-08-21T23:18:40Z</time>
      </trkpt>
      <trkpt lat="50.45558" lon="3.22234">
        <ele>30</ele>
        <time>2017-08-21T23:20:40Z</time>
      </trkpt>
      <trkpt lat="50.45563" lon="3.2223">
        <ele>30</ele>
        <time>2017-08-21T23:22:40Z</time>
      </trkpt>
      <trkpt lat="50.45567" lon="3.22228">
        <ele>30</ele>
        <time>2017-08-21T23:24:40Z</time>
      </trkpt>
      <trkpt lat="50.45573" lon="3.22228">
        <ele>30</ele>
        <time>2017-08-21T23:26:40Z</time>
      </trkpt>
      <trkpt lat="50.45596" lon="3.22232">
        <ele>30</ele>
        <time>2017-08-21T23:28:40Z</time>
      </trkpt>
      <trkpt lat="50.45601" lon="3.22232">
        <ele>30</ele>
        <time>2017-08-21T23:30:40Z</time>
      </trkpt>
      <trkpt lat="50.4561" lon="3.22232">
        <ele>30</ele>
        <time>2017-08-21T23:32:40Z</time>
      </trkpt>
      <trkpt lat="50.45614" lon="3.22229">
        <ele>30</ele>
        <time>2017-08-21T23:34:40Z</time>
      </trkpt>
      <trkpt lat="50.45621" lon="3.22218">
        <ele>30</ele>
        <time>2017-08-21T23:36:40Z</time>
      </trkpt>
      <trkpt lat="50.45637" lon="3.22187">
        <ele>30</ele>
        <time>2017-08-21T23:38:40Z</time>
      </trkpt>
      <trkpt lat="50.45646" lon="3.22173">
        <ele>30</ele>
        <time>2017-08-21T23:40:40Z</time>
      </trkpt>
      <trkpt lat="50.45656" lon="3.22159">
        <ele>30</ele>
        <time>2017-08-21T23:42:40Z</time>
      </trkpt>
      <trkpt lat="50.4569" lon="3.2212">
        <ele>31</ele>
        <time>2017-08-21T23:44:40Z</time>
      </trkpt>
      <trkpt lat="50.45706" lon="3.22104">
        <ele>31</ele>
        <time>2017-08-21T23:46:40Z</time>
      </trkpt>
      <trkpt lat="50.45723" lon="3.22084">
        <ele>32</ele>
        <time>2017-08-21T23:48:40Z</time>
      </trkpt>
      <trkpt lat="50.45736" lon="3.22066">
        <ele>32</ele>
        <time>2017-08-21T23:50:40Z</time>
      </trkpt>
      <trkpt lat="50.45779" lon="3.21997">
        <ele>33</ele>
        <time>2017-08-21T23:52:40Z</time>
      </trkpt>
      <trkpt lat="50.45787" lon="3.21983">
        <ele>33</ele>
        <time>2017-08-21T23:54:40Z</time>
      </trkpt>
      <trkpt lat="50.4581" lon="3.21938">
        <ele>34</ele>
        <time>2017-08-21T23:56:40Z</time>
      </trkpt>
      <trkpt lat="50.45836" lon="3.21885">
        <ele>34</ele>
        <time>2017-08-21T23:58:40Z</time>
      </trkpt>
      <trkpt lat="50.45857" lon="3.21837">
        <ele>34</ele>
        <time>2017-08-22T00:00:40Z</time>
      </trkpt>
      <trkpt lat="50.45865" lon="3.21821">
        <ele>34</ele>
        <time>2017-08-22T00:02:40Z</time>
      </trkpt>
      <trkpt lat="50.45889" lon="3.21773">
        <ele>34</ele>
        <time>2017-08-22T00:04:40Z</time>
      </trkpt>
      <trkpt lat="50.45899" lon="3.21755">
        <ele>34</ele>
        <time>2017-08-22T00:06:40Z</time>
      </trkpt>
      <trkpt lat="50.45917" lon="3.21732">
        <ele>34</ele>
        <time>2017-08-22T00:08:40Z</time>
      </trkpt>
      <trkpt lat="50.45975" lon="3.21668">
        <ele>34</ele>
        <time>2017-08-22T00:10:40Z</time>
      </trkpt>
      <trkpt lat="50.46005" lon="3.21634">
        <ele>35</ele>
        <time>2017-08-22T00:12:40Z</time>
      </trkpt>
      <trkpt lat="50.46033" lon="3.216">
        <ele>36</ele>
        <time>2017-08-22T00:14:40Z</time>
      </trkpt>
      <trkpt lat="50.46043" lon="3.21588">
        <ele>36</ele>
        <time>2017-08-22T00:16:40Z</time>
      </trkpt>
      <trkpt lat="50.46048" lon="3.21577">
        <ele>36</ele>
        <time>2017-08-22T00:18:40Z</time>
      </trkpt>
      <trkpt lat="50.46065" lon="3.21542">
        <ele>37</ele>
        <time>2017-08-22T00:20:40Z</time>
      </trkpt>
      <trkpt lat="50.46094" lon="3.21471">
        <ele>36</ele>
        <time>2017-08-22T00:22:40Z</time>
      </trkpt>
      <trkpt lat="50.46127" lon="3.21385">
        <ele>34</ele>
        <time>2017-08-22T00:24:40Z</time>
      </trkpt>
      <trkpt lat="50.46171" lon="3.21269">
        <ele>32</ele>
        <time>2017-08-22T00:26:40Z</time>
      </trkpt>
      <trkpt lat="50.46176" lon="3.21252">
        <ele>32</ele>
        <time>2017-08-22T00:28:40Z</time>
      </trkpt>
      <trkpt lat="50.46176" lon="3.21252">
        <ele>32</ele>
        <time>2017-08-22T00:30:40Z</time>
      </trkpt>
      <trkpt lat="50.46139" lon="3.21195">
        <ele>32</ele>
        <time>2017-08-22T00:32:40Z</time>
      </trkpt>
      <trkpt lat="50.46139" lon="3.21195">
        <ele>32</ele>
        <time>2017-08-22T00:34:40Z</time>
      </trkpt>
      <trkpt lat="50.46145" lon="3.21189">
        <ele>32</ele>
        <time>2017-08-22T00:36:40Z</time>
      </trkpt>
      <trkpt lat="50.46209" lon="3.2112">
        <ele>34</ele>
        <time>2017-08-22T00:38:40Z</time>
      </trkpt>
      <trkpt lat="50.46234" lon="3.21092">
        <ele>35</ele>
        <time>2017-08-22T00:40:40Z</time>
      </trkpt>
      <trkpt lat="50.46303" lon="3.21017">
        <ele>34</ele>
        <time>2017-08-22T00:42:40Z</time>
      </trkpt>
      <trkpt lat="50.46347" lon="3.20971">
        <ele>34</ele>
        <time>2017-08-22T00:44:40Z</time>
      </trkpt>
      <trkpt lat="50.46359" lon="3.20956">
        <ele>34</ele>
        <time>2017-08-22T00:46:40Z</time>
      </trkpt>
      <trkpt lat="50.46362" lon="3.20952">
        <ele>34</ele>
        <time>2017-08-22T00:48:40Z</time>
      </trkpt>
      <trkpt lat="50.46368" lon="3.20945">
        <ele>35</ele>
        <time>2017-08-22T00:50:40Z</time>
      </trkpt>
      <trkpt lat="50.464" lon="3.20913">
        <ele>35</ele>
        <time>2017-08-22T00:52:40Z</time>
      </trkpt>
      <trkpt lat="50.46557" lon="3.20739">
        <ele>37</ele>
        <time>2017-08-22T00:54:40Z</time>
      </trkpt>
      <trkpt lat="50.46594" lon="3.207">
        <ele>37</ele>
        <time>2017-08-22T00:56:40Z</time>
      </trkpt>
      <trkpt lat="50.46609" lon="3.20681">
        <ele>37</ele>
        <time>2017-08-22T00:58:40Z</time>
      </trkpt>
      <trkpt lat="50.4663" lon="3.20656">
        <ele>37</ele>
        <time>2017-08-22T01:00:40Z</time>
      </trkpt>
      <trkpt lat="50.46636" lon="3.20646">
        <ele>37</ele>
        <time>2017-08-22T01:02:40Z</time>
      </trkpt>
      <trkpt lat="50.4664" lon="3.20634">
        <ele>37</ele>
        <time>2017-08-22T01:04:40Z</time>
      </trkpt>
      <trkpt lat="50.4665" lon="3.20588">
        <ele>37</ele>
        <time>2017-08-22T01:06:40Z</time>
      </trkpt>
      <trkpt lat="50.46662" lon="3.20522">
        <ele>37</ele>
        <time>2017-08-22T01:08:40Z</time>
      </trkpt>
      <trkpt lat="50.46666" lon="3.20497">
        <ele>37</ele>
        <time>2017-08-22T01:10:40Z</time>
      </trkpt>
      <trkpt lat="50.46666" lon="3.20497">
        <ele>37</ele>
        <time>2017-08-22T01:12:40Z</time>
      </trkpt>
      <trkpt lat="50.46671" lon="3.20484">
        <ele>37</ele>
        <time>2017-08-22T01:14:40Z</time>
      </trkpt>
      <trkpt lat="50.46686" lon="3.2046">
        <ele>37</ele>
        <time>2017-08-22T01:16:40Z</time>
      </trkpt>
      <trkpt lat="50.46705" lon="3.20434">
        <ele>37</ele>
        <time>2017-08-22T01:18:40Z</time>
      </trkpt>
      <trkpt lat="50.4671" lon="3.20426">
        <ele>37</ele>
        <time>2017-08-22T01:20:40Z</time>
      </trkpt>
      <trkpt lat="50.46711" lon="3.20421">
        <ele>37</ele>
        <time>2017-08-22T01:22:40Z</time>
      </trkpt>
      <trkpt lat="50.46712" lon="3.20414">
        <ele>37</ele>
        <time>2017-08-22T01:24:40Z</time>
      </trkpt>
      <trkpt lat="50.46711" lon="3.20401">
        <ele>37</ele>
        <time>2017-08-22T01:26:40Z</time>
      </trkpt>
      <trkpt lat="50.46706" lon="3.20364">
        <ele>37</ele>
        <time>2017-08-22T01:28:40Z</time>
      </trkpt>
      <trkpt lat="50.46704" lon="3.20341">
        <ele>37</ele>
        <time>2017-08-22T01:30:40Z</time>
      </trkpt>
      <trkpt lat="50.46689" lon="3.20237">
        <ele>38</ele>
        <time>2017-08-22T01:32:40Z</time>
      </trkpt>
      <trkpt lat="50.46689" lon="3.20237">
        <ele>38</ele>
        <time>2017-08-22T01:34:40Z</time>
      </trkpt>
      <trkpt lat="50.46751" lon="3.20221">
        <ele>38</ele>
        <time>2017-08-22T01:36:40Z</time>
      </trkpt>
      <trkpt lat="50.46797" lon="3.20208">
        <ele>39</ele>
        <time>2017-08-22T01:38:40Z</time>
      </trkpt>
      <trkpt lat="50.46815" lon="3.20199">
        <ele>39</ele>
        <time>2017-08-22T01:40:40Z</time>
      </trkpt>
      <trkpt lat="50.46881" lon="3.20162">
        <ele>40</ele>
        <time>2017-08-22T01:42:40Z</time>
      </trkpt>
      <trkpt lat="50.46897" lon="3.20155">
        <ele>40</ele>
        <time>2017-08-22T01:44:40Z</time>
      </trkpt>
      <trkpt lat="50.46901" lon="3.20153">
        <ele>40</ele>
        <time>2017-08-22T01:46:40Z</time>
      </trkpt>
      <trkpt lat="50.46911" lon="3.2015">
        <ele>40</ele>
        <time>2017-08-22T01:48:40Z</time>
      </trkpt>
      <trkpt lat="50.46925" lon="3.20146">
        <ele>40</ele>
        <time>2017-08-22T01:50:40Z</time>
      </trkpt>
      <trkpt lat="50.46952" lon="3.20143">
        <ele>41</ele>
        <time>2017-08-22T01:52:40Z</time>
      </trkpt>
      <trkpt lat="50.46964" lon="3.20143">
        <ele>41</ele>
        <time>2017-08-22T01:54:40Z</time>
      </trkpt>
      <trkpt lat="50.47088" lon="3.20146">
        <ele>42</ele>
        <time>2017-08-22T01:56:40Z</time>
      </trkpt>
      <trkpt lat="50.47099" lon="3.20145">
        <ele>43</ele>
        <time>2017-08-22T01:58:40Z</time>
      </trkpt>
      <trkpt lat="50.47194" lon="3.20122">
        <ele>45</ele>
        <time>2017-08-22T02:00:40Z</time>
      </trkpt>
      <trkpt lat="50.47208" lon="3.20115">
        <ele>45</ele>
        <time>2017-08-22T02:02:40Z</time>
      </trkpt>
      <trkpt lat="50.47224" lon="3.20101">
        <ele>45</ele>
        <time>2017-08-22T02:04:40Z</time>
      </trkpt>
      <trkpt lat="50.47249" lon="3.20069">
        <ele>45</ele>
        <time>2017-08-22T02:06:40Z</time>
      </trkpt>
      <trkpt lat="50.47281" lon="3.20031">
        <ele>46</ele>
        <time>2017-08-22T02:08:40Z</time>
      </trkpt>
      <trkpt lat="50.47299" lon="3.20017">
        <ele>47</ele>
        <time>2017-08-22T02:10:40Z</time>
      </trkpt>
      <trkpt lat="50.47363" lon="3.19974">
        <ele>48</ele>
        <time>2017-08-22T02:12:40Z</time>
      </trkpt>
      <trkpt lat="50.47371" lon="3.19969">
        <ele>48</ele>
        <time>2017-08-22T02:14:40Z</time>
      </trkpt>
      <trkpt lat="50.47371" lon="3.19969">
        <ele>48</ele>
        <time>2017-08-22T02:16:40Z</time>
      </trkpt>
      <trkpt lat="50.47375" lon="3.19981">
        <ele>49</ele>
        <time>2017-08-22T02:18:40Z</time>
      </trkpt>
      <trkpt lat="50.47379" lon="3.1999">
        <ele>49</ele>
        <time>2017-08-22T02:20:40Z</time>
      </trkpt>
      <trkpt lat="50.47383" lon="3.19999">
        <ele>49</ele>
        <time>2017-08-22T02:22:40Z</time>
      </trkpt>
      <trkpt lat="50.47389" lon="3.20008">
        <ele>49</ele>
        <time>2017-08-22T02:24:40Z</time>
      </trkpt>
      <trkpt lat="50.47398" lon="3.2002">
        <ele>49</ele>
        <time>2017-08-22T02:26:40Z</time>
      </trkpt>
      <trkpt lat="50.47439" lon="3.20082">
        <ele>49</ele>
        <time>2017-08-22T02:28:40Z</time>
      </trkpt>
      <trkpt lat="50.47453" lon="3.20103">
        <ele>49</ele>
        <time>2017-08-22T02:30:40Z</time>
      </trkpt>
      <trkpt lat="50.47507" lon="3.20181">
        <ele>51</ele>
        <time>2017-08-22T02:32:40Z</time>
      </trkpt>
      <trkpt lat="50.47586" lon="3.20299">
        <ele>49</ele>
        <time>2017-08-22T02:34:40Z</time>
      </trkpt>
      <trkpt lat="50.47628" lon="3.20357">
        <ele>49</ele>
        <time>2017-08-22T02:36:40Z</time>
      </trkpt>
      <trkpt lat="50.47631" lon="3.20364">
        <ele>49</ele>
        <time>2017-08-22T02:38:40Z</time>
      </trkpt>
      <trkpt lat="50.47639" lon="3.20379">
        <ele>49</ele>
        <time>2017-08-22T02:40:40Z</time>
      </trkpt>
      <trkpt lat="50.47654" lon="3.20402">
        <ele>49</ele>
        <time>2017-08-22T02:42:40Z</time>
      </trkpt>
      <trkpt lat="50.47669" lon="3.20422">
        <ele>49</ele>
        <time>2017-08-22T02:44:40Z</time>
      </trkpt>
      <trkpt lat="50.47677" lon="3.20429">
        <ele>49</ele>
        <time>2017-08-22T02:46:40Z</time>
      </trkpt>
      <trkpt lat="50.47682" lon="3.2043">
        <ele>49</ele>
        <time>2017-08-22T02:48:40Z</time>
      </trkpt>
      <trkpt lat="50.4769" lon="3.20438">
        <ele>49</ele>
        <time>2017-08-22T02:50:40Z</time>
      </trkpt>
      <trkpt lat="50.47707" lon="3.20451">
        <ele>49</ele>
        <time>2017-08-22T02:52:40Z</time>
      </trkpt>
      <trkpt lat="50.47748" lon="3.20488">
        <ele>48</ele>
        <time>2017-08-22T02:54:40Z</time>
      </trkpt>
      <trkpt lat="50.4776" lon="3.205">
        <ele>48</ele>
        <time>2017-08-22T02:56:40Z</time>
      </trkpt>
      <trkpt lat="50.4777" lon="3.2051">
        <ele>48</ele>
        <time>2017-08-22T02:58:40Z</time>
      </trkpt>
      <trkpt lat="50.47779" lon="3.20518">
        <ele>48</ele>
        <time>2017-08-22T03:00:40Z</time>
      </trkpt>
      <trkpt lat="50.47782" lon="3.2052">
        <ele>48</ele>
        <time>2017-08-22T03:02:40Z</time>
      </trkpt>
      <trkpt lat="50.47782" lon="3.2052">
        <ele>48</ele>
        <time>2017-08-22T03:04:40Z</time>
      </trkpt>
      <trkpt lat="50.47792" lon="3.20506">
        <ele>48</ele>
        <time>2017-08-22T03:06:40Z</time>
      </trkpt>
      <trkpt lat="50.47803" lon="3.20494">
        <ele>49</ele>
        <time>2017-08-22T03:08:40Z</time>
      </trkpt>
      <trkpt lat="50.47814" lon="3.20484">
        <ele>49</ele>
        <time>2017-08-22T03:10:40Z</time>
      </trkpt>
      <trkpt lat="50.47827" lon="3.20474">
        <ele>49</ele>
        <time>2017-08-22T03:12:40Z</time>
      </trkpt>
      <trkpt lat="50.47836" lon="3.20468">
        <ele>49</ele>
        <time>2017-08-22T03:14:40Z</time>
      </trkpt>
      <trkpt lat="50.47847" lon="3.20463">
        <ele>49</ele>
        <time>2017-08-22T03:16:40Z</time>
      </trkpt>
      <trkpt lat="50.47858" lon="3.2046">
        <ele>49</ele>
        <time>2017-08-22T03:18:40Z</time>
      </trkpt>
      <trkpt lat="50.4787" lon="3.20458">
        <ele>48</ele>
        <time>2017-08-22T03:20:40Z</time>
      </trkpt>
      <trkpt lat="50.4788" lon="3.20458">
        <ele>48</ele>
        <time>2017-08-22T03:22:40Z</time>
      </trkpt>
      <trkpt lat="50.47915" lon="3.20457">
        <ele>48</ele>
        <time>2017-08-22T03:24:40Z</time>
      </trkpt>
      <trkpt lat="50.47915" lon="3.20457">
        <ele>48</ele>
        <time>2017-08-22T03:26:40Z</time>
      </trkpt>
      <trkpt lat="50.47926" lon="3.20453">
        <ele>48</ele>
        <time>2017-08-22T03:28:40Z</time>
      </trkpt>
      <trkpt lat="50.4794" lon="3.20446">
        <ele>48</ele>
        <time>2017-08-22T03:30:40Z</time>
      </trkpt>
      <trkpt lat="50.47955" lon="3.20436">
        <ele>47</ele>
        <time>2017-08-22T03:32:40Z</time>
      </trkpt>
      <trkpt lat="50.47964" lon="3.20429">
        <ele>47</ele>
        <time>2017-08-22T03:34:40Z</time>
      </trkpt>
      <trkpt lat="50.47976" lon="3.20417">
        <ele>47</ele>
        <time>2017-08-22T03:36:40Z</time>
      </trkpt>
      <trkpt lat="50.47976" lon="3.20417">
        <ele>47</ele>
        <time>2017-08-22T03:38:40Z</time>
      </trkpt>
      <trkpt lat="50.47976" lon="3.20401">
        <ele>47</ele>
        <time>2017-08-22T03:40:40Z</time>
      </trkpt>
      <trkpt lat="50.47976" lon="3.20388">
        <ele>47</ele>
        <time>2017-08-22T03:42:40Z</time>
      </trkpt>
      <trkpt lat="50.47977" lon="3.2038">
        <ele>47</ele>
        <time>2017-08-22T03:44:40Z</time>
      </trkpt>
      <trkpt lat="50.4798" lon="3.20367">
        <ele>46</ele>
        <time>2017-08-22T03:46:40Z</time>
      </trkpt>
      <trkpt lat="50.47983" lon="3.20357">
        <ele>46</ele>
        <time>2017-08-22T03:48:40Z</time>
      </trkpt>
      <trkpt lat="50.47986" lon="3.2035">
        <ele>46</ele>
        <time>2017-08-22T03:50:40Z</time>
      </trkpt>
      <trkpt lat="50.47993" lon="3.20338">
        <ele>46</ele>
        <time>2017-08-22T03:52:40Z</time>
      </trkpt>
      <trkpt lat="50.48001" lon="3.20323">
        <ele>46</ele>
        <time>2017-08-22T03:54:40Z</time>
      </trkpt>
      <trkpt lat="50.48019" lon="3.20293">
        <ele>46</ele>
        <time>2017-08-22T03:56:40Z</time>
      </trkpt>
      <trkpt lat="50.48047" lon="3.20247">
        <ele>46</ele>
        <time>2017-08-22T03:58:40Z</time>
      </trkpt>
      <trkpt lat="50.48081" lon="3.20191">
        <ele>45</ele>
        <time>2017-08-22T04:00:40Z</time>
      </trkpt>
      <trkpt lat="50.48096" lon="3.20166">
        <ele>45</ele>
        <time>2017-08-22T04:02:40Z</time>
      </trkpt>
      <trkpt lat="50.48104" lon="3.20148">
        <ele>45</ele>
        <time>2017-08-22T04:04:40Z</time>
      </trkpt>
      <trkpt lat="50.48111" lon="3.20132">
        <ele>44</ele>
        <time>2017-08-22T04:06:40Z</time>
      </trkpt>
      <trkpt lat="50.48113" lon="3.20123">
        <ele>44</ele>
        <time>2017-08-22T04:08:40Z</time>
      </trkpt>
      <trkpt lat="50.48116" lon="3.20111">
        <ele>44</ele>
        <time>2017-08-22T04:10:40Z</time>
      </trkpt>
      <trkpt lat="50.4812" lon="3.2009">
        <ele>44</ele>
        <time>2017-08-22T04:12:40Z</time>
      </trkpt>
      <trkpt lat="50.48129" lon="3.20028">
        <ele>44</ele>
        <time>2017-08-22T04:14:40Z</time>
      </trkpt>
      <trkpt lat="50.48134" lon="3.19995">
        <ele>44</ele>
        <time>2017-08-22T04:16:40Z</time>
      </trkpt>
      <trkpt lat="50.48147" lon="3.1995">
        <ele>44</ele>
        <time>2017-08-22T04:18:40Z</time>
      </trkpt>
      <trkpt lat="50.4816" lon="3.19906">
        <ele>44</ele>
        <time>2017-08-22T04:20:40Z</time>
      </trkpt>
      <trkpt lat="50.48175" lon="3.19869">
        <ele>44</ele>
        <time>2017-08-22T04:22:40Z</time>
      </trkpt>
      <trkpt lat="50.48195" lon="3.19826">
        <ele>43</ele>
        <time>2017-08-22T04:24:40Z</time>
      </trkpt>
      <trkpt lat="50.48223" lon="3.19768">
        <ele>42</ele>
        <time>2017-08-22T04:26:40Z</time>
      </trkpt>
      <trkpt lat="50.48283" lon="3.19641">
        <ele>41</ele>
        <time>2017-08-22T04:28:40Z</time>
      </trkpt>
      <trkpt lat="50.48293" lon="3.19622">
        <ele>41</ele>
        <time>2017-08-22T04:30:40Z</time>
      </trkpt>
      <trkpt lat="50.4829" lon="3.19616">
        <ele>41</ele>
        <time>2017-08-22T04:32:40Z</time>
      </trkpt>
      <trkpt lat="50.48289" lon="3.19611">
        <ele>41</ele>
        <time>2017-08-22T04:34:40Z</time>
      </trkpt>
      <trkpt lat="50.48288" lon="3.19602">
        <ele>41</ele>
        <time>2017-08-22T04:36:40Z</time>
      </trkpt>
      <trkpt lat="50.48286" lon="3.19592">
        <ele>41</ele>
        <time>2017-08-22T04:38:40Z</time>
      </trkpt>
      <trkpt lat="50.48285" lon="3.19584">
        <ele>41</ele>
        <time>2017-08-22T04:40:40Z</time>
      </trkpt>
      <trkpt lat="50.48283" lon="3.19576">
        <ele>41</ele>
        <time>2017-08-22T04:42:40Z</time>
      </trkpt>
      <trkpt lat="50.48278" lon="3.19556">
        <ele>41</ele>
        <time>2017-08-22T04:44:40Z</time>
      </trkpt>
      <trkpt lat="50.48229" lon="3.19409">
        <ele>41</ele>
        <time>2017-08-22T04:46:40Z</time>
      </trkpt>
      <trkpt lat="50.48226" lon="3.19394">
        <ele>41</ele>
        <time>2017-08-22T04:48:40Z</time>
      </trkpt>
      <trkpt lat="50.48223" lon="3.19378">
        <ele>41</ele>
        <time>2017-08-22T04:50:40Z</time>
      </trkpt>
      <trkpt lat="50.48221" lon="3.19352">
        <ele>41</ele>
        <time>2017-08-22T04:52:40Z</time>
      </trkpt>
      <trkpt lat="50.48218" lon="3.19305">
        <ele>41</ele>
        <time>2017-08-22T04:54:40Z</time>
      </trkpt>
      <trkpt lat="50.48217" lon="3.19272">
        <ele>41</ele>
        <time>2017-08-22T04:56:40Z</time>
      </trkpt>
      <trkpt lat="50.48216" lon="3.19249">
        <ele>40</ele>
        <time>2017-08-22T04:58:40Z</time>
      </trkpt>
      <trkpt lat="50.48216" lon="3.19222">
        <ele>40</ele>
        <time>2017-08-22T05:00:40Z</time>
      </trkpt>
      <trkpt lat="50.4822" lon="3.19195">
        <ele>40</ele>
        <time>2017-08-22T05:02:40Z</time>
      </trkpt>
      <trkpt lat="50.48228" lon="3.19165">
        <ele>40</ele>
        <time>2017-08-22T05:04:40Z</time>
      </trkpt>
      <trkpt lat="50.48236" lon="3.19135">
        <ele>40</ele>
        <time>2017-08-22T05:06:40Z</time>
      </trkpt>
      <trkpt lat="50.48244" lon="3.19112">
        <ele>40</ele>
        <time>2017-08-22T05:08:40Z</time>
      </trkpt>
      <trkpt lat="50.48248" lon="3.19102">
        <ele>40</ele>
        <time>2017-08-22T05:10:40Z</time>
      </trkpt>
      <trkpt lat="50.48253" lon="3.19091">
        <ele>40</ele>
        <time>2017-08-22T05:12:40Z</time>
      </trkpt>
      <trkpt lat="50.48259" lon="3.19083">
        <ele>40</ele>
        <time>2017-08-22T05:14:40Z</time>
      </trkpt>
      <trkpt lat="50.4827" lon="3.19067">
        <ele>40</ele>
        <time>2017-08-22T05:16:40Z</time>
      </trkpt>
      <trkpt lat="50.48284" lon="3.19047">
        <ele>40</ele>
        <time>2017-08-22T05:18:40Z</time>
      </trkpt>
      <trkpt lat="50.48296" lon="3.19027">
        <ele>39</ele>
        <time>2017-08-22T05:20:40Z</time>
      </trkpt>
      <trkpt lat="50.48296" lon="3.19027">
        <ele>39</ele>
        <time>2017-08-22T05:22:40Z</time>
      </trkpt>
      <trkpt lat="50.48299" lon="3.19022">
        <ele>39</ele>
        <time>2017-08-22T05:24:40Z</time>
      </trkpt>
      <trkpt lat="50.48304" lon="3.1901">
        <ele>39</ele>
        <time>2017-08-22T05:26:40Z</time>
      </trkpt>
      <trkpt lat="50.48308" lon="3.19">
        <ele>39</ele>
        <time>2017-08-22T05:28:40Z</time>
      </trkpt>
      <trkpt lat="50.48314" lon="3.18986">
        <ele>39</ele>
        <time>2017-08-22T05:30:40Z</time>
      </trkpt>
      <trkpt lat="50.48338" lon="3.18915">
        <ele>40</ele>
        <time>2017-08-22T05:32:40Z</time>
      </trkpt>
      <trkpt lat="50.48351" lon="3.18878">
        <ele>40</ele>
        <time>2017-08-22T05:34:40Z</time>
      </trkpt>
      <trkpt lat="50.48363" lon="3.1884">
        <ele>40</ele>
        <time>2017-08-22T05:36:40Z</time>
      </trkpt>
      <trkpt lat="50.48382" lon="3.18774">
        <ele>40</ele>
        <time>2017-08-22T05:38:40Z</time>
      </trkpt>
      <trkpt lat="50.48388" lon="3.1875">
        <ele>40</ele>
        <time>2017-08-22T05:40:40Z</time>
      </trkpt>
      <trkpt lat="50.48391" lon="3.18738">
        <ele>40</ele>
        <time>2017-08-22T05:42:40Z</time>
      </trkpt>
      <trkpt lat="50.48394" lon="3.18726">
        <ele>40</ele>
        <time>2017-08-22T05:44:40Z</time>
      </trkpt>
      <trkpt lat="50.484" lon="3.18704">
        <ele>40</ele>
        <time>2017-08-22T05:46:40Z</time>
      </trkpt>
      <trkpt lat="50.48408" lon="3.18679">
        <ele>40</ele>
        <time>2017-08-22T05:48:40Z</time>
      </trkpt>
      <trkpt lat="50.48419" lon="3.18655">
        <ele>40</ele>
        <time>2017-08-22T05:50:40Z</time>
      </trkpt>
      <trkpt lat="50.48425" lon="3.18644">
        <ele>40</ele>
        <time>2017-08-22T05:52:40Z</time>
      </trkpt>
      <trkpt lat="50.48432" lon="3.1863">
        <ele>40</ele>
        <time>2017-08-22T05:54:40Z</time>
      </trkpt>
      <trkpt lat="50.48441" lon="3.18617">
        <ele>40</ele>
        <time>2017-08-22T05:56:40Z</time>
      </trkpt>
      <trkpt lat="50.48453" lon="3.18603">
        <ele>40</ele>
        <time>2017-08-22T05:58:40Z</time>
      </trkpt>
      <trkpt lat="50.48458" lon="3.18596">
        <ele>40</ele>
        <time>2017-08-22T06:00:40Z</time>
      </trkpt>
      <trkpt lat="50.48464" lon="3.18591">
        <ele>40</ele>
        <time>2017-08-22T06:02:40Z</time>
      </trkpt>
      <trkpt lat="50.48471" lon="3.18586">
        <ele>40</ele>
        <time>2017-08-22T06:04:40Z</time>
      </trkpt>
      <trkpt lat="50.48477" lon="3.18583">
        <ele>40</ele>
        <time>2017-08-22T06:06:40Z</time>
      </trkpt>
      <trkpt lat="50.48484" lon="3.18582">
        <ele>40</ele>
        <time>2017-08-22T06:08:40Z</time>
      </trkpt>
      <trkpt lat="50.4849" lon="3.18582">
        <ele>40</ele>
        <time>2017-08-22T06:10:40Z</time>
      </trkpt>
      <trkpt lat="50.48496" lon="3.18584">
        <ele>40</ele>
        <time>2017-08-22T06:12:40Z</time>
      </trkpt>
      <trkpt lat="50.48502" lon="3.18587">
        <ele>40</ele>
        <time>2017-08-22T06:14:40Z</time>
      </trkpt>
      <trkpt lat="50.48509" lon="3.18591">
        <ele>40</ele>
        <time>2017-08-22T06:16:40Z</time>
      </trkpt>
      <trkpt lat="50.48514" lon="3.18596">
        <ele>40</ele>
        <time>2017-08-22T06:18:40Z</time>
      </trkpt>
      <trkpt lat="50.48519" lon="3.18599">
        <ele>40</ele>
        <time>2017-08-22T06:20:40Z</time>
      </trkpt>
      <trkpt lat="50.48525" lon="3.18604">
        <ele>40</ele>
        <time>2017-08-22T06:22:40Z</time>
      </trkpt>
      <trkpt lat="50.48525" lon="3.18604">
        <ele>40</ele>
        <time>2017-08-22T06:24:40Z</time>
      </trkpt>
      <trkpt lat="50.48546" lon="3.18586">
        <ele>41</ele>
        <time>2017-08-22T06:26:40Z</time>
      </trkpt>
      <trkpt lat="50.48571" lon="3.18564">
        <ele>41</ele>
        <time>2017-08-22T06:28:40Z</time>
      </trkpt>
      <trkpt lat="50.48577" lon="3.18559">
        <ele>41</ele>
        <time>2017-08-22T06:30:40Z</time>
      </trkpt>
      <trkpt lat="50.48585" lon="3.18552">
        <ele>41</ele>
        <time>2017-08-22T06:32:40Z</time>
      </trkpt>
      <trkpt lat="50.48589" lon="3.18546">
        <ele>41</ele>
        <time>2017-08-22T06:34:40Z</time>
      </trkpt>
      <trkpt lat="50.48596" lon="3.18538">
        <ele>41</ele>
        <time>2017-08-22T06:36:40Z</time>
      </trkpt>
      <trkpt lat="50.48633" lon="3.18487">
        <ele>42</ele>
        <time>2017-08-22T06:38:40Z</time>
      </trkpt>
      <trkpt lat="50.48648" lon="3.18466">
        <ele>42</ele>
        <time>2017-08-22T06:40:40Z</time>
      </trkpt>
      <trkpt lat="50.48652" lon="3.18459">
        <ele>42</ele>
        <time>2017-08-22T06:42:40Z</time>
      </trkpt>
      <trkpt lat="50.48655" lon="3.18454">
        <ele>42</ele>
        <time>2017-08-22T06:44:40Z</time>
      </trkpt>
      <trkpt lat="50.48659" lon="3.18446">
        <ele>42</ele>
        <time>2017-08-22T06:46:40Z</time>
      </trkpt>
      <trkpt lat="50.48662" lon="3.18436">
        <ele>42</ele>
        <time>2017-08-22T06:48:40Z</time>
      </trkpt>
      <trkpt lat="50.48666" lon="3.18422">
        <ele>42</ele>
        <time>2017-08-22T06:50:40Z</time>
      </trkpt>
      <trkpt lat="50.48678" lon="3.18372">
        <ele>42</ele>
        <time>2017-08-22T06:52:40Z</time>
      </trkpt>
      <trkpt lat="50.48741" lon="3.18103">
        <ele>44</ele>
        <time>2017-08-22T06:54:40Z</time>
      </trkpt>
      <trkpt lat="50.4877" lon="3.17985">
        <ele>44</ele>
        <time>2017-08-22T06:56:40Z</time>
      </trkpt>
      <trkpt lat="50.48838" lon="3.17713">
        <ele>48</ele>
        <time>2017-08-22T06:58:40Z</time>
      </trkpt>
      <trkpt lat="50.48841" lon="3.17702">
        <ele>48</ele>
        <time>2017-08-22T07:00:40Z</time>
      </trkpt>
      <trkpt lat="50.48843" lon="3.17694">
        <ele>48</ele>
        <time>2017-08-22T07:02:40Z</time>
      </trkpt>
      <trkpt lat="50.48852" lon="3.17669">
        <ele>48</ele>
        <time>2017-08-22T07:04:40Z</time>
      </trkpt>
      <trkpt lat="50.48893" lon="3.17562">
        <ele>50</ele>
        <time>2017-08-22T07:06:40Z</time>
      </trkpt>
      <trkpt lat="50.48907" lon="3.17519">
        <ele>50</ele>
        <time>2017-08-22T07:08:40Z</time>
      </trkpt>
      <trkpt lat="50.48909" lon="3.17512">
        <ele>50</ele>
        <time>2017-08-22T07:10:40Z</time>
      </trkpt>
      <trkpt lat="50.48911" lon="3.17505">
        <ele>50</ele>
        <time>2017-08-22T07:12:40Z</time>
      </trkpt>
      <trkpt lat="50.48916" lon="3.17477">
        <ele>50</ele>
        <time>2017-08-22T07:14:40Z</time>
      </trkpt>
      <trkpt lat="50.48931" lon="3.17391">
        <ele>52</ele>
        <time>2017-08-22T07:16:40Z</time>
      </trkpt>
      <trkpt lat="50.4897" lon="3.17158">
        <ele>53</ele>
        <time>2017-08-22T07:18:40Z</time>
      </trkpt>
      <trkpt lat="50.48975" lon="3.17143">
        <ele>54</ele>
        <time>2017-08-22T07:20:40Z</time>
      </trkpt>
      <trkpt lat="50.48975" lon="3.17143">
        <ele>54</ele>
        <time>2017-08-22T07:22:40Z</time>
      </trkpt>
      <trkpt lat="50.48981" lon="3.17139">
        <ele>54</ele>
        <time>2017-08-22T07:24:40Z</time>
      </trkpt>
      <trkpt lat="50.48987" lon="3.17132">
        <ele>54</ele>
        <time>2017-08-22T07:26:40Z</time>
      </trkpt>
      <trkpt lat="50.48995" lon="3.17124">
        <ele>54</ele>
        <time>2017-08-22T07:28:40Z</time>
      </trkpt>
      <trkpt lat="50.49025" lon="3.17091">
        <ele>55</ele>
        <time>2017-08-22T07:30:40Z</time>
      </trkpt>
      <trkpt lat="50.49062" lon="3.17053">
        <ele>54</ele>
        <time>2017-08-22T07:32:40Z</time>
      </trkpt>
      <trkpt lat="50.49066" lon="3.17048">
        <ele>54</ele>
        <time>2017-08-22T07:34:40Z</time>
      </trkpt>
      <trkpt lat="50.49085" lon="3.17028">
        <ele>54</ele>
        <time>2017-08-22T07:36:40Z</time>
      </trkpt>
      <trkpt lat="50.49149" lon="3.16957">
        <ele>53</ele>
        <time>2017-08-22T07:38:40Z</time>
      </trkpt>
      <trkpt lat="50.49185" lon="3.16913">
        <ele>52</ele>
        <time>2017-08-22T07:40:40Z</time>
      </trkpt>
      <trkpt lat="50.49185" lon="3.16913">
        <ele>52</ele>
        <time>2017-08-22T07:42:40Z</time>
      </trkpt>
      <trkpt lat="50.49197" lon="3.16945">
        <ele>52</ele>
        <time>2017-08-22T07:44:40Z</time>
      </trkpt>
      <trkpt lat="50.49197" lon="3.16945">
        <ele>52</ele>
        <time>2017-08-22T07:46:40Z</time>
      </trkpt>
      <trkpt lat="50.49201" lon="3.16955">
        <ele>52</ele>
        <time>2017-08-22T07:48:40Z</time>
      </trkpt>
      <trkpt lat="50.49251" lon="3.17093">
        <ele>51</ele>
        <time>2017-08-22T07:50:40Z</time>
      </trkpt>
      <trkpt lat="50.49252" lon="3.17099">
        <ele>51</ele>
        <time>2017-08-22T07:52:40Z</time>
      </trkpt>
      <trkpt lat="50.49251" lon="3.17106">
        <ele>51</ele>
        <time>2017-08-22T07:54:40Z</time>
      </trkpt>
      <trkpt lat="50.49247" lon="3.17113">
        <ele>51</ele>
        <time>2017-08-22T07:56:40Z</time>
      </trkpt>
      <trkpt lat="50.49237" lon="3.17122">
        <ele>52</ele>
        <time>2017-08-22T07:58:40Z</time>
      </trkpt>
      <trkpt lat="50.49229" lon="3.17133">
        <ele>52</ele>
        <time>2017-08-22T08:00:40Z</time>
      </trkpt>
      <trkpt lat="50.49226" lon="3.17139">
        <ele>52</ele>
        <time>2017-08-22T08:02:40Z</time>
      </trkpt>
      <trkpt lat="50.49226" lon="3.17146">
        <ele>52</ele>
        <time>2017-08-22T08:04:40Z</time>
      </trkpt>
      <trkpt lat="50.49227" lon="3.17154">
        <ele>52</ele>
        <time>2017-08-22T08:06:40Z</time>
      </trkpt>
      <trkpt lat="50.49242" lon="3.17196">
        <ele>52</ele>
        <time>2017-08-22T08:08:40Z</time>
      </trkpt>
      <trkpt lat="50.4925" lon="3.17222">
        <ele>52</ele>
        <time>2017-08-22T08:10:40Z</time>
      </trkpt>
      <trkpt lat="50.49259" lon="3.17247">
        <ele>52</ele>
        <time>2017-08-22T08:12:40Z</time>
      </trkpt>
      <trkpt lat="50.4927" lon="3.17277">
        <ele>52</ele>
        <time>2017-08-22T08:14:40Z</time>
      </trkpt>
      <trkpt lat="50.49276" lon="3.17288">
        <ele>52</ele>
        <time>2017-08-22T08:16:40Z</time>
      </trkpt>
      <trkpt lat="50.49283" lon="3.17298">
        <ele>52</ele>
        <time>2017-08-22T08:18:40Z</time>
      </trkpt>
      <trkpt lat="50.49292" lon="3.17309">
        <ele>52</ele>
        <time>2017-08-22T08:20:40Z</time>
      </trkpt>
      <trkpt lat="50.49324" lon="3.17338">
        <ele>52</ele>
        <time>2017-08-22T08:22:40Z</time>
      </trkpt>
      <trkpt lat="50.49346" lon="3.17361">
        <ele>52</ele>
        <time>2017-08-22T08:24:40Z</time>
      </trkpt>
      <trkpt lat="50.49385" lon="3.17415">
        <ele>52</ele>
        <time>2017-08-22T08:26:40Z</time>
      </trkpt>
      <trkpt lat="50.49391" lon="3.17421">
        <ele>52</ele>
        <time>2017-08-22T08:28:40Z</time>
      </trkpt>
      <trkpt lat="50.49397" lon="3.17424">
        <ele>52</ele>
        <time>2017-08-22T08:30:40Z</time>
      </trkpt>
      <trkpt lat="50.49397" lon="3.17424">
        <ele>52</ele>
        <time>2017-08-22T08:32:40Z</time>
      </trkpt>
      <trkpt lat="50.49399" lon="3.17408">
        <ele>52</ele>
        <time>2017-08-22T08:34:40Z</time>
      </trkpt>
      <trkpt lat="50.49403" lon="3.17393">
        <ele>52</ele>
        <time>2017-08-22T08:36:40Z</time>
      </trkpt>
      <trkpt lat="50.49447" lon="3.17309">
        <ele>51</ele>
        <time>2017-08-22T08:38:40Z</time>
      </trkpt>
      <trkpt lat="50.49539" lon="3.17233">
        <ele>50</ele>
        <time>2017-08-22T08:40:40Z</time>
      </trkpt>
      <trkpt lat="50.4961" lon="3.17175">
        <ele>48</ele>
        <time>2017-08-22T08:42:40Z</time>
      </trkpt>
      <trkpt lat="50.4962" lon="3.17168">
        <ele>48</ele>
        <time>2017-08-22T08:44:40Z</time>
      </trkpt>
      <trkpt lat="50.49633" lon="3.17157">
        <ele>48</ele>
        <time>2017-08-22T08:46:40Z</time>
      </trkpt>
      <trkpt lat="50.49649" lon="3.17146">
        <ele>48</ele>
        <time>2017-08-22T08:48:40Z</time>
      </trkpt>
      <trkpt lat="50.49655" lon="3.17143">
        <ele>47</ele>
        <time>2017-08-22T08:50:40Z</time>
      </trkpt>
      <trkpt lat="50.49661" lon="3.17143">
        <ele>47</ele>
        <time>2017-08-22T08:52:40Z</time>
      </trkpt>
      <trkpt lat="50.49796" lon="3.17144">
        <ele>48</ele>
        <time>2017-08-22T08:54:40Z</time>
      </trkpt>
      <trkpt lat="50.49931" lon="3.17144">
        <ele>49</ele>
        <time>2017-08-22T08:56:40Z</time>
      </trkpt>
      <trkpt lat="50.50067" lon="3.17145">
        <ele>54</ele>
        <time>2017-08-22T08:58:40Z</time>
      </trkpt>
      <trkpt lat="50.50077" lon="3.17146">
        <ele>54</ele>
        <time>2017-08-22T09:00:40Z</time>
      </trkpt>
      <trkpt lat="50.5008" lon="3.17147">
        <ele>54</ele>
        <time>2017-08-22T09:02:40Z</time>
      </trkpt>
      <trkpt lat="50.5008" lon="3.17147">
        <ele>54</ele>
        <time>2017-08-22T09:04:40Z</time>
      </trkpt>
      <trkpt lat="50.50089" lon="3.17152">
        <ele>54</ele>
        <time>2017-08-22T09:06:40Z</time>
      </trkpt>
      <trkpt lat="50.50096" lon="3.17159">
        <ele>54</ele>
        <time>2017-08-22T09:08:40Z</time>
      </trkpt>
      <trkpt lat="50.50197" lon="3.17267">
        <ele>50</ele>
        <time>2017-08-22T09:10:40Z</time>
      </trkpt>
      <trkpt lat="50.50203" lon="3.1727">
        <ele>49</ele>
        <time>2017-08-22T09:12:40Z</time>
      </trkpt>
      <trkpt lat="50.50207" lon="3.1727">
        <ele>49</ele>
        <time>2017-08-22T09:14:40Z</time>
      </trkpt>
      <trkpt lat="50.50212" lon="3.17269">
        <ele>49</ele>
        <time>2017-08-22T09:16:40Z</time>
      </trkpt>
      <trkpt lat="50.50217" lon="3.17265">
        <ele>49</ele>
        <time>2017-08-22T09:18:40Z</time>
      </trkpt>
      <trkpt lat="50.50222" lon="3.17255">
        <ele>49</ele>
        <time>2017-08-22T09:20:40Z</time>
      </trkpt>
      <trkpt lat="50.50249" lon="3.17191">
        <ele>50</ele>
        <time>2017-08-22T09:22:40Z</time>
      </trkpt>
      <trkpt lat="50.50252" lon="3.17184">
        <ele>50</ele>
        <time>2017-08-22T09:24:40Z</time>
      </trkpt>
      <trkpt lat="50.50252" lon="3.17184">
        <ele>50</ele>
        <time>2017-08-22T09:26:40Z</time>
      </trkpt>
      <trkpt lat="50.5026" lon="3.17178">
        <ele>50</ele>
        <time>2017-08-22T09:28:40Z</time>
      </trkpt>
      <trkpt lat="50.50281" lon="3.17172">
        <ele>50</ele>
        <time>2017-08-22T09:30:40Z</time>
      </trkpt>
      <trkpt lat="50.50326" lon="3.17162">
        <ele>48</ele>
        <time>2017-08-22T09:32:40Z</time>
      </trkpt>
      <trkpt lat="50.50335" lon="3.17161">
        <ele>48</ele>
        <time>2017-08-22T09:34:40Z</time>
      </trkpt>
      <trkpt lat="50.50335" lon="3.17161">
        <ele>48</ele>
        <time>2017-08-22T09:36:40Z</time>
      </trkpt>
      <trkpt lat="50.50338" lon="3.17166">
        <ele>48</ele>
        <time>2017-08-22T09:38:40Z</time>
      </trkpt>
      <trkpt lat="50.5034" lon="3.17169">
        <ele>48</ele>
        <time>2017-08-22T09:40:40Z</time>
      </trkpt>
      <trkpt lat="50.50346" lon="3.17178">
        <ele>47</ele>
        <time>2017-08-22T09:42:40Z</time>
      </trkpt>
      <trkpt lat="50.50372" lon="3.17207">
        <ele>46</ele>
        <time>2017-08-22T09:44:40Z</time>
      </trkpt>
      <trkpt lat="50.50408" lon="3.17245">
        <ele>44</ele>
        <time>2017-08-22T09:46:40Z</time>
      </trkpt>
      <trkpt lat="50.5044" lon="3.17276">
        <ele>44</ele>
        <time>2017-08-22T09:48:40Z</time>
      </trkpt>
      <trkpt lat="50.5047" lon="3.17308">
        <ele>45</ele>
        <time>2017-08-22T09:50:40Z</time>
      </trkpt>
      <trkpt lat="50.50496" lon="3.17334">
        <ele>45</ele>
        <time>2017-08-22T09:52:40Z</time>
      </trkpt>
      <trkpt lat="50.50507" lon="3.17348">
        <ele>45</ele>
        <time>2017-08-22T09:54:40Z</time>
      </trkpt>
      <trkpt lat="50.50507" lon="3.17348">
        <ele>45</ele>
        <time>2017-08-22T09:56:40Z</time>
      </trkpt>
      <trkpt lat="50.50512" lon="3.17337">
        <ele>45</ele>
        <time>2017-08-22T09:58:40Z</time>
      </trkpt>
      <trkpt lat="50.50525" lon="3.17312">
        <ele>44</ele>
        <time>2017-08-22T10:00:40Z</time>
      </trkpt>
      <trkpt lat="50.50537" lon="3.17286">
        <ele>43</ele>
        <time>2017-08-22T10:02:40Z</time>
      </trkpt>
      <trkpt lat="50.50556" lon="3.17249">
        <ele>43</ele>
        <time>2017-08-22T10:04:40Z</time>
      </trkpt>
      <trkpt lat="50.50577" lon="3.17205">
        <ele>43</ele>
        <time>2017-08-22T10:06:40Z</time>
      </trkpt>
      <trkpt lat="50.50578" lon="3.17203">
        <ele>43</ele>
        <time>2017-08-22T10:08:40Z</time>
      </trkpt>
      <trkpt lat="50.50591" lon="3.17173">
        <ele>43</ele>
        <time>2017-08-22T10:10:40Z</time>
      </trkpt>
      <trkpt lat="50.50619" lon="3.17113">
        <ele>42</ele>
        <time>2017-08-22T10:12:40Z</time>
      </trkpt>
      <trkpt lat="50.50638" lon="3.17072">
        <ele>43</ele>
        <time>2017-08-22T10:14:40Z</time>
      </trkpt>
      <trkpt lat="50.50659" lon="3.17024">
        <ele>43</ele>
        <time>2017-08-22T10:16:40Z</time>
      </trkpt>
      <trkpt lat="50.50669" lon="3.17003">
        <ele>43</ele>
        <time>2017-08-22T10:18:40Z</time>
      </trkpt>
      <trkpt lat="50.50677" lon="3.16989">
        <ele>43</ele>
        <time>2017-08-22T10:20:40Z</time>
      </trkpt>
      <trkpt lat="50.50693" lon="3.16958">
        <ele>42</ele>
        <time>2017-08-22T10:22:40Z</time>
      </trkpt>
      <trkpt lat="50.50693" lon="3.16958">
        <ele>42</ele>
        <time>2017-08-22T10:24:40Z</time>
      </trkpt>
      <trkpt lat="50.507" lon="3.16957">
        <ele>42</ele>
        <time>2017-08-22T10:26:40Z</time>
      </trkpt>
      <trkpt lat="50.50704" lon="3.16958">
        <ele>42</ele>
        <time>2017-08-22T10:28:40Z</time>
      </trkpt>
      <trkpt lat="50.50708" lon="3.16961">
        <ele>42</ele>
        <time>2017-08-22T10:30:40Z</time>
      </trkpt>
      <trkpt lat="50.50731" lon="3.16994">
        <ele>41</ele>
        <time>2017-08-22T10:32:40Z</time>
      </trkpt>
      <trkpt lat="50.50737" lon="3.17002">
        <ele>41</ele>
        <time>2017-08-22T10:34:40Z</time>
      </trkpt>
      <trkpt lat="50.50744" lon="3.17016">
        <ele>41</ele>
        <time>2017-08-22T10:36:40Z</time>
      </trkpt>
      <trkpt lat="50.50749" lon="3.17024">
        <ele>41</ele>
        <time>2017-08-22T10:38:40Z</time>
      </trkpt>
      <trkpt lat="50.50753" lon="3.17031">
        <ele>41</ele>
        <time>2017-08-22T10:40:40Z</time>
      </trkpt>
      <trkpt lat="50.50756" lon="3.17036">
        <ele>41</ele>
        <time>2017-08-22T10:42:40Z</time>
      </trkpt>
      <trkpt lat="50.5076" lon="3.17039">
        <ele>41</ele>
        <time>2017-08-22T10:44:40Z</time>
      </trkpt>
      <trkpt lat="50.50765" lon="3.17044">
        <ele>41</ele>
        <time>2017-08-22T10:46:40Z</time>
      </trkpt>
      <trkpt lat="50.50787" lon="3.17068">
        <ele>41</ele>
        <time>2017-08-22T10:48:40Z</time>
      </trkpt>
      <trkpt lat="50.50805" lon="3.17086">
        <ele>42</ele>
        <time>2017-08-22T10:50:40Z</time>
      </trkpt>
      <trkpt lat="50.5081" lon="3.1709">
        <ele>42</ele>
        <time>2017-08-22T10:52:40Z</time>
      </trkpt>
      <trkpt lat="50.50813" lon="3.17094">
        <ele>42</ele>
        <time>2017-08-22T10:54:40Z</time>
      </trkpt>
      <trkpt lat="50.50815" lon="3.17098">
        <ele>42</ele>
        <time>2017-08-22T10:56:40Z</time>
      </trkpt>
      <trkpt lat="50.50819" lon="3.17108">
        <ele>42</ele>
        <time>2017-08-22T10:58:40Z</time>
      </trkpt>
      <trkpt lat="50.50819" lon="3.17108">
        <ele>42</ele>
        <time>2017-08-22T11:00:40Z</time>
      </trkpt>
      <trkpt lat="50.50827" lon="3.17109">
        <ele>42</ele>
        <time>2017-08-22T11:02:40Z</time>
      </trkpt>
      <trkpt lat="50.50827" lon="3.17109">
        <ele>42</ele>
        <time>2017-08-22T11:04:40Z</time>
      </trkpt>
      <trkpt lat="50.50832" lon="3.17084">
        <ele>42</ele>
        <time>2017-08-22T11:06:40Z</time>
      </trkpt>
      <trkpt lat="50.50835" lon="3.17071">
        <ele>42</ele>
        <time>2017-08-22T11:08:40Z</time>
      </trkpt>
      <trkpt lat="50.50836" lon="3.17067">
        <ele>42</ele>
        <time>2017-08-22T11:10:40Z</time>
      </trkpt>
      <trkpt lat="50.50836" lon="3.17067">
        <ele>42</ele>
        <time>2017-08-22T11:12:40Z</time>
      </trkpt>
      <trkpt lat="50.50837" lon="3.17066">
        <ele>42</ele>
        <time>2017-08-22T11:14:40Z</time>
      </trkpt>
      <trkpt lat="50.50838" lon="3.17065">
        <ele>42</ele>
        <time>2017-08-22T11:16:40Z</time>
      </trkpt>
      <trkpt lat="50.50839" lon="3.17064">
        <ele>42</ele>
        <time>2017-08-22T11:18:40Z</time>
      </trkpt>
      <trkpt lat="50.50853" lon="3.17038">
        <ele>42</ele>
        <time>2017-08-22T11:20:40Z</time>
      </trkpt>
      <trkpt lat="50.50873" lon="3.16997">
        <ele>43</ele>
        <time>2017-08-22T11:22:40Z</time>
      </trkpt>
      <trkpt lat="50.50896" lon="3.16956">
        <ele>43</ele>
        <time>2017-08-22T11:24:40Z</time>
      </trkpt>
      <trkpt lat="50.50913" lon="3.16922">
        <ele>43</ele>
        <time>2017-08-22T11:26:40Z</time>
      </trkpt>
      <trkpt lat="50.50921" lon="3.16908">
        <ele>43</ele>
        <time>2017-08-22T11:28:40Z</time>
      </trkpt>
      <trkpt lat="50.50924" lon="3.16904">
        <ele>43</ele>
        <time>2017-08-22T11:30:40Z</time>
      </trkpt>
      <trkpt lat="50.50926" lon="3.16903">
        <ele>43</ele>
        <time>2017-08-22T11:32:40Z</time>
      </trkpt>
      <trkpt lat="50.50928" lon="3.16904">
        <ele>43</ele>
        <time>2017-08-22T11:34:40Z</time>
      </trkpt>
      <trkpt lat="50.50949" lon="3.16926">
        <ele>44</ele>
        <time>2017-08-22T11:36:40Z</time>
      </trkpt>
      <trkpt lat="50.50961" lon="3.16937">
        <ele>45</ele>
        <time>2017-08-22T11:38:40Z</time>
      </trkpt>
      <trkpt lat="50.5097" lon="3.16941">
        <ele>45</ele>
        <time>2017-08-22T11:40:40Z</time>
      </trkpt>
      <trkpt lat="50.50978" lon="3.16941">
        <ele>45</ele>
        <time>2017-08-22T11:42:40Z</time>
      </trkpt>
      <trkpt lat="50.50986" lon="3.16939">
        <ele>46</ele>
        <time>2017-08-22T11:44:40Z</time>
      </trkpt>
      <trkpt lat="50.50992" lon="3.16935">
        <ele>46</ele>
        <time>2017-08-22T11:46:40Z</time>
      </trkpt>
      <trkpt lat="50.50997" lon="3.1693">
        <ele>46</ele>
        <time>2017-08-22T11:48:40Z</time>
      </trkpt>
      <trkpt lat="50.51003" lon="3.16931">
        <ele>46</ele>
        <time>2017-08-22T11:50:40Z</time>
      </trkpt>
      <trkpt lat="50.51015" lon="3.16941">
        <ele>46</ele>
        <time>2017-08-22T11:52:40Z</time>
      </trkpt>
      <trkpt lat="50.51024" lon="3.16952">
        <ele>46</ele>
        <time>2017-08-22T11:54:40Z</time>
      </trkpt>
      <trkpt lat="50.51037" lon="3.16968">
        <ele>46</ele>
        <time>2017-08-22T11:56:40Z</time>
      </trkpt>
      <trkpt lat="50.51038" lon="3.16969">
        <ele>46</ele>
        <time>2017-08-22T11:58:40Z</time>
      </trkpt>
      <trkpt lat="50.5104" lon="3.16969">
        <ele>46</ele>
        <time>2017-08-22T12:00:40Z</time>
      </trkpt>
      <trkpt lat="50.51041" lon="3.16967">
        <ele>46</ele>
        <time>2017-08-22T12:02:40Z</time>
      </trkpt>
      <trkpt lat="50.51044" lon="3.16961">
        <ele>46</ele>
        <time>2017-08-22T12:04:40Z</time>
      </trkpt>
      <trkpt lat="50.51054" lon="3.16932">
        <ele>45</ele>
        <time>2017-08-22T12:06:40Z</time>
      </trkpt>
      <trkpt lat="50.51056" lon="3.16927">
        <ele>45</ele>
        <time>2017-08-22T12:08:40Z</time>
      </trkpt>
      <trkpt lat="50.51071" lon="3.16872">
        <ele>45</ele>
        <time>2017-08-22T12:10:40Z</time>
      </trkpt>
      <trkpt lat="50.51071" lon="3.16872">
        <ele>45</ele>
        <time>2017-08-22T12:12:40Z</time>
      </trkpt>
      <trkpt lat="50.51103" lon="3.16897">
        <ele>45</ele>
        <time>2017-08-22T12:14:40Z</time>
      </trkpt>
      <trkpt lat="50.5113" lon="3.16917">
        <ele>46</ele>
        <time>2017-08-22T12:16:40Z</time>
      </trkpt>
      <trkpt lat="50.5114" lon="3.16925">
        <ele>46</ele>
        <time>2017-08-22T12:18:40Z</time>
      </trkpt>
      <trkpt lat="50.51148" lon="3.16926">
        <ele>46</ele>
        <time>2017-08-22T12:20:40Z</time>
      </trkpt>
      <trkpt lat="50.5117" lon="3.16929">
        <ele>46</ele>
        <time>2017-08-22T12:22:40Z</time>
      </trkpt>
      <trkpt lat="50.51174" lon="3.16931">
        <ele>46</ele>
        <time>2017-08-22T12:24:40Z</time>
      </trkpt>
      <trkpt lat="50.51182" lon="3.16929">
        <ele>46</ele>
        <time>2017-08-22T12:26:40Z</time>
      </trkpt>
      <trkpt lat="50.51193" lon="3.16924">
        <ele>46</ele>
        <time>2017-08-22T12:28:40Z</time>
      </trkpt>
      <trkpt lat="50.51208" lon="3.16917">
        <ele>46</ele>
        <time>2017-08-22T12:30:40Z</time>
      </trkpt>
      <trkpt lat="50.51244" lon="3.16899">
        <ele>47</ele>
        <time>2017-08-22T12:32:40Z</time>
      </trkpt>
      <trkpt lat="50.51277" lon="3.16882">
        <ele>47</ele>
        <time>2017-08-22T12:34:40Z</time>
      </trkpt>
      <trkpt lat="50.51287" lon="3.16878">
        <ele>48</ele>
        <time>2017-08-22T12:36:40Z</time>
      </trkpt>
      <trkpt lat="50.51287" lon="3.16878">
        <ele>48</ele>
        <time>2017-08-22T12:38:40Z</time>
      </trkpt>
      <trkpt lat="50.51281" lon="3.16843">
        <ele>48</ele>
        <time>2017-08-22T12:40:40Z</time>
      </trkpt>
      <trkpt lat="50.51279" lon="3.16824">
        <ele>48</ele>
        <time>2017-08-22T12:42:40Z</time>
      </trkpt>
      <trkpt lat="50.51278" lon="3.16808">
        <ele>48</ele>
        <time>2017-08-22T12:44:40Z</time>
      </trkpt>
      <trkpt lat="50.51278" lon="3.16808">
        <ele>48</ele>
        <time>2017-08-22T12:46:40Z</time>
      </trkpt>
      <trkpt lat="50.51259" lon="3.16778">
        <ele>48</ele>
        <time>2017-08-22T12:48:40Z</time>
      </trkpt>
      <trkpt lat="50.51171" lon="3.16583">
        <ele>49</ele>
        <time>2017-08-22T12:50:40Z</time>
      </trkpt>
      <trkpt lat="50.51143" lon="3.16517">
        <ele>49</ele>
        <time>2017-08-22T12:52:40Z</time>
      </trkpt>
      <trkpt lat="50.51138" lon="3.16507">
        <ele>49</ele>
        <time>2017-08-22T12:54:40Z</time>
      </trkpt>
      <trkpt lat="50.51115" lon="3.16455">
        <ele>50</ele>
        <time>2017-08-22T12:56:40Z</time>
      </trkpt>
      <trkpt lat="50.51074" lon="3.16361">
        <ele>50</ele>
        <time>2017-08-22T12:58:40Z</time>
      </trkpt>
      <trkpt lat="50.5107" lon="3.16352">
        <ele>50</ele>
        <time>2017-08-22T13:00:40Z</time>
      </trkpt>
      <trkpt lat="50.51066" lon="3.16342">
        <ele>51</ele>
        <time>2017-08-22T13:02:40Z</time>
      </trkpt>
      <trkpt lat="50.51047" lon="3.16295">
        <ele>51</ele>
        <time>2017-08-22T13:04:40Z</time>
      </trkpt>
      <trkpt lat="50.51019" lon="3.1622">
        <ele>51</ele>
        <time>2017-08-22T13:06:40Z</time>
      </trkpt>
      <trkpt lat="50.50923" lon="3.16036">
        <ele>50</ele>
        <time>2017-08-22T13:08:40Z</time>
      </trkpt>
      <trkpt lat="50.50903" lon="3.16008">
        <ele>50</ele>
        <time>2017-08-22T13:10:40Z</time>
      </trkpt>
      <trkpt lat="50.50886" lon="3.15985">
        <ele>49</ele>
        <time>2017-08-22T13:12:40Z</time>
      </trkpt>
      <trkpt lat="50.50804" lon="3.15897">
        <ele>48</ele>
        <time>2017-08-22T13:14:40Z</time>
      </trkpt>
      <trkpt lat="50.50753" lon="3.15844">
        <ele>47</ele>
        <time>2017-08-22T13:16:40Z</time>
      </trkpt>
      <trkpt lat="50.5073" lon="3.15819">
        <ele>47</ele>
        <time>2017-08-22T13:18:40Z</time>
      </trkpt>
      <trkpt lat="50.50716" lon="3.15799">
        <ele>46</ele>
        <time>2017-08-22T13:20:40Z</time>
      </trkpt>
      <trkpt lat="50.50613" lon="3.15593">
        <ele>46</ele>
        <time>2017-08-22T13:22:40Z</time>
      </trkpt>
      <trkpt lat="50.50551" lon="3.15471">
        <ele>46</ele>
        <time>2017-08-22T13:24:40Z</time>
      </trkpt>
      <trkpt lat="50.50508" lon="3.15383">
        <ele>44</ele>
        <time>2017-08-22T13:26:40Z</time>
      </trkpt>
      <trkpt lat="50.50493" lon="3.1535">
        <ele>44</ele>
        <time>2017-08-22T13:28:40Z</time>
      </trkpt>
      <trkpt lat="50.50488" lon="3.15341">
        <ele>44</ele>
        <time>2017-08-22T13:30:40Z</time>
      </trkpt>
      <trkpt lat="50.50463" lon="3.15275">
        <ele>44</ele>
        <time>2017-08-22T13:32:40Z</time>
      </trkpt>
      <trkpt lat="50.50425" lon="3.15168">
        <ele>44</ele>
        <time>2017-08-22T13:34:40Z</time>
      </trkpt>
      <trkpt lat="50.50402" lon="3.15106">
        <ele>45</ele>
        <time>2017-08-22T13:36:40Z</time>
      </trkpt>
      <trkpt lat="50.50305" lon="3.14933">
        <ele>46</ele>
        <time>2017-08-22T13:38:40Z</time>
      </trkpt>
      <trkpt lat="50.50297" lon="3.14921">
        <ele>46</ele>
        <time>2017-08-22T13:40:40Z</time>
      </trkpt>
      <trkpt lat="50.50284" lon="3.14904">
        <ele>46</ele>
        <time>2017-08-22T13:42:40Z</time>
      </trkpt>
      <trkpt lat="50.50198" lon="3.14796">
        <ele>46</ele>
        <time>2017-08-22T13:44:40Z</time>
      </trkpt>
      <trkpt lat="50.50129" lon="3.14706">
        <ele>47</ele>
        <time>2017-08-22T13:46:40Z</time>
      </trkpt>
      <trkpt lat="50.50121" lon="3.14695">
        <ele>48</ele>
        <time>2017-08-22T13:48:40Z</time>
      </trkpt>
      <trkpt lat="50.50113" lon="3.14685">
        <ele>48</ele>
        <time>2017-08-22T13:50:40Z</time>
      </trkpt>
      <trkpt lat="50.50113" lon="3.14685">
        <ele>48</ele>
        <time>2017-08-22T13:52:40Z</time>
      </trkpt>
      <trkpt lat="50.50095" lon="3.1466">
        <ele>48</ele>
        <time>2017-08-22T13:54:40Z</time>
      </trkpt>
      <trkpt lat="50.50058" lon="3.14615">
        <ele>48</ele>
        <time>2017-08-22T13:56:40Z</time>
      </trkpt>
      <trkpt lat="50.50038" lon="3.14588">
        <ele>48</ele>
        <time>2017-08-22T13:58:40Z</time>
      </trkpt>
      <trkpt lat="50.50026" lon="3.14574">
        <ele>48</ele>
        <time>2017-08-22T14:00:40Z</time>
      </trkpt>
      <trkpt lat="50.50003" lon="3.14542">
        <ele>48</ele>
        <time>2017-08-22T14:02:40Z</time>
      </trkpt>
      <trkpt lat="50.4997" lon="3.14492">
        <ele>48</ele>
        <time>2017-08-22T14:04:40Z</time>
      </trkpt>
      <trkpt lat="50.49901" lon="3.14381">
        <ele>48</ele>
        <time>2017-08-22T14:06:40Z</time>
      </trkpt>
      <trkpt lat="50.49862" lon="3.1432">
        <ele>49</ele>
        <time>2017-08-22T14:08:40Z</time>
      </trkpt>
      <trkpt lat="50.49834" lon="3.14274">
        <ele>49</ele>
        <time>2017-08-22T14:10:40Z</time>
      </trkpt>
      <trkpt lat="50.49747" lon="3.14104">
        <ele>51</ele>
        <time>2017-08-22T14:12:40Z</time>
      </trkpt>
      <trkpt lat="50.49704" lon="3.14023">
        <ele>51</ele>
        <time>2017-08-22T14:14:40Z</time>
      </trkpt>
      <trkpt lat="50.49674" lon="3.13975">
        <ele>51</ele>
        <time>2017-08-22T14:16:40Z</time>
      </trkpt>
      <trkpt lat="50.49644" lon="3.13921">
        <ele>51</ele>
        <time>2017-08-22T14:18:40Z</time>
      </trkpt>
      <trkpt lat="50.49519" lon="3.13647">
        <ele>51</ele>
        <time>2017-08-22T14:20:40Z</time>
      </trkpt>
      <trkpt lat="50.4949" lon="3.13582">
        <ele>52</ele>
        <time>2017-08-22T14:22:40Z</time>
      </trkpt>
      <trkpt lat="50.49468" lon="3.13538">
        <ele>52</ele>
        <time>2017-08-22T14:24:40Z</time>
      </trkpt>
      <trkpt lat="50.49458" lon="3.13518">
        <ele>51</ele>
        <time>2017-08-22T14:26:40Z</time>
      </trkpt>
      <trkpt lat="50.49444" lon="3.13494">
        <ele>51</ele>
        <time>2017-08-22T14:28:40Z</time>
      </trkpt>
      <trkpt lat="50.49415" lon="3.13447">
        <ele>52</ele>
        <time>2017-08-22T14:30:40Z</time>
      </trkpt>
      <trkpt lat="50.49387" lon="3.13398">
        <ele>52</ele>
        <time>2017-08-22T14:32:40Z</time>
      </trkpt>
      <trkpt lat="50.49369" lon="3.13364">
        <ele>53</ele>
        <time>2017-08-22T14:34:40Z</time>
      </trkpt>
      <trkpt lat="50.49368" lon="3.13363">
        <ele>53</ele>
        <time>2017-08-22T14:36:40Z</time>
      </trkpt>
      <trkpt lat="50.49365" lon="3.13356">
        <ele>53</ele>
        <time>2017-08-22T14:38:40Z</time>
      </trkpt>
      <trkpt lat="50.49339" lon="3.13304">
        <ele>53</ele>
        <time>2017-08-22T14:40:40Z</time>
      </trkpt>
      <trkpt lat="50.49267" lon="3.13148">
        <ele>52</ele>
        <time>2017-08-22T14:42:40Z</time>
      </trkpt>
      <trkpt lat="50.49261" lon="3.13122">
        <ele>52</ele>
        <time>2017-08-22T14:44:40Z</time>
      </trkpt>
      <trkpt lat="50.49248" lon="3.13016">
        <ele>52</ele>
        <time>2017-08-22T14:46:40Z</time>
      </trkpt>
      <trkpt lat="50.49244" lon="3.12987">
        <ele>52</ele>
        <time>2017-08-22T14:48:40Z</time>
      </trkpt>
      <trkpt lat="50.49241" lon="3.12958">
        <ele>51</ele>
        <time>2017-08-22T14:50:40Z</time>
      </trkpt>
      <trkpt lat="50.4923" lon="3.12885">
        <ele>50</ele>
        <time>2017-08-22T14:52:40Z</time>
      </trkpt>
      <trkpt lat="50.49224" lon="3.12861">
        <ele>49</ele>
        <time>2017-08-22T14:54:40Z</time>
      </trkpt>
      <trkpt lat="50.49212" lon="3.12835">
        <ele>49</ele>
        <time>2017-08-22T14:56:40Z</time>
      </trkpt>
      <trkpt lat="50.49196" lon="3.12809">
        <ele>49</ele>
        <time>2017-08-22T14:58:40Z</time>
      </trkpt>
      <trkpt lat="50.49183" lon="3.12792">
        <ele>49</ele>
        <time>2017-08-22T15:00:40Z</time>
      </trkpt>
      <trkpt lat="50.49165" lon="3.12775">
        <ele>50</ele>
        <time>2017-08-22T15:02:40Z</time>
      </trkpt>
      <trkpt lat="50.49154" lon="3.12766">
        <ele>50</ele>
        <time>2017-08-22T15:04:40Z</time>
      </trkpt>
      <trkpt lat="50.49141" lon="3.12759">
        <ele>49</ele>
        <time>2017-08-22T15:06:40Z</time>
      </trkpt>
      <trkpt lat="50.4912" lon="3.12747">
        <ele>50</ele>
        <time>2017-08-22T15:08:40Z</time>
      </trkpt>
      <trkpt lat="50.49095" lon="3.12737">
        <ele>50</ele>
        <time>2017-08-22T15:10:40Z</time>
      </trkpt>
      <trkpt lat="50.49052" lon="3.12707">
        <ele>50</ele>
        <time>2017-08-22T15:12:40Z</time>
      </trkpt>
      <trkpt lat="50.49038" lon="3.12692">
        <ele>51</ele>
        <time>2017-08-22T15:14:40Z</time>
      </trkpt>
      <trkpt lat="50.49027" lon="3.12678">
        <ele>51</ele>
        <time>2017-08-22T15:16:40Z</time>
      </trkpt>
      <trkpt lat="50.49012" lon="3.12658">
        <ele>51</ele>
        <time>2017-08-22T15:18:40Z</time>
      </trkpt>
      <trkpt lat="50.49006" lon="3.12651">
        <ele>51</ele>
        <time>2017-08-22T15:20:40Z</time>
      </trkpt>
      <trkpt lat="50.48964" lon="3.12603">
        <ele>50</ele>
        <time>2017-08-22T15:22:40Z</time>
      </trkpt>
      <trkpt lat="50.4894" lon="3.12576">
        <ele>50</ele>
        <time>2017-08-22T15:24:40Z</time>
      </trkpt>
      <trkpt lat="50.48925" lon="3.1256">
        <ele>50</ele>
        <time>2017-08-22T15:26:40Z</time>
      </trkpt>
      <trkpt lat="50.48913" lon="3.12549">
        <ele>50</ele>
        <time>2017-08-22T15:28:40Z</time>
      </trkpt>
      <trkpt lat="50.489" lon="3.1254">
        <ele>51</ele>
        <time>2017-08-22T15:30:40Z</time>
      </trkpt>
      <trkpt lat="50.48888" lon="3.12531">
        <ele>51</ele>
        <time>2017-08-22T15:32:40Z</time>
      </trkpt>
      <trkpt lat="50.48867" lon="3.1251">
        <ele>52</ele>
        <time>2017-08-22T15:34:40Z</time>
      </trkpt>
      <trkpt lat="50.48838" lon="3.12473">
        <ele>52</ele>
        <time>2017-08-22T15:36:40Z</time>
      </trkpt>
      <trkpt lat="50.48838" lon="3.12473">
        <ele>52</ele>
        <time>2017-08-22T15:38:40Z</time>
      </trkpt>
      <trkpt lat="50.48735" lon="3.12324">
        <ele>52</ele>
        <time>2017-08-22T15:40:40Z</time>
      </trkpt>
      <trkpt lat="50.48685" lon="3.1225">
        <ele>51</ele>
        <time>2017-08-22T15:42:40Z</time>
      </trkpt>
      <trkpt lat="50.48623" lon="3.12156">
        <ele>52</ele>
        <time>2017-08-22T15:44:40Z</time>
      </trkpt>
      <trkpt lat="50.4861" lon="3.12136">
        <ele>52</ele>
        <time>2017-08-22T15:46:40Z</time>
      </trkpt>
      <trkpt lat="50.48602" lon="3.12126">
        <ele>52</ele>
        <time>2017-08-22T15:48:40Z</time>
      </trkpt>
      <trkpt lat="50.48602" lon="3.12126">
        <ele>52</ele>
        <time>2017-08-22T15:50:40Z</time>
      </trkpt>
      <trkpt lat="50.48614" lon="3.12123">
        <ele>52</ele>
        <time>2017-08-22T15:52:40Z</time>
      </trkpt>
      <trkpt lat="50.48695" lon="3.12105">
        <ele>50</ele>
        <time>2017-08-22T15:54:40Z</time>
      </trkpt>
      <trkpt lat="50.48731" lon="3.12106">
        <ele>50</ele>
        <time>2017-08-22T15:56:40Z</time>
      </trkpt>
      <trkpt lat="50.48756" lon="3.12109">
        <ele>50</ele>
        <time>2017-08-22T15:58:40Z</time>
      </trkpt>
      <trkpt lat="50.488" lon="3.12112">
        <ele>49</ele>
        <time>2017-08-22T16:00:40Z</time>
      </trkpt>
      <trkpt lat="50.48813" lon="3.12111">
        <ele>48</ele>
        <time>2017-08-22T16:02:40Z</time>
      </trkpt>
      <trkpt lat="50.48837" lon="3.12104">
        <ele>48</ele>
        <time>2017-08-22T16:04:40Z</time>
      </trkpt>
      <trkpt lat="50.48848" lon="3.12099">
        <ele>48</ele>
        <time>2017-08-22T16:06:40Z</time>
      </trkpt>
      <trkpt lat="50.48851" lon="3.12097">
        <ele>48</ele>
        <time>2017-08-22T16:08:40Z</time>
      </trkpt>
      <trkpt lat="50.48851" lon="3.12097">
        <ele>48</ele>
        <time>2017-08-22T16:10:40Z</time>
      </trkpt>
      <trkpt lat="50.48857" lon="3.12092">
        <ele>48</ele>
        <time>2017-08-22T16:12:40Z</time>
      </trkpt>
      <trkpt lat="50.48872" lon="3.12073">
        <ele>48</ele>
        <time>2017-08-22T16:14:40Z</time>
      </trkpt>
      <trkpt lat="50.48902" lon="3.12029">
        <ele>48</ele>
        <time>2017-08-22T16:16:40Z</time>
      </trkpt>
      <trkpt lat="50.48908" lon="3.12021">
        <ele>48</ele>
        <time>2017-08-22T16:18:40Z</time>
      </trkpt>
      <trkpt lat="50.48947" lon="3.1197">
        <ele>49</ele>
        <time>2017-08-22T16:20:40Z</time>
      </trkpt>
      <trkpt lat="50.48968" lon="3.11943">
        <ele>50</ele>
        <time>2017-08-22T16:22:40Z</time>
      </trkpt>
      <trkpt lat="50.48975" lon="3.11934">
        <ele>50</ele>
        <time>2017-08-22T16:24:40Z</time>
      </trkpt>
      <trkpt lat="50.48985" lon="3.11921">
        <ele>51</ele>
        <time>2017-08-22T16:26:40Z</time>
      </trkpt>
      <trkpt lat="50.48996" lon="3.11904">
        <ele>51</ele>
        <time>2017-08-22T16:28:40Z</time>
      </trkpt>
      <trkpt lat="50.49011" lon="3.11877">
        <ele>51</ele>
        <time>2017-08-22T16:30:40Z</time>
      </trkpt>
      <trkpt lat="50.49028" lon="3.11847">
        <ele>51</ele>
        <time>2017-08-22T16:32:40Z</time>
      </trkpt>
      <trkpt lat="50.49034" lon="3.11837">
        <ele>51</ele>
        <time>2017-08-22T16:34:40Z</time>
      </trkpt>
      <trkpt lat="50.4904" lon="3.11828">
        <ele>51</ele>
        <time>2017-08-22T16:36:40Z</time>
      </trkpt>
      <trkpt lat="50.49059" lon="3.118">
        <ele>51</ele>
        <time>2017-08-22T16:38:40Z</time>
      </trkpt>
      <trkpt lat="50.49069" lon="3.11792">
        <ele>51</ele>
        <time>2017-08-22T16:40:40Z</time>
      </trkpt>
      <trkpt lat="50.49087" lon="3.11782">
        <ele>52</ele>
        <time>2017-08-22T16:42:40Z</time>
      </trkpt>
      <trkpt lat="50.49118" lon="3.1177">
        <ele>51</ele>
        <time>2017-08-22T16:44:40Z</time>
      </trkpt>
      <trkpt lat="50.49192" lon="3.11728">
        <ele>49</ele>
        <time>2017-08-22T16:46:40Z</time>
      </trkpt>
      <trkpt lat="50.49242" lon="3.11697">
        <ele>47</ele>
        <time>2017-08-22T16:48:40Z</time>
      </trkpt>
      <trkpt lat="50.49242" lon="3.11697">
        <ele>47</ele>
        <time>2017-08-22T16:50:40Z</time>
      </trkpt>
      <trkpt lat="50.49238" lon="3.11685">
        <ele>47</ele>
        <time>2017-08-22T16:52:40Z</time>
      </trkpt>
      <trkpt lat="50.4923" lon="3.11662">
        <ele>48</ele>
        <time>2017-08-22T16:54:40Z</time>
      </trkpt>
      <trkpt lat="50.49221" lon="3.11639">
        <ele>48</ele>
        <time>2017-08-22T16:56:40Z</time>
      </trkpt>
      <trkpt lat="50.49206" lon="3.116">
        <ele>49</ele>
        <time>2017-08-22T16:58:40Z</time>
      </trkpt>
      <trkpt lat="50.4919" lon="3.11562">
        <ele>50</ele>
        <time>2017-08-22T17:00:40Z</time>
      </trkpt>
      <trkpt lat="50.49175" lon="3.11528">
        <ele>50</ele>
        <time>2017-08-22T17:02:40Z</time>
      </trkpt>
      <trkpt lat="50.49135" lon="3.1144">
        <ele>51</ele>
        <time>2017-08-22T17:04:40Z</time>
      </trkpt>
      <trkpt lat="50.49107" lon="3.1138">
        <ele>52</ele>
        <time>2017-08-22T17:06:40Z</time>
      </trkpt>
      <trkpt lat="50.49061" lon="3.11278">
        <ele>53</ele>
        <time>2017-08-22T17:08:40Z</time>
      </trkpt>
      <trkpt lat="50.48973" lon="3.11087">
        <ele>56</ele>
        <time>2017-08-22T17:10:40Z</time>
      </trkpt>
      <trkpt lat="50.48909" lon="3.10947">
        <ele>57</ele>
        <time>2017-08-22T17:12:40Z</time>
      </trkpt>
      <trkpt lat="50.4888" lon="3.10886">
        <ele>57</ele>
        <time>2017-08-22T17:14:40Z</time>
      </trkpt>
      <trkpt lat="50.48858" lon="3.10833">
        <ele>57</ele>
        <time>2017-08-22T17:16:40Z</time>
      </trkpt>
      <trkpt lat="50.48846" lon="3.10799">
        <ele>57</ele>
        <time>2017-08-22T17:18:40Z</time>
      </trkpt>
      <trkpt lat="50.48815" lon="3.10706">
        <ele>58</ele>
        <time>2017-08-22T17:20:40Z</time>
      </trkpt>
      <trkpt lat="50.4875" lon="3.10511">
        <ele>62</ele>
        <time>2017-08-22T17:22:40Z</time>
      </trkpt>
      <trkpt lat="50.48711" lon="3.1039">
        <ele>64</ele>
        <time>2017-08-22T17:24:40Z</time>
      </trkpt>
      <trkpt lat="50.48706" lon="3.10368">
        <ele>65</ele>
        <time>2017-08-22T17:26:40Z</time>
      </trkpt>
      <trkpt lat="50.48704" lon="3.10353">
        <ele>65</ele>
        <time>2017-08-22T17:28:40Z</time>
      </trkpt>
      <trkpt lat="50.48704" lon="3.10353">
        <ele>65</ele>
        <time>2017-08-22T17:30:40Z</time>
      </trkpt>
      <trkpt lat="50.48665" lon="3.10362">
        <ele>66</ele>
        <time>2017-08-22T17:32:40Z</time>
      </trkpt>
      <trkpt lat="50.48612" lon="3.10372">
        <ele>68</ele>
        <time>2017-08-22T17:34:40Z</time>
      </trkpt>
      <trkpt lat="50.48484" lon="3.10384">
        <ele>72</ele>
        <time>2017-08-22T17:36:40Z</time>
      </trkpt>
      <trkpt lat="50.48324" lon="3.10401">
        <ele>73</ele>
        <time>2017-08-22T17:38:40Z</time>
      </trkpt>
      <trkpt lat="50.48324" lon="3.10401">
        <ele>73</ele>
        <time>2017-08-22T17:40:40Z</time>
      </trkpt>
      <trkpt lat="50.48282" lon="3.10289">
        <ele>77</ele>
        <time>2017-08-22T17:42:40Z</time>
      </trkpt>
      <trkpt lat="50.48196" lon="3.10061">
        <ele>85</ele>
        <time>2017-08-22T17:44:40Z</time>
      </trkpt>
      <trkpt lat="50.48183" lon="3.10026">
        <ele>85</ele>
        <time>2017-08-22T17:46:40Z</time>
      </trkpt>
      <trkpt lat="50.48178" lon="3.10015">
        <ele>85</ele>
        <time>2017-08-22T17:48:40Z</time>
      </trkpt>
      <trkpt lat="50.48175" lon="3.1001">
        <ele>85</ele>
        <time>2017-08-22T17:50:40Z</time>
      </trkpt>
      <trkpt lat="50.48167" lon="3.10003">
        <ele>85</ele>
        <time>2017-08-22T17:52:40Z</time>
      </trkpt>
      <trkpt lat="50.48167" lon="3.10003">
        <ele>85</ele>
        <time>2017-08-22T17:54:40Z</time>
      </trkpt>
      <trkpt lat="50.48188" lon="3.09992">
        <ele>86</ele>
        <time>2017-08-22T17:56:40Z</time>
      </trkpt>
      <trkpt lat="50.48217" lon="3.09974">
        <ele>87</ele>
        <time>2017-08-22T17:58:40Z</time>
      </trkpt>
      <trkpt lat="50.48249" lon="3.09957">
        <ele>89</ele>
        <time>2017-08-22T18:00:40Z</time>
      </trkpt>
      <trkpt lat="50.48294" lon="3.09936">
        <ele>91</ele>
        <time>2017-08-22T18:02:40Z</time>
      </trkpt>
      <trkpt lat="50.48377" lon="3.09905">
        <ele>91</ele>
        <time>2017-08-22T18:04:40Z</time>
      </trkpt>
      <trkpt lat="50.48404" lon="3.0989">
        <ele>90</ele>
        <time>2017-08-22T18:06:40Z</time>
      </trkpt>
      <trkpt lat="50.4842" lon="3.09885">
        <ele>89</ele>
        <time>2017-08-22T18:08:40Z</time>
      </trkpt>
      <trkpt lat="50.4847" lon="3.09879">
        <ele>88</ele>
        <time>2017-08-22T18:10:40Z</time>
      </trkpt>
      <trkpt lat="50.48487" lon="3.09875">
        <ele>88</ele>
        <time>2017-08-22T18:12:40Z</time>
      </trkpt>
      <trkpt lat="50.48496" lon="3.09873">
        <ele>88</ele>
        <time>2017-08-22T18:14:40Z</time>
      </trkpt>
      <trkpt lat="50.48504" lon="3.09873">
        <ele>88</ele>
        <time>2017-08-22T18:16:40Z</time>
      </trkpt>
      <trkpt lat="50.48536" lon="3.09874">
        <ele>87</ele>
        <time>2017-08-22T18:18:40Z</time>
      </trkpt>
      <trkpt lat="50.48558" lon="3.09874">
        <ele>87</ele>
        <time>2017-08-22T18:20:40Z</time>
      </trkpt>
      <trkpt lat="50.48638" lon="3.09878">
        <ele>89</ele>
        <time>2017-08-22T18:22:40Z</time>
      </trkpt>
      <trkpt lat="50.48653" lon="3.0988">
        <ele>90</ele>
        <time>2017-08-22T18:24:40Z</time>
      </trkpt>
      <trkpt lat="50.48673" lon="3.09884">
        <ele>90</ele>
        <time>2017-08-22T18:26:40Z</time>
      </trkpt>
      <trkpt lat="50.48736" lon="3.0989">
        <ele>89</ele>
        <time>2017-08-22T18:28:40Z</time>
      </trkpt>
      <trkpt lat="50.48796" lon="3.09902">
        <ele>90</ele>
        <time>2017-08-22T18:30:40Z</time>
      </trkpt>
      <trkpt lat="50.48812" lon="3.09912">
        <ele>90</ele>
        <time>2017-08-22T18:32:40Z</time>
      </trkpt>
      <trkpt lat="50.48831" lon="3.09933">
        <ele>90</ele>
        <time>2017-08-22T18:34:40Z</time>
      </trkpt>
      <trkpt lat="50.4884" lon="3.09944">
        <ele>89</ele>
        <time>2017-08-22T18:36:40Z</time>
      </trkpt>
      <trkpt lat="50.48861" lon="3.09975">
        <ele>88</ele>
        <time>2017-08-22T18:38:40Z</time>
      </trkpt>
      <trkpt lat="50.48879" lon="3.09995">
        <ele>87</ele>
        <time>2017-08-22T18:40:40Z</time>
      </trkpt>
      <trkpt lat="50.48895" lon="3.10005">
        <ele>87</ele>
        <time>2017-08-22T18:42:40Z</time>
      </trkpt>
      <trkpt lat="50.48907" lon="3.10012">
        <ele>87</ele>
        <time>2017-08-22T18:44:40Z</time>
      </trkpt>
      <trkpt lat="50.48914" lon="3.10019">
        <ele>87</ele>
        <time>2017-08-22T18:46:40Z</time>
      </trkpt>
      <trkpt lat="50.48919" lon="3.10028">
        <ele>86</ele>
        <time>2017-08-22T18:48:40Z</time>
      </trkpt>
      <trkpt lat="50.48922" lon="3.10034">
        <ele>86</ele>
        <time>2017-08-22T18:50:40Z</time>
      </trkpt>
      <trkpt lat="50.4893" lon="3.10054">
        <ele>84</ele>
        <time>2017-08-22T18:52:40Z</time>
      </trkpt>
      <trkpt lat="50.4893" lon="3.10054">
        <ele>84</ele>
        <time>2017-08-22T18:54:40Z</time>
      </trkpt>
      <trkpt lat="50.48934" lon="3.10056">
        <ele>84</ele>
        <time>2017-08-22T18:56:40Z</time>
      </trkpt>
      <trkpt lat="50.48937" lon="3.10054">
        <ele>84</ele>
        <time>2017-08-22T18:58:40Z</time>
      </trkpt>
      <trkpt lat="50.48938" lon="3.1005">
        <ele>84</ele>
        <time>2017-08-22T19:00:40Z</time>
      </trkpt>
      <trkpt lat="50.4894" lon="3.10044">
        <ele>84</ele>
        <time>2017-08-22T19:02:40Z</time>
      </trkpt>
      <trkpt lat="50.48943" lon="3.10039">
        <ele>84</ele>
        <time>2017-08-22T19:04:40Z</time>
      </trkpt>
      <trkpt lat="50.48949" lon="3.10034">
        <ele>84</ele>
        <time>2017-08-22T19:06:40Z</time>
      </trkpt>
      <trkpt lat="50.48957" lon="3.10025">
        <ele>84</ele>
        <time>2017-08-22T19:08:40Z</time>
      </trkpt>
      <trkpt lat="50.4896" lon="3.10023">
        <ele>84</ele>
        <time>2017-08-22T19:10:40Z</time>
      </trkpt>
      <trkpt lat="50.48966" lon="3.10024">
        <ele>83</ele>
        <time>2017-08-22T19:12:40Z</time>
      </trkpt>
      <trkpt lat="50.48974" lon="3.10026">
        <ele>82</ele>
        <time>2017-08-22T19:14:40Z</time>
      </trkpt>
      <trkpt lat="50.48982" lon="3.10027">
        <ele>82</ele>
        <time>2017-08-22T19:16:40Z</time>
      </trkpt>
      <trkpt lat="50.48989" lon="3.10025">
        <ele>81</ele>
        <time>2017-08-22T19:18:40Z</time>
      </trkpt>
      <trkpt lat="50.48998" lon="3.10024">
        <ele>81</ele>
        <time>2017-08-22T19:20:40Z</time>
      </trkpt>
      <trkpt lat="50.49005" lon="3.10022">
        <ele>80</ele>
        <time>2017-08-22T19:22:40Z</time>
      </trkpt>
      <trkpt lat="50.49053" lon="3.10017">
        <ele>75</ele>
        <time>2017-08-22T19:24:40Z</time>
      </trkpt>
      <trkpt lat="50.49096" lon="3.10014">
        <ele>70</ele>
        <time>2017-08-22T19:26:40Z</time>
      </trkpt>
      <trkpt lat="50.49099" lon="3.10012">
        <ele>70</ele>
        <time>2017-08-22T19:28:40Z</time>
      </trkpt>
      <trkpt lat="50.49105" lon="3.1001">
        <ele>69</ele>
        <time>2017-08-22T19:30:40Z</time>
      </trkpt>
      <trkpt lat="50.49121" lon="3.09996">
        <ele>68</ele>
        <time>2017-08-22T19:32:40Z</time>
      </trkpt>
      <trkpt lat="50.49121" lon="3.09996">
        <ele>68</ele>
        <time>2017-08-22T19:34:40Z</time>
      </trkpt>
      <trkpt lat="50.49137" lon="3.09982">
        <ele>67</ele>
        <time>2017-08-22T19:36:40Z</time>
      </trkpt>
      <trkpt lat="50.49148" lon="3.09976">
        <ele>66</ele>
        <time>2017-08-22T19:38:40Z</time>
      </trkpt>
      <trkpt lat="50.49155" lon="3.09973">
        <ele>65</ele>
        <time>2017-08-22T19:40:40Z</time>
      </trkpt>
      <trkpt lat="50.49161" lon="3.09972">
        <ele>64</ele>
        <time>2017-08-22T19:42:40Z</time>
      </trkpt>
      <trkpt lat="50.49235" lon="3.09996">
        <ele>60</ele>
        <time>2017-08-22T19:44:40Z</time>
      </trkpt>
      <trkpt lat="50.49241" lon="3.09999">
        <ele>59</ele>
        <time>2017-08-22T19:46:40Z</time>
      </trkpt>
      <trkpt lat="50.49241" lon="3.09999">
        <ele>59</ele>
        <time>2017-08-22T19:48:40Z</time>
      </trkpt>
      <trkpt lat="50.49241" lon="3.09995">
        <ele>59</ele>
        <time>2017-08-22T19:50:40Z</time>
      </trkpt>
      <trkpt lat="50.49243" lon="3.09992">
        <ele>59</ele>
        <time>2017-08-22T19:52:40Z</time>
      </trkpt>
      <trkpt lat="50.49245" lon="3.0999">
        <ele>59</ele>
        <time>2017-08-22T19:54:40Z</time>
      </trkpt>
      <trkpt lat="50.49265" lon="3.09979">
        <ele>58</ele>
        <time>2017-08-22T19:56:40Z</time>
      </trkpt>
      <trkpt lat="50.49286" lon="3.09967">
        <ele>57</ele>
        <time>2017-08-22T19:58:40Z</time>
      </trkpt>
      <trkpt lat="50.49309" lon="3.09959">
        <ele>56</ele>
        <time>2017-08-22T20:00:40Z</time>
      </trkpt>
      <trkpt lat="50.49313" lon="3.09957">
        <ele>56</ele>
        <time>2017-08-22T20:02:40Z</time>
      </trkpt>
      <trkpt lat="50.49317" lon="3.09954">
        <ele>56</ele>
        <time>2017-08-22T20:04:40Z</time>
      </trkpt>
      <trkpt lat="50.4932" lon="3.09951">
        <ele>55</ele>
        <time>2017-08-22T20:06:40Z</time>
      </trkpt>
      <trkpt lat="50.49322" lon="3.09947">
        <ele>55</ele>
        <time>2017-08-22T20:08:40Z</time>
      </trkpt>
      <trkpt lat="50.49322" lon="3.09947">
        <ele>55</ele>
        <time>2017-08-22T20:10:40Z</time>
      </trkpt>
      <trkpt lat="50.49329" lon="3.0995">
        <ele>55</ele>
        <time>2017-08-22T20:12:40Z</time>
      </trkpt>
      <trkpt lat="50.49336" lon="3.0995">
        <ele>55</ele>
        <time>2017-08-22T20:14:40Z</time>
      </trkpt>
      <trkpt lat="50.49413" lon="3.09942">
        <ele>50</ele>
        <time>2017-08-22T20:16:40Z</time>
      </trkpt>
      <trkpt lat="50.49463" lon="3.09931">
        <ele>50</ele>
        <time>2017-08-22T20:18:40Z</time>
      </trkpt>
      <trkpt lat="50.49494" lon="3.09921">
        <ele>49</ele>
        <time>2017-08-22T20:20:40Z</time>
      </trkpt>
      <trkpt lat="50.49519" lon="3.09911">
        <ele>49</ele>
        <time>2017-08-22T20:22:40Z</time>
      </trkpt>
      <trkpt lat="50.49526" lon="3.09909">
        <ele>49</ele>
        <time>2017-08-22T20:24:40Z</time>
      </trkpt>
      <trkpt lat="50.49678" lon="3.09822">
        <ele>49</ele>
        <time>2017-08-22T20:26:40Z</time>
      </trkpt>
      <trkpt lat="50.49687" lon="3.09817">
        <ele>49</ele>
        <time>2017-08-22T20:28:40Z</time>
      </trkpt>
      <trkpt lat="50.49719" lon="3.098">
        <ele>48</ele>
        <time>2017-08-22T20:30:40Z</time>
      </trkpt>
      <trkpt lat="50.49727" lon="3.09799">
        <ele>48</ele>
        <time>2017-08-22T20:32:40Z</time>
      </trkpt>
      <trkpt lat="50.49733" lon="3.098">
        <ele>48</ele>
        <time>2017-08-22T20:34:40Z</time>
      </trkpt>
      <trkpt lat="50.49742" lon="3.09803">
        <ele>48</ele>
        <time>2017-08-22T20:36:40Z</time>
      </trkpt>
      <trkpt lat="50.4975" lon="3.09807">
        <ele>48</ele>
        <time>2017-08-22T20:38:40Z</time>
      </trkpt>
      <trkpt lat="50.49758" lon="3.0981">
        <ele>48</ele>
        <time>2017-08-22T20:40:40Z</time>
      </trkpt>
      <trkpt lat="50.49766" lon="3.0981">
        <ele>48</ele>
        <time>2017-08-22T20:42:40Z</time>
      </trkpt>
      <trkpt lat="50.49776" lon="3.09807">
        <ele>48</ele>
        <time>2017-08-22T20:44:40Z</time>
      </trkpt>
      <trkpt lat="50.49828" lon="3.09785">
        <ele>48</ele>
        <time>2017-08-22T20:46:40Z</time>
      </trkpt>
      <trkpt lat="50.49889" lon="3.09762">
        <ele>47</ele>
        <time>2017-08-22T20:48:40Z</time>
      </trkpt>
      <trkpt lat="50.49919" lon="3.09749">
        <ele>47</ele>
        <time>2017-08-22T20:50:40Z</time>
      </trkpt>
      <trkpt lat="50.49923" lon="3.09756">
        <ele>47</ele>
        <time>2017-08-22T20:52:40Z</time>
      </trkpt>
      <trkpt lat="50.49926" lon="3.09758">
        <ele>47</ele>
        <time>2017-08-22T20:54:40Z</time>
      </trkpt>
      <trkpt lat="50.49929" lon="3.09757">
        <ele>47</ele>
        <time>2017-08-22T20:56:40Z</time>
      </trkpt>
      <trkpt lat="50.49935" lon="3.09752">
        <ele>47</ele>
        <time>2017-08-22T20:58:40Z</time>
      </trkpt>
      <trkpt lat="50.49961" lon="3.09724">
        <ele>47</ele>
        <time>2017-08-22T21:00:40Z</time>
      </trkpt>
      <trkpt lat="50.50091" lon="3.09587">
        <ele>45</ele>
        <time>2017-08-22T21:02:40Z</time>
      </trkpt>
      <trkpt lat="50.50101" lon="3.09576">
        <ele>45</ele>
        <time>2017-08-22T21:04:40Z</time>
      </trkpt>
      <trkpt lat="50.50234" lon="3.09433">
        <ele>47</ele>
        <time>2017-08-22T21:06:40Z</time>
      </trkpt>
      <trkpt lat="50.50275" lon="3.09391">
        <ele>49</ele>
        <time>2017-08-22T21:08:40Z</time>
      </trkpt>
      <trkpt lat="50.50275" lon="3.09391">
        <ele>49</ele>
        <time>2017-08-22T21:10:40Z</time>
      </trkpt>
      <trkpt lat="50.50229" lon="3.09139">
        <ele>49</ele>
        <time>2017-08-22T21:12:40Z</time>
      </trkpt>
      <trkpt lat="50.50229" lon="3.09139">
        <ele>49</ele>
        <time>2017-08-22T21:14:40Z</time>
      </trkpt>
      <trkpt lat="50.50232" lon="3.09134">
        <ele>49</ele>
        <time>2017-08-22T21:16:40Z</time>
      </trkpt>
      <trkpt lat="50.50243" lon="3.0912">
        <ele>50</ele>
        <time>2017-08-22T21:18:40Z</time>
      </trkpt>
      <trkpt lat="50.50247" lon="3.09114">
        <ele>50</ele>
        <time>2017-08-22T21:20:40Z</time>
      </trkpt>
      <trkpt lat="50.50249" lon="3.09105">
        <ele>49</ele>
        <time>2017-08-22T21:22:40Z</time>
      </trkpt>
      <trkpt lat="50.50248" lon="3.09096">
        <ele>49</ele>
        <time>2017-08-22T21:24:40Z</time>
      </trkpt>
      <trkpt lat="50.50244" lon="3.09079">
        <ele>47</ele>
        <time>2017-08-22T21:26:40Z</time>
      </trkpt>
      <trkpt lat="50.50231" lon="3.09026">
        <ele>45</ele>
        <time>2017-08-22T21:28:40Z</time>
      </trkpt>
      <trkpt lat="50.50198" lon="3.08919">
        <ele>44</ele>
        <time>2017-08-22T21:30:40Z</time>
      </trkpt>
      <trkpt lat="50.50186" lon="3.0888">
        <ele>43</ele>
        <time>2017-08-22T21:32:40Z</time>
      </trkpt>
      <trkpt lat="50.50169" lon="3.08836">
        <ele>43</ele>
        <time>2017-08-22T21:34:40Z</time>
      </trkpt>
      <trkpt lat="50.50165" lon="3.08828">
        <ele>43</ele>
        <time>2017-08-22T21:36:40Z</time>
      </trkpt>
      <trkpt lat="50.50142" lon="3.08775">
        <ele>43</ele>
        <time>2017-08-22T21:38:40Z</time>
      </trkpt>
      <trkpt lat="50.50126" lon="3.08742">
        <ele>43</ele>
        <time>2017-08-22T21:40:40Z</time>
      </trkpt>
      <trkpt lat="50.50114" lon="3.08719">
        <ele>42</ele>
        <time>2017-08-22T21:42:40Z</time>
      </trkpt>
      <trkpt lat="50.50114" lon="3.08719">
        <ele>42</ele>
        <time>2017-08-22T21:44:40Z</time>
      </trkpt>
      <trkpt lat="50.50167" lon="3.08663">
        <ele>43</ele>
        <time>2017-08-22T21:46:40Z</time>
      </trkpt>
      <trkpt lat="50.5017" lon="3.0866">
        <ele>43</ele>
        <time>2017-08-22T21:48:40Z</time>
      </trkpt>
      <trkpt lat="50.50192" lon="3.08636">
        <ele>43</ele>
        <time>2017-08-22T21:50:40Z</time>
      </trkpt>
      <trkpt lat="50.50204" lon="3.0862">
        <ele>43</ele>
        <time>2017-08-22T21:52:40Z</time>
      </trkpt>
      <trkpt lat="50.50209" lon="3.08611">
        <ele>43</ele>
        <time>2017-08-22T21:54:40Z</time>
      </trkpt>
      <trkpt lat="50.50212" lon="3.08605">
        <ele>43</ele>
        <time>2017-08-22T21:56:40Z</time>
      </trkpt>
      <trkpt lat="50.50212" lon="3.08605">
        <ele>43</ele>
        <time>2017-08-22T21:58:40Z</time>
      </trkpt>
      <trkpt lat="50.50248" lon="3.08549">
        <ele>43</ele>
        <time>2017-08-22T22:00:40Z</time>
      </trkpt>
      <trkpt lat="50.50257" lon="3.08528">
        <ele>42</ele>
        <time>2017-08-22T22:02:40Z</time>
      </trkpt>
      <trkpt lat="50.50262" lon="3.08515">
        <ele>42</ele>
        <time>2017-08-22T22:04:40Z</time>
      </trkpt>
      <trkpt lat="50.50264" lon="3.08508">
        <ele>42</ele>
        <time>2017-08-22T22:06:40Z</time>
      </trkpt>
      <trkpt lat="50.50275" lon="3.08493">
        <ele>42</ele>
        <time>2017-08-22T22:08:40Z</time>
      </trkpt>
      <trkpt lat="50.50289" lon="3.0848">
        <ele>42</ele>
        <time>2017-08-22T22:10:40Z</time>
      </trkpt>
      <trkpt lat="50.50297" lon="3.08473">
        <ele>41</ele>
        <time>2017-08-22T22:12:40Z</time>
      </trkpt>
      <trkpt lat="50.50309" lon="3.08466">
        <ele>41</ele>
        <time>2017-08-22T22:14:40Z</time>
      </trkpt>
      <trkpt lat="50.50328" lon="3.08452">
        <ele>41</ele>
        <time>2017-08-22T22:16:40Z</time>
      </trkpt>
      <trkpt lat="50.50346" lon="3.08437">
        <ele>41</ele>
        <time>2017-08-22T22:18:40Z</time>
      </trkpt>
      <trkpt lat="50.50356" lon="3.08428">
        <ele>41</ele>
        <time>2017-08-22T22:20:40Z</time>
      </trkpt>
      <trkpt lat="50.50361" lon="3.08424">
        <ele>41</ele>
        <time>2017-08-22T22:22:40Z</time>
      </trkpt>
      <trkpt lat="50.50369" lon="3.08419">
        <ele>41</ele>
        <time>2017-08-22T22:24:40Z</time>
      </trkpt>
      <trkpt lat="50.50385" lon="3.08408">
        <ele>40</ele>
        <time>2017-08-22T22:26:40Z</time>
      </trkpt>
      <trkpt lat="50.50411" lon="3.08391">
        <ele>40</ele>
        <time>2017-08-22T22:28:40Z</time>
      </trkpt>
      <trkpt lat="50.50424" lon="3.08381">
        <ele>40</ele>
        <time>2017-08-22T22:30:40Z</time>
      </trkpt>
      <trkpt lat="50.50433" lon="3.08375">
        <ele>40</ele>
        <time>2017-08-22T22:32:40Z</time>
      </trkpt>
      <trkpt lat="50.50437" lon="3.08371">
        <ele>40</ele>
        <time>2017-08-22T22:34:40Z</time>
      </trkpt>
      <trkpt lat="50.50442" lon="3.08367">
        <ele>40</ele>
        <time>2017-08-22T22:36:40Z</time>
      </trkpt>
      <trkpt lat="50.50455" lon="3.08358">
        <ele>40</ele>
        <time>2017-08-22T22:38:40Z</time>
      </trkpt>
      <trkpt lat="50.50458" lon="3.08356">
        <ele>40</ele>
        <time>2017-08-22T22:40:40Z</time>
      </trkpt>
      <trkpt lat="50.50483" lon="3.08338">
        <ele>40</ele>
        <time>2017-08-22T22:42:40Z</time>
      </trkpt>
      <trkpt lat="50.50497" lon="3.0833">
        <ele>40</ele>
        <time>2017-08-22T22:44:40Z</time>
      </trkpt>
      <trkpt lat="50.50507" lon="3.08324">
        <ele>40</ele>
        <time>2017-08-22T22:46:40Z</time>
      </trkpt>
      <trkpt lat="50.50516" lon="3.08318">
        <ele>40</ele>
        <time>2017-08-22T22:48:40Z</time>
      </trkpt>
      <trkpt lat="50.50534" lon="3.08307">
        <ele>40</ele>
        <time>2017-08-22T22:50:40Z</time>
      </trkpt>
      <trkpt lat="50.50537" lon="3.08305">
        <ele>40</ele>
        <time>2017-08-22T22:52:40Z</time>
      </trkpt>
      <trkpt lat="50.50542" lon="3.08302">
        <ele>40</ele>
        <time>2017-08-22T22:54:40Z</time>
      </trkpt>
      <trkpt lat="50.5056" lon="3.08288">
        <ele>40</ele>
        <time>2017-08-22T22:56:40Z</time>
      </trkpt>
      <trkpt lat="50.5056" lon="3.08288">
        <ele>40</ele>
        <time>2017-08-22T22:58:40Z</time>
      </trkpt>
      <trkpt lat="50.50594" lon="3.08326">
        <ele>39</ele>
        <time>2017-08-22T23:00:40Z</time>
      </trkpt>
      <trkpt lat="50.50627" lon="3.08361">
        <ele>40</ele>
        <time>2017-08-22T23:02:40Z</time>
      </trkpt>
      <trkpt lat="50.50636" lon="3.08371">
        <ele>40</ele>
        <time>2017-08-22T23:04:40Z</time>
      </trkpt>
      <trkpt lat="50.50642" lon="3.08378">
        <ele>40</ele>
        <time>2017-08-22T23:06:40Z</time>
      </trkpt>
      <trkpt lat="50.50642" lon="3.08378">
        <ele>40</ele>
        <time>2017-08-22T23:08:40Z</time>
      </trkpt>
      <trkpt lat="50.5068" lon="3.08366">
        <ele>41</ele>
        <time>2017-08-22T23:10:40Z</time>
      </trkpt>
      <trkpt lat="50.50697" lon="3.08359">
        <ele>41</ele>
        <time>2017-08-22T23:12:40Z</time>
      </trkpt>
      <trkpt lat="50.50704" lon="3.08345">
        <ele>41</ele>
        <time>2017-08-22T23:14:40Z</time>
      </trkpt>
      <trkpt lat="50.50705" lon="3.0834">
        <ele>41</ele>
        <time>2017-08-22T23:16:40Z</time>
      </trkpt>
      <trkpt lat="50.50706" lon="3.08336">
        <ele>41</ele>
        <time>2017-08-22T23:18:40Z</time>
      </trkpt>
      <trkpt lat="50.50707" lon="3.08332">
        <ele>41</ele>
        <time>2017-08-22T23:20:40Z</time>
      </trkpt>
      <trkpt lat="50.50708" lon="3.08325">
        <ele>41</ele>
        <time>2017-08-22T23:22:40Z</time>
      </trkpt>
      <trkpt lat="50.5071" lon="3.08317">
        <ele>41</ele>
        <time>2017-08-22T23:24:40Z</time>
      </trkpt>
      <trkpt lat="50.50714" lon="3.08296">
        <ele>41</ele>
        <time>2017-08-22T23:26:40Z</time>
      </trkpt>
      <trkpt lat="50.50722" lon="3.08252">
        <ele>41</ele>
        <time>2017-08-22T23:28:40Z</time>
      </trkpt>
      <trkpt lat="50.50731" lon="3.08183">
        <ele>42</ele>
        <time>2017-08-22T23:30:40Z</time>
      </trkpt>
      <trkpt lat="50.50736" lon="3.0815">
        <ele>42</ele>
        <time>2017-08-22T23:32:40Z</time>
      </trkpt>
      <trkpt lat="50.50736" lon="3.08145">
        <ele>42</ele>
        <time>2017-08-22T23:34:40Z</time>
      </trkpt>
      <trkpt lat="50.50737" lon="3.08135">
        <ele>42</ele>
        <time>2017-08-22T23:36:40Z</time>
      </trkpt>
      <trkpt lat="50.50736" lon="3.08113">
        <ele>42</ele>
        <time>2017-08-22T23:38:40Z</time>
      </trkpt>
      <trkpt lat="50.50735" lon="3.0811">
        <ele>42</ele>
        <time>2017-08-22T23:40:40Z</time>
      </trkpt>
      <trkpt lat="50.50729" lon="3.08079">
        <ele>43</ele>
        <time>2017-08-22T23:42:40Z</time>
      </trkpt>
      <trkpt lat="50.50725" lon="3.0806">
        <ele>42</ele>
        <time>2017-08-22T23:44:40Z</time>
      </trkpt>
      <trkpt lat="50.50722" lon="3.08043">
        <ele>42</ele>
        <time>2017-08-22T23:46:40Z</time>
      </trkpt>
      <trkpt lat="50.50721" lon="3.08036">
        <ele>43</ele>
        <time>2017-08-22T23:48:40Z</time>
      </trkpt>
      <trkpt lat="50.50721" lon="3.08029">
        <ele>43</ele>
        <time>2017-08-22T23:50:40Z</time>
      </trkpt>
      <trkpt lat="50.5072" lon="3.08027">
        <ele>43</ele>
        <time>2017-08-22T23:52:40Z</time>
      </trkpt>
      <trkpt lat="50.5072" lon="3.08024">
        <ele>43</ele>
        <time>2017-08-22T23:54:40Z</time>
      </trkpt>
      <trkpt lat="50.50719" lon="3.08021">
        <ele>43</ele>
        <time>2017-08-22T23:56:40Z</time>
      </trkpt>
      <trkpt lat="50.50719" lon="3.08019">
        <ele>43</ele>
        <time>2017-08-22T23:58:40Z</time>
      </trkpt>
      <trkpt lat="50.50719" lon="3.08017">
        <ele>43</ele>
        <time>2017-08-23T00:00:40Z</time>
      </trkpt>
      <trkpt lat="50.5072" lon="3.08014">
        <ele>43</ele>
        <time>2017-08-23T00:02:40Z</time>
      </trkpt>
      <trkpt lat="50.50721" lon="3.08012">
        <ele>43</ele>
        <time>2017-08-23T00:04:40Z</time>
      </trkpt>
      <trkpt lat="50.50722" lon="3.08011">
        <ele>43</ele>
        <time>2017-08-23T00:06:40Z</time>
      </trkpt>
      <trkpt lat="50.50723" lon="3.08008">
        <ele>43</ele>
        <time>2017-08-23T00:08:40Z</time>
      </trkpt>
      <trkpt lat="50.50724" lon="3.08006">
        <ele>43</ele>
        <time>2017-08-23T00:10:40Z</time>
      </trkpt>
      <trkpt lat="50.50726" lon="3.08">
        <ele>43</ele>
        <time>2017-08-23T00:12:40Z</time>
      </trkpt>
      <trkpt lat="50.50732" lon="3.07983">
        <ele>43</ele>
        <time>2017-08-23T00:14:40Z</time>
      </trkpt>
      <trkpt lat="50.50739" lon="3.07968">
        <ele>43</ele>
        <time>2017-08-23T00:16:40Z</time>
      </trkpt>
      <trkpt lat="50.50748" lon="3.07954">
        <ele>43</ele>
        <time>2017-08-23T00:18:40Z</time>
      </trkpt>
      <trkpt lat="50.5076" lon="3.07938">
        <ele>43</ele>
        <time>2017-08-23T00:20:40Z</time>
      </trkpt>
      <trkpt lat="50.50767" lon="3.07929">
        <ele>43</ele>
        <time>2017-08-23T00:22:40Z</time>
      </trkpt>
      <trkpt lat="50.50773" lon="3.07922">
        <ele>43</ele>
        <time>2017-08-23T00:24:40Z</time>
      </trkpt>
      <trkpt lat="50.50777" lon="3.07917">
        <ele>43</ele>
        <time>2017-08-23T00:26:40Z</time>
      </trkpt>
      <trkpt lat="50.50778" lon="3.07915">
        <ele>43</ele>
        <time>2017-08-23T00:28:40Z</time>
      </trkpt>
      <trkpt lat="50.50786" lon="3.07904">
        <ele>43</ele>
        <time>2017-08-23T00:30:40Z</time>
      </trkpt>
      <trkpt lat="50.50823" lon="3.07853">
        <ele>43</ele>
        <time>2017-08-23T00:32:40Z</time>
      </trkpt>
      <trkpt lat="50.50858" lon="3.07804">
        <ele>43</ele>
        <time>2017-08-23T00:34:40Z</time>
      </trkpt>
      <trkpt lat="50.50882" lon="3.07771">
        <ele>43</ele>
        <time>2017-08-23T00:36:40Z</time>
      </trkpt>
      <trkpt lat="50.50892" lon="3.07758">
        <ele>43</ele>
        <time>2017-08-23T00:38:40Z</time>
      </trkpt>
      <trkpt lat="50.509" lon="3.07751">
        <ele>43</ele>
        <time>2017-08-23T00:40:40Z</time>
      </trkpt>
      <trkpt lat="50.50906" lon="3.07746">
        <ele>43</ele>
        <time>2017-08-23T00:42:40Z</time>
      </trkpt>
      <trkpt lat="50.50911" lon="3.07742">
        <ele>43</ele>
        <time>2017-08-23T00:44:40Z</time>
      </trkpt>
      <trkpt lat="50.50915" lon="3.0774">
        <ele>43</ele>
        <time>2017-08-23T00:46:40Z</time>
      </trkpt>
      <trkpt lat="50.50917" lon="3.07739">
        <ele>43</ele>
        <time>2017-08-23T00:48:40Z</time>
      </trkpt>
      <trkpt lat="50.50922" lon="3.07737">
        <ele>43</ele>
        <time>2017-08-23T00:50:40Z</time>
      </trkpt>
      <trkpt lat="50.50932" lon="3.07733">
        <ele>43</ele>
        <time>2017-08-23T00:52:40Z</time>
      </trkpt>
      <trkpt lat="50.50939" lon="3.0773">
        <ele>43</ele>
        <time>2017-08-23T00:54:40Z</time>
      </trkpt>
      <trkpt lat="50.50943" lon="3.07728">
        <ele>43</ele>
        <time>2017-08-23T00:56:40Z</time>
      </trkpt>
      <trkpt lat="50.50948" lon="3.07726">
        <ele>43</ele>
        <time>2017-08-23T00:58:40Z</time>
      </trkpt>
      <trkpt lat="50.50955" lon="3.07722">
        <ele>43</ele>
        <time>2017-08-23T01:00:40Z</time>
      </trkpt>
      <trkpt lat="50.5096" lon="3.07718">
        <ele>44</ele>
        <time>2017-08-23T01:02:40Z</time>
      </trkpt>
      <trkpt lat="50.50967" lon="3.07713">
        <ele>44</ele>
        <time>2017-08-23T01:04:40Z</time>
      </trkpt>
      <trkpt lat="50.51002" lon="3.07685">
        <ele>44</ele>
        <time>2017-08-23T01:06:40Z</time>
      </trkpt>
      <trkpt lat="50.51019" lon="3.07671">
        <ele>44</ele>
        <time>2017-08-23T01:08:40Z</time>
      </trkpt>
      <trkpt lat="50.51024" lon="3.07665">
        <ele>44</ele>
        <time>2017-08-23T01:10:40Z</time>
      </trkpt>
      <trkpt lat="50.51028" lon="3.07661">
        <ele>44</ele>
        <time>2017-08-23T01:12:40Z</time>
      </trkpt>
      <trkpt lat="50.5103" lon="3.07657">
        <ele>44</ele>
        <time>2017-08-23T01:14:40Z</time>
      </trkpt>
      <trkpt lat="50.51031" lon="3.07653">
        <ele>44</ele>
        <time>2017-08-23T01:16:40Z</time>
      </trkpt>
      <trkpt lat="50.51033" lon="3.07648">
        <ele>44</ele>
        <time>2017-08-23T01:18:40Z</time>
      </trkpt>
      <trkpt lat="50.51035" lon="3.0764">
        <ele>44</ele>
        <time>2017-08-23T01:20:40Z</time>
      </trkpt>
      <trkpt lat="50.51038" lon="3.07626">
        <ele>44</ele>
        <time>2017-08-23T01:22:40Z</time>
      </trkpt>
      <trkpt lat="50.51042" lon="3.07603">
        <ele>45</ele>
        <time>2017-08-23T01:24:40Z</time>
      </trkpt>
      <trkpt lat="50.51047" lon="3.07586">
        <ele>45</ele>
        <time>2017-08-23T01:26:40Z</time>
      </trkpt>
      <trkpt lat="50.51056" lon="3.07561">
        <ele>45</ele>
        <time>2017-08-23T01:28:40Z</time>
      </trkpt>
      <trkpt lat="50.51073" lon="3.07521">
        <ele>45</ele>
        <time>2017-08-23T01:30:40Z</time>
      </trkpt>
      <trkpt lat="50.5109" lon="3.07485">
        <ele>45</ele>
        <time>2017-08-23T01:32:40Z</time>
      </trkpt>
      <trkpt lat="50.51101" lon="3.07464">
        <ele>46</ele>
        <time>2017-08-23T01:34:40Z</time>
      </trkpt>
      <trkpt lat="50.51106" lon="3.07454">
        <ele>46</ele>
        <time>2017-08-23T01:36:40Z</time>
      </trkpt>
      <trkpt lat="50.51119" lon="3.07434">
        <ele>46</ele>
        <time>2017-08-23T01:38:40Z</time>
      </trkpt>
      <trkpt lat="50.5115" lon="3.07383">
        <ele>47</ele>
        <time>2017-08-23T01:40:40Z</time>
      </trkpt>
      <trkpt lat="50.51172" lon="3.07341">
        <ele>48</ele>
        <time>2017-08-23T01:42:40Z</time>
      </trkpt>
      <trkpt lat="50.51207" lon="3.07267">
        <ele>49</ele>
        <time>2017-08-23T01:44:40Z</time>
      </trkpt>
      <trkpt lat="50.51234" lon="3.07215">
        <ele>49</ele>
        <time>2017-08-23T01:46:40Z</time>
      </trkpt>
      <trkpt lat="50.51273" lon="3.0714">
        <ele>50</ele>
        <time>2017-08-23T01:48:40Z</time>
      </trkpt>
      <trkpt lat="50.51283" lon="3.07118">
        <ele>50</ele>
        <time>2017-08-23T01:50:40Z</time>
      </trkpt>
      <trkpt lat="50.51287" lon="3.07108">
        <ele>50</ele>
        <time>2017-08-23T01:52:40Z</time>
      </trkpt>
      <trkpt lat="50.5129" lon="3.07098">
        <ele>50</ele>
        <time>2017-08-23T01:54:40Z</time>
      </trkpt>
      <trkpt lat="50.51295" lon="3.07083">
        <ele>51</ele>
        <time>2017-08-23T01:56:40Z</time>
      </trkpt>
      <trkpt lat="50.51303" lon="3.07061">
        <ele>51</ele>
        <time>2017-08-23T01:58:40Z</time>
      </trkpt>
      <trkpt lat="50.51307" lon="3.07052">
        <ele>51</ele>
        <time>2017-08-23T02:00:40Z</time>
      </trkpt>
      <trkpt lat="50.51311" lon="3.0704">
        <ele>51</ele>
        <time>2017-08-23T02:02:40Z</time>
      </trkpt>
      <trkpt lat="50.51313" lon="3.07034">
        <ele>51</ele>
        <time>2017-08-23T02:04:40Z</time>
      </trkpt>
      <trkpt lat="50.51314" lon="3.07027">
        <ele>51</ele>
        <time>2017-08-23T02:06:40Z</time>
      </trkpt>
      <trkpt lat="50.51315" lon="3.07022">
        <ele>52</ele>
        <time>2017-08-23T02:08:40Z</time>
      </trkpt>
      <trkpt lat="50.51316" lon="3.07014">
        <ele>52</ele>
        <time>2017-08-23T02:10:40Z</time>
      </trkpt>
      <trkpt lat="50.51316" lon="3.07009">
        <ele>52</ele>
        <time>2017-08-23T02:12:40Z</time>
      </trkpt>
      <trkpt lat="50.51316" lon="3.06995">
        <ele>52</ele>
        <time>2017-08-23T02:14:40Z</time>
      </trkpt>
      <trkpt lat="50.51316" lon="3.06995">
        <ele>52</ele>
        <time>2017-08-23T02:16:40Z</time>
      </trkpt>
      <trkpt lat="50.51335" lon="3.06991">
        <ele>52</ele>
        <time>2017-08-23T02:18:40Z</time>
      </trkpt>
      <trkpt lat="50.51353" lon="3.06986">
        <ele>52</ele>
        <time>2017-08-23T02:20:40Z</time>
      </trkpt>
      <trkpt lat="50.51353" lon="3.06986">
        <ele>52</ele>
        <time>2017-08-23T02:22:40Z</time>
      </trkpt>
      <trkpt lat="50.51365" lon="3.06982">
        <ele>52</ele>
        <time>2017-08-23T02:24:40Z</time>
      </trkpt>
      <trkpt lat="50.514" lon="3.06973">
        <ele>52</ele>
        <time>2017-08-23T02:26:40Z</time>
      </trkpt>
      <trkpt lat="50.51405" lon="3.06972">
        <ele>52</ele>
        <time>2017-08-23T02:28:40Z</time>
      </trkpt>
      <trkpt lat="50.51409" lon="3.06972">
        <ele>52</ele>
        <time>2017-08-23T02:30:40Z</time>
      </trkpt>
      <trkpt lat="50.51412" lon="3.06972">
        <ele>52</ele>
        <time>2017-08-23T02:32:40Z</time>
      </trkpt>
      <trkpt lat="50.51416" lon="3.06973">
        <ele>52</ele>
        <time>2017-08-23T02:34:40Z</time>
      </trkpt>
      <trkpt lat="50.51421" lon="3.06975">
        <ele>52</ele>
        <time>2017-08-23T02:36:40Z</time>
      </trkpt>
      <trkpt lat="50.5143" lon="3.06982">
        <ele>52</ele>
        <time>2017-08-23T02:38:40Z</time>
      </trkpt>
      <trkpt lat="50.5143" lon="3.06982">
        <ele>52</ele>
        <time>2017-08-23T02:40:40Z</time>
      </trkpt>
      <trkpt lat="50.51462" lon="3.06921">
        <ele>52</ele>
        <time>2017-08-23T02:42:40Z</time>
      </trkpt>
      <trkpt lat="50.51499" lon="3.06855">
        <ele>53</ele>
        <time>2017-08-23T02:44:40Z</time>
      </trkpt>
      <trkpt lat="50.51516" lon="3.0682">
        <ele>53</ele>
        <time>2017-08-23T02:46:40Z</time>
      </trkpt>
      <trkpt lat="50.5154" lon="3.06765">
        <ele>54</ele>
        <time>2017-08-23T02:48:40Z</time>
      </trkpt>
      <trkpt lat="50.51567" lon="3.06701">
        <ele>55</ele>
        <time>2017-08-23T02:50:40Z</time>
      </trkpt>
      <trkpt lat="50.51577" lon="3.06676">
        <ele>55</ele>
        <time>2017-08-23T02:52:40Z</time>
      </trkpt>
      <trkpt lat="50.51599" lon="3.06624">
        <ele>56</ele>
        <time>2017-08-23T02:54:40Z</time>
      </trkpt>
      <trkpt lat="50.51616" lon="3.06579">
        <ele>56</ele>
        <time>2017-08-23T02:56:40Z</time>
      </trkpt>
      <trkpt lat="50.51636" lon="3.06527">
        <ele>56</ele>
        <time>2017-08-23T02:58:40Z</time>
      </trkpt>
      <trkpt lat="50.51663" lon="3.06456">
        <ele>57</ele>
        <time>2017-08-23T03:00:40Z</time>
      </trkpt>
      <trkpt lat="50.51685" lon="3.06409">
        <ele>58</ele>
        <time>2017-08-23T03:02:40Z</time>
      </trkpt>
      <trkpt lat="50.51726" lon="3.06323">
        <ele>62</ele>
        <time>2017-08-23T03:04:40Z</time>
      </trkpt>
      <trkpt lat="50.51734" lon="3.06307">
        <ele>62</ele>
        <time>2017-08-23T03:06:40Z</time>
      </trkpt>
      <trkpt lat="50.51734" lon="3.06307">
        <ele>62</ele>
        <time>2017-08-23T03:08:40Z</time>
      </trkpt>
      <trkpt lat="50.51713" lon="3.06285">
        <ele>61</ele>
        <time>2017-08-23T03:10:40Z</time>
      </trkpt>
      <trkpt lat="50.51669" lon="3.06242">
        <ele>59</ele>
        <time>2017-08-23T03:12:40Z</time>
      </trkpt>
      <trkpt lat="50.51639" lon="3.06215">
        <ele>59</ele>
        <time>2017-08-23T03:14:40Z</time>
      </trkpt>
      <trkpt lat="50.51638" lon="3.06215">
        <ele>59</ele>
        <time>2017-08-23T03:16:40Z</time>
      </trkpt>
      <trkpt lat="50.51635" lon="3.06219">
        <ele>59</ele>
        <time>2017-08-23T03:18:40Z</time>
      </trkpt>
      <trkpt lat="50.51633" lon="3.06219">
        <ele>59</ele>
        <time>2017-08-23T03:20:40Z</time>
      </trkpt>
      <trkpt lat="50.51601" lon="3.06189">
        <ele>60</ele>
        <time>2017-08-23T03:22:40Z</time>
      </trkpt>
      <trkpt lat="50.51578" lon="3.06164">
        <ele>60</ele>
        <time>2017-08-23T03:24:40Z</time>
      </trkpt>
      <trkpt lat="50.51561" lon="3.06147">
        <ele>60</ele>
        <time>2017-08-23T03:26:40Z</time>
      </trkpt>
      <trkpt lat="50.51561" lon="3.06147">
        <ele>60</ele>
        <time>2017-08-23T03:28:40Z</time>
      </trkpt>
      <trkpt lat="50.51536" lon="3.06157">
        <ele>59</ele>
        <time>2017-08-23T03:30:40Z</time>
      </trkpt>
      <trkpt lat="50.51532" lon="3.06158">
        <ele>59</ele>
        <time>2017-08-23T03:32:40Z</time>
      </trkpt>
      <trkpt lat="50.51505" lon="3.0617">
        <ele>59</ele>
        <time>2017-08-23T03:34:40Z</time>
      </trkpt>
      <trkpt lat="50.51476" lon="3.06177">
        <ele>59</ele>
        <time>2017-08-23T03:36:40Z</time>
      </trkpt>
      <trkpt lat="50.51462" lon="3.06176">
        <ele>59</ele>
        <time>2017-08-23T03:38:40Z</time>
      </trkpt>
      <trkpt lat="50.51454" lon="3.06176">
        <ele>59</ele>
        <time>2017-08-23T03:40:40Z</time>
      </trkpt>
      <trkpt lat="50.5145" lon="3.06175">
        <ele>59</ele>
        <time>2017-08-23T03:42:40Z</time>
      </trkpt>
      <trkpt lat="50.51441" lon="3.06173">
        <ele>59</ele>
        <time>2017-08-23T03:44:40Z</time>
      </trkpt>
      <trkpt lat="50.51432" lon="3.06171">
        <ele>59</ele>
        <time>2017-08-23T03:46:40Z</time>
      </trkpt>
      <trkpt lat="50.51427" lon="3.0617">
        <ele>59</ele>
        <time>2017-08-23T03:48:40Z</time>
      </trkpt>
      <trkpt lat="50.51418" lon="3.06167">
        <ele>59</ele>
        <time>2017-08-23T03:50:40Z</time>
      </trkpt>
      <trkpt lat="50.51394" lon="3.06156">
        <ele>59</ele>
        <time>2017-08-23T03:52:40Z</time>
      </trkpt>
      <trkpt lat="50.51381" lon="3.06146">
        <ele>60</ele>
        <time>2017-08-23T03:54:40Z</time>
      </trkpt>
      <trkpt lat="50.51368" lon="3.06134">
        <ele>60</ele>
        <time>2017-08-23T03:56:40Z</time>
      </trkpt>
      <trkpt lat="50.5134" lon="3.06105">
        <ele>61</ele>
        <time>2017-08-23T03:58:40Z</time>
      </trkpt>
      <trkpt lat="50.51282" lon="3.06052">
        <ele>60</ele>
        <time>2017-08-23T04:00:40Z</time>
      </trkpt>
      <trkpt lat="50.5126" lon="3.06033">
        <ele>59</ele>
        <time>2017-08-23T04:02:40Z</time>
      </trkpt>
      <trkpt lat="50.51232" lon="3.06006">
        <ele>59</ele>
        <time>2017-08-23T04:04:40Z</time>
      </trkpt>
      <trkpt lat="50.51195" lon="3.05972">
        <ele>58</ele>
        <time>2017-08-23T04:06:40Z</time>
      </trkpt>
      <trkpt lat="50.51074" lon="3.05856">
        <ele>56</ele>
        <time>2017-08-23T04:08:40Z</time>
      </trkpt>
      <trkpt lat="50.51007" lon="3.05784">
        <ele>57</ele>
        <time>2017-08-23T04:10:40Z</time>
      </trkpt>
      <trkpt lat="50.51007" lon="3.05784">
        <ele>57</ele>
        <time>2017-08-23T04:12:40Z</time>
      </trkpt>
      <trkpt lat="50.51011" lon="3.05777">
        <ele>57</ele>
        <time>2017-08-23T04:14:40Z</time>
      </trkpt>
      <trkpt lat="50.51018" lon="3.05765">
        <ele>57</ele>
        <time>2017-08-23T04:16:40Z</time>
      </trkpt>
      <trkpt lat="50.51048" lon="3.05704">
        <ele>57</ele>
        <time>2017-08-23T04:18:40Z</time>
      </trkpt>
      <trkpt lat="50.51054" lon="3.05692">
        <ele>57</ele>
        <time>2017-08-23T04:20:40Z</time>
      </trkpt>
      <trkpt lat="50.5106" lon="3.05677">
        <ele>57</ele>
        <time>2017-08-23T04:22:40Z</time>
      </trkpt>
      <trkpt lat="50.51066" lon="3.05655">
        <ele>56</ele>
        <time>2017-08-23T04:24:40Z</time>
      </trkpt>
      <trkpt lat="50.51082" lon="3.05593">
        <ele>54</ele>
        <time>2017-08-23T04:26:40Z</time>
      </trkpt>
      <trkpt lat="50.51093" lon="3.05557">
        <ele>54</ele>
        <time>2017-08-23T04:28:40Z</time>
      </trkpt>
      <trkpt lat="50.51111" lon="3.05515">
        <ele>54</ele>
        <time>2017-08-23T04:30:40Z</time>
      </trkpt>
      <trkpt lat="50.51134" lon="3.05461">
        <ele>56</ele>
        <time>2017-08-23T04:32:40Z</time>
      </trkpt>
      <trkpt lat="50.51146" lon="3.0543">
        <ele>57</ele>
        <time>2017-08-23T04:34:40Z</time>
      </trkpt>
      <trkpt lat="50.51161" lon="3.05394">
        <ele>58</ele>
        <time>2017-08-23T04:36:40Z</time>
      </trkpt>
      <trkpt lat="50.51176" lon="3.05355">
        <ele>59</ele>
        <time>2017-08-23T04:38:40Z</time>
      </trkpt>
      <trkpt lat="50.51183" lon="3.05337">
        <ele>59</ele>
        <time>2017-08-23T04:40:40Z</time>
      </trkpt>
      <trkpt lat="50.51186" lon="3.05333">
        <ele>59</ele>
        <time>2017-08-23T04:42:40Z</time>
      </trkpt>
      <trkpt lat="50.51186" lon="3.05333">
        <ele>59</ele>
        <time>2017-08-23T04:44:40Z</time>
      </trkpt>
      <trkpt lat="50.51193" lon="3.05332">
        <ele>59</ele>
        <time>2017-08-23T04:46:40Z</time>
      </trkpt>
      <trkpt lat="50.512" lon="3.05333">
        <ele>59</ele>
        <time>2017-08-23T04:48:40Z</time>
      </trkpt>
      <trkpt lat="50.51207" lon="3.05336">
        <ele>59</ele>
        <time>2017-08-23T04:50:40Z</time>
      </trkpt>
      <trkpt lat="50.51215" lon="3.05343">
        <ele>59</ele>
        <time>2017-08-23T04:52:40Z</time>
      </trkpt>
      <trkpt lat="50.51222" lon="3.0535">
        <ele>59</ele>
        <time>2017-08-23T04:54:40Z</time>
      </trkpt>
      <trkpt lat="50.51228" lon="3.05355">
        <ele>59</ele>
        <time>2017-08-23T04:56:40Z</time>
      </trkpt>
      <trkpt lat="50.51264" lon="3.05396">
        <ele>58</ele>
        <time>2017-08-23T04:58:40Z</time>
      </trkpt>
      <trkpt lat="50.51288" lon="3.05421">
        <ele>57</ele>
        <time>2017-08-23T05:00:40Z</time>
      </trkpt>
      <trkpt lat="50.51298" lon="3.0543">
        <ele>57</ele>
        <time>2017-08-23T05:02:40Z</time>
      </trkpt>
      <trkpt lat="50.51308" lon="3.05437">
        <ele>57</ele>
        <time>2017-08-23T05:04:40Z</time>
      </trkpt>
      <trkpt lat="50.51316" lon="3.0544">
        <ele>57</ele>
        <time>2017-08-23T05:06:40Z</time>
      </trkpt>
      <trkpt lat="50.51331" lon="3.05441">
        <ele>57</ele>
        <time>2017-08-23T05:08:40Z</time>
      </trkpt>
      <trkpt lat="50.5135" lon="3.05442">
        <ele>57</ele>
        <time>2017-08-23T05:10:40Z</time>
      </trkpt>
      <trkpt lat="50.51397" lon="3.05447">
        <ele>56</ele>
        <time>2017-08-23T05:12:40Z</time>
      </trkpt>
      <trkpt lat="50.51418" lon="3.05452">
        <ele>56</ele>
        <time>2017-08-23T05:14:40Z</time>
      </trkpt>
      <trkpt lat="50.51446" lon="3.0546">
        <ele>56</ele>
        <time>2017-08-23T05:16:40Z</time>
      </trkpt>
      <trkpt lat="50.51465" lon="3.05471">
        <ele>56</ele>
        <time>2017-08-23T05:18:40Z</time>
      </trkpt>
      <trkpt lat="50.51476" lon="3.0548">
        <ele>56</ele>
        <time>2017-08-23T05:20:40Z</time>
      </trkpt>
      <trkpt lat="50.51483" lon="3.05487">
        <ele>56</ele>
        <time>2017-08-23T05:22:40Z</time>
      </trkpt>
      <trkpt lat="50.51506" lon="3.05514">
        <ele>56</ele>
        <time>2017-08-23T05:24:40Z</time>
      </trkpt>
      <trkpt lat="50.51516" lon="3.05522">
        <ele>56</ele>
        <time>2017-08-23T05:26:40Z</time>
      </trkpt>
      <trkpt lat="50.51522" lon="3.05525">
        <ele>56</ele>
        <time>2017-08-23T05:28:40Z</time>
      </trkpt>
      <trkpt lat="50.51528" lon="3.05528">
        <ele>56</ele>
        <time>2017-08-23T05:30:40Z</time>
      </trkpt>
      <trkpt lat="50.51532" lon="3.05528">
        <ele>56</ele>
        <time>2017-08-23T05:32:40Z</time>
      </trkpt>
      <trkpt lat="50.51536" lon="3.05529">
        <ele>56</ele>
        <time>2017-08-23T05:34:40Z</time>
      </trkpt>
      <trkpt lat="50.51543" lon="3.05528">
        <ele>56</ele>
        <time>2017-08-23T05:36:40Z</time>
      </trkpt>
      <trkpt lat="50.51547" lon="3.05527">
        <ele>56</ele>
        <time>2017-08-23T05:38:40Z</time>
      </trkpt>
      <trkpt lat="50.51569" lon="3.05525">
        <ele>55</ele>
        <time>2017-08-23T05:40:40Z</time>
      </trkpt>
      <trkpt lat="50.51574" lon="3.05524">
        <ele>55</ele>
        <time>2017-08-23T05:42:40Z</time>
      </trkpt>
      <trkpt lat="50.51577" lon="3.05525">
        <ele>55</ele>
        <time>2017-08-23T05:44:40Z</time>
      </trkpt>
      <trkpt lat="50.51579" lon="3.05525">
        <ele>55</ele>
        <time>2017-08-23T05:46:40Z</time>
      </trkpt>
      <trkpt lat="50.51582" lon="3.05526">
        <ele>55</ele>
        <time>2017-08-23T05:48:40Z</time>
      </trkpt>
      <trkpt lat="50.51585" lon="3.05527">
        <ele>55</ele>
        <time>2017-08-23T05:50:40Z</time>
      </trkpt>
      <trkpt lat="50.51591" lon="3.0553">
        <ele>55</ele>
        <time>2017-08-23T05:52:40Z</time>
      </trkpt>
      <trkpt lat="50.51597" lon="3.05534">
        <ele>55</ele>
        <time>2017-08-23T05:54:40Z</time>
      </trkpt>
      <trkpt lat="50.51603" lon="3.05538">
        <ele>55</ele>
        <time>2017-08-23T05:56:40Z</time>
      </trkpt>
      <trkpt lat="50.5161" lon="3.05543">
        <ele>56</ele>
        <time>2017-08-23T05:58:40Z</time>
      </trkpt>
      <trkpt lat="50.51614" lon="3.05545">
        <ele>56</ele>
        <time>2017-08-23T06:00:40Z</time>
      </trkpt>
      <trkpt lat="50.51619" lon="3.05547">
        <ele>56</ele>
        <time>2017-08-23T06:02:40Z</time>
      </trkpt>
      <trkpt lat="50.51647" lon="3.05557">
        <ele>56</ele>
        <time>2017-08-23T06:04:40Z</time>
      </trkpt>
      <trkpt lat="50.51662" lon="3.05562">
        <ele>56</ele>
        <time>2017-08-23T06:06:40Z</time>
      </trkpt>
      <trkpt lat="50.51672" lon="3.05563">
        <ele>56</ele>
        <time>2017-08-23T06:08:40Z</time>
      </trkpt>
      <trkpt lat="50.51682" lon="3.05564">
        <ele>56</ele>
        <time>2017-08-23T06:10:40Z</time>
      </trkpt>
      <trkpt lat="50.51686" lon="3.05564">
        <ele>56</ele>
        <time>2017-08-23T06:12:40Z</time>
      </trkpt>
      <trkpt lat="50.51691" lon="3.05564">
        <ele>55</ele>
        <time>2017-08-23T06:14:40Z</time>
      </trkpt>
      <trkpt lat="50.51708" lon="3.05564">
        <ele>55</ele>
        <time>2017-08-23T06:16:40Z</time>
      </trkpt>
      <trkpt lat="50.5173" lon="3.05563">
        <ele>55</ele>
        <time>2017-08-23T06:18:40Z</time>
      </trkpt>
      <trkpt lat="50.51738" lon="3.05563">
        <ele>55</ele>
        <time>2017-08-23T06:20:40Z</time>
      </trkpt>
      <trkpt lat="50.51743" lon="3.05562">
        <ele>55</ele>
        <time>2017-08-23T06:22:40Z</time>
      </trkpt>
      <trkpt lat="50.51746" lon="3.05561">
        <ele>55</ele>
        <time>2017-08-23T06:24:40Z</time>
      </trkpt>
      <trkpt lat="50.51749" lon="3.0556">
        <ele>55</ele>
        <time>2017-08-23T06:26:40Z</time>
      </trkpt>
      <trkpt lat="50.51752" lon="3.05558">
        <ele>55</ele>
        <time>2017-08-23T06:28:40Z</time>
      </trkpt>
      <trkpt lat="50.51754" lon="3.05556">
        <ele>55</ele>
        <time>2017-08-23T06:30:40Z</time>
      </trkpt>
      <trkpt lat="50.51757" lon="3.05554">
        <ele>55</ele>
        <time>2017-08-23T06:32:40Z</time>
      </trkpt>
      <trkpt lat="50.51759" lon="3.05551">
        <ele>55</ele>
        <time>2017-08-23T06:34:40Z</time>
      </trkpt>
      <trkpt lat="50.51761" lon="3.05545">
        <ele>55</ele>
        <time>2017-08-23T06:36:40Z</time>
      </trkpt>
      <trkpt lat="50.51764" lon="3.05539">
        <ele>55</ele>
        <time>2017-08-23T06:38:40Z</time>
      </trkpt>
      <trkpt lat="50.51766" lon="3.05534">
        <ele>55</ele>
        <time>2017-08-23T06:40:40Z</time>
      </trkpt>
      <trkpt lat="50.51795" lon="3.05455">
        <ele>55</ele>
        <time>2017-08-23T06:42:40Z</time>
      </trkpt>
      <trkpt lat="50.5181" lon="3.05419">
        <ele>54</ele>
        <time>2017-08-23T06:44:40Z</time>
      </trkpt>
      <trkpt lat="50.5182" lon="3.05402">
        <ele>55</ele>
        <time>2017-08-23T06:46:40Z</time>
      </trkpt>
      <trkpt lat="50.5182" lon="3.05402">
        <ele>55</ele>
        <time>2017-08-23T06:48:40Z</time>
      </trkpt>
      <trkpt lat="50.5184" lon="3.05411">
        <ele>55</ele>
        <time>2017-08-23T06:50:40Z</time>
      </trkpt>
      <trkpt lat="50.519" lon="3.05435">
        <ele>55</ele>
        <time>2017-08-23T06:52:40Z</time>
      </trkpt>
      <trkpt lat="50.51903" lon="3.05436">
        <ele>55</ele>
        <time>2017-08-23T06:54:40Z</time>
      </trkpt>
      <trkpt lat="50.51944" lon="3.05447">
        <ele>56</ele>
        <time>2017-08-23T06:56:40Z</time>
      </trkpt>
      <trkpt lat="50.51955" lon="3.05448">
        <ele>56</ele>
        <time>2017-08-23T06:58:40Z</time>
      </trkpt>
      <trkpt lat="50.51956" lon="3.05448">
        <ele>56</ele>
        <time>2017-08-23T07:00:40Z</time>
      </trkpt>
      <trkpt lat="50.51959" lon="3.05448">
        <ele>56</ele>
        <time>2017-08-23T07:02:40Z</time>
      </trkpt>
      <trkpt lat="50.51966" lon="3.05448">
        <ele>56</ele>
        <time>2017-08-23T07:04:40Z</time>
      </trkpt>
      <trkpt lat="50.51968" lon="3.05448">
        <ele>56</ele>
        <time>2017-08-23T07:06:40Z</time>
      </trkpt>
      <trkpt lat="50.51971" lon="3.05447">
        <ele>56</ele>
        <time>2017-08-23T07:08:40Z</time>
      </trkpt>
      <trkpt lat="50.51992" lon="3.05443">
        <ele>57</ele>
        <time>2017-08-23T07:10:40Z</time>
      </trkpt>
      <trkpt lat="50.52002" lon="3.05442">
        <ele>57</ele>
        <time>2017-08-23T07:12:40Z</time>
      </trkpt>
      <trkpt lat="50.52004" lon="3.05442">
        <ele>57</ele>
        <time>2017-08-23T07:14:40Z</time>
      </trkpt>
      <trkpt lat="50.5201" lon="3.05442">
        <ele>57</ele>
        <time>2017-08-23T07:16:40Z</time>
      </trkpt>
      <trkpt lat="50.52012" lon="3.05442">
        <ele>57</ele>
        <time>2017-08-23T07:18:40Z</time>
      </trkpt>
      <trkpt lat="50.52014" lon="3.05443">
        <ele>57</ele>
        <time>2017-08-23T07:20:40Z</time>
      </trkpt>
      <trkpt lat="50.52033" lon="3.0545">
        <ele>57</ele>
        <time>2017-08-23T07:22:40Z</time>
      </trkpt>
      <trkpt lat="50.52035" lon="3.05451">
        <ele>57</ele>
        <time>2017-08-23T07:24:40Z</time>
      </trkpt>
      <trkpt lat="50.52037" lon="3.05452">
        <ele>57</ele>
        <time>2017-08-23T07:26:40Z</time>
      </trkpt>
      <trkpt lat="50.52059" lon="3.05465">
        <ele>57</ele>
        <time>2017-08-23T07:28:40Z</time>
      </trkpt>
      <trkpt lat="50.52074" lon="3.05475">
        <ele>57</ele>
        <time>2017-08-23T07:30:40Z</time>
      </trkpt>
      <trkpt lat="50.52086" lon="3.05482">
        <ele>58</ele>
        <time>2017-08-23T07:32:40Z</time>
      </trkpt>
      <trkpt lat="50.52095" lon="3.05487">
        <ele>58</ele>
        <time>2017-08-23T07:34:40Z</time>
      </trkpt>
      <trkpt lat="50.5211" lon="3.05492">
        <ele>58</ele>
        <time>2017-08-23T07:36:40Z</time>
      </trkpt>
      <trkpt lat="50.52119" lon="3.05495">
        <ele>58</ele>
        <time>2017-08-23T07:38:40Z</time>
      </trkpt>
      <trkpt lat="50.52124" lon="3.05495">
        <ele>58</ele>
        <time>2017-08-23T07:40:40Z</time>
      </trkpt>
      <trkpt lat="50.5213" lon="3.05493">
        <ele>58</ele>
        <time>2017-08-23T07:42:40Z</time>
      </trkpt>
      <trkpt lat="50.52135" lon="3.05489">
        <ele>58</ele>
        <time>2017-08-23T07:44:40Z</time>
      </trkpt>
      <trkpt lat="50.52144" lon="3.05482">
        <ele>58</ele>
        <time>2017-08-23T07:46:40Z</time>
      </trkpt>
      <trkpt lat="50.5216" lon="3.05471">
        <ele>57</ele>
        <time>2017-08-23T07:48:40Z</time>
      </trkpt>
      <trkpt lat="50.52171" lon="3.05466">
        <ele>57</ele>
        <time>2017-08-23T07:50:40Z</time>
      </trkpt>
      <trkpt lat="50.52171" lon="3.05466">
        <ele>57</ele>
        <time>2017-08-23T07:52:40Z</time>
      </trkpt>
      <trkpt lat="50.52206" lon="3.05444">
        <ele>57</ele>
        <time>2017-08-23T07:54:40Z</time>
      </trkpt>
      <trkpt lat="50.52213" lon="3.05436">
        <ele>57</ele>
        <time>2017-08-23T07:56:40Z</time>
      </trkpt>
      <trkpt lat="50.52215" lon="3.05431">
        <ele>57</ele>
        <time>2017-08-23T07:58:40Z</time>
      </trkpt>
      <trkpt lat="50.52232" lon="3.05391">
        <ele>56</ele>
        <time>2017-08-23T08:00:40Z</time>
      </trkpt>
      <trkpt lat="50.52246" lon="3.05351">
        <ele>56</ele>
        <time>2017-08-23T08:02:40Z</time>
      </trkpt>
      <trkpt lat="50.52256" lon="3.05316">
        <ele>56</ele>
        <time>2017-08-23T08:04:40Z</time>
      </trkpt>
      <trkpt lat="50.52268" lon="3.05274">
        <ele>55</ele>
        <time>2017-08-23T08:06:40Z</time>
      </trkpt>
      <trkpt lat="50.52275" lon="3.05236">
        <ele>54</ele>
        <time>2017-08-23T08:08:40Z</time>
      </trkpt>
      <trkpt lat="50.5228" lon="3.052">
        <ele>54</ele>
        <time>2017-08-23T08:10:40Z</time>
      </trkpt>
      <trkpt lat="50.52281" lon="3.05187">
        <ele>54</ele>
        <time>2017-08-23T08:12:40Z</time>
      </trkpt>
      <trkpt lat="50.52281" lon="3.05174">
        <ele>53</ele>
        <time>2017-08-23T08:14:40Z</time>
      </trkpt>
      <trkpt lat="50.52282" lon="3.05162">
        <ele>53</ele>
        <time>2017-08-23T08:16:40Z</time>
      </trkpt>
      <trkpt lat="50.52281" lon="3.0515">
        <ele>53</ele>
        <time>2017-08-23T08:18:40Z</time>
      </trkpt>
      <trkpt lat="50.52281" lon="3.05137">
        <ele>52</ele>
        <time>2017-08-23T08:20:40Z</time>
      </trkpt>
      <trkpt lat="50.5228" lon="3.05129">
        <ele>52</ele>
        <time>2017-08-23T08:22:40Z</time>
      </trkpt>
      <trkpt lat="50.5228" lon="3.05122">
        <ele>52</ele>
        <time>2017-08-23T08:24:40Z</time>
      </trkpt>
      <trkpt lat="50.52278" lon="3.05112">
        <ele>51</ele>
        <time>2017-08-23T08:26:40Z</time>
      </trkpt>
      <trkpt lat="50.52277" lon="3.05104">
        <ele>51</ele>
        <time>2017-08-23T08:28:40Z</time>
      </trkpt>
      <trkpt lat="50.52262" lon="3.05044">
        <ele>49</ele>
        <time>2017-08-23T08:30:40Z</time>
      </trkpt>
      <trkpt lat="50.52248" lon="3.04981">
        <ele>48</ele>
        <time>2017-08-23T08:32:40Z</time>
      </trkpt>
      <trkpt lat="50.5224" lon="3.04942">
        <ele>47</ele>
        <time>2017-08-23T08:34:40Z</time>
      </trkpt>
      <trkpt lat="50.52227" lon="3.04864">
        <ele>45</ele>
        <time>2017-08-23T08:36:40Z</time>
      </trkpt>
      <trkpt lat="50.52204" lon="3.04725">
        <ele>42</ele>
        <time>2017-08-23T08:38:40Z</time>
      </trkpt>
      <trkpt lat="50.52179" lon="3.0458">
        <ele>40</ele>
        <time>2017-08-23T08:40:40Z</time>
      </trkpt>
      <trkpt lat="50.52162" lon="3.04494">
        <ele>40</ele>
        <time>2017-08-23T08:42:40Z</time>
      </trkpt>
      <trkpt lat="50.5215" lon="3.04435">
        <ele>40</ele>
        <time>2017-08-23T08:44:40Z</time>
      </trkpt>
      <trkpt lat="50.52148" lon="3.04425">
        <ele>40</ele>
        <time>2017-08-23T08:46:40Z</time>
      </trkpt>
      <trkpt lat="50.52148" lon="3.04425">
        <ele>40</ele>
        <time>2017-08-23T08:48:40Z</time>
      </trkpt>
      <trkpt lat="50.52148" lon="3.04424">
        <ele>40</ele>
        <time>2017-08-23T08:50:40Z</time>
      </trkpt>
      <trkpt lat="50.52148" lon="3.04422">
        <ele>40</ele>
        <time>2017-08-23T08:52:40Z</time>
      </trkpt>
      <trkpt lat="50.52148" lon="3.04419">
        <ele>40</ele>
        <time>2017-08-23T08:54:40Z</time>
      </trkpt>
      <trkpt lat="50.52148" lon="3.04414">
        <ele>40</ele>
        <time>2017-08-23T08:56:40Z</time>
      </trkpt>
      <trkpt lat="50.52148" lon="3.04406">
        <ele>40</ele>
        <time>2017-08-23T08:58:40Z</time>
      </trkpt>
      <trkpt lat="50.5215" lon="3.04396">
        <ele>40</ele>
        <time>2017-08-23T09:00:40Z</time>
      </trkpt>
      <trkpt lat="50.52172" lon="3.04338">
        <ele>40</ele>
        <time>2017-08-23T09:02:40Z</time>
      </trkpt>
      <trkpt lat="50.52202" lon="3.04254">
        <ele>39</ele>
        <time>2017-08-23T09:04:40Z</time>
      </trkpt>
      <trkpt lat="50.52247" lon="3.04137">
        <ele>40</ele>
        <time>2017-08-23T09:06:40Z</time>
      </trkpt>
      <trkpt lat="50.52261" lon="3.04107">
        <ele>40</ele>
        <time>2017-08-23T09:08:40Z</time>
      </trkpt>
      <trkpt lat="50.52264" lon="3.04103">
        <ele>40</ele>
        <time>2017-08-23T09:10:40Z</time>
      </trkpt>
      <trkpt lat="50.52264" lon="3.04103">
        <ele>40</ele>
        <time>2017-08-23T09:12:40Z</time>
      </trkpt>
      <trkpt lat="50.52269" lon="3.04101">
        <ele>40</ele>
        <time>2017-08-23T09:14:40Z</time>
      </trkpt>
      <trkpt lat="50.52272" lon="3.04101">
        <ele>40</ele>
        <time>2017-08-23T09:16:40Z</time>
      </trkpt>
      <trkpt lat="50.52275" lon="3.04104">
        <ele>40</ele>
        <time>2017-08-23T09:18:40Z</time>
      </trkpt>
      <trkpt lat="50.52475" lon="3.04273">
        <ele>45</ele>
        <time>2017-08-23T09:20:40Z</time>
      </trkpt>
      <trkpt lat="50.52498" lon="3.04291">
        <ele>45</ele>
        <time>2017-08-23T09:22:40Z</time>
      </trkpt>
      <trkpt lat="50.52503" lon="3.04294">
        <ele>45</ele>
        <time>2017-08-23T09:24:40Z</time>
      </trkpt>
      <trkpt lat="50.52503" lon="3.04294">
        <ele>45</ele>
        <time>2017-08-23T09:26:40Z</time>
      </trkpt>
      <trkpt lat="50.52512" lon="3.04263">
        <ele>46</ele>
        <time>2017-08-23T09:28:40Z</time>
      </trkpt>
      <trkpt lat="50.52514" lon="3.04259">
        <ele>46</ele>
        <time>2017-08-23T09:30:40Z</time>
      </trkpt>
      <trkpt lat="50.52519" lon="3.04239">
        <ele>46</ele>
        <time>2017-08-23T09:32:40Z</time>
      </trkpt>
      <trkpt lat="50.5252" lon="3.04238">
        <ele>46</ele>
        <time>2017-08-23T09:34:40Z</time>
      </trkpt>
      <trkpt lat="50.52521" lon="3.04235">
        <ele>46</ele>
        <time>2017-08-23T09:36:40Z</time>
      </trkpt>
      <trkpt lat="50.52521" lon="3.04234">
        <ele>46</ele>
        <time>2017-08-23T09:38:40Z</time>
      </trkpt>
      <trkpt lat="50.52523" lon="3.04226">
        <ele>46</ele>
        <time>2017-08-23T09:40:40Z</time>
      </trkpt>
      <trkpt lat="50.52526" lon="3.04216">
        <ele>46</ele>
        <time>2017-08-23T09:42:40Z</time>
      </trkpt>
      <trkpt lat="50.52527" lon="3.04215">
        <ele>46</ele>
        <time>2017-08-23T09:44:40Z</time>
      </trkpt>
      <trkpt lat="50.52527" lon="3.04214">
        <ele>46</ele>
        <time>2017-08-23T09:46:40Z</time>
      </trkpt>
      <trkpt lat="50.52527" lon="3.04212">
        <ele>46</ele>
        <time>2017-08-23T09:48:40Z</time>
      </trkpt>
      <trkpt lat="50.52529" lon="3.04207">
        <ele>46</ele>
        <time>2017-08-23T09:50:40Z</time>
      </trkpt>
      <trkpt lat="50.52534" lon="3.04191">
        <ele>46</ele>
        <time>2017-08-23T09:52:40Z</time>
      </trkpt>
      <trkpt lat="50.52535" lon="3.04188">
        <ele>46</ele>
        <time>2017-08-23T09:54:40Z</time>
      </trkpt>
      <trkpt lat="50.52536" lon="3.04182">
        <ele>46</ele>
        <time>2017-08-23T09:56:40Z</time>
      </trkpt>
      <trkpt lat="50.52577" lon="3.04034">
        <ele>44</ele>
        <time>2017-08-23T09:58:40Z</time>
      </trkpt>
      <trkpt lat="50.52586" lon="3.03994">
        <ele>44</ele>
        <time>2017-08-23T10:00:40Z</time>
      </trkpt>
      <trkpt lat="50.5259" lon="3.03968">
        <ele>44</ele>
        <time>2017-08-23T10:02:40Z</time>
      </trkpt>
      <trkpt lat="50.52592" lon="3.03948">
        <ele>44</ele>
        <time>2017-08-23T10:04:40Z</time>
      </trkpt>
      <trkpt lat="50.52592" lon="3.03921">
        <ele>43</ele>
        <time>2017-08-23T10:06:40Z</time>
      </trkpt>
      <trkpt lat="50.52591" lon="3.03884">
        <ele>44</ele>
        <time>2017-08-23T10:08:40Z</time>
      </trkpt>
      <trkpt lat="50.52591" lon="3.03876">
        <ele>43</ele>
        <time>2017-08-23T10:10:40Z</time>
      </trkpt>
      <trkpt lat="50.52588" lon="3.03852">
        <ele>44</ele>
        <time>2017-08-23T10:12:40Z</time>
      </trkpt>
      <trkpt lat="50.52581" lon="3.03818">
        <ele>43</ele>
        <time>2017-08-23T10:14:40Z</time>
      </trkpt>
      <trkpt lat="50.52559" lon="3.03741">
        <ele>41</ele>
        <time>2017-08-23T10:16:40Z</time>
      </trkpt>
      <trkpt lat="50.52533" lon="3.03653">
        <ele>39</ele>
        <time>2017-08-23T10:18:40Z</time>
      </trkpt>
      <trkpt lat="50.52518" lon="3.03604">
        <ele>39</ele>
        <time>2017-08-23T10:20:40Z</time>
      </trkpt>
      <trkpt lat="50.52518" lon="3.03604">
        <ele>39</ele>
        <time>2017-08-23T10:22:40Z</time>
      </trkpt>
      <trkpt lat="50.52528" lon="3.03608">
        <ele>39</ele>
        <time>2017-08-23T10:24:40Z</time>
      </trkpt>
      <trkpt lat="50.52538" lon="3.03609">
        <ele>39</ele>
        <time>2017-08-23T10:26:40Z</time>
      </trkpt>
      <trkpt lat="50.52558" lon="3.0361">
        <ele>39</ele>
        <time>2017-08-23T10:28:40Z</time>
      </trkpt>
      <trkpt lat="50.5257" lon="3.0361">
        <ele>39</ele>
        <time>2017-08-23T10:30:40Z</time>
      </trkpt>
      <trkpt lat="50.52579" lon="3.03607">
        <ele>40</ele>
        <time>2017-08-23T10:32:40Z</time>
      </trkpt>
      <trkpt lat="50.52594" lon="3.03601">
        <ele>40</ele>
        <time>2017-08-23T10:34:40Z</time>
      </trkpt>
      <trkpt lat="50.52617" lon="3.03591">
        <ele>39</ele>
        <time>2017-08-23T10:36:40Z</time>
      </trkpt>
      <trkpt lat="50.52645" lon="3.03579">
        <ele>39</ele>
        <time>2017-08-23T10:38:40Z</time>
      </trkpt>
      <trkpt lat="50.52668" lon="3.03565">
        <ele>38</ele>
        <time>2017-08-23T10:40:40Z</time>
      </trkpt>
      <trkpt lat="50.5272" lon="3.03525">
        <ele>37</ele>
        <time>2017-08-23T10:42:40Z</time>
      </trkpt>
      <trkpt lat="50.5275" lon="3.03498">
        <ele>36</ele>
        <time>2017-08-23T10:44:40Z</time>
      </trkpt>
      <trkpt lat="50.52897" lon="3.03374">
        <ele>36</ele>
        <time>2017-08-23T10:46:40Z</time>
      </trkpt>
      <trkpt lat="50.5291" lon="3.03362">
        <ele>36</ele>
        <time>2017-08-23T10:48:40Z</time>
      </trkpt>
      <trkpt lat="50.5292" lon="3.03353">
        <ele>36</ele>
        <time>2017-08-23T10:50:40Z</time>
      </trkpt>
      <trkpt lat="50.52936" lon="3.03341">
        <ele>35</ele>
        <time>2017-08-23T10:52:40Z</time>
      </trkpt>
      <trkpt lat="50.52993" lon="3.03304">
        <ele>33</ele>
        <time>2017-08-23T10:54:40Z</time>
      </trkpt>
      <trkpt lat="50.53038" lon="3.03274">
        <ele>34</ele>
        <time>2017-08-23T10:56:40Z</time>
      </trkpt>
      <trkpt lat="50.53088" lon="3.03241">
        <ele>35</ele>
        <time>2017-08-23T10:58:40Z</time>
      </trkpt>
      <trkpt lat="50.53116" lon="3.03223">
        <ele>35</ele>
        <time>2017-08-23T11:00:40Z</time>
      </trkpt>
      <trkpt lat="50.5314" lon="3.03205">
        <ele>34</ele>
        <time>2017-08-23T11:02:40Z</time>
      </trkpt>
      <trkpt lat="50.53154" lon="3.03197">
        <ele>34</ele>
        <time>2017-08-23T11:04:40Z</time>
      </trkpt>
      <trkpt lat="50.53158" lon="3.03196">
        <ele>34</ele>
        <time>2017-08-23T11:06:40Z</time>
      </trkpt>
      <trkpt lat="50.53167" lon="3.03193">
        <ele>34</ele>
        <time>2017-08-23T11:08:40Z</time>
      </trkpt>
      <trkpt lat="50.53175" lon="3.03191">
        <ele>34</ele>
        <time>2017-08-23T11:10:40Z</time>
      </trkpt>
      <trkpt lat="50.53193" lon="3.03187">
        <ele>33</ele>
        <time>2017-08-23T11:12:40Z</time>
      </trkpt>
      <trkpt lat="50.53232" lon="3.03176">
        <ele>33</ele>
        <time>2017-08-23T11:14:40Z</time>
      </trkpt>
      <trkpt lat="50.53245" lon="3.03173">
        <ele>33</ele>
        <time>2017-08-23T11:16:40Z</time>
      </trkpt>
      <trkpt lat="50.53259" lon="3.03171">
        <ele>33</ele>
        <time>2017-08-23T11:18:40Z</time>
      </trkpt>
      <trkpt lat="50.53266" lon="3.03171">
        <ele>32</ele>
        <time>2017-08-23T11:20:40Z</time>
      </trkpt>
      <trkpt lat="50.5327" lon="3.03172">
        <ele>32</ele>
        <time>2017-08-23T11:22:40Z</time>
      </trkpt>
      <trkpt lat="50.53273" lon="3.03173">
        <ele>32</ele>
        <time>2017-08-23T11:24:40Z</time>
      </trkpt>
      <trkpt lat="50.53273" lon="3.03173">
        <ele>32</ele>
        <time>2017-08-23T11:26:40Z</time>
      </trkpt>
      <trkpt lat="50.53278" lon="3.03179">
        <ele>32</ele>
        <time>2017-08-23T11:28:40Z</time>
      </trkpt>
      <trkpt lat="50.53286" lon="3.03188">
        <ele>32</ele>
        <time>2017-08-23T11:30:40Z</time>
      </trkpt>
      <trkpt lat="50.53292" lon="3.03197">
        <ele>32</ele>
        <time>2017-08-23T11:32:40Z</time>
      </trkpt>
      <trkpt lat="50.53295" lon="3.03202">
        <ele>32</ele>
        <time>2017-08-23T11:34:40Z</time>
      </trkpt>
      <trkpt lat="50.53299" lon="3.03207">
        <ele>32</ele>
        <time>2017-08-23T11:36:40Z</time>
      </trkpt>
      <trkpt lat="50.53301" lon="3.03209">
        <ele>32</ele>
        <time>2017-08-23T11:38:40Z</time>
      </trkpt>
      <trkpt lat="50.53304" lon="3.03211">
        <ele>32</ele>
        <time>2017-08-23T11:40:40Z</time>
      </trkpt>
      <trkpt lat="50.53306" lon="3.03211">
        <ele>32</ele>
        <time>2017-08-23T11:42:40Z</time>
      </trkpt>
      <trkpt lat="50.53308" lon="3.03212">
        <ele>31</ele>
        <time>2017-08-23T11:44:40Z</time>
      </trkpt>
      <trkpt lat="50.53342" lon="3.03213">
        <ele>31</ele>
        <time>2017-08-23T11:46:40Z</time>
      </trkpt>
      <trkpt lat="50.53403" lon="3.03216">
        <ele>32</ele>
        <time>2017-08-23T11:48:40Z</time>
      </trkpt>
      <trkpt lat="50.5341" lon="3.03213">
        <ele>32</ele>
        <time>2017-08-23T11:50:40Z</time>
      </trkpt>
      <trkpt lat="50.53418" lon="3.03208">
        <ele>32</ele>
        <time>2017-08-23T11:52:40Z</time>
      </trkpt>
      <trkpt lat="50.53427" lon="3.032">
        <ele>32</ele>
        <time>2017-08-23T11:54:40Z</time>
      </trkpt>
      <trkpt lat="50.53449" lon="3.03186">
        <ele>31</ele>
        <time>2017-08-23T11:56:40Z</time>
      </trkpt>
      <trkpt lat="50.53501" lon="3.0316">
        <ele>29</ele>
        <time>2017-08-23T11:58:40Z</time>
      </trkpt>
      <trkpt lat="50.53519" lon="3.0315">
        <ele>29</ele>
        <time>2017-08-23T12:00:40Z</time>
      </trkpt>
      <trkpt lat="50.53542" lon="3.03134">
        <ele>28</ele>
        <time>2017-08-23T12:02:40Z</time>
      </trkpt>
      <trkpt lat="50.53596" lon="3.03093">
        <ele>29</ele>
        <time>2017-08-23T12:04:40Z</time>
      </trkpt>
      <trkpt lat="50.53649" lon="3.03053">
        <ele>30</ele>
        <time>2017-08-23T12:06:40Z</time>
      </trkpt>
      <trkpt lat="50.53659" lon="3.03042">
        <ele>30</ele>
        <time>2017-08-23T12:08:40Z</time>
      </trkpt>
      <trkpt lat="50.53661" lon="3.03039">
        <ele>30</ele>
        <time>2017-08-23T12:10:40Z</time>
      </trkpt>
      <trkpt lat="50.53672" lon="3.03024">
        <ele>30</ele>
        <time>2017-08-23T12:12:40Z</time>
      </trkpt>
      <trkpt lat="50.5368" lon="3.03015">
        <ele>30</ele>
        <time>2017-08-23T12:14:40Z</time>
      </trkpt>
      <trkpt lat="50.53687" lon="3.03006">
        <ele>30</ele>
        <time>2017-08-23T12:16:40Z</time>
      </trkpt>
      <trkpt lat="50.53696" lon="3.02998">
        <ele>30</ele>
        <time>2017-08-23T12:18:40Z</time>
      </trkpt>
      <trkpt lat="50.53698" lon="3.02997">
        <ele>30</ele>
        <time>2017-08-23T12:20:40Z</time>
      </trkpt>
      <trkpt lat="50.53704" lon="3.02993">
        <ele>30</ele>
        <time>2017-08-23T12:22:40Z</time>
      </trkpt>
      <trkpt lat="50.53713" lon="3.02988">
        <ele>30</ele>
        <time>2017-08-23T12:24:40Z</time>
      </trkpt>
      <trkpt lat="50.53717" lon="3.02987">
        <ele>30</ele>
        <time>2017-08-23T12:26:40Z</time>
      </trkpt>
      <trkpt lat="50.53717" lon="3.02986">
        <ele>30</ele>
        <time>2017-08-23T12:28:40Z</time>
      </trkpt>
      <trkpt lat="50.54009" lon="3.04283">
        <ele>33</ele>
        <time>2017-08-23T12:30:40Z</time>
      </trkpt>
      <trkpt lat="50.5412" lon="3.0424">
        <ele>31</ele>
        <time>2017-08-23T12:32:40Z</time>
      </trkpt>
      <trkpt lat="50.5412" lon="3.04239">
        <ele>31</ele>
        <time>2017-08-23T12:34:40Z</time>
      </trkpt>
      <trkpt lat="50.54136" lon="3.04246">
        <ele>31</ele>
        <time>2017-08-23T12:36:40Z</time>
      </trkpt>
      <trkpt lat="50.5419" lon="3.0427">
        <ele>30</ele>
        <time>2017-08-23T12:38:40Z</time>
      </trkpt>
      <trkpt lat="50.54217" lon="3.04286">
        <ele>30</ele>
        <time>2017-08-23T12:40:40Z</time>
      </trkpt>
      <trkpt lat="50.54227" lon="3.04291">
        <ele>29</ele>
        <time>2017-08-23T12:42:40Z</time>
      </trkpt>
      <trkpt lat="50.54231" lon="3.04294">
        <ele>29</ele>
        <time>2017-08-23T12:44:40Z</time>
      </trkpt>
      <trkpt lat="50.54234" lon="3.04296">
        <ele>29</ele>
        <time>2017-08-23T12:46:40Z</time>
      </trkpt>
      <trkpt lat="50.54236" lon="3.04299">
        <ele>29</ele>
        <time>2017-08-23T12:48:40Z</time>
      </trkpt>
      <trkpt lat="50.54244" lon="3.04311">
        <ele>29</ele>
        <time>2017-08-23T12:50:40Z</time>
      </trkpt>
      <trkpt lat="50.54244" lon="3.04311">
        <ele>29</ele>
        <time>2017-08-23T12:52:40Z</time>
      </trkpt>
      <trkpt lat="50.54245" lon="3.04315">
        <ele>29</ele>
        <time>2017-08-23T12:54:40Z</time>
      </trkpt>
      <trkpt lat="50.54247" lon="3.04319">
        <ele>29</ele>
        <time>2017-08-23T12:56:40Z</time>
      </trkpt>
      <trkpt lat="50.54248" lon="3.04322">
        <ele>29</ele>
        <time>2017-08-23T12:58:40Z</time>
      </trkpt>
      <trkpt lat="50.5425" lon="3.04325">
        <ele>29</ele>
        <time>2017-08-23T13:00:40Z</time>
      </trkpt>
      <trkpt lat="50.54252" lon="3.04328">
        <ele>29</ele>
        <time>2017-08-23T13:02:40Z</time>
      </trkpt>
      <trkpt lat="50.54254" lon="3.04331">
        <ele>29</ele>
        <time>2017-08-23T13:04:40Z</time>
      </trkpt>
      <trkpt lat="50.54256" lon="3.04333">
        <ele>29</ele>
        <time>2017-08-23T13:06:40Z</time>
      </trkpt>
      <trkpt lat="50.54259" lon="3.04335">
        <ele>29</ele>
        <time>2017-08-23T13:08:40Z</time>
      </trkpt>
      <trkpt lat="50.54262" lon="3.04336">
        <ele>29</ele>
        <time>2017-08-23T13:10:40Z</time>
      </trkpt>
      <trkpt lat="50.54264" lon="3.04337">
        <ele>30</ele>
        <time>2017-08-23T13:12:40Z</time>
      </trkpt>
      <trkpt lat="50.54267" lon="3.04337">
        <ele>30</ele>
        <time>2017-08-23T13:14:40Z</time>
      </trkpt>
      <trkpt lat="50.5427" lon="3.04337">
        <ele>30</ele>
        <time>2017-08-23T13:16:40Z</time>
      </trkpt>
      <trkpt lat="50.54272" lon="3.04337">
        <ele>30</ele>
        <time>2017-08-23T13:18:40Z</time>
      </trkpt>
      <trkpt lat="50.54275" lon="3.04336">
        <ele>30</ele>
        <time>2017-08-23T13:20:40Z</time>
      </trkpt>
      <trkpt lat="50.54277" lon="3.04334">
        <ele>30</ele>
        <time>2017-08-23T13:22:40Z</time>
      </trkpt>
      <trkpt lat="50.54282" lon="3.04331">
        <ele>30</ele>
        <time>2017-08-23T13:24:40Z</time>
      </trkpt>
      <trkpt lat="50.54282" lon="3.0433">
        <ele>30</ele>
        <time>2017-08-23T13:26:40Z</time>
      </trkpt>
      <trkpt lat="50.54283" lon="3.04328">
        <ele>30</ele>
        <time>2017-08-23T13:28:40Z</time>
      </trkpt>
      <trkpt lat="50.54284" lon="3.04327">
        <ele>30</ele>
        <time>2017-08-23T13:30:40Z</time>
      </trkpt>
      <trkpt lat="50.54284" lon="3.04326">
        <ele>30</ele>
        <time>2017-08-23T13:32:40Z</time>
      </trkpt>
      <trkpt lat="50.54285" lon="3.04325">
        <ele>30</ele>
        <time>2017-08-23T13:34:40Z</time>
      </trkpt>
      <trkpt lat="50.54286" lon="3.04324">
        <ele>30</ele>
        <time>2017-08-23T13:36:40Z</time>
      </trkpt>
      <trkpt lat="50.54286" lon="3.04322">
        <ele>30</ele>
        <time>2017-08-23T13:38:40Z</time>
      </trkpt>
      <trkpt lat="50.54287" lon="3.04321">
        <ele>30</ele>
        <time>2017-08-23T13:40:40Z</time>
      </trkpt>
      <trkpt lat="50.54292" lon="3.04322">
        <ele>30</ele>
        <time>2017-08-23T13:42:40Z</time>
      </trkpt>
      <trkpt lat="50.54295" lon="3.04323">
        <ele>31</ele>
        <time>2017-08-23T13:44:40Z</time>
      </trkpt>
      <trkpt lat="50.54298" lon="3.04324">
        <ele>31</ele>
        <time>2017-08-23T13:46:40Z</time>
      </trkpt>
      <trkpt lat="50.54305" lon="3.04327">
        <ele>31</ele>
        <time>2017-08-23T13:48:40Z</time>
      </trkpt>
      <trkpt lat="50.54329" lon="3.04335">
        <ele>32</ele>
        <time>2017-08-23T13:50:40Z</time>
      </trkpt>
      <trkpt lat="50.54344" lon="3.04343">
        <ele>32</ele>
        <time>2017-08-23T13:52:40Z</time>
      </trkpt>
      <trkpt lat="50.54369" lon="3.04368">
        <ele>32</ele>
        <time>2017-08-23T13:54:40Z</time>
      </trkpt>
      <trkpt lat="50.54456" lon="3.0446">
        <ele>30</ele>
        <time>2017-08-23T13:56:40Z</time>
      </trkpt>
      <trkpt lat="50.54461" lon="3.04467">
        <ele>30</ele>
        <time>2017-08-23T13:58:40Z</time>
      </trkpt>
      <trkpt lat="50.5447" lon="3.04472">
        <ele>30</ele>
        <time>2017-08-23T14:00:40Z</time>
      </trkpt>
      <trkpt lat="50.5448" lon="3.04478">
        <ele>30</ele>
        <time>2017-08-23T14:02:40Z</time>
      </trkpt>
      <trkpt lat="50.54529" lon="3.04504">
        <ele>30</ele>
        <time>2017-08-23T14:04:40Z</time>
      </trkpt>
      <trkpt lat="50.5453" lon="3.04505">
        <ele>30</ele>
        <time>2017-08-23T14:06:40Z</time>
      </trkpt>
      <trkpt lat="50.54536" lon="3.04509">
        <ele>30</ele>
        <time>2017-08-23T14:08:40Z</time>
      </trkpt>
      <trkpt lat="50.54542" lon="3.04513">
        <ele>30</ele>
        <time>2017-08-23T14:10:40Z</time>
      </trkpt>
      <trkpt lat="50.5456" lon="3.04521">
        <ele>31</ele>
        <time>2017-08-23T14:12:40Z</time>
      </trkpt>
      <trkpt lat="50.5456" lon="3.04521">
        <ele>31</ele>
        <time>2017-08-23T14:14:40Z</time>
      </trkpt>
      <trkpt lat="50.54561" lon="3.04522">
        <ele>31</ele>
        <time>2017-08-23T14:16:40Z</time>
      </trkpt>
      <trkpt lat="50.54562" lon="3.04524">
        <ele>31</ele>
        <time>2017-08-23T14:18:40Z</time>
      </trkpt>
      <trkpt lat="50.54563" lon="3.04525">
        <ele>31</ele>
        <time>2017-08-23T14:20:40Z</time>
      </trkpt>
      <trkpt lat="50.54564" lon="3.04527">
        <ele>31</ele>
        <time>2017-08-23T14:22:40Z</time>
      </trkpt>
      <trkpt lat="50.54565" lon="3.04528">
        <ele>31</ele>
        <time>2017-08-23T14:24:40Z</time>
      </trkpt>
      <trkpt lat="50.54566" lon="3.04529">
        <ele>31</ele>
        <time>2017-08-23T14:26:40Z</time>
      </trkpt>
      <trkpt lat="50.54568" lon="3.0453">
        <ele>31</ele>
        <time>2017-08-23T14:28:40Z</time>
      </trkpt>
      <trkpt lat="50.54569" lon="3.0453">
        <ele>31</ele>
        <time>2017-08-23T14:30:40Z</time>
      </trkpt>
      <trkpt lat="50.5457" lon="3.04531">
        <ele>31</ele>
        <time>2017-08-23T14:32:40Z</time>
      </trkpt>
      <trkpt lat="50.54572" lon="3.04531">
        <ele>31</ele>
        <time>2017-08-23T14:34:40Z</time>
      </trkpt>
      <trkpt lat="50.54573" lon="3.04532">
        <ele>31</ele>
        <time>2017-08-23T14:36:40Z</time>
      </trkpt>
      <trkpt lat="50.54574" lon="3.04532">
        <ele>31</ele>
        <time>2017-08-23T14:38:40Z</time>
      </trkpt>
      <trkpt lat="50.54576" lon="3.04532">
        <ele>31</ele>
        <time>2017-08-23T14:40:40Z</time>
      </trkpt>
      <trkpt lat="50.54577" lon="3.04532">
        <ele>31</ele>
        <time>2017-08-23T14:42:40Z</time>
      </trkpt>
      <trkpt lat="50.54579" lon="3.04531">
        <ele>31</ele>
        <time>2017-08-23T14:44:40Z</time>
      </trkpt>
      <trkpt lat="50.5458" lon="3.04531">
        <ele>31</ele>
        <time>2017-08-23T14:46:40Z</time>
      </trkpt>
      <trkpt lat="50.54581" lon="3.0453">
        <ele>31</ele>
        <time>2017-08-23T14:48:40Z</time>
      </trkpt>
      <trkpt lat="50.54583" lon="3.0453">
        <ele>31</ele>
        <time>2017-08-23T14:50:40Z</time>
      </trkpt>
      <trkpt lat="50.54584" lon="3.04529">
        <ele>31</ele>
        <time>2017-08-23T14:52:40Z</time>
      </trkpt>
      <trkpt lat="50.54585" lon="3.04528">
        <ele>31</ele>
        <time>2017-08-23T14:54:40Z</time>
      </trkpt>
      <trkpt lat="50.54586" lon="3.04527">
        <ele>31</ele>
        <time>2017-08-23T14:56:40Z</time>
      </trkpt>
      <trkpt lat="50.54588" lon="3.04524">
        <ele>31</ele>
        <time>2017-08-23T14:58:40Z</time>
      </trkpt>
      <trkpt lat="50.5459" lon="3.04524">
        <ele>31</ele>
        <time>2017-08-23T15:00:40Z</time>
      </trkpt>
      <trkpt lat="50.54592" lon="3.04523">
        <ele>31</ele>
        <time>2017-08-23T15:02:40Z</time>
      </trkpt>
      <trkpt lat="50.54595" lon="3.04522">
        <ele>31</ele>
        <time>2017-08-23T15:04:40Z</time>
      </trkpt>
      <trkpt lat="50.54599" lon="3.04522">
        <ele>31</ele>
        <time>2017-08-23T15:06:40Z</time>
      </trkpt>
      <trkpt lat="50.54602" lon="3.04523">
        <ele>31</ele>
        <time>2017-08-23T15:08:40Z</time>
      </trkpt>
      <trkpt lat="50.54608" lon="3.04526">
        <ele>31</ele>
        <time>2017-08-23T15:10:40Z</time>
      </trkpt>
      <trkpt lat="50.54626" lon="3.04535">
        <ele>31</ele>
        <time>2017-08-23T15:12:40Z</time>
      </trkpt>
      <trkpt lat="50.54631" lon="3.04539">
        <ele>31</ele>
        <time>2017-08-23T15:14:40Z</time>
      </trkpt>
      <trkpt lat="50.54635" lon="3.04542">
        <ele>31</ele>
        <time>2017-08-23T15:16:40Z</time>
      </trkpt>
      <trkpt lat="50.54639" lon="3.04545">
        <ele>31</ele>
        <time>2017-08-23T15:18:40Z</time>
      </trkpt>
      <trkpt lat="50.54643" lon="3.04548">
        <ele>31</ele>
        <time>2017-08-23T15:20:40Z</time>
      </trkpt>
      <trkpt lat="50.54647" lon="3.04551">
        <ele>31</ele>
        <time>2017-08-23T15:22:40Z</time>
      </trkpt>
      <trkpt lat="50.54648" lon="3.04552">
        <ele>31</ele>
        <time>2017-08-23T15:24:40Z</time>
      </trkpt>
      <trkpt lat="50.54657" lon="3.04557">
        <ele>31</ele>
        <time>2017-08-23T15:26:40Z</time>
      </trkpt>
      <trkpt lat="50.54659" lon="3.04558">
        <ele>31</ele>
        <time>2017-08-23T15:28:40Z</time>
      </trkpt>
      <trkpt lat="50.54667" lon="3.04562">
        <ele>31</ele>
        <time>2017-08-23T15:30:40Z</time>
      </trkpt>
      <trkpt lat="50.54671" lon="3.04564">
        <ele>31</ele>
        <time>2017-08-23T15:32:40Z</time>
      </trkpt>
      <trkpt lat="50.54675" lon="3.04565">
        <ele>31</ele>
        <time>2017-08-23T15:34:40Z</time>
      </trkpt>
      <trkpt lat="50.54679" lon="3.04566">
        <ele>31</ele>
        <time>2017-08-23T15:36:40Z</time>
      </trkpt>
      <trkpt lat="50.54683" lon="3.04568">
        <ele>31</ele>
        <time>2017-08-23T15:38:40Z</time>
      </trkpt>
      <trkpt lat="50.54704" lon="3.04577">
        <ele>31</ele>
        <time>2017-08-23T15:40:40Z</time>
      </trkpt>
      <trkpt lat="50.54721" lon="3.04592">
        <ele>30</ele>
        <time>2017-08-23T15:42:40Z</time>
      </trkpt>
      <trkpt lat="50.54748" lon="3.04625">
        <ele>30</ele>
        <time>2017-08-23T15:44:40Z</time>
      </trkpt>
      <trkpt lat="50.54773" lon="3.04672">
        <ele>30</ele>
        <time>2017-08-23T15:46:40Z</time>
      </trkpt>
      <trkpt lat="50.54785" lon="3.04714">
        <ele>30</ele>
        <time>2017-08-23T15:48:40Z</time>
      </trkpt>
      <trkpt lat="50.5479" lon="3.04738">
        <ele>30</ele>
        <time>2017-08-23T15:50:40Z</time>
      </trkpt>
      <trkpt lat="50.54793" lon="3.04782">
        <ele>31</ele>
        <time>2017-08-23T15:52:40Z</time>
      </trkpt>
      <trkpt lat="50.54794" lon="3.04813">
        <ele>31</ele>
        <time>2017-08-23T15:54:40Z</time>
      </trkpt>
      <trkpt lat="50.54794" lon="3.04813">
        <ele>31</ele>
        <time>2017-08-23T15:56:40Z</time>
      </trkpt>
      <trkpt lat="50.54791" lon="3.04817">
        <ele>31</ele>
        <time>2017-08-23T15:58:40Z</time>
      </trkpt>
      <trkpt lat="50.54788" lon="3.04822">
        <ele>31</ele>
        <time>2017-08-23T16:00:40Z</time>
      </trkpt>
      <trkpt lat="50.54786" lon="3.04827">
        <ele>31</ele>
        <time>2017-08-23T16:02:40Z</time>
      </trkpt>
      <trkpt lat="50.54784" lon="3.04832">
        <ele>31</ele>
        <time>2017-08-23T16:04:40Z</time>
      </trkpt>
      <trkpt lat="50.54782" lon="3.04838">
        <ele>31</ele>
        <time>2017-08-23T16:06:40Z</time>
      </trkpt>
      <trkpt lat="50.54782" lon="3.04844">
        <ele>31</ele>
        <time>2017-08-23T16:08:40Z</time>
      </trkpt>
      <trkpt lat="50.54781" lon="3.0485">
        <ele>31</ele>
        <time>2017-08-23T16:10:40Z</time>
      </trkpt>
      <trkpt lat="50.54781" lon="3.04856">
        <ele>31</ele>
        <time>2017-08-23T16:12:40Z</time>
      </trkpt>
      <trkpt lat="50.54782" lon="3.04862">
        <ele>31</ele>
        <time>2017-08-23T16:14:40Z</time>
      </trkpt>
      <trkpt lat="50.54782" lon="3.04866">
        <ele>31</ele>
        <time>2017-08-23T16:16:40Z</time>
      </trkpt>
      <trkpt lat="50.54783" lon="3.04869">
        <ele>31</ele>
        <time>2017-08-23T16:18:40Z</time>
      </trkpt>
      <trkpt lat="50.54783" lon="3.04872">
        <ele>31</ele>
        <time>2017-08-23T16:20:40Z</time>
      </trkpt>
      <trkpt lat="50.54784" lon="3.04875">
        <ele>31</ele>
        <time>2017-08-23T16:22:40Z</time>
      </trkpt>
      <trkpt lat="50.54785" lon="3.04878">
        <ele>31</ele>
        <time>2017-08-23T16:24:40Z</time>
      </trkpt>
      <trkpt lat="50.54786" lon="3.04881">
        <ele>31</ele>
        <time>2017-08-23T16:26:40Z</time>
      </trkpt>
      <trkpt lat="50.54787" lon="3.04884">
        <ele>31</ele>
        <time>2017-08-23T16:28:40Z</time>
      </trkpt>
      <trkpt lat="50.54788" lon="3.04886">
        <ele>31</ele>
        <time>2017-08-23T16:30:40Z</time>
      </trkpt>
      <trkpt lat="50.54792" lon="3.04892">
        <ele>31</ele>
        <time>2017-08-23T16:32:40Z</time>
      </trkpt>
      <trkpt lat="50.54794" lon="3.04895">
        <ele>31</ele>
        <time>2017-08-23T16:34:40Z</time>
      </trkpt>
      <trkpt lat="50.54797" lon="3.04897">
        <ele>31</ele>
        <time>2017-08-23T16:36:40Z</time>
      </trkpt>
      <trkpt lat="50.54799" lon="3.04899">
        <ele>30</ele>
        <time>2017-08-23T16:38:40Z</time>
      </trkpt>
      <trkpt lat="50.54802" lon="3.04901">
        <ele>30</ele>
        <time>2017-08-23T16:40:40Z</time>
      </trkpt>
      <trkpt lat="50.54805" lon="3.04902">
        <ele>30</ele>
        <time>2017-08-23T16:42:40Z</time>
      </trkpt>
      <trkpt lat="50.54808" lon="3.04902">
        <ele>30</ele>
        <time>2017-08-23T16:44:40Z</time>
      </trkpt>
      <trkpt lat="50.54811" lon="3.04902">
        <ele>30</ele>
        <time>2017-08-23T16:46:40Z</time>
      </trkpt>
      <trkpt lat="50.54827" lon="3.04925">
        <ele>30</ele>
        <time>2017-08-23T16:48:40Z</time>
      </trkpt>
      <trkpt lat="50.5483" lon="3.0493">
        <ele>30</ele>
        <time>2017-08-23T16:50:40Z</time>
      </trkpt>
      <trkpt lat="50.54853" lon="3.04975">
        <ele>31</ele>
        <time>2017-08-23T16:52:40Z</time>
      </trkpt>
      <trkpt lat="50.54867" lon="3.05006">
        <ele>31</ele>
        <time>2017-08-23T16:54:40Z</time>
      </trkpt>
      <trkpt lat="50.54918" lon="3.05113">
        <ele>32</ele>
        <time>2017-08-23T16:56:40Z</time>
      </trkpt>
      <trkpt lat="50.54917" lon="3.05115">
        <ele>32</ele>
        <time>2017-08-23T16:58:40Z</time>
      </trkpt>
      <trkpt lat="50.54917" lon="3.05117">
        <ele>32</ele>
        <time>2017-08-23T17:00:40Z</time>
      </trkpt>
      <trkpt lat="50.54916" lon="3.05119">
        <ele>32</ele>
        <time>2017-08-23T17:02:40Z</time>
      </trkpt>
      <trkpt lat="50.54916" lon="3.05122">
        <ele>32</ele>
        <time>2017-08-23T17:04:40Z</time>
      </trkpt>
      <trkpt lat="50.54915" lon="3.05124">
        <ele>32</ele>
        <time>2017-08-23T17:06:40Z</time>
      </trkpt>
      <trkpt lat="50.54915" lon="3.05127">
        <ele>32</ele>
        <time>2017-08-23T17:08:40Z</time>
      </trkpt>
      <trkpt lat="50.54915" lon="3.05132">
        <ele>32</ele>
        <time>2017-08-23T17:10:40Z</time>
      </trkpt>
      <trkpt lat="50.54915" lon="3.05134">
        <ele>32</ele>
        <time>2017-08-23T17:12:40Z</time>
      </trkpt>
      <trkpt lat="50.54915" lon="3.05138">
        <ele>32</ele>
        <time>2017-08-23T17:14:40Z</time>
      </trkpt>
      <trkpt lat="50.54916" lon="3.05141">
        <ele>32</ele>
        <time>2017-08-23T17:16:40Z</time>
      </trkpt>
      <trkpt lat="50.54917" lon="3.05144">
        <ele>32</ele>
        <time>2017-08-23T17:18:40Z</time>
      </trkpt>
      <trkpt lat="50.54918" lon="3.05147">
        <ele>32</ele>
        <time>2017-08-23T17:20:40Z</time>
      </trkpt>
      <trkpt lat="50.5492" lon="3.0515">
        <ele>32</ele>
        <time>2017-08-23T17:22:40Z</time>
      </trkpt>
      <trkpt lat="50.54922" lon="3.05153">
        <ele>32</ele>
        <time>2017-08-23T17:24:40Z</time>
      </trkpt>
      <trkpt lat="50.54926" lon="3.05157">
        <ele>32</ele>
        <time>2017-08-23T17:26:40Z</time>
      </trkpt>
      <trkpt lat="50.54928" lon="3.05158">
        <ele>32</ele>
        <time>2017-08-23T17:28:40Z</time>
      </trkpt>
      <trkpt lat="50.54931" lon="3.05159">
        <ele>32</ele>
        <time>2017-08-23T17:30:40Z</time>
      </trkpt>
      <trkpt lat="50.54933" lon="3.0516">
        <ele>32</ele>
        <time>2017-08-23T17:32:40Z</time>
      </trkpt>
      <trkpt lat="50.54935" lon="3.0516">
        <ele>32</ele>
        <time>2017-08-23T17:34:40Z</time>
      </trkpt>
      <trkpt lat="50.54936" lon="3.0516">
        <ele>32</ele>
        <time>2017-08-23T17:36:40Z</time>
      </trkpt>
      <trkpt lat="50.54938" lon="3.0516">
        <ele>33</ele>
        <time>2017-08-23T17:38:40Z</time>
      </trkpt>
      <trkpt lat="50.5494" lon="3.05159">
        <ele>33</ele>
        <time>2017-08-23T17:40:40Z</time>
      </trkpt>
      <trkpt lat="50.54942" lon="3.05157">
        <ele>33</ele>
        <time>2017-08-23T17:42:40Z</time>
      </trkpt>
      <trkpt lat="50.54955" lon="3.05182">
        <ele>33</ele>
        <time>2017-08-23T17:44:40Z</time>
      </trkpt>
      <trkpt lat="50.54979" lon="3.05229">
        <ele>34</ele>
        <time>2017-08-23T17:46:40Z</time>
      </trkpt>
      <trkpt lat="50.55041" lon="3.05353">
        <ele>36</ele>
        <time>2017-08-23T17:48:40Z</time>
      </trkpt>
      <trkpt lat="50.55131" lon="3.05536">
        <ele>37</ele>
        <time>2017-08-23T17:50:40Z</time>
      </trkpt>
      <trkpt lat="50.55128" lon="3.05544">
        <ele>37</ele>
        <time>2017-08-23T17:52:40Z</time>
      </trkpt>
      <trkpt lat="50.55127" lon="3.05551">
        <ele>37</ele>
        <time>2017-08-23T17:54:40Z</time>
      </trkpt>
      <trkpt lat="50.55127" lon="3.05557">
        <ele>37</ele>
        <time>2017-08-23T17:56:40Z</time>
      </trkpt>
      <trkpt lat="50.55128" lon="3.05569">
        <ele>37</ele>
        <time>2017-08-23T17:58:40Z</time>
      </trkpt>
      <trkpt lat="50.55135" lon="3.05581">
        <ele>37</ele>
        <time>2017-08-23T18:00:40Z</time>
      </trkpt>
      <trkpt lat="50.5514" lon="3.05586">
        <ele>37</ele>
        <time>2017-08-23T18:02:40Z</time>
      </trkpt>
      <trkpt lat="50.55144" lon="3.05587">
        <ele>37</ele>
        <time>2017-08-23T18:04:40Z</time>
      </trkpt>
      <trkpt lat="50.55146" lon="3.05588">
        <ele>37</ele>
        <time>2017-08-23T18:06:40Z</time>
      </trkpt>
      <trkpt lat="50.55149" lon="3.05586">
        <ele>37</ele>
        <time>2017-08-23T18:08:40Z</time>
      </trkpt>
      <trkpt lat="50.55154" lon="3.05583">
        <ele>37</ele>
        <time>2017-08-23T18:10:40Z</time>
      </trkpt>
      <trkpt lat="50.5519" lon="3.05661">
        <ele>39</ele>
        <time>2017-08-23T18:12:40Z</time>
      </trkpt>
      <trkpt lat="50.55206" lon="3.05692">
        <ele>39</ele>
        <time>2017-08-23T18:14:40Z</time>
      </trkpt>
      <trkpt lat="50.55209" lon="3.05697">
        <ele>39</ele>
        <time>2017-08-23T18:16:40Z</time>
      </trkpt>
      <trkpt lat="50.55209" lon="3.05698">
        <ele>39</ele>
        <time>2017-08-23T18:18:40Z</time>
      </trkpt>
      <trkpt lat="50.55209" lon="3.05698">
        <ele>39</ele>
        <time>2017-08-23T18:20:40Z</time>
      </trkpt>
      <trkpt lat="50.55219" lon="3.05678">
        <ele>39</ele>
        <time>2017-08-23T18:22:40Z</time>
      </trkpt>
      <trkpt lat="50.55264" lon="3.0564">
        <ele>40</ele>
        <time>2017-08-23T18:24:40Z</time>
      </trkpt>
      <trkpt lat="50.55832" lon="3.05767">
        <ele>43</ele>
        <time>2017-08-23T18:26:40Z</time>
      </trkpt>
      <trkpt lat="50.55991" lon="3.05812">
        <ele>43</ele>
        <time>2017-08-23T18:28:40Z</time>
      </trkpt>
      <trkpt lat="50.55992" lon="3.05807">
        <ele>43</ele>
        <time>2017-08-23T18:30:40Z</time>
      </trkpt>
      <trkpt lat="50.56056" lon="3.05827">
        <ele>41</ele>
        <time>2017-08-23T18:32:40Z</time>
      </trkpt>
      <trkpt lat="50.56086" lon="3.05841">
        <ele>40</ele>
        <time>2017-08-23T18:34:40Z</time>
      </trkpt>
      <trkpt lat="50.56103" lon="3.05846">
        <ele>40</ele>
        <time>2017-08-23T18:36:40Z</time>
      </trkpt>
      <trkpt lat="50.56112" lon="3.05846">
        <ele>39</ele>
        <time>2017-08-23T18:38:40Z</time>
      </trkpt>
      <trkpt lat="50.56185" lon="3.05843">
        <ele>38</ele>
        <time>2017-08-23T18:40:40Z</time>
      </trkpt>
      <trkpt lat="50.56242" lon="3.05844">
        <ele>39</ele>
        <time>2017-08-23T18:42:40Z</time>
      </trkpt>
      <trkpt lat="50.56289" lon="3.05844">
        <ele>39</ele>
        <time>2017-08-23T18:44:40Z</time>
      </trkpt>
      <trkpt lat="50.56332" lon="3.05841">
        <ele>38</ele>
        <time>2017-08-23T18:46:40Z</time>
      </trkpt>
      <trkpt lat="50.56361" lon="3.05842">
        <ele>37</ele>
        <time>2017-08-23T18:48:40Z</time>
      </trkpt>
      <trkpt lat="50.56383" lon="3.05853">
        <ele>37</ele>
        <time>2017-08-23T18:50:40Z</time>
      </trkpt>
      <trkpt lat="50.56402" lon="3.05865">
        <ele>36</ele>
        <time>2017-08-23T18:52:40Z</time>
      </trkpt>
      <trkpt lat="50.56426" lon="3.0588">
        <ele>36</ele>
        <time>2017-08-23T18:54:40Z</time>
      </trkpt>
      <trkpt lat="50.56448" lon="3.05894">
        <ele>36</ele>
        <time>2017-08-23T18:56:40Z</time>
      </trkpt>
      <trkpt lat="50.56471" lon="3.05907">
        <ele>36</ele>
        <time>2017-08-23T18:58:40Z</time>
      </trkpt>
      <trkpt lat="50.56476" lon="3.05909">
        <ele>36</ele>
        <time>2017-08-23T19:00:40Z</time>
      </trkpt>
      <trkpt lat="50.56482" lon="3.05909">
        <ele>36</ele>
        <time>2017-08-23T19:02:40Z</time>
      </trkpt>
      <trkpt lat="50.56482" lon="3.05909">
        <ele>36</ele>
        <time>2017-08-23T19:04:40Z</time>
      </trkpt>
      <trkpt lat="50.56448" lon="3.05944">
        <ele>36</ele>
        <time>2017-08-23T19:06:40Z</time>
      </trkpt>
      <trkpt lat="50.56425" lon="3.05969">
        <ele>37</ele>
        <time>2017-08-23T19:08:40Z</time>
      </trkpt>
      <trkpt lat="50.56405" lon="3.05998">
        <ele>37</ele>
        <time>2017-08-23T19:10:40Z</time>
      </trkpt>
      <trkpt lat="50.56382" lon="3.06038">
        <ele>39</ele>
        <time>2017-08-23T19:12:40Z</time>
      </trkpt>
      <trkpt lat="50.56354" lon="3.06093">
        <ele>39</ele>
        <time>2017-08-23T19:14:40Z</time>
      </trkpt>
      <trkpt lat="50.56328" lon="3.06146">
        <ele>39</ele>
        <time>2017-08-23T19:16:40Z</time>
      </trkpt>
      <trkpt lat="50.56282" lon="3.06261">
        <ele>39</ele>
        <time>2017-08-23T19:18:40Z</time>
      </trkpt>
      <trkpt lat="50.56273" lon="3.06272">
        <ele>39</ele>
        <time>2017-08-23T19:20:40Z</time>
      </trkpt>
      <trkpt lat="50.56196" lon="3.06367">
        <ele>40</ele>
        <time>2017-08-23T19:22:40Z</time>
      </trkpt>
      <trkpt lat="50.56175" lon="3.06385">
        <ele>41</ele>
        <time>2017-08-23T19:24:40Z</time>
      </trkpt>
      <trkpt lat="50.56146" lon="3.06401">
        <ele>41</ele>
        <time>2017-08-23T19:26:40Z</time>
      </trkpt>
      <trkpt lat="50.56118" lon="3.06412">
        <ele>41</ele>
        <time>2017-08-23T19:28:40Z</time>
      </trkpt>
      <trkpt lat="50.56092" lon="3.06416">
        <ele>41</ele>
        <time>2017-08-23T19:30:40Z</time>
      </trkpt>
      <trkpt lat="50.56038" lon="3.06413">
        <ele>42</ele>
        <time>2017-08-23T19:32:40Z</time>
      </trkpt>
      <trkpt lat="50.56009" lon="3.06417">
        <ele>42</ele>
        <time>2017-08-23T19:34:40Z</time>
      </trkpt>
      <trkpt lat="50.55985" lon="3.06422">
        <ele>42</ele>
        <time>2017-08-23T19:36:40Z</time>
      </trkpt>
      <trkpt lat="50.5596" lon="3.0643">
        <ele>43</ele>
        <time>2017-08-23T19:38:40Z</time>
      </trkpt>
      <trkpt lat="50.55955" lon="3.06432">
        <ele>43</ele>
        <time>2017-08-23T19:40:40Z</time>
      </trkpt>
      <trkpt lat="50.55955" lon="3.06432">
        <ele>43</ele>
        <time>2017-08-23T19:42:40Z</time>
      </trkpt>
      <trkpt lat="50.55962" lon="3.06443">
        <ele>43</ele>
        <time>2017-08-23T19:44:40Z</time>
      </trkpt>
      <trkpt lat="50.56038" lon="3.06518">
        <ele>43</ele>
        <time>2017-08-23T19:46:40Z</time>
      </trkpt>
      <trkpt lat="50.56071" lon="3.06551">
        <ele>42</ele>
        <time>2017-08-23T19:48:40Z</time>
      </trkpt>
      <trkpt lat="50.5613" lon="3.0661">
        <ele>42</ele>
        <time>2017-08-23T19:50:40Z</time>
      </trkpt>
      <trkpt lat="50.56179" lon="3.06658">
        <ele>43</ele>
        <time>2017-08-23T19:52:40Z</time>
      </trkpt>
      <trkpt lat="50.56182" lon="3.0666">
        <ele>43</ele>
        <time>2017-08-23T19:54:40Z</time>
      </trkpt>
      <trkpt lat="50.56184" lon="3.06661">
        <ele>43</ele>
        <time>2017-08-23T19:56:40Z</time>
      </trkpt>
      <trkpt lat="50.56186" lon="3.06661">
        <ele>43</ele>
        <time>2017-08-23T19:58:40Z</time>
      </trkpt>
      <trkpt lat="50.56188" lon="3.0666">
        <ele>43</ele>
        <time>2017-08-23T20:00:40Z</time>
      </trkpt>
      <trkpt lat="50.56193" lon="3.06656">
        <ele>43</ele>
        <time>2017-08-23T20:02:40Z</time>
      </trkpt>
      <trkpt lat="50.56196" lon="3.06653">
        <ele>43</ele>
        <time>2017-08-23T20:04:40Z</time>
      </trkpt>
      <trkpt lat="50.56257" lon="3.06594">
        <ele>43</ele>
        <time>2017-08-23T20:06:40Z</time>
      </trkpt>
      <trkpt lat="50.56258" lon="3.06592">
        <ele>43</ele>
        <time>2017-08-23T20:08:40Z</time>
      </trkpt>
      <trkpt lat="50.56259" lon="3.0659">
        <ele>43</ele>
        <time>2017-08-23T20:10:40Z</time>
      </trkpt>
      <trkpt lat="50.56263" lon="3.06568">
        <ele>43</ele>
        <time>2017-08-23T20:12:40Z</time>
      </trkpt>
      <trkpt lat="50.56264" lon="3.06566">
        <ele>43</ele>
        <time>2017-08-23T20:14:40Z</time>
      </trkpt>
      <trkpt lat="50.56265" lon="3.06565">
        <ele>43</ele>
        <time>2017-08-23T20:16:40Z</time>
      </trkpt>
      <trkpt lat="50.56355" lon="3.06534">
        <ele>43</ele>
        <time>2017-08-23T20:18:40Z</time>
      </trkpt>
      <trkpt lat="50.56355" lon="3.06534">
        <ele>43</ele>
        <time>2017-08-23T20:20:40Z</time>
      </trkpt>
      <trkpt lat="50.56432" lon="3.06507">
        <ele>42</ele>
        <time>2017-08-23T20:22:40Z</time>
      </trkpt>
      <trkpt lat="50.56577" lon="3.06448">
        <ele>40</ele>
        <time>2017-08-23T20:24:40Z</time>
      </trkpt>
      <trkpt lat="50.56578" lon="3.06447">
        <ele>40</ele>
        <time>2017-08-23T20:26:40Z</time>
      </trkpt>
      <trkpt lat="50.5658" lon="3.06448">
        <ele>40</ele>
        <time>2017-08-23T20:28:40Z</time>
      </trkpt>
      <trkpt lat="50.56581" lon="3.06448">
        <ele>40</ele>
        <time>2017-08-23T20:30:40Z</time>
      </trkpt>
      <trkpt lat="50.56583" lon="3.06449">
        <ele>40</ele>
        <time>2017-08-23T20:32:40Z</time>
      </trkpt>
      <trkpt lat="50.56585" lon="3.06451">
        <ele>40</ele>
        <time>2017-08-23T20:34:40Z</time>
      </trkpt>
      <trkpt lat="50.56589" lon="3.06454">
        <ele>40</ele>
        <time>2017-08-23T20:36:40Z</time>
      </trkpt>
      <trkpt lat="50.56589" lon="3.06454">
        <ele>40</ele>
        <time>2017-08-23T20:38:40Z</time>
      </trkpt>
      <trkpt lat="50.56496" lon="3.06658">
        <ele>41</ele>
        <time>2017-08-23T20:40:40Z</time>
      </trkpt>
      <trkpt lat="50.56442" lon="3.0678">
        <ele>43</ele>
        <time>2017-08-23T20:42:40Z</time>
      </trkpt>
      <trkpt lat="50.56373" lon="3.06949">
        <ele>46</ele>
        <time>2017-08-23T20:44:40Z</time>
      </trkpt>
      <trkpt lat="50.5633" lon="3.07059">
        <ele>46</ele>
        <time>2017-08-23T20:46:40Z</time>
      </trkpt>
      <trkpt lat="50.56328" lon="3.07062">
        <ele>46</ele>
        <time>2017-08-23T20:48:40Z</time>
      </trkpt>
      <trkpt lat="50.56325" lon="3.07072">
        <ele>46</ele>
        <time>2017-08-23T20:50:40Z</time>
      </trkpt>
      <trkpt lat="50.5632" lon="3.07083">
        <ele>46</ele>
        <time>2017-08-23T20:52:40Z</time>
      </trkpt>
      <trkpt lat="50.56316" lon="3.07093">
        <ele>46</ele>
        <time>2017-08-23T20:54:40Z</time>
      </trkpt>
      <trkpt lat="50.56311" lon="3.07105">
        <ele>46</ele>
        <time>2017-08-23T20:56:40Z</time>
      </trkpt>
      <trkpt lat="50.56304" lon="3.07123">
        <ele>46</ele>
        <time>2017-08-23T20:58:40Z</time>
      </trkpt>
      <trkpt lat="50.56294" lon="3.07147">
        <ele>47</ele>
        <time>2017-08-23T21:00:40Z</time>
      </trkpt>
      <trkpt lat="50.56289" lon="3.07164">
        <ele>47</ele>
        <time>2017-08-23T21:02:40Z</time>
      </trkpt>
      <trkpt lat="50.56287" lon="3.07168">
        <ele>47</ele>
        <time>2017-08-23T21:04:40Z</time>
      </trkpt>
      <trkpt lat="50.56284" lon="3.07185">
        <ele>47</ele>
        <time>2017-08-23T21:06:40Z</time>
      </trkpt>
      <trkpt lat="50.56272" lon="3.0724">
        <ele>47</ele>
        <time>2017-08-23T21:08:40Z</time>
      </trkpt>
      <trkpt lat="50.56267" lon="3.07263">
        <ele>46</ele>
        <time>2017-08-23T21:10:40Z</time>
      </trkpt>
      <trkpt lat="50.56257" lon="3.07298">
        <ele>46</ele>
        <time>2017-08-23T21:12:40Z</time>
      </trkpt>
      <trkpt lat="50.56249" lon="3.07319">
        <ele>45</ele>
        <time>2017-08-23T21:14:40Z</time>
      </trkpt>
      <trkpt lat="50.56233" lon="3.07352">
        <ele>45</ele>
        <time>2017-08-23T21:16:40Z</time>
      </trkpt>
      <trkpt lat="50.56211" lon="3.0739">
        <ele>45</ele>
        <time>2017-08-23T21:18:40Z</time>
      </trkpt>
      <trkpt lat="50.56191" lon="3.07425">
        <ele>46</ele>
        <time>2017-08-23T21:20:40Z</time>
      </trkpt>
      <trkpt lat="50.56152" lon="3.07506">
        <ele>47</ele>
        <time>2017-08-23T21:22:40Z</time>
      </trkpt>
      <trkpt lat="50.56149" lon="3.07512">
        <ele>47</ele>
        <time>2017-08-23T21:24:40Z</time>
      </trkpt>
      <trkpt lat="50.55971" lon="3.07678">
        <ele>45</ele>
        <time>2017-08-23T21:26:40Z</time>
      </trkpt>
      <trkpt lat="50.55963" lon="3.07686">
        <ele>45</ele>
        <time>2017-08-23T21:28:40Z</time>
      </trkpt>
      <trkpt lat="50.55955" lon="3.07693">
        <ele>45</ele>
        <time>2017-08-23T21:30:40Z</time>
      </trkpt>
      <trkpt lat="50.5593" lon="3.07701">
        <ele>45</ele>
        <time>2017-08-23T21:32:40Z</time>
      </trkpt>
      <trkpt lat="50.55884" lon="3.07724">
        <ele>45</ele>
        <time>2017-08-23T21:34:40Z</time>
      </trkpt>
      <trkpt lat="50.55745" lon="3.07797">
        <ele>44</ele>
        <time>2017-08-23T21:36:40Z</time>
      </trkpt>
      <trkpt lat="50.55709" lon="3.07819">
        <ele>44</ele>
        <time>2017-08-23T21:38:40Z</time>
      </trkpt>
      <trkpt lat="50.55613" lon="3.07884">
        <ele>43</ele>
        <time>2017-08-23T21:40:40Z</time>
      </trkpt>
      <trkpt lat="50.55613" lon="3.07884">
        <ele>43</ele>
        <time>2017-08-23T21:42:40Z</time>
      </trkpt>
      <trkpt lat="50.55596" lon="3.07908">
        <ele>42</ele>
        <time>2017-08-23T21:44:40Z</time>
      </trkpt>
      <trkpt lat="50.55539" lon="3.07974">
        <ele>41</ele>
        <time>2017-08-23T21:46:40Z</time>
      </trkpt>
      <trkpt lat="50.5552" lon="3.07992">
        <ele>40</ele>
        <time>2017-08-23T21:48:40Z</time>
      </trkpt>
      <trkpt lat="50.55501" lon="3.08002">
        <ele>40</ele>
        <time>2017-08-23T21:50:40Z</time>
      </trkpt>
      <trkpt lat="50.55472" lon="3.08011">
        <ele>40</ele>
        <time>2017-08-23T21:52:40Z</time>
      </trkpt>
      <trkpt lat="50.55391" lon="3.08042">
        <ele>41</ele>
        <time>2017-08-23T21:54:40Z</time>
      </trkpt>
      <trkpt lat="50.55314" lon="3.08067">
        <ele>41</ele>
        <time>2017-08-23T21:56:40Z</time>
      </trkpt>
      <trkpt lat="50.55261" lon="3.08089">
        <ele>42</ele>
        <time>2017-08-23T21:58:40Z</time>
      </trkpt>
      <trkpt lat="50.55223" lon="3.08112">
        <ele>42</ele>
        <time>2017-08-23T22:00:40Z</time>
      </trkpt>
      <trkpt lat="50.55214" lon="3.08121">
        <ele>42</ele>
        <time>2017-08-23T22:02:40Z</time>
      </trkpt>
      <trkpt lat="50.55194" lon="3.08138">
        <ele>42</ele>
        <time>2017-08-23T22:04:40Z</time>
      </trkpt>
      <trkpt lat="50.55164" lon="3.08169">
        <ele>42</ele>
        <time>2017-08-23T22:06:40Z</time>
      </trkpt>
      <trkpt lat="50.55139" lon="3.08196">
        <ele>42</ele>
        <time>2017-08-23T22:08:40Z</time>
      </trkpt>
      <trkpt lat="50.55133" lon="3.08205">
        <ele>42</ele>
        <time>2017-08-23T22:10:40Z</time>
      </trkpt>
      <trkpt lat="50.5511" lon="3.0823">
        <ele>42</ele>
        <time>2017-08-23T22:12:40Z</time>
      </trkpt>
      <trkpt lat="50.5507" lon="3.08276">
        <ele>42</ele>
        <time>2017-08-23T22:14:40Z</time>
      </trkpt>
      <trkpt lat="50.55042" lon="3.08297">
        <ele>42</ele>
        <time>2017-08-23T22:16:40Z</time>
      </trkpt>
      <trkpt lat="50.54997" lon="3.08328">
        <ele>41</ele>
        <time>2017-08-23T22:18:40Z</time>
      </trkpt>
      <trkpt lat="50.54978" lon="3.08339">
        <ele>40</ele>
        <time>2017-08-23T22:20:40Z</time>
      </trkpt>
      <trkpt lat="50.54963" lon="3.08346">
        <ele>40</ele>
        <time>2017-08-23T22:22:40Z</time>
      </trkpt>
      <trkpt lat="50.54943" lon="3.08349">
        <ele>40</ele>
        <time>2017-08-23T22:24:40Z</time>
      </trkpt>
      <trkpt lat="50.54924" lon="3.08349">
        <ele>39</ele>
        <time>2017-08-23T22:26:40Z</time>
      </trkpt>
      <trkpt lat="50.54897" lon="3.08346">
        <ele>39</ele>
        <time>2017-08-23T22:28:40Z</time>
      </trkpt>
      <trkpt lat="50.54845" lon="3.08336">
        <ele>39</ele>
        <time>2017-08-23T22:30:40Z</time>
      </trkpt>
      <trkpt lat="50.54825" lon="3.08334">
        <ele>39</ele>
        <time>2017-08-23T22:32:40Z</time>
      </trkpt>
      <trkpt lat="50.54807" lon="3.08334">
        <ele>39</ele>
        <time>2017-08-23T22:34:40Z</time>
      </trkpt>
      <trkpt lat="50.54786" lon="3.0834">
        <ele>39</ele>
        <time>2017-08-23T22:36:40Z</time>
      </trkpt>
      <trkpt lat="50.54762" lon="3.08353">
        <ele>39</ele>
        <time>2017-08-23T22:38:40Z</time>
      </trkpt>
      <trkpt lat="50.54737" lon="3.08367">
        <ele>38</ele>
        <time>2017-08-23T22:40:40Z</time>
      </trkpt>
      <trkpt lat="50.54718" lon="3.08384">
        <ele>38</ele>
        <time>2017-08-23T22:42:40Z</time>
      </trkpt>
      <trkpt lat="50.54688" lon="3.08413">
        <ele>37</ele>
        <time>2017-08-23T22:44:40Z</time>
      </trkpt>
      <trkpt lat="50.54641" lon="3.08469">
        <ele>37</ele>
        <time>2017-08-23T22:46:40Z</time>
      </trkpt>
      <trkpt lat="50.54633" lon="3.0848">
        <ele>37</ele>
        <time>2017-08-23T22:48:40Z</time>
      </trkpt>
      <trkpt lat="50.54613" lon="3.08505">
        <ele>37</ele>
        <time>2017-08-23T22:50:40Z</time>
      </trkpt>
      <trkpt lat="50.54599" lon="3.08518">
        <ele>37</ele>
        <time>2017-08-23T22:52:40Z</time>
      </trkpt>
      <trkpt lat="50.54502" lon="3.0859">
        <ele>36</ele>
        <time>2017-08-23T22:54:40Z</time>
      </trkpt>
      <trkpt lat="50.54491" lon="3.08598">
        <ele>36</ele>
        <time>2017-08-23T22:56:40Z</time>
      </trkpt>
      <trkpt lat="50.54489" lon="3.086">
        <ele>36</ele>
        <time>2017-08-23T22:58:40Z</time>
      </trkpt>
      <trkpt lat="50.54487" lon="3.08603">
        <ele>36</ele>
        <time>2017-08-23T23:00:40Z</time>
      </trkpt>
      <trkpt lat="50.54486" lon="3.08605">
        <ele>36</ele>
        <time>2017-08-23T23:02:40Z</time>
      </trkpt>
      <trkpt lat="50.54486" lon="3.08611">
        <ele>36</ele>
        <time>2017-08-23T23:04:40Z</time>
      </trkpt>
      <trkpt lat="50.54487" lon="3.08615">
        <ele>36</ele>
        <time>2017-08-23T23:06:40Z</time>
      </trkpt>
      <trkpt lat="50.54546" lon="3.08923">
        <ele>34</ele>
        <time>2017-08-23T23:08:40Z</time>
      </trkpt>
      <trkpt lat="50.54593" lon="3.09139">
        <ele>35</ele>
        <time>2017-08-23T23:10:40Z</time>
      </trkpt>
      <trkpt lat="50.54609" lon="3.09197">
        <ele>35</ele>
        <time>2017-08-23T23:12:40Z</time>
      </trkpt>
      <trkpt lat="50.54637" lon="3.09298">
        <ele>34</ele>
        <time>2017-08-23T23:14:40Z</time>
      </trkpt>
      <trkpt lat="50.54646" lon="3.09337">
        <ele>33</ele>
        <time>2017-08-23T23:16:40Z</time>
      </trkpt>
      <trkpt lat="50.54698" lon="3.09522">
        <ele>33</ele>
        <time>2017-08-23T23:18:40Z</time>
      </trkpt>
      <trkpt lat="50.54748" lon="3.09674">
        <ele>33</ele>
        <time>2017-08-23T23:20:40Z</time>
      </trkpt>
      <trkpt lat="50.54806" lon="3.09842">
        <ele>33</ele>
        <time>2017-08-23T23:22:40Z</time>
      </trkpt>
      <trkpt lat="50.54815" lon="3.09868">
        <ele>32</ele>
        <time>2017-08-23T23:24:40Z</time>
      </trkpt>
      <trkpt lat="50.54827" lon="3.09897">
        <ele>32</ele>
        <time>2017-08-23T23:26:40Z</time>
      </trkpt>
      <trkpt lat="50.54833" lon="3.09914">
        <ele>32</ele>
        <time>2017-08-23T23:28:40Z</time>
      </trkpt>
      <trkpt lat="50.5484" lon="3.09931">
        <ele>32</ele>
        <time>2017-08-23T23:30:40Z</time>
      </trkpt>
      <trkpt lat="50.5484" lon="3.09933">
        <ele>32</ele>
        <time>2017-08-23T23:32:40Z</time>
      </trkpt>
      <trkpt lat="50.5484" lon="3.09936">
        <ele>32</ele>
        <time>2017-08-23T23:34:40Z</time>
      </trkpt>
      <trkpt lat="50.5484" lon="3.09939">
        <ele>32</ele>
        <time>2017-08-23T23:36:40Z</time>
      </trkpt>
      <trkpt lat="50.5484" lon="3.09946">
        <ele>32</ele>
        <time>2017-08-23T23:38:40Z</time>
      </trkpt>
      <trkpt lat="50.5484" lon="3.09946">
        <ele>32</ele>
        <time>2017-08-23T23:40:40Z</time>
      </trkpt>
      <trkpt lat="50.54849" lon="3.0995">
        <ele>32</ele>
        <time>2017-08-23T23:42:40Z</time>
      </trkpt>
      <trkpt lat="50.54865" lon="3.09956">
        <ele>32</ele>
        <time>2017-08-23T23:44:40Z</time>
      </trkpt>
      <trkpt lat="50.54872" lon="3.09956">
        <ele>32</ele>
        <time>2017-08-23T23:46:40Z</time>
      </trkpt>
      <trkpt lat="50.54883" lon="3.09955">
        <ele>32</ele>
        <time>2017-08-23T23:48:40Z</time>
      </trkpt>
      <trkpt lat="50.55039" lon="3.09923">
        <ele>34</ele>
        <time>2017-08-23T23:50:40Z</time>
      </trkpt>
      <trkpt lat="50.55102" lon="3.09909">
        <ele>35</ele>
        <time>2017-08-23T23:52:40Z</time>
      </trkpt>
      <trkpt lat="50.55154" lon="3.099">
        <ele>36</ele>
        <time>2017-08-23T23:54:40Z</time>
      </trkpt>
      <trkpt lat="50.55202" lon="3.09891">
        <ele>36</ele>
        <time>2017-08-23T23:56:40Z</time>
      </trkpt>
      <trkpt lat="50.55265" lon="3.09879">
        <ele>36</ele>
        <time>2017-08-23T23:58:40Z</time>
      </trkpt>
      <trkpt lat="50.55336" lon="3.09866">
        <ele>37</ele>
        <time>2017-08-24T00:00:40Z</time>
      </trkpt>
      <trkpt lat="50.55394" lon="3.09859">
        <ele>37</ele>
        <time>2017-08-24T00:02:40Z</time>
      </trkpt>
      <trkpt lat="50.55473" lon="3.09854">
        <ele>37</ele>
        <time>2017-08-24T00:04:40Z</time>
      </trkpt>
      <trkpt lat="50.55489" lon="3.09854">
        <ele>37</ele>
        <time>2017-08-24T00:06:40Z</time>
      </trkpt>
      <trkpt lat="50.55495" lon="3.09855">
        <ele>37</ele>
        <time>2017-08-24T00:08:40Z</time>
      </trkpt>
      <trkpt lat="50.555" lon="3.09855">
        <ele>37</ele>
        <time>2017-08-24T00:10:40Z</time>
      </trkpt>
      <trkpt lat="50.55535" lon="3.09855">
        <ele>38</ele>
        <time>2017-08-24T00:12:40Z</time>
      </trkpt>
      <trkpt lat="50.55577" lon="3.09854">
        <ele>39</ele>
        <time>2017-08-24T00:14:40Z</time>
      </trkpt>
      <trkpt lat="50.55591" lon="3.09856">
        <ele>39</ele>
        <time>2017-08-24T00:16:40Z</time>
      </trkpt>
      <trkpt lat="50.55609" lon="3.09858">
        <ele>38</ele>
        <time>2017-08-24T00:18:40Z</time>
      </trkpt>
      <trkpt lat="50.55624" lon="3.09857">
        <ele>38</ele>
        <time>2017-08-24T00:20:40Z</time>
      </trkpt>
      <trkpt lat="50.55635" lon="3.09857">
        <ele>38</ele>
        <time>2017-08-24T00:22:40Z</time>
      </trkpt>
      <trkpt lat="50.55646" lon="3.09856">
        <ele>38</ele>
        <time>2017-08-24T00:24:40Z</time>
      </trkpt>
      <trkpt lat="50.55657" lon="3.09855">
        <ele>38</ele>
        <time>2017-08-24T00:26:40Z</time>
      </trkpt>
      <trkpt lat="50.5568" lon="3.09849">
        <ele>38</ele>
        <time>2017-08-24T00:28:40Z</time>
      </trkpt>
      <trkpt lat="50.5573" lon="3.09829">
        <ele>39</ele>
        <time>2017-08-24T00:30:40Z</time>
      </trkpt>
      <trkpt lat="50.55747" lon="3.09822">
        <ele>39</ele>
        <time>2017-08-24T00:32:40Z</time>
      </trkpt>
      <trkpt lat="50.5577" lon="3.09812">
        <ele>39</ele>
        <time>2017-08-24T00:34:40Z</time>
      </trkpt>
      <trkpt lat="50.55787" lon="3.09805">
        <ele>40</ele>
        <time>2017-08-24T00:36:40Z</time>
      </trkpt>
      <trkpt lat="50.55833" lon="3.09787">
        <ele>41</ele>
        <time>2017-08-24T00:38:40Z</time>
      </trkpt>
      <trkpt lat="50.55833" lon="3.09787">
        <ele>41</ele>
        <time>2017-08-24T00:40:40Z</time>
      </trkpt>
      <trkpt lat="50.55871" lon="3.09905">
        <ele>39</ele>
        <time>2017-08-24T00:42:40Z</time>
      </trkpt>
      <trkpt lat="50.55898" lon="3.09986">
        <ele>38</ele>
        <time>2017-08-24T00:44:40Z</time>
      </trkpt>
      <trkpt lat="50.55902" lon="3.09999">
        <ele>38</ele>
        <time>2017-08-24T00:46:40Z</time>
      </trkpt>
      <trkpt lat="50.55904" lon="3.10011">
        <ele>38</ele>
        <time>2017-08-24T00:48:40Z</time>
      </trkpt>
      <trkpt lat="50.55905" lon="3.10022">
        <ele>38</ele>
        <time>2017-08-24T00:50:40Z</time>
      </trkpt>
      <trkpt lat="50.55905" lon="3.10036">
        <ele>38</ele>
        <time>2017-08-24T00:52:40Z</time>
      </trkpt>
      <trkpt lat="50.55904" lon="3.10077">
        <ele>38</ele>
        <time>2017-08-24T00:54:40Z</time>
      </trkpt>
      <trkpt lat="50.55899" lon="3.10212">
        <ele>37</ele>
        <time>2017-08-24T00:56:40Z</time>
      </trkpt>
      <trkpt lat="50.55899" lon="3.10227">
        <ele>38</ele>
        <time>2017-08-24T00:58:40Z</time>
      </trkpt>
      <trkpt lat="50.55896" lon="3.10253">
        <ele>38</ele>
        <time>2017-08-24T01:00:40Z</time>
      </trkpt>
      <trkpt lat="50.55896" lon="3.10253">
        <ele>38</ele>
        <time>2017-08-24T01:02:40Z</time>
      </trkpt>
      <trkpt lat="50.55895" lon="3.10373">
        <ele>38</ele>
        <time>2017-08-24T01:04:40Z</time>
      </trkpt>
      <trkpt lat="50.559" lon="3.10575">
        <ele>38</ele>
        <time>2017-08-24T01:06:40Z</time>
      </trkpt>
      <trkpt lat="50.55903" lon="3.10721">
        <ele>37</ele>
        <time>2017-08-24T01:08:40Z</time>
      </trkpt>
      <trkpt lat="50.55902" lon="3.10735">
        <ele>37</ele>
        <time>2017-08-24T01:10:40Z</time>
      </trkpt>
      <trkpt lat="50.55891" lon="3.10833">
        <ele>37</ele>
        <time>2017-08-24T01:12:40Z</time>
      </trkpt>
      <trkpt lat="50.55882" lon="3.10915">
        <ele>37</ele>
        <time>2017-08-24T01:14:40Z</time>
      </trkpt>
      <trkpt lat="50.55881" lon="3.10928">
        <ele>38</ele>
        <time>2017-08-24T01:16:40Z</time>
      </trkpt>
      <trkpt lat="50.55881" lon="3.1095">
        <ele>38</ele>
        <time>2017-08-24T01:18:40Z</time>
      </trkpt>
      <trkpt lat="50.55883" lon="3.10982">
        <ele>38</ele>
        <time>2017-08-24T01:20:40Z</time>
      </trkpt>
      <trkpt lat="50.55893" lon="3.11075">
        <ele>38</ele>
        <time>2017-08-24T01:22:40Z</time>
      </trkpt>
      <trkpt lat="50.55898" lon="3.11103">
        <ele>38</ele>
        <time>2017-08-24T01:24:40Z</time>
      </trkpt>
      <trkpt lat="50.55907" lon="3.11183">
        <ele>37</ele>
        <time>2017-08-24T01:26:40Z</time>
      </trkpt>
      <trkpt lat="50.55919" lon="3.11275">
        <ele>36</ele>
        <time>2017-08-24T01:28:40Z</time>
      </trkpt>
      <trkpt lat="50.55924" lon="3.11314">
        <ele>35</ele>
        <time>2017-08-24T01:30:40Z</time>
      </trkpt>
      <trkpt lat="50.55924" lon="3.11314">
        <ele>35</ele>
        <time>2017-08-24T01:32:40Z</time>
      </trkpt>
      <trkpt lat="50.5592" lon="3.1132">
        <ele>35</ele>
        <time>2017-08-24T01:34:40Z</time>
      </trkpt>
      <trkpt lat="50.5592" lon="3.1132">
        <ele>35</ele>
        <time>2017-08-24T01:36:40Z</time>
      </trkpt>
      <trkpt lat="50.55922" lon="3.11333">
        <ele>35</ele>
        <time>2017-08-24T01:38:40Z</time>
      </trkpt>
      <trkpt lat="50.55928" lon="3.11397">
        <ele>35</ele>
        <time>2017-08-24T01:40:40Z</time>
      </trkpt>
      <trkpt lat="50.55929" lon="3.11408">
        <ele>35</ele>
        <time>2017-08-24T01:42:40Z</time>
      </trkpt>
      <trkpt lat="50.55929" lon="3.11408">
        <ele>35</ele>
        <time>2017-08-24T01:44:40Z</time>
      </trkpt>
      <trkpt lat="50.5593" lon="3.11424">
        <ele>35</ele>
        <time>2017-08-24T01:46:40Z</time>
      </trkpt>
      <trkpt lat="50.55931" lon="3.11443">
        <ele>35</ele>
        <time>2017-08-24T01:48:40Z</time>
      </trkpt>
      <trkpt lat="50.55932" lon="3.11491">
        <ele>35</ele>
        <time>2017-08-24T01:50:40Z</time>
      </trkpt>
      <trkpt lat="50.55931" lon="3.11532">
        <ele>35</ele>
        <time>2017-08-24T01:52:40Z</time>
      </trkpt>
      <trkpt lat="50.55929" lon="3.11588">
        <ele>34</ele>
        <time>2017-08-24T01:54:40Z</time>
      </trkpt>
      <trkpt lat="50.55926" lon="3.11628">
        <ele>33</ele>
        <time>2017-08-24T01:56:40Z</time>
      </trkpt>
      <trkpt lat="50.55925" lon="3.11712">
        <ele>33</ele>
        <time>2017-08-24T01:58:40Z</time>
      </trkpt>
      <trkpt lat="50.55926" lon="3.11765">
        <ele>33</ele>
        <time>2017-08-24T02:00:40Z</time>
      </trkpt>
      <trkpt lat="50.55927" lon="3.11793">
        <ele>34</ele>
        <time>2017-08-24T02:02:40Z</time>
      </trkpt>
      <trkpt lat="50.5593" lon="3.11822">
        <ele>34</ele>
        <time>2017-08-24T02:04:40Z</time>
      </trkpt>
      <trkpt lat="50.55937" lon="3.1187">
        <ele>34</ele>
        <time>2017-08-24T02:06:40Z</time>
      </trkpt>
      <trkpt lat="50.55942" lon="3.11901">
        <ele>34</ele>
        <time>2017-08-24T02:08:40Z</time>
      </trkpt>
      <trkpt lat="50.55945" lon="3.11941">
        <ele>33</ele>
        <time>2017-08-24T02:10:40Z</time>
      </trkpt>
      <trkpt lat="50.5595" lon="3.1201">
        <ele>33</ele>
        <time>2017-08-24T02:12:40Z</time>
      </trkpt>
      <trkpt lat="50.55953" lon="3.1212">
        <ele>33</ele>
        <time>2017-08-24T02:14:40Z</time>
      </trkpt>
      <trkpt lat="50.55953" lon="3.12138">
        <ele>33</ele>
        <time>2017-08-24T02:16:40Z</time>
      </trkpt>
      <trkpt lat="50.55952" lon="3.12166">
        <ele>33</ele>
        <time>2017-08-24T02:18:40Z</time>
      </trkpt>
      <trkpt lat="50.55954" lon="3.1217">
        <ele>33</ele>
        <time>2017-08-24T02:20:40Z</time>
      </trkpt>
      <trkpt lat="50.55967" lon="3.122">
        <ele>33</ele>
        <time>2017-08-24T02:22:40Z</time>
      </trkpt>
      <trkpt lat="50.55967" lon="3.122">
        <ele>33</ele>
        <time>2017-08-24T02:24:40Z</time>
      </trkpt>
      <trkpt lat="50.55981" lon="3.12227">
        <ele>34</ele>
        <time>2017-08-24T02:26:40Z</time>
      </trkpt>
      <trkpt lat="50.5603" lon="3.12314">
        <ele>35</ele>
        <time>2017-08-24T02:28:40Z</time>
      </trkpt>
      <trkpt lat="50.56049" lon="3.12347">
        <ele>35</ele>
        <time>2017-08-24T02:30:40Z</time>
      </trkpt>
      <trkpt lat="50.56087" lon="3.12416">
        <ele>35</ele>
        <time>2017-08-24T02:32:40Z</time>
      </trkpt>
      <trkpt lat="50.5611" lon="3.12461">
        <ele>36</ele>
        <time>2017-08-24T02:34:40Z</time>
      </trkpt>
      <trkpt lat="50.56132" lon="3.12507">
        <ele>37</ele>
        <time>2017-08-24T02:36:40Z</time>
      </trkpt>
      <trkpt lat="50.5615" lon="3.12543">
        <ele>37</ele>
        <time>2017-08-24T02:38:40Z</time>
      </trkpt>
      <trkpt lat="50.56162" lon="3.12569">
        <ele>38</ele>
        <time>2017-08-24T02:40:40Z</time>
      </trkpt>
      <trkpt lat="50.5618" lon="3.12606">
        <ele>38</ele>
        <time>2017-08-24T02:42:40Z</time>
      </trkpt>
      <trkpt lat="50.56188" lon="3.12623">
        <ele>39</ele>
        <time>2017-08-24T02:44:40Z</time>
      </trkpt>
      <trkpt lat="50.56196" lon="3.12638">
        <ele>39</ele>
        <time>2017-08-24T02:46:40Z</time>
      </trkpt>
      <trkpt lat="50.56204" lon="3.12653">
        <ele>39</ele>
        <time>2017-08-24T02:48:40Z</time>
      </trkpt>
      <trkpt lat="50.56213" lon="3.12671">
        <ele>39</ele>
        <time>2017-08-24T02:50:40Z</time>
      </trkpt>
      <trkpt lat="50.56223" lon="3.12692">
        <ele>38</ele>
        <time>2017-08-24T02:52:40Z</time>
      </trkpt>
      <trkpt lat="50.56228" lon="3.12703">
        <ele>38</ele>
        <time>2017-08-24T02:54:40Z</time>
      </trkpt>
      <trkpt lat="50.56232" lon="3.1271">
        <ele>38</ele>
        <time>2017-08-24T02:56:40Z</time>
      </trkpt>
      <trkpt lat="50.56236" lon="3.12714">
        <ele>38</ele>
        <time>2017-08-24T02:58:40Z</time>
      </trkpt>
      <trkpt lat="50.56239" lon="3.12717">
        <ele>38</ele>
        <time>2017-08-24T03:00:40Z</time>
      </trkpt>
      <trkpt lat="50.56243" lon="3.12718">
        <ele>38</ele>
        <time>2017-08-24T03:02:40Z</time>
      </trkpt>
      <trkpt lat="50.56248" lon="3.12718">
        <ele>38</ele>
        <time>2017-08-24T03:04:40Z</time>
      </trkpt>
      <trkpt lat="50.56253" lon="3.12718">
        <ele>38</ele>
        <time>2017-08-24T03:06:40Z</time>
      </trkpt>
      <trkpt lat="50.56266" lon="3.12715">
        <ele>37</ele>
        <time>2017-08-24T03:08:40Z</time>
      </trkpt>
      <trkpt lat="50.563" lon="3.12703">
        <ele>37</ele>
        <time>2017-08-24T03:10:40Z</time>
      </trkpt>
      <trkpt lat="50.56325" lon="3.12696">
        <ele>37</ele>
        <time>2017-08-24T03:12:40Z</time>
      </trkpt>
      <trkpt lat="50.56352" lon="3.12687">
        <ele>37</ele>
        <time>2017-08-24T03:14:40Z</time>
      </trkpt>
      <trkpt lat="50.56381" lon="3.12676">
        <ele>37</ele>
        <time>2017-08-24T03:16:40Z</time>
      </trkpt>
      <trkpt lat="50.56396" lon="3.1267">
        <ele>36</ele>
        <time>2017-08-24T03:18:40Z</time>
      </trkpt>
      <trkpt lat="50.56402" lon="3.12669">
        <ele>36</ele>
        <time>2017-08-24T03:20:40Z</time>
      </trkpt>
      <trkpt lat="50.56409" lon="3.12669">
        <ele>36</ele>
        <time>2017-08-24T03:22:40Z</time>
      </trkpt>
      <trkpt lat="50.56413" lon="3.12671">
        <ele>36</ele>
        <time>2017-08-24T03:24:40Z</time>
      </trkpt>
      <trkpt lat="50.56417" lon="3.12675">
        <ele>36</ele>
        <time>2017-08-24T03:26:40Z</time>
      </trkpt>
      <trkpt lat="50.56421" lon="3.1268">
        <ele>36</ele>
        <time>2017-08-24T03:28:40Z</time>
      </trkpt>
      <trkpt lat="50.56423" lon="3.12687">
        <ele>36</ele>
        <time>2017-08-24T03:30:40Z</time>
      </trkpt>
      <trkpt lat="50.56425" lon="3.12695">
        <ele>37</ele>
        <time>2017-08-24T03:32:40Z</time>
      </trkpt>
      <trkpt lat="50.56425" lon="3.12695">
        <ele>37</ele>
        <time>2017-08-24T03:34:40Z</time>
      </trkpt>
      <trkpt lat="50.56419" lon="3.12697">
        <ele>37</ele>
        <time>2017-08-24T03:36:40Z</time>
      </trkpt>
      <trkpt lat="50.56416" lon="3.12698">
        <ele>37</ele>
        <time>2017-08-24T03:38:40Z</time>
      </trkpt>
      <trkpt lat="50.56407" lon="3.12702">
        <ele>37</ele>
        <time>2017-08-24T03:40:40Z</time>
      </trkpt>
      <trkpt lat="50.5637" lon="3.12716">
        <ele>37</ele>
        <time>2017-08-24T03:42:40Z</time>
      </trkpt>
      <trkpt lat="50.56304" lon="3.12739">
        <ele>37</ele>
        <time>2017-08-24T03:44:40Z</time>
      </trkpt>
      <trkpt lat="50.5623" lon="3.12765">
        <ele>39</ele>
        <time>2017-08-24T03:46:40Z</time>
      </trkpt>
      <trkpt lat="50.56215" lon="3.12771">
        <ele>39</ele>
        <time>2017-08-24T03:48:40Z</time>
      </trkpt>
      <trkpt lat="50.56203" lon="3.12775">
        <ele>39</ele>
        <time>2017-08-24T03:50:40Z</time>
      </trkpt>
      <trkpt lat="50.562" lon="3.12776">
        <ele>39</ele>
        <time>2017-08-24T03:52:40Z</time>
      </trkpt>
      <trkpt lat="50.56199" lon="3.12777">
        <ele>39</ele>
        <time>2017-08-24T03:54:40Z</time>
      </trkpt>
      <trkpt lat="50.56194" lon="3.12779">
        <ele>39</ele>
        <time>2017-08-24T03:56:40Z</time>
      </trkpt>
      <trkpt lat="50.56166" lon="3.12789">
        <ele>40</ele>
        <time>2017-08-24T03:58:40Z</time>
      </trkpt>
      <trkpt lat="50.56161" lon="3.12791">
        <ele>39</ele>
        <time>2017-08-24T04:00:40Z</time>
      </trkpt>
      <trkpt lat="50.56157" lon="3.12793">
        <ele>39</ele>
        <time>2017-08-24T04:02:40Z</time>
      </trkpt>
      <trkpt lat="50.56154" lon="3.12794">
        <ele>39</ele>
        <time>2017-08-24T04:04:40Z</time>
      </trkpt>
      <trkpt lat="50.5615" lon="3.12793">
        <ele>39</ele>
        <time>2017-08-24T04:06:40Z</time>
      </trkpt>
      <trkpt lat="50.56148" lon="3.12793">
        <ele>39</ele>
        <time>2017-08-24T04:08:40Z</time>
      </trkpt>
      <trkpt lat="50.56146" lon="3.12794">
        <ele>39</ele>
        <time>2017-08-24T04:10:40Z</time>
      </trkpt>
      <trkpt lat="50.56142" lon="3.12796">
        <ele>39</ele>
        <time>2017-08-24T04:12:40Z</time>
      </trkpt>
      <trkpt lat="50.56137" lon="3.128">
        <ele>39</ele>
        <time>2017-08-24T04:14:40Z</time>
      </trkpt>
      <trkpt lat="50.56133" lon="3.12805">
        <ele>39</ele>
        <time>2017-08-24T04:16:40Z</time>
      </trkpt>
      <trkpt lat="50.56127" lon="3.12811">
        <ele>38</ele>
        <time>2017-08-24T04:18:40Z</time>
      </trkpt>
      <trkpt lat="50.56124" lon="3.12817">
        <ele>38</ele>
        <time>2017-08-24T04:20:40Z</time>
      </trkpt>
      <trkpt lat="50.56118" lon="3.12827">
        <ele>38</ele>
        <time>2017-08-24T04:22:40Z</time>
      </trkpt>
      <trkpt lat="50.56112" lon="3.12837">
        <ele>38</ele>
        <time>2017-08-24T04:24:40Z</time>
      </trkpt>
      <trkpt lat="50.56109" lon="3.12843">
        <ele>38</ele>
        <time>2017-08-24T04:26:40Z</time>
      </trkpt>
      <trkpt lat="50.56106" lon="3.12849">
        <ele>37</ele>
        <time>2017-08-24T04:28:40Z</time>
      </trkpt>
      <trkpt lat="50.56106" lon="3.12849">
        <ele>37</ele>
        <time>2017-08-24T04:30:40Z</time>
      </trkpt>
      <trkpt lat="50.56103" lon="3.12849">
        <ele>37</ele>
        <time>2017-08-24T04:32:40Z</time>
      </trkpt>
      <trkpt lat="50.561" lon="3.1285">
        <ele>37</ele>
        <time>2017-08-24T04:34:40Z</time>
      </trkpt>
      <trkpt lat="50.56097" lon="3.12851">
        <ele>37</ele>
        <time>2017-08-24T04:36:40Z</time>
      </trkpt>
      <trkpt lat="50.56094" lon="3.12854">
        <ele>37</ele>
        <time>2017-08-24T04:38:40Z</time>
      </trkpt>
      <trkpt lat="50.56091" lon="3.12856">
        <ele>37</ele>
        <time>2017-08-24T04:40:40Z</time>
      </trkpt>
      <trkpt lat="50.56087" lon="3.12859">
        <ele>37</ele>
        <time>2017-08-24T04:42:40Z</time>
      </trkpt>
      <trkpt lat="50.56085" lon="3.12864">
        <ele>37</ele>
        <time>2017-08-24T04:44:40Z</time>
      </trkpt>
      <trkpt lat="50.56083" lon="3.12867">
        <ele>37</ele>
        <time>2017-08-24T04:46:40Z</time>
      </trkpt>
      <trkpt lat="50.56082" lon="3.1287">
        <ele>37</ele>
        <time>2017-08-24T04:48:40Z</time>
      </trkpt>
      <trkpt lat="50.56081" lon="3.12876">
        <ele>36</ele>
        <time>2017-08-24T04:50:40Z</time>
      </trkpt>
      <trkpt lat="50.5608" lon="3.12881">
        <ele>36</ele>
        <time>2017-08-24T04:52:40Z</time>
      </trkpt>
      <trkpt lat="50.56079" lon="3.12886">
        <ele>36</ele>
        <time>2017-08-24T04:54:40Z</time>
      </trkpt>
      <trkpt lat="50.56079" lon="3.12891">
        <ele>36</ele>
        <time>2017-08-24T04:56:40Z</time>
      </trkpt>
      <trkpt lat="50.56079" lon="3.12896">
        <ele>36</ele>
        <time>2017-08-24T04:58:40Z</time>
      </trkpt>
      <trkpt lat="50.56079" lon="3.12901">
        <ele>36</ele>
        <time>2017-08-24T05:00:40Z</time>
      </trkpt>
      <trkpt lat="50.5608" lon="3.12906">
        <ele>36</ele>
        <time>2017-08-24T05:02:40Z</time>
      </trkpt>
      <trkpt lat="50.56081" lon="3.12912">
        <ele>36</ele>
        <time>2017-08-24T05:04:40Z</time>
      </trkpt>
      <trkpt lat="50.56084" lon="3.12918">
        <ele>36</ele>
        <time>2017-08-24T05:06:40Z</time>
      </trkpt>
      <trkpt lat="50.56087" lon="3.12923">
        <ele>36</ele>
        <time>2017-08-24T05:08:40Z</time>
      </trkpt>
      <trkpt lat="50.5609" lon="3.12928">
        <ele>36</ele>
        <time>2017-08-24T05:10:40Z</time>
      </trkpt>
      <trkpt lat="50.56092" lon="3.12931">
        <ele>36</ele>
        <time>2017-08-24T05:12:40Z</time>
      </trkpt>
      <trkpt lat="50.56096" lon="3.12933">
        <ele>36</ele>
        <time>2017-08-24T05:14:40Z</time>
      </trkpt>
      <trkpt lat="50.56099" lon="3.12934">
        <ele>36</ele>
        <time>2017-08-24T05:16:40Z</time>
      </trkpt>
      <trkpt lat="50.56102" lon="3.12935">
        <ele>36</ele>
        <time>2017-08-24T05:18:40Z</time>
      </trkpt>
      <trkpt lat="50.56106" lon="3.12935">
        <ele>36</ele>
        <time>2017-08-24T05:20:40Z</time>
      </trkpt>
      <trkpt lat="50.56108" lon="3.12934">
        <ele>36</ele>
        <time>2017-08-24T05:22:40Z</time>
      </trkpt>
      <trkpt lat="50.56111" lon="3.12934">
        <ele>36</ele>
        <time>2017-08-24T05:24:40Z</time>
      </trkpt>
      <trkpt lat="50.56115" lon="3.12932">
        <ele>36</ele>
        <time>2017-08-24T05:26:40Z</time>
      </trkpt>
      <trkpt lat="50.56119" lon="3.12929">
        <ele>37</ele>
        <time>2017-08-24T05:28:40Z</time>
      </trkpt>
      <trkpt lat="50.56122" lon="3.12926">
        <ele>37</ele>
        <time>2017-08-24T05:30:40Z</time>
      </trkpt>
      <trkpt lat="50.56125" lon="3.12923">
        <ele>37</ele>
        <time>2017-08-24T05:32:40Z</time>
      </trkpt>
      <trkpt lat="50.56133" lon="3.12924">
        <ele>37</ele>
        <time>2017-08-24T05:34:40Z</time>
      </trkpt>
      <trkpt lat="50.56142" lon="3.12926">
        <ele>37</ele>
        <time>2017-08-24T05:36:40Z</time>
      </trkpt>
      <trkpt lat="50.56159" lon="3.12935">
        <ele>37</ele>
        <time>2017-08-24T05:38:40Z</time>
      </trkpt>
      <trkpt lat="50.56176" lon="3.12948">
        <ele>37</ele>
        <time>2017-08-24T05:40:40Z</time>
      </trkpt>
      <trkpt lat="50.56189" lon="3.12962">
        <ele>37</ele>
        <time>2017-08-24T05:42:40Z</time>
      </trkpt>
      <trkpt lat="50.56202" lon="3.12981">
        <ele>38</ele>
        <time>2017-08-24T05:44:40Z</time>
      </trkpt>
      <trkpt lat="50.56206" lon="3.12987">
        <ele>38</ele>
        <time>2017-08-24T05:46:40Z</time>
      </trkpt>
      <trkpt lat="50.56214" lon="3.13002">
        <ele>38</ele>
        <time>2017-08-24T05:48:40Z</time>
      </trkpt>
      <trkpt lat="50.56226" lon="3.13026">
        <ele>38</ele>
        <time>2017-08-24T05:50:40Z</time>
      </trkpt>
      <trkpt lat="50.56292" lon="3.13154">
        <ele>39</ele>
        <time>2017-08-24T05:52:40Z</time>
      </trkpt>
      <trkpt lat="50.56336" lon="3.13238">
        <ele>39</ele>
        <time>2017-08-24T05:54:40Z</time>
      </trkpt>
      <trkpt lat="50.56369" lon="3.13302">
        <ele>39</ele>
        <time>2017-08-24T05:56:40Z</time>
      </trkpt>
      <trkpt lat="50.56388" lon="3.13341">
        <ele>39</ele>
        <time>2017-08-24T05:58:40Z</time>
      </trkpt>
      <trkpt lat="50.56388" lon="3.13341">
        <ele>39</ele>
        <time>2017-08-24T06:00:40Z</time>
      </trkpt>
      <trkpt lat="50.56391" lon="3.13356">
        <ele>39</ele>
        <time>2017-08-24T06:02:40Z</time>
      </trkpt>
      <trkpt lat="50.56403" lon="3.13413">
        <ele>40</ele>
        <time>2017-08-24T06:04:40Z</time>
      </trkpt>
      <trkpt lat="50.5646" lon="3.13676">
        <ele>39</ele>
        <time>2017-08-24T06:06:40Z</time>
      </trkpt>
      <trkpt lat="50.56476" lon="3.13753">
        <ele>39</ele>
        <time>2017-08-24T06:08:40Z</time>
      </trkpt>
      <trkpt lat="50.5648" lon="3.1377">
        <ele>39</ele>
        <time>2017-08-24T06:10:40Z</time>
      </trkpt>
      <trkpt lat="50.5648" lon="3.1377">
        <ele>39</ele>
        <time>2017-08-24T06:12:40Z</time>
      </trkpt>
      <trkpt lat="50.56444" lon="3.13799">
        <ele>38</ele>
        <time>2017-08-24T06:14:40Z</time>
      </trkpt>
      <trkpt lat="50.56428" lon="3.13811">
        <ele>38</ele>
        <time>2017-08-24T06:16:40Z</time>
      </trkpt>
      <trkpt lat="50.5641" lon="3.13825">
        <ele>38</ele>
        <time>2017-08-24T06:18:40Z</time>
      </trkpt>
      <trkpt lat="50.56391" lon="3.1384">
        <ele>37</ele>
        <time>2017-08-24T06:20:40Z</time>
      </trkpt>
      <trkpt lat="50.56386" lon="3.13844">
        <ele>37</ele>
        <time>2017-08-24T06:22:40Z</time>
      </trkpt>
      <trkpt lat="50.56381" lon="3.13848">
        <ele>37</ele>
        <time>2017-08-24T06:24:40Z</time>
      </trkpt>
      <trkpt lat="50.56304" lon="3.13939">
        <ele>35</ele>
        <time>2017-08-24T06:26:40Z</time>
      </trkpt>
      <trkpt lat="50.56285" lon="3.13959">
        <ele>35</ele>
        <time>2017-08-24T06:28:40Z</time>
      </trkpt>
      <trkpt lat="50.56283" lon="3.13961">
        <ele>35</ele>
        <time>2017-08-24T06:30:40Z</time>
      </trkpt>
      <trkpt lat="50.56278" lon="3.13966">
        <ele>35</ele>
        <time>2017-08-24T06:32:40Z</time>
      </trkpt>
      <trkpt lat="50.56261" lon="3.13982">
        <ele>35</ele>
        <time>2017-08-24T06:34:40Z</time>
      </trkpt>
      <trkpt lat="50.56251" lon="3.13987">
        <ele>35</ele>
        <time>2017-08-24T06:36:40Z</time>
      </trkpt>
      <trkpt lat="50.56251" lon="3.13987">
        <ele>35</ele>
        <time>2017-08-24T06:38:40Z</time>
      </trkpt>
      <trkpt lat="50.56263" lon="3.14028">
        <ele>35</ele>
        <time>2017-08-24T06:40:40Z</time>
      </trkpt>
      <trkpt lat="50.56263" lon="3.14029">
        <ele>35</ele>
        <time>2017-08-24T06:42:40Z</time>
      </trkpt>
      <trkpt lat="50.563" lon="3.14178">
        <ele>36</ele>
        <time>2017-08-24T06:44:40Z</time>
      </trkpt>
      <trkpt lat="50.56317" lon="3.14247">
        <ele>36</ele>
        <time>2017-08-24T06:46:40Z</time>
      </trkpt>
      <trkpt lat="50.56319" lon="3.14254">
        <ele>36</ele>
        <time>2017-08-24T06:48:40Z</time>
      </trkpt>
      <trkpt lat="50.56327" lon="3.14287">
        <ele>37</ele>
        <time>2017-08-24T06:50:40Z</time>
      </trkpt>
      <trkpt lat="50.56334" lon="3.14313">
        <ele>38</ele>
        <time>2017-08-24T06:52:40Z</time>
      </trkpt>
      <trkpt lat="50.56344" lon="3.14358">
        <ele>38</ele>
        <time>2017-08-24T06:54:40Z</time>
      </trkpt>
      <trkpt lat="50.56346" lon="3.14365">
        <ele>38</ele>
        <time>2017-08-24T06:56:40Z</time>
      </trkpt>
      <trkpt lat="50.56351" lon="3.14389">
        <ele>38</ele>
        <time>2017-08-24T06:58:40Z</time>
      </trkpt>
      <trkpt lat="50.56363" lon="3.14439">
        <ele>37</ele>
        <time>2017-08-24T07:00:40Z</time>
      </trkpt>
      <trkpt lat="50.56369" lon="3.14463">
        <ele>37</ele>
        <time>2017-08-24T07:02:40Z</time>
      </trkpt>
      <trkpt lat="50.56376" lon="3.14488">
        <ele>37</ele>
        <time>2017-08-24T07:04:40Z</time>
      </trkpt>
      <trkpt lat="50.56377" lon="3.14491">
        <ele>37</ele>
        <time>2017-08-24T07:06:40Z</time>
      </trkpt>
      <trkpt lat="50.56383" lon="3.14504">
        <ele>36</ele>
        <time>2017-08-24T07:08:40Z</time>
      </trkpt>
      <trkpt lat="50.56394" lon="3.14528">
        <ele>36</ele>
        <time>2017-08-24T07:10:40Z</time>
      </trkpt>
      <trkpt lat="50.56397" lon="3.14535">
        <ele>36</ele>
        <time>2017-08-24T07:12:40Z</time>
      </trkpt>
      <trkpt lat="50.56399" lon="3.14547">
        <ele>36</ele>
        <time>2017-08-24T07:14:40Z</time>
      </trkpt>
      <trkpt lat="50.56403" lon="3.14582">
        <ele>36</ele>
        <time>2017-08-24T07:16:40Z</time>
      </trkpt>
      <trkpt lat="50.56406" lon="3.14596">
        <ele>36</ele>
        <time>2017-08-24T07:18:40Z</time>
      </trkpt>
      <trkpt lat="50.56422" lon="3.14646">
        <ele>35</ele>
        <time>2017-08-24T07:20:40Z</time>
      </trkpt>
      <trkpt lat="50.56459" lon="3.14753">
        <ele>36</ele>
        <time>2017-08-24T07:22:40Z</time>
      </trkpt>
      <trkpt lat="50.56461" lon="3.14757">
        <ele>36</ele>
        <time>2017-08-24T07:24:40Z</time>
      </trkpt>
      <trkpt lat="50.5649" lon="3.14838">
        <ele>36</ele>
        <time>2017-08-24T07:26:40Z</time>
      </trkpt>
      <trkpt lat="50.56552" lon="3.1501">
        <ele>38</ele>
        <time>2017-08-24T07:28:40Z</time>
      </trkpt>
      <trkpt lat="50.5667" lon="3.15331">
        <ele>38</ele>
        <time>2017-08-24T07:30:40Z</time>
      </trkpt>
      <trkpt lat="50.56752" lon="3.15551">
        <ele>38</ele>
        <time>2017-08-24T07:32:40Z</time>
      </trkpt>
      <trkpt lat="50.56763" lon="3.15582">
        <ele>38</ele>
        <time>2017-08-24T07:34:40Z</time>
      </trkpt>
      <trkpt lat="50.56767" lon="3.1559">
        <ele>38</ele>
        <time>2017-08-24T07:36:40Z</time>
      </trkpt>
      <trkpt lat="50.56769" lon="3.15594">
        <ele>38</ele>
        <time>2017-08-24T07:38:40Z</time>
      </trkpt>
      <trkpt lat="50.5677" lon="3.15595">
        <ele>38</ele>
        <time>2017-08-24T07:40:40Z</time>
      </trkpt>
      <trkpt lat="50.5677" lon="3.15595">
        <ele>38</ele>
        <time>2017-08-24T07:42:40Z</time>
      </trkpt>
      <trkpt lat="50.56758" lon="3.15615">
        <ele>38</ele>
        <time>2017-08-24T07:44:40Z</time>
      </trkpt>
      <trkpt lat="50.56754" lon="3.15621">
        <ele>38</ele>
        <time>2017-08-24T07:46:40Z</time>
      </trkpt>
      <trkpt lat="50.56749" lon="3.15627">
        <ele>39</ele>
        <time>2017-08-24T07:48:40Z</time>
      </trkpt>
      <trkpt lat="50.5672" lon="3.15669">
        <ele>39</ele>
        <time>2017-08-24T07:50:40Z</time>
      </trkpt>
      <trkpt lat="50.567" lon="3.15695">
        <ele>38</ele>
        <time>2017-08-24T07:52:40Z</time>
      </trkpt>
      <trkpt lat="50.56682" lon="3.1572">
        <ele>38</ele>
        <time>2017-08-24T07:54:40Z</time>
      </trkpt>
      <trkpt lat="50.56654" lon="3.15758">
        <ele>37</ele>
        <time>2017-08-24T07:56:40Z</time>
      </trkpt>
      <trkpt lat="50.56561" lon="3.15884">
        <ele>35</ele>
        <time>2017-08-24T07:58:40Z</time>
      </trkpt>
      <trkpt lat="50.56507" lon="3.15956">
        <ele>34</ele>
        <time>2017-08-24T08:00:40Z</time>
      </trkpt>
      <trkpt lat="50.56505" lon="3.15958">
        <ele>34</ele>
        <time>2017-08-24T08:02:40Z</time>
      </trkpt>
      <trkpt lat="50.56499" lon="3.15961">
        <ele>34</ele>
        <time>2017-08-24T08:04:40Z</time>
      </trkpt>
      <trkpt lat="50.56472" lon="3.15984">
        <ele>34</ele>
        <time>2017-08-24T08:06:40Z</time>
      </trkpt>
      <trkpt lat="50.56463" lon="3.1599">
        <ele>34</ele>
        <time>2017-08-24T08:08:40Z</time>
      </trkpt>
      <trkpt lat="50.56463" lon="3.1599">
        <ele>34</ele>
        <time>2017-08-24T08:10:40Z</time>
      </trkpt>
      <trkpt lat="50.5646" lon="3.15986">
        <ele>34</ele>
        <time>2017-08-24T08:12:40Z</time>
      </trkpt>
      <trkpt lat="50.56457" lon="3.15985">
        <ele>34</ele>
        <time>2017-08-24T08:14:40Z</time>
      </trkpt>
      <trkpt lat="50.56454" lon="3.15983">
        <ele>34</ele>
        <time>2017-08-24T08:16:40Z</time>
      </trkpt>
      <trkpt lat="50.56451" lon="3.15983">
        <ele>34</ele>
        <time>2017-08-24T08:18:40Z</time>
      </trkpt>
      <trkpt lat="50.56448" lon="3.15983">
        <ele>34</ele>
        <time>2017-08-24T08:20:40Z</time>
      </trkpt>
      <trkpt lat="50.56445" lon="3.15984">
        <ele>33</ele>
        <time>2017-08-24T08:22:40Z</time>
      </trkpt>
      <trkpt lat="50.56441" lon="3.15986">
        <ele>33</ele>
        <time>2017-08-24T08:24:40Z</time>
      </trkpt>
      <trkpt lat="50.56438" lon="3.15988">
        <ele>33</ele>
        <time>2017-08-24T08:26:40Z</time>
      </trkpt>
      <trkpt lat="50.56435" lon="3.15991">
        <ele>33</ele>
        <time>2017-08-24T08:28:40Z</time>
      </trkpt>
      <trkpt lat="50.56431" lon="3.15997">
        <ele>33</ele>
        <time>2017-08-24T08:30:40Z</time>
      </trkpt>
      <trkpt lat="50.56429" lon="3.16001">
        <ele>33</ele>
        <time>2017-08-24T08:32:40Z</time>
      </trkpt>
      <trkpt lat="50.56428" lon="3.16004">
        <ele>33</ele>
        <time>2017-08-24T08:34:40Z</time>
      </trkpt>
      <trkpt lat="50.56427" lon="3.16008">
        <ele>33</ele>
        <time>2017-08-24T08:36:40Z</time>
      </trkpt>
      <trkpt lat="50.56426" lon="3.16012">
        <ele>33</ele>
        <time>2017-08-24T08:38:40Z</time>
      </trkpt>
      <trkpt lat="50.56426" lon="3.16016">
        <ele>33</ele>
        <time>2017-08-24T08:40:40Z</time>
      </trkpt>
      <trkpt lat="50.56425" lon="3.16023">
        <ele>33</ele>
        <time>2017-08-24T08:42:40Z</time>
      </trkpt>
      <trkpt lat="50.56425" lon="3.16029">
        <ele>33</ele>
        <time>2017-08-24T08:44:40Z</time>
      </trkpt>
      <trkpt lat="50.56426" lon="3.16038">
        <ele>33</ele>
        <time>2017-08-24T08:46:40Z</time>
      </trkpt>
      <trkpt lat="50.56429" lon="3.16046">
        <ele>33</ele>
        <time>2017-08-24T08:48:40Z</time>
      </trkpt>
      <trkpt lat="50.56433" lon="3.16052">
        <ele>33</ele>
        <time>2017-08-24T08:50:40Z</time>
      </trkpt>
      <trkpt lat="50.56436" lon="3.16056">
        <ele>33</ele>
        <time>2017-08-24T08:52:40Z</time>
      </trkpt>
      <trkpt lat="50.56439" lon="3.16058">
        <ele>33</ele>
        <time>2017-08-24T08:54:40Z</time>
      </trkpt>
      <trkpt lat="50.56442" lon="3.1606">
        <ele>33</ele>
        <time>2017-08-24T08:56:40Z</time>
      </trkpt>
      <trkpt lat="50.56446" lon="3.16062">
        <ele>33</ele>
        <time>2017-08-24T08:58:40Z</time>
      </trkpt>
      <trkpt lat="50.5645" lon="3.16063">
        <ele>33</ele>
        <time>2017-08-24T09:00:40Z</time>
      </trkpt>
      <trkpt lat="50.56453" lon="3.16063">
        <ele>33</ele>
        <time>2017-08-24T09:02:40Z</time>
      </trkpt>
      <trkpt lat="50.56456" lon="3.16062">
        <ele>33</ele>
        <time>2017-08-24T09:04:40Z</time>
      </trkpt>
      <trkpt lat="50.5646" lon="3.16061">
        <ele>33</ele>
        <time>2017-08-24T09:06:40Z</time>
      </trkpt>
      <trkpt lat="50.56476" lon="3.16081">
        <ele>33</ele>
        <time>2017-08-24T09:08:40Z</time>
      </trkpt>
      <trkpt lat="50.56483" lon="3.16088">
        <ele>34</ele>
        <time>2017-08-24T09:10:40Z</time>
      </trkpt>
      <trkpt lat="50.56492" lon="3.16102">
        <ele>34</ele>
        <time>2017-08-24T09:12:40Z</time>
      </trkpt>
      <trkpt lat="50.565" lon="3.16111">
        <ele>34</ele>
        <time>2017-08-24T09:14:40Z</time>
      </trkpt>
      <trkpt lat="50.56504" lon="3.16114">
        <ele>34</ele>
        <time>2017-08-24T09:16:40Z</time>
      </trkpt>
      <trkpt lat="50.5652" lon="3.16143">
        <ele>34</ele>
        <time>2017-08-24T09:18:40Z</time>
      </trkpt>
      <trkpt lat="50.56534" lon="3.16172">
        <ele>34</ele>
        <time>2017-08-24T09:20:40Z</time>
      </trkpt>
      <trkpt lat="50.56539" lon="3.1618">
        <ele>33</ele>
        <time>2017-08-24T09:22:40Z</time>
      </trkpt>
      <trkpt lat="50.56546" lon="3.16192">
        <ele>33</ele>
        <time>2017-08-24T09:24:40Z</time>
      </trkpt>
      <trkpt lat="50.56551" lon="3.16202">
        <ele>33</ele>
        <time>2017-08-24T09:26:40Z</time>
      </trkpt>
      <trkpt lat="50.56557" lon="3.16212">
        <ele>33</ele>
        <time>2017-08-24T09:28:40Z</time>
      </trkpt>
      <trkpt lat="50.56559" lon="3.16216">
        <ele>33</ele>
        <time>2017-08-24T09:30:40Z</time>
      </trkpt>
      <trkpt lat="50.56566" lon="3.16228">
        <ele>33</ele>
        <time>2017-08-24T09:32:40Z</time>
      </trkpt>
      <trkpt lat="50.56567" lon="3.1623">
        <ele>33</ele>
        <time>2017-08-24T09:34:40Z</time>
      </trkpt>
      <trkpt lat="50.56569" lon="3.16234">
        <ele>33</ele>
        <time>2017-08-24T09:36:40Z</time>
      </trkpt>
      <trkpt lat="50.56598" lon="3.16282">
        <ele>33</ele>
        <time>2017-08-24T09:38:40Z</time>
      </trkpt>
      <trkpt lat="50.56634" lon="3.16338">
        <ele>34</ele>
        <time>2017-08-24T09:40:40Z</time>
      </trkpt>
      <trkpt lat="50.56666" lon="3.16386">
        <ele>35</ele>
        <time>2017-08-24T09:42:40Z</time>
      </trkpt>
      <trkpt lat="50.56688" lon="3.16422">
        <ele>35</ele>
        <time>2017-08-24T09:44:40Z</time>
      </trkpt>
      <trkpt lat="50.56691" lon="3.16428">
        <ele>35</ele>
        <time>2017-08-24T09:46:40Z</time>
      </trkpt>
      <trkpt lat="50.56697" lon="3.16437">
        <ele>35</ele>
        <time>2017-08-24T09:48:40Z</time>
      </trkpt>
      <trkpt lat="50.56735" lon="3.16492">
        <ele>35</ele>
        <time>2017-08-24T09:50:40Z</time>
      </trkpt>
      <trkpt lat="50.56754" lon="3.16516">
        <ele>35</ele>
        <time>2017-08-24T09:52:40Z</time>
      </trkpt>
      <trkpt lat="50.56772" lon="3.16538">
        <ele>35</ele>
        <time>2017-08-24T09:54:40Z</time>
      </trkpt>
      <trkpt lat="50.56792" lon="3.16569">
        <ele>34</ele>
        <time>2017-08-24T09:56:40Z</time>
      </trkpt>
      <trkpt lat="50.56796" lon="3.16577">
        <ele>34</ele>
        <time>2017-08-24T09:58:40Z</time>
      </trkpt>
      <trkpt lat="50.56798" lon="3.1658">
        <ele>34</ele>
        <time>2017-08-24T10:00:40Z</time>
      </trkpt>
      <trkpt lat="50.56821" lon="3.16619">
        <ele>34</ele>
        <time>2017-08-24T10:02:40Z</time>
      </trkpt>
      <trkpt lat="50.56842" lon="3.16657">
        <ele>33</ele>
        <time>2017-08-24T10:04:40Z</time>
      </trkpt>
      <trkpt lat="50.56842" lon="3.16657">
        <ele>33</ele>
        <time>2017-08-24T10:06:40Z</time>
      </trkpt>
      <trkpt lat="50.56869" lon="3.16615">
        <ele>33</ele>
        <time>2017-08-24T10:08:40Z</time>
      </trkpt>
      <trkpt lat="50.56893" lon="3.16567">
        <ele>33</ele>
        <time>2017-08-24T10:10:40Z</time>
      </trkpt>
      <trkpt lat="50.56898" lon="3.16556">
        <ele>33</ele>
        <time>2017-08-24T10:12:40Z</time>
      </trkpt>
      <trkpt lat="50.56908" lon="3.16513">
        <ele>33</ele>
        <time>2017-08-24T10:14:40Z</time>
      </trkpt>
      <trkpt lat="50.56908" lon="3.16513">
        <ele>33</ele>
        <time>2017-08-24T10:16:40Z</time>
      </trkpt>
      <trkpt lat="50.56936" lon="3.16556">
        <ele>33</ele>
        <time>2017-08-24T10:18:40Z</time>
      </trkpt>
      <trkpt lat="50.56966" lon="3.16605">
        <ele>33</ele>
        <time>2017-08-24T10:20:40Z</time>
      </trkpt>
      <trkpt lat="50.56966" lon="3.16605">
        <ele>33</ele>
        <time>2017-08-24T10:22:40Z</time>
      </trkpt>
      <trkpt lat="50.56988" lon="3.16568">
        <ele>32</ele>
        <time>2017-08-24T10:24:40Z</time>
      </trkpt>
      <trkpt lat="50.57033" lon="3.16485">
        <ele>33</ele>
        <time>2017-08-24T10:26:40Z</time>
      </trkpt>
      <trkpt lat="50.57048" lon="3.16462">
        <ele>34</ele>
        <time>2017-08-24T10:28:40Z</time>
      </trkpt>
      <trkpt lat="50.57056" lon="3.16451">
        <ele>34</ele>
        <time>2017-08-24T10:30:40Z</time>
      </trkpt>
      <trkpt lat="50.57058" lon="3.16449">
        <ele>35</ele>
        <time>2017-08-24T10:32:40Z</time>
      </trkpt>
      <trkpt lat="50.57067" lon="3.16441">
        <ele>35</ele>
        <time>2017-08-24T10:34:40Z</time>
      </trkpt>
      <trkpt lat="50.57078" lon="3.16435">
        <ele>36</ele>
        <time>2017-08-24T10:36:40Z</time>
      </trkpt>
      <trkpt lat="50.57095" lon="3.16427">
        <ele>36</ele>
        <time>2017-08-24T10:38:40Z</time>
      </trkpt>
      <trkpt lat="50.57109" lon="3.16421">
        <ele>35</ele>
        <time>2017-08-24T10:40:40Z</time>
      </trkpt>
      <trkpt lat="50.57112" lon="3.1642">
        <ele>35</ele>
        <time>2017-08-24T10:42:40Z</time>
      </trkpt>
      <trkpt lat="50.57113" lon="3.1642">
        <ele>35</ele>
        <time>2017-08-24T10:44:40Z</time>
      </trkpt>
      <trkpt lat="50.57125" lon="3.16416">
        <ele>35</ele>
        <time>2017-08-24T10:46:40Z</time>
      </trkpt>
      <trkpt lat="50.57139" lon="3.16412">
        <ele>35</ele>
        <time>2017-08-24T10:48:40Z</time>
      </trkpt>
      <trkpt lat="50.57145" lon="3.16408">
        <ele>35</ele>
        <time>2017-08-24T10:50:40Z</time>
      </trkpt>
      <trkpt lat="50.5715" lon="3.16402">
        <ele>34</ele>
        <time>2017-08-24T10:52:40Z</time>
      </trkpt>
      <trkpt lat="50.57154" lon="3.16396">
        <ele>34</ele>
        <time>2017-08-24T10:54:40Z</time>
      </trkpt>
      <trkpt lat="50.57156" lon="3.16388">
        <ele>34</ele>
        <time>2017-08-24T10:56:40Z</time>
      </trkpt>
      <trkpt lat="50.57157" lon="3.1637">
        <ele>34</ele>
        <time>2017-08-24T10:58:40Z</time>
      </trkpt>
      <trkpt lat="50.57156" lon="3.16358">
        <ele>34</ele>
        <time>2017-08-24T11:00:40Z</time>
      </trkpt>
      <trkpt lat="50.57151" lon="3.16333">
        <ele>35</ele>
        <time>2017-08-24T11:02:40Z</time>
      </trkpt>
      <trkpt lat="50.57147" lon="3.16324">
        <ele>35</ele>
        <time>2017-08-24T11:04:40Z</time>
      </trkpt>
      <trkpt lat="50.57146" lon="3.16323">
        <ele>35</ele>
        <time>2017-08-24T11:06:40Z</time>
      </trkpt>
      <trkpt lat="50.57146" lon="3.16323">
        <ele>35</ele>
        <time>2017-08-24T11:08:40Z</time>
      </trkpt>
      <trkpt lat="50.57165" lon="3.16299">
        <ele>34</ele>
        <time>2017-08-24T11:10:40Z</time>
      </trkpt>
      <trkpt lat="50.57206" lon="3.16251">
        <ele>34</ele>
        <time>2017-08-24T11:12:40Z</time>
      </trkpt>
      <trkpt lat="50.57308" lon="3.16119">
        <ele>35</ele>
        <time>2017-08-24T11:14:40Z</time>
      </trkpt>
      <trkpt lat="50.57324" lon="3.16101">
        <ele>35</ele>
        <time>2017-08-24T11:16:40Z</time>
      </trkpt>
      <trkpt lat="50.57332" lon="3.16095">
        <ele>35</ele>
        <time>2017-08-24T11:18:40Z</time>
      </trkpt>
      <trkpt lat="50.57355" lon="3.16082">
        <ele>35</ele>
        <time>2017-08-24T11:20:40Z</time>
      </trkpt>
      <trkpt lat="50.57385" lon="3.16067">
        <ele>36</ele>
        <time>2017-08-24T11:22:40Z</time>
      </trkpt>
      <trkpt lat="50.57398" lon="3.16059">
        <ele>36</ele>
        <time>2017-08-24T11:24:40Z</time>
      </trkpt>
      <trkpt lat="50.57409" lon="3.16051">
        <ele>36</ele>
        <time>2017-08-24T11:26:40Z</time>
      </trkpt>
      <trkpt lat="50.57442" lon="3.16019">
        <ele>36</ele>
        <time>2017-08-24T11:28:40Z</time>
      </trkpt>
      <trkpt lat="50.57464" lon="3.15993">
        <ele>36</ele>
        <time>2017-08-24T11:30:40Z</time>
      </trkpt>
      <trkpt lat="50.57466" lon="3.15991">
        <ele>36</ele>
        <time>2017-08-24T11:32:40Z</time>
      </trkpt>
      <trkpt lat="50.57481" lon="3.15967">
        <ele>36</ele>
        <time>2017-08-24T11:34:40Z</time>
      </trkpt>
      <trkpt lat="50.57503" lon="3.15927">
        <ele>36</ele>
        <time>2017-08-24T11:36:40Z</time>
      </trkpt>
      <trkpt lat="50.5754" lon="3.15859">
        <ele>36</ele>
        <time>2017-08-24T11:38:40Z</time>
      </trkpt>
      <trkpt lat="50.57573" lon="3.15794">
        <ele>37</ele>
        <time>2017-08-24T11:40:40Z</time>
      </trkpt>
      <trkpt lat="50.57634" lon="3.15692">
        <ele>37</ele>
        <time>2017-08-24T11:42:40Z</time>
      </trkpt>
      <trkpt lat="50.57712" lon="3.15551">
        <ele>38</ele>
        <time>2017-08-24T11:44:40Z</time>
      </trkpt>
      <trkpt lat="50.57753" lon="3.1548">
        <ele>39</ele>
        <time>2017-08-24T11:46:40Z</time>
      </trkpt>
      <trkpt lat="50.57796" lon="3.15414">
        <ele>39</ele>
        <time>2017-08-24T11:48:40Z</time>
      </trkpt>
      <trkpt lat="50.57858" lon="3.15322">
        <ele>40</ele>
        <time>2017-08-24T11:50:40Z</time>
      </trkpt>
      <trkpt lat="50.57904" lon="3.15244">
        <ele>42</ele>
        <time>2017-08-24T11:52:40Z</time>
      </trkpt>
      <trkpt lat="50.57936" lon="3.15177">
        <ele>44</ele>
        <time>2017-08-24T11:54:40Z</time>
      </trkpt>
      <trkpt lat="50.57941" lon="3.1517">
        <ele>44</ele>
        <time>2017-08-24T11:56:40Z</time>
      </trkpt>
      <trkpt lat="50.57956" lon="3.15162">
        <ele>44</ele>
        <time>2017-08-24T11:58:40Z</time>
      </trkpt>
      <trkpt lat="50.57993" lon="3.15151">
        <ele>46</ele>
        <time>2017-08-24T12:00:40Z</time>
      </trkpt>
      <trkpt lat="50.58046" lon="3.15137">
        <ele>47</ele>
        <time>2017-08-24T12:02:40Z</time>
      </trkpt>
      <trkpt lat="50.58056" lon="3.15135">
        <ele>47</ele>
        <time>2017-08-24T12:04:40Z</time>
      </trkpt>
      <trkpt lat="50.5806" lon="3.15135">
        <ele>47</ele>
        <time>2017-08-24T12:06:40Z</time>
      </trkpt>
      <trkpt lat="50.58064" lon="3.15139">
        <ele>48</ele>
        <time>2017-08-24T12:08:40Z</time>
      </trkpt>
      <trkpt lat="50.58086" lon="3.15169">
        <ele>48</ele>
        <time>2017-08-24T12:10:40Z</time>
      </trkpt>
      <trkpt lat="50.58104" lon="3.15194">
        <ele>48</ele>
        <time>2017-08-24T12:12:40Z</time>
      </trkpt>
      <trkpt lat="50.58104" lon="3.15194">
        <ele>48</ele>
        <time>2017-08-24T12:14:40Z</time>
      </trkpt>
      <trkpt lat="50.58109" lon="3.15202">
        <ele>49</ele>
        <time>2017-08-24T12:16:40Z</time>
      </trkpt>
      <trkpt lat="50.58152" lon="3.15267">
        <ele>50</ele>
        <time>2017-08-24T12:18:40Z</time>
      </trkpt>
      <trkpt lat="50.58174" lon="3.15305">
        <ele>51</ele>
        <time>2017-08-24T12:20:40Z</time>
      </trkpt>
      <trkpt lat="50.58183" lon="3.15319">
        <ele>51</ele>
        <time>2017-08-24T12:22:40Z</time>
      </trkpt>
      <trkpt lat="50.58185" lon="3.15323">
        <ele>51</ele>
        <time>2017-08-24T12:24:40Z</time>
      </trkpt>
      <trkpt lat="50.58185" lon="3.15323">
        <ele>51</ele>
        <time>2017-08-24T12:26:40Z</time>
      </trkpt>
      <trkpt lat="50.58195" lon="3.15337">
        <ele>51</ele>
        <time>2017-08-24T12:28:40Z</time>
      </trkpt>
      <trkpt lat="50.58221" lon="3.1538">
        <ele>51</ele>
        <time>2017-08-24T12:30:40Z</time>
      </trkpt>
      <trkpt lat="50.58256" lon="3.15453">
        <ele>50</ele>
        <time>2017-08-24T12:32:40Z</time>
      </trkpt>
      <trkpt lat="50.58301" lon="3.15548">
        <ele>48</ele>
        <time>2017-08-24T12:34:40Z</time>
      </trkpt>
      <trkpt lat="50.5834" lon="3.15639">
        <ele>46</ele>
        <time>2017-08-24T12:36:40Z</time>
      </trkpt>
      <trkpt lat="50.58393" lon="3.15757">
        <ele>43</ele>
        <time>2017-08-24T12:38:40Z</time>
      </trkpt>
      <trkpt lat="50.58414" lon="3.15802">
        <ele>42</ele>
        <time>2017-08-24T12:40:40Z</time>
      </trkpt>
      <trkpt lat="50.5842" lon="3.15817">
        <ele>41</ele>
        <time>2017-08-24T12:42:40Z</time>
      </trkpt>
      <trkpt lat="50.58462" lon="3.15911">
        <ele>40</ele>
        <time>2017-08-24T12:44:40Z</time>
      </trkpt>
      <trkpt lat="50.58462" lon="3.15911">
        <ele>40</ele>
        <time>2017-08-24T12:46:40Z</time>
      </trkpt>
      <trkpt lat="50.58445" lon="3.15919">
        <ele>41</ele>
        <time>2017-08-24T12:48:40Z</time>
      </trkpt>
      <trkpt lat="50.58429" lon="3.15928">
        <ele>41</ele>
        <time>2017-08-24T12:50:40Z</time>
      </trkpt>
      <trkpt lat="50.5839" lon="3.16014">
        <ele>43</ele>
        <time>2017-08-24T12:52:40Z</time>
      </trkpt>
      <trkpt lat="50.58351" lon="3.16096">
        <ele>44</ele>
        <time>2017-08-24T12:54:40Z</time>
      </trkpt>
      <trkpt lat="50.58332" lon="3.16138">
        <ele>44</ele>
        <time>2017-08-24T12:56:40Z</time>
      </trkpt>
      <trkpt lat="50.58308" lon="3.1619">
        <ele>44</ele>
        <time>2017-08-24T12:58:40Z</time>
      </trkpt>
      <trkpt lat="50.58306" lon="3.16193">
        <ele>44</ele>
        <time>2017-08-24T13:00:40Z</time>
      </trkpt>
      <trkpt lat="50.58305" lon="3.16194">
        <ele>44</ele>
        <time>2017-08-24T13:02:40Z</time>
      </trkpt>
      <trkpt lat="50.58304" lon="3.16194">
        <ele>44</ele>
        <time>2017-08-24T13:04:40Z</time>
      </trkpt>
      <trkpt lat="50.58303" lon="3.16194">
        <ele>44</ele>
        <time>2017-08-24T13:06:40Z</time>
      </trkpt>
      <trkpt lat="50.58301" lon="3.16194">
        <ele>44</ele>
        <time>2017-08-24T13:08:40Z</time>
      </trkpt>
      <trkpt lat="50.58299" lon="3.16193">
        <ele>45</ele>
        <time>2017-08-24T13:10:40Z</time>
      </trkpt>
      <trkpt lat="50.58291" lon="3.16187">
        <ele>45</ele>
        <time>2017-08-24T13:12:40Z</time>
      </trkpt>
      <trkpt lat="50.58279" lon="3.16173">
        <ele>45</ele>
        <time>2017-08-24T13:14:40Z</time>
      </trkpt>
      <trkpt lat="50.58275" lon="3.16172">
        <ele>45</ele>
        <time>2017-08-24T13:16:40Z</time>
      </trkpt>
      <trkpt lat="50.58273" lon="3.16173">
        <ele>45</ele>
        <time>2017-08-24T13:18:40Z</time>
      </trkpt>
      <trkpt lat="50.58272" lon="3.16174">
        <ele>45</ele>
        <time>2017-08-24T13:20:40Z</time>
      </trkpt>
      <trkpt lat="50.58269" lon="3.16179">
        <ele>45</ele>
        <time>2017-08-24T13:22:40Z</time>
      </trkpt>
      <trkpt lat="50.58254" lon="3.1621">
        <ele>45</ele>
        <time>2017-08-24T13:24:40Z</time>
      </trkpt>
      <trkpt lat="50.58232" lon="3.16259">
        <ele>45</ele>
        <time>2017-08-24T13:26:40Z</time>
      </trkpt>
      <trkpt lat="50.58172" lon="3.16385">
        <ele>44</ele>
        <time>2017-08-24T13:28:40Z</time>
      </trkpt>
      <trkpt lat="50.58122" lon="3.16492">
        <ele>44</ele>
        <time>2017-08-24T13:30:40Z</time>
      </trkpt>
      <trkpt lat="50.58095" lon="3.1655">
        <ele>44</ele>
        <time>2017-08-24T13:32:40Z</time>
      </trkpt>
      <trkpt lat="50.58089" lon="3.16568">
        <ele>44</ele>
        <time>2017-08-24T13:34:40Z</time>
      </trkpt>
      <trkpt lat="50.58089" lon="3.16568">
        <ele>44</ele>
        <time>2017-08-24T13:36:40Z</time>
      </trkpt>
      <trkpt lat="50.58071" lon="3.16555">
        <ele>44</ele>
        <time>2017-08-24T13:38:40Z</time>
      </trkpt>
      <trkpt lat="50.58054" lon="3.16544">
        <ele>44</ele>
        <time>2017-08-24T13:40:40Z</time>
      </trkpt>
      <trkpt lat="50.57993" lon="3.16509">
        <ele>44</ele>
        <time>2017-08-24T13:42:40Z</time>
      </trkpt>
      <trkpt lat="50.57966" lon="3.16495">
        <ele>44</ele>
        <time>2017-08-24T13:44:40Z</time>
      </trkpt>
      <trkpt lat="50.57925" lon="3.16473">
        <ele>43</ele>
        <time>2017-08-24T13:46:40Z</time>
      </trkpt>
      <trkpt lat="50.57844" lon="3.16429">
        <ele>40</ele>
        <time>2017-08-24T13:48:40Z</time>
      </trkpt>
      <trkpt lat="50.578" lon="3.16519">
        <ele>37</ele>
        <time>2017-08-24T13:50:40Z</time>
      </trkpt>
      <trkpt lat="50.57757" lon="3.16621">
        <ele>36</ele>
        <time>2017-08-24T13:52:40Z</time>
      </trkpt>
      <trkpt lat="50.57716" lon="3.16719">
        <ele>36</ele>
        <time>2017-08-24T13:54:40Z</time>
      </trkpt>
      <trkpt lat="50.57692" lon="3.16775">
        <ele>35</ele>
        <time>2017-08-24T13:56:40Z</time>
      </trkpt>
      <trkpt lat="50.57691" lon="3.16778">
        <ele>35</ele>
        <time>2017-08-24T13:58:40Z</time>
      </trkpt>
      <trkpt lat="50.57611" lon="3.16971">
        <ele>31</ele>
        <time>2017-08-24T14:00:40Z</time>
      </trkpt>
      <trkpt lat="50.57609" lon="3.16982">
        <ele>31</ele>
        <time>2017-08-24T14:02:40Z</time>
      </trkpt>
      <trkpt lat="50.5761" lon="3.16985">
        <ele>31</ele>
        <time>2017-08-24T14:04:40Z</time>
      </trkpt>
      <trkpt lat="50.57611" lon="3.1699">
        <ele>31</ele>
        <time>2017-08-24T14:06:40Z</time>
      </trkpt>
      <trkpt lat="50.57619" lon="3.16998">
        <ele>31</ele>
        <time>2017-08-24T14:08:40Z</time>
      </trkpt>
      <trkpt lat="50.5763" lon="3.17013">
        <ele>30</ele>
        <time>2017-08-24T14:10:40Z</time>
      </trkpt>
      <trkpt lat="50.57762" lon="3.17194">
        <ele>30</ele>
        <time>2017-08-24T14:12:40Z</time>
      </trkpt>
      <trkpt lat="50.57844" lon="3.17303">
        <ele>29</ele>
        <time>2017-08-24T14:14:40Z</time>
      </trkpt>
      <trkpt lat="50.57988" lon="3.17508">
        <ele>28</ele>
        <time>2017-08-24T14:16:40Z</time>
      </trkpt>
      <trkpt lat="50.58013" lon="3.17542">
        <ele>28</ele>
        <time>2017-08-24T14:18:40Z</time>
      </trkpt>
      <trkpt lat="50.58026" lon="3.17562">
        <ele>29</ele>
        <time>2017-08-24T14:20:40Z</time>
      </trkpt>
      <trkpt lat="50.58035" lon="3.17576">
        <ele>29</ele>
        <time>2017-08-24T14:22:40Z</time>
      </trkpt>
      <trkpt lat="50.58038" lon="3.17583">
        <ele>29</ele>
        <time>2017-08-24T14:24:40Z</time>
      </trkpt>
      <trkpt lat="50.58041" lon="3.17591">
        <ele>29</ele>
        <time>2017-08-24T14:26:40Z</time>
      </trkpt>
      <trkpt lat="50.58041" lon="3.17591">
        <ele>29</ele>
        <time>2017-08-24T14:28:40Z</time>
      </trkpt>
      <trkpt lat="50.58049" lon="3.17585">
        <ele>29</ele>
        <time>2017-08-24T14:30:40Z</time>
      </trkpt>
      <trkpt lat="50.58053" lon="3.17582">
        <ele>29</ele>
        <time>2017-08-24T14:32:40Z</time>
      </trkpt>
      <trkpt lat="50.58059" lon="3.17579">
        <ele>29</ele>
        <time>2017-08-24T14:34:40Z</time>
      </trkpt>
      <trkpt lat="50.58065" lon="3.17576">
        <ele>30</ele>
        <time>2017-08-24T14:36:40Z</time>
      </trkpt>
      <trkpt lat="50.58073" lon="3.17575">
        <ele>30</ele>
        <time>2017-08-24T14:38:40Z</time>
      </trkpt>
      <trkpt lat="50.5808" lon="3.17576">
        <ele>30</ele>
        <time>2017-08-24T14:40:40Z</time>
      </trkpt>
      <trkpt lat="50.58084" lon="3.17577">
        <ele>30</ele>
        <time>2017-08-24T14:42:40Z</time>
      </trkpt>
      <trkpt lat="50.58087" lon="3.17579">
        <ele>30</ele>
        <time>2017-08-24T14:44:40Z</time>
      </trkpt>
      <trkpt lat="50.58092" lon="3.17581">
        <ele>30</ele>
        <time>2017-08-24T14:46:40Z</time>
      </trkpt>
      <trkpt lat="50.58095" lon="3.17584">
        <ele>30</ele>
        <time>2017-08-24T14:48:40Z</time>
      </trkpt>
      <trkpt lat="50.58098" lon="3.17588">
        <ele>30</ele>
        <time>2017-08-24T14:50:40Z</time>
      </trkpt>
      <trkpt lat="50.58102" lon="3.17593">
        <ele>30</ele>
        <time>2017-08-24T14:52:40Z</time>
      </trkpt>
      <trkpt lat="50.58102" lon="3.17593">
        <ele>30</ele>
        <time>2017-08-24T14:54:40Z</time>
      </trkpt>
      <trkpt lat="50.58102" lon="3.17597">
        <ele>30</ele>
        <time>2017-08-24T14:56:40Z</time>
      </trkpt>
      <trkpt lat="50.58103" lon="3.176">
        <ele>30</ele>
        <time>2017-08-24T14:58:40Z</time>
      </trkpt>
      <trkpt lat="50.58105" lon="3.17603">
        <ele>30</ele>
        <time>2017-08-24T15:00:40Z</time>
      </trkpt>
      <trkpt lat="50.58108" lon="3.17607">
        <ele>30</ele>
        <time>2017-08-24T15:02:40Z</time>
      </trkpt>
      <trkpt lat="50.5811" lon="3.17608">
        <ele>30</ele>
        <time>2017-08-24T15:04:40Z</time>
      </trkpt>
      <trkpt lat="50.58111" lon="3.17609">
        <ele>30</ele>
        <time>2017-08-24T15:06:40Z</time>
      </trkpt>
      <trkpt lat="50.58113" lon="3.1761">
        <ele>30</ele>
        <time>2017-08-24T15:08:40Z</time>
      </trkpt>
      <trkpt lat="50.58115" lon="3.1761">
        <ele>30</ele>
        <time>2017-08-24T15:10:40Z</time>
      </trkpt>
      <trkpt lat="50.58116" lon="3.1761">
        <ele>30</ele>
        <time>2017-08-24T15:12:40Z</time>
      </trkpt>
      <trkpt lat="50.58118" lon="3.17609">
        <ele>31</ele>
        <time>2017-08-24T15:14:40Z</time>
      </trkpt>
      <trkpt lat="50.58119" lon="3.17609">
        <ele>31</ele>
        <time>2017-08-24T15:16:40Z</time>
      </trkpt>
      <trkpt lat="50.5812" lon="3.17607">
        <ele>31</ele>
        <time>2017-08-24T15:18:40Z</time>
      </trkpt>
      <trkpt lat="50.58122" lon="3.17605">
        <ele>31</ele>
        <time>2017-08-24T15:20:40Z</time>
      </trkpt>
      <trkpt lat="50.58123" lon="3.17602">
        <ele>31</ele>
        <time>2017-08-24T15:22:40Z</time>
      </trkpt>
      <trkpt lat="50.58126" lon="3.17603">
        <ele>31</ele>
        <time>2017-08-24T15:24:40Z</time>
      </trkpt>
      <trkpt lat="50.58127" lon="3.17604">
        <ele>31</ele>
        <time>2017-08-24T15:26:40Z</time>
      </trkpt>
      <trkpt lat="50.5813" lon="3.17607">
        <ele>31</ele>
        <time>2017-08-24T15:28:40Z</time>
      </trkpt>
      <trkpt lat="50.58132" lon="3.17612">
        <ele>31</ele>
        <time>2017-08-24T15:30:40Z</time>
      </trkpt>
      <trkpt lat="50.58135" lon="3.17621">
        <ele>31</ele>
        <time>2017-08-24T15:32:40Z</time>
      </trkpt>
      <trkpt lat="50.58135" lon="3.17621">
        <ele>31</ele>
        <time>2017-08-24T15:34:40Z</time>
      </trkpt>
      <trkpt lat="50.58136" lon="3.17628">
        <ele>31</ele>
        <time>2017-08-24T15:36:40Z</time>
      </trkpt>
      <trkpt lat="50.58136" lon="3.17635">
        <ele>31</ele>
        <time>2017-08-24T15:38:40Z</time>
      </trkpt>
      <trkpt lat="50.58135" lon="3.17651">
        <ele>30</ele>
        <time>2017-08-24T15:40:40Z</time>
      </trkpt>
      <trkpt lat="50.58133" lon="3.1767">
        <ele>30</ele>
        <time>2017-08-24T15:42:40Z</time>
      </trkpt>
      <trkpt lat="50.58131" lon="3.17703">
        <ele>30</ele>
        <time>2017-08-24T15:44:40Z</time>
      </trkpt>
      <trkpt lat="50.58129" lon="3.17723">
        <ele>29</ele>
        <time>2017-08-24T15:46:40Z</time>
      </trkpt>
      <trkpt lat="50.58127" lon="3.17735">
        <ele>29</ele>
        <time>2017-08-24T15:48:40Z</time>
      </trkpt>
      <trkpt lat="50.58124" lon="3.17745">
        <ele>29</ele>
        <time>2017-08-24T15:50:40Z</time>
      </trkpt>
      <trkpt lat="50.58117" lon="3.17757">
        <ele>29</ele>
        <time>2017-08-24T15:52:40Z</time>
      </trkpt>
      <trkpt lat="50.58108" lon="3.17765">
        <ele>28</ele>
        <time>2017-08-24T15:54:40Z</time>
      </trkpt>
      <trkpt lat="50.5809" lon="3.17779">
        <ele>28</ele>
        <time>2017-08-24T15:56:40Z</time>
      </trkpt>
      <trkpt lat="50.58076" lon="3.17789">
        <ele>27</ele>
        <time>2017-08-24T15:58:40Z</time>
      </trkpt>
      <trkpt lat="50.58064" lon="3.178">
        <ele>27</ele>
        <time>2017-08-24T16:00:40Z</time>
      </trkpt>
      <trkpt lat="50.58049" lon="3.1782">
        <ele>27</ele>
        <time>2017-08-24T16:02:40Z</time>
      </trkpt>
      <trkpt lat="50.58041" lon="3.17832">
        <ele>27</ele>
        <time>2017-08-24T16:04:40Z</time>
      </trkpt>
      <trkpt lat="50.58035" lon="3.17842">
        <ele>27</ele>
        <time>2017-08-24T16:06:40Z</time>
      </trkpt>
      <trkpt lat="50.58035" lon="3.17842">
        <ele>27</ele>
        <time>2017-08-24T16:08:40Z</time>
      </trkpt>
      <trkpt lat="50.58041" lon="3.17856">
        <ele>27</ele>
        <time>2017-08-24T16:10:40Z</time>
      </trkpt>
      <trkpt lat="50.58052" lon="3.17894">
        <ele>27</ele>
        <time>2017-08-24T16:12:40Z</time>
      </trkpt>
      <trkpt lat="50.5807" lon="3.17959">
        <ele>26</ele>
        <time>2017-08-24T16:14:40Z</time>
      </trkpt>
      <trkpt lat="50.58094" lon="3.18043">
        <ele>25</ele>
        <time>2017-08-24T16:16:40Z</time>
      </trkpt>
      <trkpt lat="50.58103" lon="3.18075">
        <ele>26</ele>
        <time>2017-08-24T16:18:40Z</time>
      </trkpt>
      <trkpt lat="50.58111" lon="3.18105">
        <ele>26</ele>
        <time>2017-08-24T16:20:40Z</time>
      </trkpt>
      <trkpt lat="50.58111" lon="3.18105">
        <ele>26</ele>
        <time>2017-08-24T16:22:40Z</time>
      </trkpt>
      <trkpt lat="50.58074" lon="3.1812">
        <ele>27</ele>
        <time>2017-08-24T16:24:40Z</time>
      </trkpt>
      <trkpt lat="50.5803" lon="3.18142">
        <ele>27</ele>
        <time>2017-08-24T16:26:40Z</time>
      </trkpt>
      <trkpt lat="50.58027" lon="3.18144">
        <ele>27</ele>
        <time>2017-08-24T16:28:40Z</time>
      </trkpt>
      <trkpt lat="50.57993" lon="3.18159">
        <ele>28</ele>
        <time>2017-08-24T16:30:40Z</time>
      </trkpt>
      <trkpt lat="50.57961" lon="3.18178">
        <ele>29</ele>
        <time>2017-08-24T16:32:40Z</time>
      </trkpt>
      <trkpt lat="50.57951" lon="3.18181">
        <ele>29</ele>
        <time>2017-08-24T16:34:40Z</time>
      </trkpt>
      <trkpt lat="50.57932" lon="3.18186">
        <ele>29</ele>
        <time>2017-08-24T16:36:40Z</time>
      </trkpt>
      <trkpt lat="50.57932" lon="3.18186">
        <ele>29</ele>
        <time>2017-08-24T16:38:40Z</time>
      </trkpt>
      <trkpt lat="50.57934" lon="3.18195">
        <ele>29</ele>
        <time>2017-08-24T16:40:40Z</time>
      </trkpt>
      <trkpt lat="50.57936" lon="3.18206">
        <ele>29</ele>
        <time>2017-08-24T16:42:40Z</time>
      </trkpt>
      <trkpt lat="50.57938" lon="3.18217">
        <ele>30</ele>
        <time>2017-08-24T16:44:40Z</time>
      </trkpt>
      <trkpt lat="50.5795" lon="3.1827">
        <ele>30</ele>
        <time>2017-08-24T16:46:40Z</time>
      </trkpt>
      <trkpt lat="50.57951" lon="3.1828">
        <ele>31</ele>
        <time>2017-08-24T16:48:40Z</time>
      </trkpt>
      <trkpt lat="50.57952" lon="3.18284">
        <ele>31</ele>
        <time>2017-08-24T16:50:40Z</time>
      </trkpt>
      <trkpt lat="50.57952" lon="3.18295">
        <ele>31</ele>
        <time>2017-08-24T16:52:40Z</time>
      </trkpt>
      <trkpt lat="50.57952" lon="3.18295">
        <ele>31</ele>
        <time>2017-08-24T16:54:40Z</time>
      </trkpt>
      <trkpt lat="50.57958" lon="3.18293">
        <ele>31</ele>
        <time>2017-08-24T16:56:40Z</time>
      </trkpt>
      <trkpt lat="50.57964" lon="3.18291">
        <ele>31</ele>
        <time>2017-08-24T16:58:40Z</time>
      </trkpt>
      <trkpt lat="50.57968" lon="3.18291">
        <ele>31</ele>
        <time>2017-08-24T17:00:40Z</time>
      </trkpt>
      <trkpt lat="50.57994" lon="3.1829">
        <ele>31</ele>
        <time>2017-08-24T17:02:40Z</time>
      </trkpt>
      <trkpt lat="50.58008" lon="3.1829">
        <ele>31</ele>
        <time>2017-08-24T17:04:40Z</time>
      </trkpt>
      <trkpt lat="50.58017" lon="3.18288">
        <ele>31</ele>
        <time>2017-08-24T17:06:40Z</time>
      </trkpt>
      <trkpt lat="50.58026" lon="3.18287">
        <ele>31</ele>
        <time>2017-08-24T17:08:40Z</time>
      </trkpt>
      <trkpt lat="50.58036" lon="3.18287">
        <ele>30</ele>
        <time>2017-08-24T17:10:40Z</time>
      </trkpt>
      <trkpt lat="50.58048" lon="3.18286">
        <ele>30</ele>
        <time>2017-08-24T17:12:40Z</time>
      </trkpt>
      <trkpt lat="50.58048" lon="3.18286">
        <ele>30</ele>
        <time>2017-08-24T17:14:40Z</time>
      </trkpt>
      <trkpt lat="50.58049" lon="3.183">
        <ele>31</ele>
        <time>2017-08-24T17:16:40Z</time>
      </trkpt>
      <trkpt lat="50.58049" lon="3.18323">
        <ele>31</ele>
        <time>2017-08-24T17:18:40Z</time>
      </trkpt>
      <trkpt lat="50.5805" lon="3.18338">
        <ele>31</ele>
        <time>2017-08-24T17:20:40Z</time>
      </trkpt>
      <trkpt lat="50.58049" lon="3.1835">
        <ele>32</ele>
        <time>2017-08-24T17:22:40Z</time>
      </trkpt>
      <trkpt lat="50.58047" lon="3.18364">
        <ele>32</ele>
        <time>2017-08-24T17:24:40Z</time>
      </trkpt>
      <trkpt lat="50.58046" lon="3.18375">
        <ele>32</ele>
        <time>2017-08-24T17:26:40Z</time>
      </trkpt>
      <trkpt lat="50.58044" lon="3.18395">
        <ele>33</ele>
        <time>2017-08-24T17:28:40Z</time>
      </trkpt>
      <trkpt lat="50.58044" lon="3.18395">
        <ele>33</ele>
        <time>2017-08-24T17:30:40Z</time>
      </trkpt>
      <trkpt lat="50.58044" lon="3.18397">
        <ele>33</ele>
        <time>2017-08-24T17:32:40Z</time>
      </trkpt>
      <trkpt lat="50.58044" lon="3.18403">
        <ele>33</ele>
        <time>2017-08-24T17:34:40Z</time>
      </trkpt>
      <trkpt lat="50.58042" lon="3.18417">
        <ele>33</ele>
        <time>2017-08-24T17:36:40Z</time>
      </trkpt>
      <trkpt lat="50.58042" lon="3.18442">
        <ele>34</ele>
        <time>2017-08-24T17:38:40Z</time>
      </trkpt>
      <trkpt lat="50.58042" lon="3.18448">
        <ele>34</ele>
        <time>2017-08-24T17:40:40Z</time>
      </trkpt>
      <trkpt lat="50.5804" lon="3.18462">
        <ele>34</ele>
        <time>2017-08-24T17:42:40Z</time>
      </trkpt>
      <trkpt lat="50.5804" lon="3.18462">
        <ele>34</ele>
        <time>2017-08-24T17:44:40Z</time>
      </trkpt>
      <trkpt lat="50.58049" lon="3.18464">
        <ele>34</ele>
        <time>2017-08-24T17:46:40Z</time>
      </trkpt>
      <trkpt lat="50.58068" lon="3.18468">
        <ele>34</ele>
        <time>2017-08-24T17:48:40Z</time>
      </trkpt>
      <trkpt lat="50.58068" lon="3.18468">
        <ele>34</ele>
        <time>2017-08-24T17:50:40Z</time>
      </trkpt>
      <trkpt lat="50.58107" lon="3.18477">
        <ele>34</ele>
        <time>2017-08-24T17:52:40Z</time>
      </trkpt>
      <trkpt lat="50.58119" lon="3.18479">
        <ele>34</ele>
        <time>2017-08-24T17:54:40Z</time>
      </trkpt>
      <trkpt lat="50.58171" lon="3.18487">
        <ele>33</ele>
        <time>2017-08-24T17:56:40Z</time>
      </trkpt>
      <trkpt lat="50.58191" lon="3.18492">
        <ele>32</ele>
        <time>2017-08-24T17:58:40Z</time>
      </trkpt>
      <trkpt lat="50.58244" lon="3.18502">
        <ele>31</ele>
        <time>2017-08-24T18:00:40Z</time>
      </trkpt>
      <trkpt lat="50.58259" lon="3.18505">
        <ele>31</ele>
        <time>2017-08-24T18:02:40Z</time>
      </trkpt>
      <trkpt lat="50.58284" lon="3.18511">
        <ele>31</ele>
        <time>2017-08-24T18:04:40Z</time>
      </trkpt>
      <trkpt lat="50.58299" lon="3.18514">
        <ele>31</ele>
        <time>2017-08-24T18:06:40Z</time>
      </trkpt>
      <trkpt lat="50.58322" lon="3.18526">
        <ele>30</ele>
        <time>2017-08-24T18:08:40Z</time>
      </trkpt>
      <trkpt lat="50.58401" lon="3.18579">
        <ele>31</ele>
        <time>2017-08-24T18:10:40Z</time>
      </trkpt>
      <trkpt lat="50.58401" lon="3.18579">
        <ele>31</ele>
        <time>2017-08-24T18:12:40Z</time>
      </trkpt>
      <trkpt lat="50.58399" lon="3.18583">
        <ele>31</ele>
        <time>2017-08-24T18:14:40Z</time>
      </trkpt>
      <trkpt lat="50.58386" lon="3.18619">
        <ele>31</ele>
        <time>2017-08-24T18:16:40Z</time>
      </trkpt>
      <trkpt lat="50.58381" lon="3.18631">
        <ele>31</ele>
        <time>2017-08-24T18:18:40Z</time>
      </trkpt>
      <trkpt lat="50.58375" lon="3.18652">
        <ele>31</ele>
        <time>2017-08-24T18:20:40Z</time>
      </trkpt>
      <trkpt lat="50.58351" lon="3.18702">
        <ele>31</ele>
        <time>2017-08-24T18:22:40Z</time>
      </trkpt>
      <trkpt lat="50.58347" lon="3.18711">
        <ele>31</ele>
        <time>2017-08-24T18:24:40Z</time>
      </trkpt>
      <trkpt lat="50.58344" lon="3.18718">
        <ele>31</ele>
        <time>2017-08-24T18:26:40Z</time>
      </trkpt>
      <trkpt lat="50.58341" lon="3.18724">
        <ele>31</ele>
        <time>2017-08-24T18:28:40Z</time>
      </trkpt>
      <trkpt lat="50.58338" lon="3.18731">
        <ele>31</ele>
        <time>2017-08-24T18:30:40Z</time>
      </trkpt>
      <trkpt lat="50.58334" lon="3.18737">
        <ele>31</ele>
        <time>2017-08-24T18:32:40Z</time>
      </trkpt>
      <trkpt lat="50.5833" lon="3.18741">
        <ele>31</ele>
        <time>2017-08-24T18:34:40Z</time>
      </trkpt>
      <trkpt lat="50.58325" lon="3.18745">
        <ele>31</ele>
        <time>2017-08-24T18:36:40Z</time>
      </trkpt>
      <trkpt lat="50.58313" lon="3.18754">
        <ele>31</ele>
        <time>2017-08-24T18:38:40Z</time>
      </trkpt>
      <trkpt lat="50.5831" lon="3.18756">
        <ele>31</ele>
        <time>2017-08-24T18:40:40Z</time>
      </trkpt>
      <trkpt lat="50.58308" lon="3.18758">
        <ele>31</ele>
        <time>2017-08-24T18:42:40Z</time>
      </trkpt>
      <trkpt lat="50.58284" lon="3.18774">
        <ele>31</ele>
        <time>2017-08-24T18:44:40Z</time>
      </trkpt>
      <trkpt lat="50.58278" lon="3.18779">
        <ele>32</ele>
        <time>2017-08-24T18:46:40Z</time>
      </trkpt>
      <trkpt lat="50.58228" lon="3.18818">
        <ele>32</ele>
        <time>2017-08-24T18:48:40Z</time>
      </trkpt>
      <trkpt lat="50.58193" lon="3.18847">
        <ele>33</ele>
        <time>2017-08-24T18:50:40Z</time>
      </trkpt>
      <trkpt lat="50.58179" lon="3.18866">
        <ele>34</ele>
        <time>2017-08-24T18:52:40Z</time>
      </trkpt>
      <trkpt lat="50.58175" lon="3.18874">
        <ele>34</ele>
        <time>2017-08-24T18:54:40Z</time>
      </trkpt>
      <trkpt lat="50.58171" lon="3.18881">
        <ele>34</ele>
        <time>2017-08-24T18:56:40Z</time>
      </trkpt>
      <trkpt lat="50.5817" lon="3.18883">
        <ele>34</ele>
        <time>2017-08-24T18:58:40Z</time>
      </trkpt>
      <trkpt lat="50.58166" lon="3.18888">
        <ele>34</ele>
        <time>2017-08-24T19:00:40Z</time>
      </trkpt>
      <trkpt lat="50.58166" lon="3.18888">
        <ele>34</ele>
        <time>2017-08-24T19:02:40Z</time>
      </trkpt>
      <trkpt lat="50.58164" lon="3.18887">
        <ele>34</ele>
        <time>2017-08-24T19:04:40Z</time>
      </trkpt>
      <trkpt lat="50.58163" lon="3.18886">
        <ele>34</ele>
        <time>2017-08-24T19:06:40Z</time>
      </trkpt>
      <trkpt lat="50.58162" lon="3.18885">
        <ele>34</ele>
        <time>2017-08-24T19:08:40Z</time>
      </trkpt>
      <trkpt lat="50.58161" lon="3.18884">
        <ele>34</ele>
        <time>2017-08-24T19:10:40Z</time>
      </trkpt>
      <trkpt lat="50.58157" lon="3.18882">
        <ele>34</ele>
        <time>2017-08-24T19:12:40Z</time>
      </trkpt>
      <trkpt lat="50.58131" lon="3.18866">
        <ele>35</ele>
        <time>2017-08-24T19:14:40Z</time>
      </trkpt>
      <trkpt lat="50.58093" lon="3.18844">
        <ele>36</ele>
        <time>2017-08-24T19:16:40Z</time>
      </trkpt>
      <trkpt lat="50.58069" lon="3.1883">
        <ele>36</ele>
        <time>2017-08-24T19:18:40Z</time>
      </trkpt>
      <trkpt lat="50.58062" lon="3.18826">
        <ele>36</ele>
        <time>2017-08-24T19:20:40Z</time>
      </trkpt>
      <trkpt lat="50.58059" lon="3.18824">
        <ele>37</ele>
        <time>2017-08-24T19:22:40Z</time>
      </trkpt>
      <trkpt lat="50.58028" lon="3.1881">
        <ele>37</ele>
        <time>2017-08-24T19:24:40Z</time>
      </trkpt>
      <trkpt lat="50.58018" lon="3.18805">
        <ele>37</ele>
        <time>2017-08-24T19:26:40Z</time>
      </trkpt>
      <trkpt lat="50.57996" lon="3.188">
        <ele>38</ele>
        <time>2017-08-24T19:28:40Z</time>
      </trkpt>
      <trkpt lat="50.57943" lon="3.18783">
        <ele>39</ele>
        <time>2017-08-24T19:30:40Z</time>
      </trkpt>
      <trkpt lat="50.57943" lon="3.18783">
        <ele>39</ele>
        <time>2017-08-24T19:32:40Z</time>
      </trkpt>
      <trkpt lat="50.57939" lon="3.18807">
        <ele>39</ele>
        <time>2017-08-24T19:34:40Z</time>
      </trkpt>
      <trkpt lat="50.57936" lon="3.18829">
        <ele>39</ele>
        <time>2017-08-24T19:36:40Z</time>
      </trkpt>
      <trkpt lat="50.57935" lon="3.1884">
        <ele>39</ele>
        <time>2017-08-24T19:38:40Z</time>
      </trkpt>
      <trkpt lat="50.57933" lon="3.18845">
        <ele>39</ele>
        <time>2017-08-24T19:40:40Z</time>
      </trkpt>
      <trkpt lat="50.57931" lon="3.18847">
        <ele>39</ele>
        <time>2017-08-24T19:42:40Z</time>
      </trkpt>
      <trkpt lat="50.57928" lon="3.18848">
        <ele>40</ele>
        <time>2017-08-24T19:44:40Z</time>
      </trkpt>
      <trkpt lat="50.57922" lon="3.18848">
        <ele>40</ele>
        <time>2017-08-24T19:46:40Z</time>
      </trkpt>
      <trkpt lat="50.57911" lon="3.18846">
        <ele>40</ele>
        <time>2017-08-24T19:48:40Z</time>
      </trkpt>
      <trkpt lat="50.57911" lon="3.18846">
        <ele>40</ele>
        <time>2017-08-24T19:50:40Z</time>
      </trkpt>
      <trkpt lat="50.57908" lon="3.18866">
        <ele>40</ele>
        <time>2017-08-24T19:52:40Z</time>
      </trkpt>
      <trkpt lat="50.57907" lon="3.18875">
        <ele>40</ele>
        <time>2017-08-24T19:54:40Z</time>
      </trkpt>
      <trkpt lat="50.57905" lon="3.18926">
        <ele>39</ele>
        <time>2017-08-24T19:56:40Z</time>
      </trkpt>
      <trkpt lat="50.57906" lon="3.18933">
        <ele>39</ele>
        <time>2017-08-24T19:58:40Z</time>
      </trkpt>
      <trkpt lat="50.57906" lon="3.18933">
        <ele>39</ele>
        <time>2017-08-24T20:00:40Z</time>
      </trkpt>
      <trkpt lat="50.57919" lon="3.18936">
        <ele>39</ele>
        <time>2017-08-24T20:02:40Z</time>
      </trkpt>
      <trkpt lat="50.57922" lon="3.18938">
        <ele>39</ele>
        <time>2017-08-24T20:04:40Z</time>
      </trkpt>
      <trkpt lat="50.57924" lon="3.18941">
        <ele>39</ele>
        <time>2017-08-24T20:06:40Z</time>
      </trkpt>
      <trkpt lat="50.57925" lon="3.18946">
        <ele>38</ele>
        <time>2017-08-24T20:08:40Z</time>
      </trkpt>
      <trkpt lat="50.57926" lon="3.18953">
        <ele>38</ele>
        <time>2017-08-24T20:10:40Z</time>
      </trkpt>
      <trkpt lat="50.57925" lon="3.18959">
        <ele>38</ele>
        <time>2017-08-24T20:12:40Z</time>
      </trkpt>
      <trkpt lat="50.57923" lon="3.19032">
        <ele>37</ele>
        <time>2017-08-24T20:14:40Z</time>
      </trkpt>
      <trkpt lat="50.57923" lon="3.19032">
        <ele>37</ele>
        <time>2017-08-24T20:16:40Z</time>
      </trkpt>
      <trkpt lat="50.5793" lon="3.19037">
        <ele>37</ele>
        <time>2017-08-24T20:18:40Z</time>
      </trkpt>
      <trkpt lat="50.57935" lon="3.1904">
        <ele>37</ele>
        <time>2017-08-24T20:20:40Z</time>
      </trkpt>
      <trkpt lat="50.57943" lon="3.19044">
        <ele>37</ele>
        <time>2017-08-24T20:22:40Z</time>
      </trkpt>
      <trkpt lat="50.57966" lon="3.19056">
        <ele>36</ele>
        <time>2017-08-24T20:24:40Z</time>
      </trkpt>
      <trkpt lat="50.5797" lon="3.19058">
        <ele>36</ele>
        <time>2017-08-24T20:26:40Z</time>
      </trkpt>
      <trkpt lat="50.57979" lon="3.19062">
        <ele>36</ele>
        <time>2017-08-24T20:28:40Z</time>
      </trkpt>
      <trkpt lat="50.57993" lon="3.19069">
        <ele>35</ele>
        <time>2017-08-24T20:30:40Z</time>
      </trkpt>
      <trkpt lat="50.58018" lon="3.19083">
        <ele>35</ele>
        <time>2017-08-24T20:32:40Z</time>
      </trkpt>
      <trkpt lat="50.58044" lon="3.19096">
        <ele>34</ele>
        <time>2017-08-24T20:34:40Z</time>
      </trkpt>
      <trkpt lat="50.58055" lon="3.19103">
        <ele>34</ele>
        <time>2017-08-24T20:36:40Z</time>
      </trkpt>
      <trkpt lat="50.58061" lon="3.19108">
        <ele>34</ele>
        <time>2017-08-24T20:38:40Z</time>
      </trkpt>
      <trkpt lat="50.58061" lon="3.19108">
        <ele>34</ele>
        <time>2017-08-24T20:40:40Z</time>
      </trkpt>
      <trkpt lat="50.58071" lon="3.19088">
        <ele>33</ele>
        <time>2017-08-24T20:42:40Z</time>
      </trkpt>
      <trkpt lat="50.58091" lon="3.19051">
        <ele>33</ele>
        <time>2017-08-24T20:44:40Z</time>
      </trkpt>
      <trkpt lat="50.58099" lon="3.1904">
        <ele>33</ele>
        <time>2017-08-24T20:46:40Z</time>
      </trkpt>
      <trkpt lat="50.58106" lon="3.19032">
        <ele>33</ele>
        <time>2017-08-24T20:48:40Z</time>
      </trkpt>
      <trkpt lat="50.58125" lon="3.19011">
        <ele>33</ele>
        <time>2017-08-24T20:50:40Z</time>
      </trkpt>
      <trkpt lat="50.58148" lon="3.18984">
        <ele>33</ele>
        <time>2017-08-24T20:52:40Z</time>
      </trkpt>
      <trkpt lat="50.58153" lon="3.18978">
        <ele>33</ele>
        <time>2017-08-24T20:54:40Z</time>
      </trkpt>
      <trkpt lat="50.58153" lon="3.18978">
        <ele>33</ele>
        <time>2017-08-24T20:56:40Z</time>
      </trkpt>
      <trkpt lat="50.5816" lon="3.18984">
        <ele>33</ele>
        <time>2017-08-24T20:58:40Z</time>
      </trkpt>
      <trkpt lat="50.58166" lon="3.18989">
        <ele>33</ele>
        <time>2017-08-24T21:00:40Z</time>
      </trkpt>
      <trkpt lat="50.5819" lon="3.19014">
        <ele>33</ele>
        <time>2017-08-24T21:02:40Z</time>
      </trkpt>
      <trkpt lat="50.58191" lon="3.19015">
        <ele>33</ele>
        <time>2017-08-24T21:04:40Z</time>
      </trkpt>
      <trkpt lat="50.58237" lon="3.1904">
        <ele>33</ele>
        <time>2017-08-24T21:06:40Z</time>
      </trkpt>
      <trkpt lat="50.58258" lon="3.19051">
        <ele>33</ele>
        <time>2017-08-24T21:08:40Z</time>
      </trkpt>
      <trkpt lat="50.58262" lon="3.19052">
        <ele>33</ele>
        <time>2017-08-24T21:10:40Z</time>
      </trkpt>
      <trkpt lat="50.58266" lon="3.19054">
        <ele>33</ele>
        <time>2017-08-24T21:12:40Z</time>
      </trkpt>
      <trkpt lat="50.58269" lon="3.19057">
        <ele>33</ele>
        <time>2017-08-24T21:14:40Z</time>
      </trkpt>
      <trkpt lat="50.58272" lon="3.1906">
        <ele>33</ele>
        <time>2017-08-24T21:16:40Z</time>
      </trkpt>
      <trkpt lat="50.58278" lon="3.19069">
        <ele>33</ele>
        <time>2017-08-24T21:18:40Z</time>
      </trkpt>
      <trkpt lat="50.58289" lon="3.191">
        <ele>34</ele>
        <time>2017-08-24T21:20:40Z</time>
      </trkpt>
      <trkpt lat="50.58301" lon="3.19134">
        <ele>35</ele>
        <time>2017-08-24T21:22:40Z</time>
      </trkpt>
      <trkpt lat="50.58306" lon="3.19149">
        <ele>35</ele>
        <time>2017-08-24T21:24:40Z</time>
      </trkpt>
      <trkpt lat="50.58307" lon="3.1916">
        <ele>35</ele>
        <time>2017-08-24T21:26:40Z</time>
      </trkpt>
      <trkpt lat="50.58308" lon="3.19171">
        <ele>35</ele>
        <time>2017-08-24T21:28:40Z</time>
      </trkpt>
      <trkpt lat="50.58307" lon="3.19189">
        <ele>36</ele>
        <time>2017-08-24T21:30:40Z</time>
      </trkpt>
      <trkpt lat="50.58304" lon="3.19213">
        <ele>36</ele>
        <time>2017-08-24T21:32:40Z</time>
      </trkpt>
      <trkpt lat="50.58301" lon="3.19242">
        <ele>37</ele>
        <time>2017-08-24T21:34:40Z</time>
      </trkpt>
      <trkpt lat="50.583" lon="3.19262">
        <ele>37</ele>
        <time>2017-08-24T21:36:40Z</time>
      </trkpt>
      <trkpt lat="50.58301" lon="3.19277">
        <ele>37</ele>
        <time>2017-08-24T21:38:40Z</time>
      </trkpt>
      <trkpt lat="50.58301" lon="3.19283">
        <ele>37</ele>
        <time>2017-08-24T21:40:40Z</time>
      </trkpt>
      <trkpt lat="50.58299" lon="3.19294">
        <ele>38</ele>
        <time>2017-08-24T21:42:40Z</time>
      </trkpt>
      <trkpt lat="50.58299" lon="3.19294">
        <ele>38</ele>
        <time>2017-08-24T21:44:40Z</time>
      </trkpt>
      <trkpt lat="50.58311" lon="3.19305">
        <ele>38</ele>
        <time>2017-08-24T21:46:40Z</time>
      </trkpt>
      <trkpt lat="50.58311" lon="3.19305">
        <ele>38</ele>
        <time>2017-08-24T21:48:40Z</time>
      </trkpt>
      <trkpt lat="50.58308" lon="3.19324">
        <ele>39</ele>
        <time>2017-08-24T21:50:40Z</time>
      </trkpt>
      <trkpt lat="50.58303" lon="3.19357">
        <ele>39</ele>
        <time>2017-08-24T21:52:40Z</time>
      </trkpt>
      <trkpt lat="50.58295" lon="3.19403">
        <ele>39</ele>
        <time>2017-08-24T21:54:40Z</time>
      </trkpt>
      <trkpt lat="50.5829" lon="3.19432">
        <ele>39</ele>
        <time>2017-08-24T21:56:40Z</time>
      </trkpt>
      <trkpt lat="50.58289" lon="3.19443">
        <ele>39</ele>
        <time>2017-08-24T21:58:40Z</time>
      </trkpt>
      <trkpt lat="50.58289" lon="3.19449">
        <ele>39</ele>
        <time>2017-08-24T22:00:40Z</time>
      </trkpt>
      <trkpt lat="50.5829" lon="3.1946">
        <ele>39</ele>
        <time>2017-08-24T22:02:40Z</time>
      </trkpt>
      <trkpt lat="50.58293" lon="3.19476">
        <ele>39</ele>
        <time>2017-08-24T22:04:40Z</time>
      </trkpt>
      <trkpt lat="50.58297" lon="3.19492">
        <ele>40</ele>
        <time>2017-08-24T22:06:40Z</time>
      </trkpt>
      <trkpt lat="50.58303" lon="3.19511">
        <ele>40</ele>
        <time>2017-08-24T22:08:40Z</time>
      </trkpt>
      <trkpt lat="50.58315" lon="3.19542">
        <ele>40</ele>
        <time>2017-08-24T22:10:40Z</time>
      </trkpt>
      <trkpt lat="50.58328" lon="3.19576">
        <ele>41</ele>
        <time>2017-08-24T22:12:40Z</time>
      </trkpt>
      <trkpt lat="50.58338" lon="3.19604">
        <ele>41</ele>
        <time>2017-08-24T22:14:40Z</time>
      </trkpt>
      <trkpt lat="50.58347" lon="3.19628">
        <ele>42</ele>
        <time>2017-08-24T22:16:40Z</time>
      </trkpt>
      <trkpt lat="50.58356" lon="3.19655">
        <ele>43</ele>
        <time>2017-08-24T22:18:40Z</time>
      </trkpt>
      <trkpt lat="50.58371" lon="3.19706">
        <ele>43</ele>
        <time>2017-08-24T22:20:40Z</time>
      </trkpt>
      <trkpt lat="50.58392" lon="3.19774">
        <ele>44</ele>
        <time>2017-08-24T22:22:40Z</time>
      </trkpt>
      <trkpt lat="50.58396" lon="3.1979">
        <ele>44</ele>
        <time>2017-08-24T22:24:40Z</time>
      </trkpt>
      <trkpt lat="50.58399" lon="3.19802">
        <ele>44</ele>
        <time>2017-08-24T22:26:40Z</time>
      </trkpt>
      <trkpt lat="50.58402" lon="3.19814">
        <ele>45</ele>
        <time>2017-08-24T22:28:40Z</time>
      </trkpt>
      <trkpt lat="50.58425" lon="3.199">
        <ele>45</ele>
        <time>2017-08-24T22:30:40Z</time>
      </trkpt>
      <trkpt lat="50.58449" lon="3.19992">
        <ele>45</ele>
        <time>2017-08-24T22:32:40Z</time>
      </trkpt>
      <trkpt lat="50.58463" lon="3.2004">
        <ele>46</ele>
        <time>2017-08-24T22:34:40Z</time>
      </trkpt>
      <trkpt lat="50.58476" lon="3.20086">
        <ele>46</ele>
        <time>2017-08-24T22:36:40Z</time>
      </trkpt>
      <trkpt lat="50.58486" lon="3.20118">
        <ele>46</ele>
        <time>2017-08-24T22:38:40Z</time>
      </trkpt>
      <trkpt lat="50.58492" lon="3.20144">
        <ele>47</ele>
        <time>2017-08-24T22:40:40Z</time>
      </trkpt>
      <trkpt lat="50.58496" lon="3.20165">
        <ele>47</ele>
        <time>2017-08-24T22:42:40Z</time>
      </trkpt>
      <trkpt lat="50.58496" lon="3.20171">
        <ele>47</ele>
        <time>2017-08-24T22:44:40Z</time>
      </trkpt>
      <trkpt lat="50.58498" lon="3.2018">
        <ele>47</ele>
        <time>2017-08-24T22:46:40Z</time>
      </trkpt>
      <trkpt lat="50.58498" lon="3.20187">
        <ele>47</ele>
        <time>2017-08-24T22:48:40Z</time>
      </trkpt>
      <trkpt lat="50.58499" lon="3.20189">
        <ele>47</ele>
        <time>2017-08-24T22:50:40Z</time>
      </trkpt>
      <trkpt lat="50.585" lon="3.20202">
        <ele>47</ele>
        <time>2017-08-24T22:52:40Z</time>
      </trkpt>
      <trkpt lat="50.58504" lon="3.20217">
        <ele>47</ele>
        <time>2017-08-24T22:54:40Z</time>
      </trkpt>
      <trkpt lat="50.58509" lon="3.20228">
        <ele>47</ele>
        <time>2017-08-24T22:56:40Z</time>
      </trkpt>
      <trkpt lat="50.58516" lon="3.20242">
        <ele>47</ele>
        <time>2017-08-24T22:58:40Z</time>
      </trkpt>
      <trkpt lat="50.58521" lon="3.20251">
        <ele>47</ele>
        <time>2017-08-24T23:00:40Z</time>
      </trkpt>
      <trkpt lat="50.58526" lon="3.20263">
        <ele>47</ele>
        <time>2017-08-24T23:02:40Z</time>
      </trkpt>
      <trkpt lat="50.58534" lon="3.2029">
        <ele>47</ele>
        <time>2017-08-24T23:04:40Z</time>
      </trkpt>
      <trkpt lat="50.58548" lon="3.20341">
        <ele>48</ele>
        <time>2017-08-24T23:06:40Z</time>
      </trkpt>
      <trkpt lat="50.5856" lon="3.20387">
        <ele>48</ele>
        <time>2017-08-24T23:08:40Z</time>
      </trkpt>
      <trkpt lat="50.58586" lon="3.2048">
        <ele>47</ele>
        <time>2017-08-24T23:10:40Z</time>
      </trkpt>
      <trkpt lat="50.58617" lon="3.2059">
        <ele>47</ele>
        <time>2017-08-24T23:12:40Z</time>
      </trkpt>
      <trkpt lat="50.5864" lon="3.2067">
        <ele>46</ele>
        <time>2017-08-24T23:14:40Z</time>
      </trkpt>
      <trkpt lat="50.5865" lon="3.20702">
        <ele>45</ele>
        <time>2017-08-24T23:16:40Z</time>
      </trkpt>
      <trkpt lat="50.58712" lon="3.20951">
        <ele>46</ele>
        <time>2017-08-24T23:18:40Z</time>
      </trkpt>
      <trkpt lat="50.58722" lon="3.20991">
        <ele>47</ele>
        <time>2017-08-24T23:20:40Z</time>
      </trkpt>
      <trkpt lat="50.58722" lon="3.20991">
        <ele>47</ele>
        <time>2017-08-24T23:22:40Z</time>
      </trkpt>
      <trkpt lat="50.58712" lon="3.20994">
        <ele>47</ele>
        <time>2017-08-24T23:24:40Z</time>
      </trkpt>
      <trkpt lat="50.58642" lon="3.2102">
        <ele>47</ele>
        <time>2017-08-24T23:26:40Z</time>
      </trkpt>
      <trkpt lat="50.58544" lon="3.21057">
        <ele>47</ele>
        <time>2017-08-24T23:28:40Z</time>
      </trkpt>
      <trkpt lat="50.58538" lon="3.21059">
        <ele>46</ele>
        <time>2017-08-24T23:30:40Z</time>
      </trkpt>
      <trkpt lat="50.58454" lon="3.2109">
        <ele>45</ele>
        <time>2017-08-24T23:32:40Z</time>
      </trkpt>
      <trkpt lat="50.58379" lon="3.21116">
        <ele>45</ele>
        <time>2017-08-24T23:34:40Z</time>
      </trkpt>
      <trkpt lat="50.58315" lon="3.21137">
        <ele>44</ele>
        <time>2017-08-24T23:36:40Z</time>
      </trkpt>
      <trkpt lat="50.58278" lon="3.2115">
        <ele>43</ele>
        <time>2017-08-24T23:38:40Z</time>
      </trkpt>
      <trkpt lat="50.58245" lon="3.21164">
        <ele>43</ele>
        <time>2017-08-24T23:40:40Z</time>
      </trkpt>
      <trkpt lat="50.58216" lon="3.2118">
        <ele>43</ele>
        <time>2017-08-24T23:42:40Z</time>
      </trkpt>
      <trkpt lat="50.58205" lon="3.21184">
        <ele>42</ele>
        <time>2017-08-24T23:44:40Z</time>
      </trkpt>
      <trkpt lat="50.58198" lon="3.21187">
        <ele>42</ele>
        <time>2017-08-24T23:46:40Z</time>
      </trkpt>
      <trkpt lat="50.58195" lon="3.21188">
        <ele>42</ele>
        <time>2017-08-24T23:48:40Z</time>
      </trkpt>
      <trkpt lat="50.58168" lon="3.21196">
        <ele>42</ele>
        <time>2017-08-24T23:50:40Z</time>
      </trkpt>
      <trkpt lat="50.58101" lon="3.21209">
        <ele>43</ele>
        <time>2017-08-24T23:52:40Z</time>
      </trkpt>
      <trkpt lat="50.58092" lon="3.21211">
        <ele>43</ele>
        <time>2017-08-24T23:54:40Z</time>
      </trkpt>
      <trkpt lat="50.58092" lon="3.21211">
        <ele>43</ele>
        <time>2017-08-24T23:56:40Z</time>
      </trkpt>
      <trkpt lat="50.58094" lon="3.21271">
        <ele>43</ele>
        <time>2017-08-24T23:58:40Z</time>
      </trkpt>
      <trkpt lat="50.58094" lon="3.21305">
        <ele>43</ele>
        <time>2017-08-25T00:00:40Z</time>
      </trkpt>
      <trkpt lat="50.58094" lon="3.21312">
        <ele>43</ele>
        <time>2017-08-25T00:02:40Z</time>
      </trkpt>
      <trkpt lat="50.58093" lon="3.21343">
        <ele>43</ele>
        <time>2017-08-25T00:04:40Z</time>
      </trkpt>
      <trkpt lat="50.5809" lon="3.21375">
        <ele>43</ele>
        <time>2017-08-25T00:06:40Z</time>
      </trkpt>
      <trkpt lat="50.58089" lon="3.21394">
        <ele>43</ele>
        <time>2017-08-25T00:08:40Z</time>
      </trkpt>
      <trkpt lat="50.5808" lon="3.2145">
        <ele>43</ele>
        <time>2017-08-25T00:10:40Z</time>
      </trkpt>
      <trkpt lat="50.58068" lon="3.21514">
        <ele>44</ele>
        <time>2017-08-25T00:12:40Z</time>
      </trkpt>
      <trkpt lat="50.58054" lon="3.21579">
        <ele>45</ele>
        <time>2017-08-25T00:14:40Z</time>
      </trkpt>
      <trkpt lat="50.5804" lon="3.21639">
        <ele>45</ele>
        <time>2017-08-25T00:16:40Z</time>
      </trkpt>
      <trkpt lat="50.58014" lon="3.21733">
        <ele>45</ele>
        <time>2017-08-25T00:18:40Z</time>
      </trkpt>
      <trkpt lat="50.57993" lon="3.21816">
        <ele>46</ele>
        <time>2017-08-25T00:20:40Z</time>
      </trkpt>
      <trkpt lat="50.57963" lon="3.21938">
        <ele>47</ele>
        <time>2017-08-25T00:22:40Z</time>
      </trkpt>
      <trkpt lat="50.57958" lon="3.2196">
        <ele>48</ele>
        <time>2017-08-25T00:24:40Z</time>
      </trkpt>
      <trkpt lat="50.57958" lon="3.21964">
        <ele>48</ele>
        <time>2017-08-25T00:26:40Z</time>
      </trkpt>
      <trkpt lat="50.57957" lon="3.21982">
        <ele>48</ele>
        <time>2017-08-25T00:28:40Z</time>
      </trkpt>
      <trkpt lat="50.5796" lon="3.22026">
        <ele>48</ele>
        <time>2017-08-25T00:30:40Z</time>
      </trkpt>
      <trkpt lat="50.5796" lon="3.22051">
        <ele>48</ele>
        <time>2017-08-25T00:32:40Z</time>
      </trkpt>
      <trkpt lat="50.5795" lon="3.2214">
        <ele>49</ele>
        <time>2017-08-25T00:34:40Z</time>
      </trkpt>
      <trkpt lat="50.57943" lon="3.22193">
        <ele>49</ele>
        <time>2017-08-25T00:36:40Z</time>
      </trkpt>
      <trkpt lat="50.57937" lon="3.22228">
        <ele>49</ele>
        <time>2017-08-25T00:38:40Z</time>
      </trkpt>
      <trkpt lat="50.57936" lon="3.22256">
        <ele>49</ele>
        <time>2017-08-25T00:40:40Z</time>
      </trkpt>
      <trkpt lat="50.57933" lon="3.22291">
        <ele>49</ele>
        <time>2017-08-25T00:42:40Z</time>
      </trkpt>
      <trkpt lat="50.57932" lon="3.22328">
        <ele>49</ele>
        <time>2017-08-25T00:44:40Z</time>
      </trkpt>
      <trkpt lat="50.57924" lon="3.22525">
        <ele>49</ele>
        <time>2017-08-25T00:46:40Z</time>
      </trkpt>
      <trkpt lat="50.57924" lon="3.22662">
        <ele>48</ele>
        <time>2017-08-25T00:48:40Z</time>
      </trkpt>
      <trkpt lat="50.57922" lon="3.22744">
        <ele>49</ele>
        <time>2017-08-25T00:50:40Z</time>
      </trkpt>
      <trkpt lat="50.57918" lon="3.22795">
        <ele>50</ele>
        <time>2017-08-25T00:52:40Z</time>
      </trkpt>
      <trkpt lat="50.57914" lon="3.2284">
        <ele>50</ele>
        <time>2017-08-25T00:54:40Z</time>
      </trkpt>
      <trkpt lat="50.57914" lon="3.2284">
        <ele>50</ele>
        <time>2017-08-25T00:56:40Z</time>
      </trkpt>
      <trkpt lat="50.5788" lon="3.22831">
        <ele>50</ele>
        <time>2017-08-25T00:58:40Z</time>
      </trkpt>
      <trkpt lat="50.57865" lon="3.22825">
        <ele>49</ele>
        <time>2017-08-25T01:00:40Z</time>
      </trkpt>
      <trkpt lat="50.57848" lon="3.22815">
        <ele>49</ele>
        <time>2017-08-25T01:02:40Z</time>
      </trkpt>
      <trkpt lat="50.57831" lon="3.22801">
        <ele>49</ele>
        <time>2017-08-25T01:04:40Z</time>
      </trkpt>
      <trkpt lat="50.57815" lon="3.22786">
        <ele>48</ele>
        <time>2017-08-25T01:06:40Z</time>
      </trkpt>
      <trkpt lat="50.57797" lon="3.22775">
        <ele>48</ele>
        <time>2017-08-25T01:08:40Z</time>
      </trkpt>
      <trkpt lat="50.57783" lon="3.22768">
        <ele>48</ele>
        <time>2017-08-25T01:10:40Z</time>
      </trkpt>
      <trkpt lat="50.5777" lon="3.22766">
        <ele>47</ele>
        <time>2017-08-25T01:12:40Z</time>
      </trkpt>
      <trkpt lat="50.57748" lon="3.22765">
        <ele>47</ele>
        <time>2017-08-25T01:14:40Z</time>
      </trkpt>
      <trkpt lat="50.57731" lon="3.22765">
        <ele>47</ele>
        <time>2017-08-25T01:16:40Z</time>
      </trkpt>
      <trkpt lat="50.57717" lon="3.22766">
        <ele>47</ele>
        <time>2017-08-25T01:18:40Z</time>
      </trkpt>
      <trkpt lat="50.57699" lon="3.22765">
        <ele>47</ele>
        <time>2017-08-25T01:20:40Z</time>
      </trkpt>
      <trkpt lat="50.57688" lon="3.22763">
        <ele>47</ele>
        <time>2017-08-25T01:22:40Z</time>
      </trkpt>
      <trkpt lat="50.57676" lon="3.2276">
        <ele>47</ele>
        <time>2017-08-25T01:24:40Z</time>
      </trkpt>
      <trkpt lat="50.57661" lon="3.22752">
        <ele>47</ele>
        <time>2017-08-25T01:26:40Z</time>
      </trkpt>
      <trkpt lat="50.57649" lon="3.22744">
        <ele>47</ele>
        <time>2017-08-25T01:28:40Z</time>
      </trkpt>
      <trkpt lat="50.57636" lon="3.22733">
        <ele>47</ele>
        <time>2017-08-25T01:30:40Z</time>
      </trkpt>
      <trkpt lat="50.57625" lon="3.22719">
        <ele>46</ele>
        <time>2017-08-25T01:32:40Z</time>
      </trkpt>
      <trkpt lat="50.57619" lon="3.2271">
        <ele>46</ele>
        <time>2017-08-25T01:34:40Z</time>
      </trkpt>
      <trkpt lat="50.57619" lon="3.2271">
        <ele>46</ele>
        <time>2017-08-25T01:36:40Z</time>
      </trkpt>
      <trkpt lat="50.57608" lon="3.22692">
        <ele>46</ele>
        <time>2017-08-25T01:38:40Z</time>
      </trkpt>
      <trkpt lat="50.57592" lon="3.22668">
        <ele>46</ele>
        <time>2017-08-25T01:40:40Z</time>
      </trkpt>
      <trkpt lat="50.57584" lon="3.22655">
        <ele>46</ele>
        <time>2017-08-25T01:42:40Z</time>
      </trkpt>
      <trkpt lat="50.57576" lon="3.22645">
        <ele>46</ele>
        <time>2017-08-25T01:44:40Z</time>
      </trkpt>
      <trkpt lat="50.57565" lon="3.22637">
        <ele>46</ele>
        <time>2017-08-25T01:46:40Z</time>
      </trkpt>
      <trkpt lat="50.57545" lon="3.22623">
        <ele>47</ele>
        <time>2017-08-25T01:48:40Z</time>
      </trkpt>
      <trkpt lat="50.57507" lon="3.22596">
        <ele>48</ele>
        <time>2017-08-25T01:50:40Z</time>
      </trkpt>
      <trkpt lat="50.57476" lon="3.22573">
        <ele>48</ele>
        <time>2017-08-25T01:52:40Z</time>
      </trkpt>
      <trkpt lat="50.57448" lon="3.22546">
        <ele>48</ele>
        <time>2017-08-25T01:54:40Z</time>
      </trkpt>
      <trkpt lat="50.5743" lon="3.22528">
        <ele>48</ele>
        <time>2017-08-25T01:56:40Z</time>
      </trkpt>
      <trkpt lat="50.57411" lon="3.22513">
        <ele>48</ele>
        <time>2017-08-25T01:58:40Z</time>
      </trkpt>
      <trkpt lat="50.57401" lon="3.22506">
        <ele>48</ele>
        <time>2017-08-25T02:00:40Z</time>
      </trkpt>
      <trkpt lat="50.57374" lon="3.2249">
        <ele>49</ele>
        <time>2017-08-25T02:02:40Z</time>
      </trkpt>
      <trkpt lat="50.57343" lon="3.22476">
        <ele>49</ele>
        <time>2017-08-25T02:04:40Z</time>
      </trkpt>
      <trkpt lat="50.57302" lon="3.22453">
        <ele>48</ele>
        <time>2017-08-25T02:06:40Z</time>
      </trkpt>
      <trkpt lat="50.57202" lon="3.22401">
        <ele>47</ele>
        <time>2017-08-25T02:08:40Z</time>
      </trkpt>
      <trkpt lat="50.57156" lon="3.22373">
        <ele>46</ele>
        <time>2017-08-25T02:10:40Z</time>
      </trkpt>
      <trkpt lat="50.57128" lon="3.22359">
        <ele>47</ele>
        <time>2017-08-25T02:12:40Z</time>
      </trkpt>
      <trkpt lat="50.57069" lon="3.22335">
        <ele>47</ele>
        <time>2017-08-25T02:14:40Z</time>
      </trkpt>
      <trkpt lat="50.57053" lon="3.22329">
        <ele>47</ele>
        <time>2017-08-25T02:16:40Z</time>
      </trkpt>
      <trkpt lat="50.57044" lon="3.22326">
        <ele>46</ele>
        <time>2017-08-25T02:18:40Z</time>
      </trkpt>
      <trkpt lat="50.5703" lon="3.22323">
        <ele>46</ele>
        <time>2017-08-25T02:20:40Z</time>
      </trkpt>
      <trkpt lat="50.56992" lon="3.22314">
        <ele>44</ele>
        <time>2017-08-25T02:22:40Z</time>
      </trkpt>
      <trkpt lat="50.56987" lon="3.22313">
        <ele>44</ele>
        <time>2017-08-25T02:24:40Z</time>
      </trkpt>
      <trkpt lat="50.56982" lon="3.22311">
        <ele>44</ele>
        <time>2017-08-25T02:26:40Z</time>
      </trkpt>
      <trkpt lat="50.56982" lon="3.22311">
        <ele>44</ele>
        <time>2017-08-25T02:28:40Z</time>
      </trkpt>
      <trkpt lat="50.56985" lon="3.22318">
        <ele>44</ele>
        <time>2017-08-25T02:30:40Z</time>
      </trkpt>
      <trkpt lat="50.56995" lon="3.22335">
        <ele>45</ele>
        <time>2017-08-25T02:32:40Z</time>
      </trkpt>
      <trkpt lat="50.57004" lon="3.22353">
        <ele>45</ele>
        <time>2017-08-25T02:34:40Z</time>
      </trkpt>
      <trkpt lat="50.57011" lon="3.22372">
        <ele>45</ele>
        <time>2017-08-25T02:36:40Z</time>
      </trkpt>
      <trkpt lat="50.57017" lon="3.22392">
        <ele>46</ele>
        <time>2017-08-25T02:38:40Z</time>
      </trkpt>
      <trkpt lat="50.57026" lon="3.22433">
        <ele>46</ele>
        <time>2017-08-25T02:40:40Z</time>
      </trkpt>
      <trkpt lat="50.57035" lon="3.22485">
        <ele>47</ele>
        <time>2017-08-25T02:42:40Z</time>
      </trkpt>
      <trkpt lat="50.57039" lon="3.22514">
        <ele>47</ele>
        <time>2017-08-25T02:44:40Z</time>
      </trkpt>
      <trkpt lat="50.57042" lon="3.2254">
        <ele>47</ele>
        <time>2017-08-25T02:46:40Z</time>
      </trkpt>
      <trkpt lat="50.57043" lon="3.22564">
        <ele>47</ele>
        <time>2017-08-25T02:48:40Z</time>
      </trkpt>
      <trkpt lat="50.57044" lon="3.22596">
        <ele>46</ele>
        <time>2017-08-25T02:50:40Z</time>
      </trkpt>
      <trkpt lat="50.57046" lon="3.22634">
        <ele>46</ele>
        <time>2017-08-25T02:52:40Z</time>
      </trkpt>
      <trkpt lat="50.57047" lon="3.22884">
        <ele>44</ele>
        <time>2017-08-25T02:54:40Z</time>
      </trkpt>
      <trkpt lat="50.57048" lon="3.22977">
        <ele>43</ele>
        <time>2017-08-25T02:56:40Z</time>
      </trkpt>
      <trkpt lat="50.57049" lon="3.23002">
        <ele>43</ele>
        <time>2017-08-25T02:58:40Z</time>
      </trkpt>
      <trkpt lat="50.57051" lon="3.23029">
        <ele>43</ele>
        <time>2017-08-25T03:00:40Z</time>
      </trkpt>
      <trkpt lat="50.57051" lon="3.23034">
        <ele>43</ele>
        <time>2017-08-25T03:02:40Z</time>
      </trkpt>
      <trkpt lat="50.57051" lon="3.23039">
        <ele>43</ele>
        <time>2017-08-25T03:04:40Z</time>
      </trkpt>
      <trkpt lat="50.57061" lon="3.23112">
        <ele>43</ele>
        <time>2017-08-25T03:06:40Z</time>
      </trkpt>
      <trkpt lat="50.57066" lon="3.23169">
        <ele>44</ele>
        <time>2017-08-25T03:08:40Z</time>
      </trkpt>
      <trkpt lat="50.57077" lon="3.23297">
        <ele>46</ele>
        <time>2017-08-25T03:10:40Z</time>
      </trkpt>
      <trkpt lat="50.57079" lon="3.23332">
        <ele>46</ele>
        <time>2017-08-25T03:12:40Z</time>
      </trkpt>
      <trkpt lat="50.57081" lon="3.23406">
        <ele>46</ele>
        <time>2017-08-25T03:14:40Z</time>
      </trkpt>
      <trkpt lat="50.57086" lon="3.23502">
        <ele>46</ele>
        <time>2017-08-25T03:16:40Z</time>
      </trkpt>
      <trkpt lat="50.57089" lon="3.23578">
        <ele>46</ele>
        <time>2017-08-25T03:18:40Z</time>
      </trkpt>
      <trkpt lat="50.571" lon="3.23654">
        <ele>47</ele>
        <time>2017-08-25T03:20:40Z</time>
      </trkpt>
      <trkpt lat="50.57101" lon="3.23661">
        <ele>47</ele>
        <time>2017-08-25T03:22:40Z</time>
      </trkpt>
      <trkpt lat="50.57108" lon="3.23694">
        <ele>47</ele>
        <time>2017-08-25T03:24:40Z</time>
      </trkpt>
      <trkpt lat="50.57121" lon="3.23752">
        <ele>47</ele>
        <time>2017-08-25T03:26:40Z</time>
      </trkpt>
      <trkpt lat="50.57137" lon="3.23813">
        <ele>46</ele>
        <time>2017-08-25T03:28:40Z</time>
      </trkpt>
      <trkpt lat="50.57154" lon="3.23878">
        <ele>46</ele>
        <time>2017-08-25T03:30:40Z</time>
      </trkpt>
      <trkpt lat="50.5718" lon="3.23977">
        <ele>48</ele>
        <time>2017-08-25T03:32:40Z</time>
      </trkpt>
      <trkpt lat="50.57204" lon="3.24069">
        <ele>48</ele>
        <time>2017-08-25T03:34:40Z</time>
      </trkpt>
      <trkpt lat="50.57227" lon="3.24161">
        <ele>48</ele>
        <time>2017-08-25T03:36:40Z</time>
      </trkpt>
      <trkpt lat="50.57229" lon="3.24168">
        <ele>48</ele>
        <time>2017-08-25T03:38:40Z</time>
      </trkpt>
      <trkpt lat="50.57229" lon="3.24168">
        <ele>48</ele>
        <time>2017-08-25T03:40:40Z</time>
      </trkpt>
      <trkpt lat="50.57252" lon="3.24156">
        <ele>48</ele>
        <time>2017-08-25T03:42:40Z</time>
      </trkpt>
      <trkpt lat="50.5729" lon="3.24136">
        <ele>48</ele>
        <time>2017-08-25T03:44:40Z</time>
      </trkpt>
      <trkpt lat="50.57319" lon="3.2412">
        <ele>48</ele>
        <time>2017-08-25T03:46:40Z</time>
      </trkpt>
      <trkpt lat="50.57333" lon="3.24111">
        <ele>49</ele>
        <time>2017-08-25T03:48:40Z</time>
      </trkpt>
      <trkpt lat="50.57339" lon="3.24107">
        <ele>49</ele>
        <time>2017-08-25T03:50:40Z</time>
      </trkpt>
      <trkpt lat="50.57345" lon="3.24102">
        <ele>49</ele>
        <time>2017-08-25T03:52:40Z</time>
      </trkpt>
      <trkpt lat="50.57355" lon="3.24092">
        <ele>49</ele>
        <time>2017-08-25T03:54:40Z</time>
      </trkpt>
      <trkpt lat="50.57368" lon="3.24079">
        <ele>49</ele>
        <time>2017-08-25T03:56:40Z</time>
      </trkpt>
      <trkpt lat="50.57376" lon="3.24072">
        <ele>50</ele>
        <time>2017-08-25T03:58:40Z</time>
      </trkpt>
      <trkpt lat="50.57389" lon="3.24057">
        <ele>50</ele>
        <time>2017-08-25T04:00:40Z</time>
      </trkpt>
      <trkpt lat="50.57398" lon="3.2405">
        <ele>50</ele>
        <time>2017-08-25T04:02:40Z</time>
      </trkpt>
      <trkpt lat="50.57398" lon="3.2405">
        <ele>50</ele>
        <time>2017-08-25T04:04:40Z</time>
      </trkpt>
      <trkpt lat="50.57405" lon="3.24048">
        <ele>50</ele>
        <time>2017-08-25T04:06:40Z</time>
      </trkpt>
      <trkpt lat="50.57413" lon="3.24049">
        <ele>50</ele>
        <time>2017-08-25T04:08:40Z</time>
      </trkpt>
      <trkpt lat="50.57452" lon="3.24055">
        <ele>50</ele>
        <time>2017-08-25T04:10:40Z</time>
      </trkpt>
      <trkpt lat="50.5748" lon="3.24058">
        <ele>49</ele>
        <time>2017-08-25T04:12:40Z</time>
      </trkpt>
      <trkpt lat="50.57496" lon="3.24062">
        <ele>49</ele>
        <time>2017-08-25T04:14:40Z</time>
      </trkpt>
      <trkpt lat="50.57522" lon="3.24067">
        <ele>49</ele>
        <time>2017-08-25T04:16:40Z</time>
      </trkpt>
      <trkpt lat="50.57554" lon="3.24073">
        <ele>50</ele>
        <time>2017-08-25T04:18:40Z</time>
      </trkpt>
      <trkpt lat="50.57596" lon="3.24083">
        <ele>50</ele>
        <time>2017-08-25T04:20:40Z</time>
      </trkpt>
      <trkpt lat="50.57654" lon="3.24094">
        <ele>51</ele>
        <time>2017-08-25T04:22:40Z</time>
      </trkpt>
      <trkpt lat="50.57665" lon="3.24097">
        <ele>51</ele>
        <time>2017-08-25T04:24:40Z</time>
      </trkpt>
      <trkpt lat="50.57667" lon="3.24097">
        <ele>51</ele>
        <time>2017-08-25T04:26:40Z</time>
      </trkpt>
      <trkpt lat="50.5768" lon="3.241">
        <ele>51</ele>
        <time>2017-08-25T04:28:40Z</time>
      </trkpt>
      <trkpt lat="50.57695" lon="3.24103">
        <ele>51</ele>
        <time>2017-08-25T04:30:40Z</time>
      </trkpt>
      <trkpt lat="50.57712" lon="3.24107">
        <ele>51</ele>
        <time>2017-08-25T04:32:40Z</time>
      </trkpt>
      <trkpt lat="50.57729" lon="3.24113">
        <ele>51</ele>
        <time>2017-08-25T04:34:40Z</time>
      </trkpt>
      <trkpt lat="50.57742" lon="3.2412">
        <ele>51</ele>
        <time>2017-08-25T04:36:40Z</time>
      </trkpt>
      <trkpt lat="50.57757" lon="3.24131">
        <ele>50</ele>
        <time>2017-08-25T04:38:40Z</time>
      </trkpt>
      <trkpt lat="50.57767" lon="3.24142">
        <ele>50</ele>
        <time>2017-08-25T04:40:40Z</time>
      </trkpt>
      <trkpt lat="50.5778" lon="3.2416">
        <ele>50</ele>
        <time>2017-08-25T04:42:40Z</time>
      </trkpt>
      <trkpt lat="50.57789" lon="3.24174">
        <ele>50</ele>
        <time>2017-08-25T04:44:40Z</time>
      </trkpt>
      <trkpt lat="50.57798" lon="3.24194">
        <ele>50</ele>
        <time>2017-08-25T04:46:40Z</time>
      </trkpt>
      <trkpt lat="50.57807" lon="3.24216">
        <ele>50</ele>
        <time>2017-08-25T04:48:40Z</time>
      </trkpt>
      <trkpt lat="50.57821" lon="3.24248">
        <ele>50</ele>
        <time>2017-08-25T04:50:40Z</time>
      </trkpt>
      <trkpt lat="50.57826" lon="3.24261">
        <ele>50</ele>
        <time>2017-08-25T04:52:40Z</time>
      </trkpt>
      <trkpt lat="50.57836" lon="3.24289">
        <ele>50</ele>
        <time>2017-08-25T04:54:40Z</time>
      </trkpt>
      <trkpt lat="50.57847" lon="3.24317">
        <ele>51</ele>
        <time>2017-08-25T04:56:40Z</time>
      </trkpt>
      <trkpt lat="50.57852" lon="3.24326">
        <ele>51</ele>
        <time>2017-08-25T04:58:40Z</time>
      </trkpt>
      <trkpt lat="50.57856" lon="3.2433">
        <ele>51</ele>
        <time>2017-08-25T05:00:40Z</time>
      </trkpt>
      <trkpt lat="50.57863" lon="3.24333">
        <ele>51</ele>
        <time>2017-08-25T05:02:40Z</time>
      </trkpt>
      <trkpt lat="50.57873" lon="3.24332">
        <ele>51</ele>
        <time>2017-08-25T05:04:40Z</time>
      </trkpt>
      <trkpt lat="50.57945" lon="3.24322">
        <ele>51</ele>
        <time>2017-08-25T05:06:40Z</time>
      </trkpt>
      <trkpt lat="50.57994" lon="3.24318">
        <ele>52</ele>
        <time>2017-08-25T05:08:40Z</time>
      </trkpt>
      <trkpt lat="50.57994" lon="3.24318">
        <ele>52</ele>
        <time>2017-08-25T05:10:40Z</time>
      </trkpt>
      <trkpt lat="50.57993" lon="3.24299">
        <ele>52</ele>
        <time>2017-08-25T05:12:40Z</time>
      </trkpt>
      <trkpt lat="50.57991" lon="3.24276">
        <ele>52</ele>
        <time>2017-08-25T05:14:40Z</time>
      </trkpt>
      <trkpt lat="50.5799" lon="3.24243">
        <ele>52</ele>
        <time>2017-08-25T05:16:40Z</time>
      </trkpt>
      <trkpt lat="50.57989" lon="3.24212">
        <ele>52</ele>
        <time>2017-08-25T05:18:40Z</time>
      </trkpt>
      <trkpt lat="50.57989" lon="3.24178">
        <ele>52</ele>
        <time>2017-08-25T05:20:40Z</time>
      </trkpt>
      <trkpt lat="50.5799" lon="3.24143">
        <ele>52</ele>
        <time>2017-08-25T05:22:40Z</time>
      </trkpt>
      <trkpt lat="50.5799" lon="3.24107">
        <ele>52</ele>
        <time>2017-08-25T05:24:40Z</time>
      </trkpt>
      <trkpt lat="50.57991" lon="3.2407">
        <ele>52</ele>
        <time>2017-08-25T05:26:40Z</time>
      </trkpt>
      <trkpt lat="50.57992" lon="3.24038">
        <ele>52</ele>
        <time>2017-08-25T05:28:40Z</time>
      </trkpt>
      <trkpt lat="50.57993" lon="3.24014">
        <ele>52</ele>
        <time>2017-08-25T05:30:40Z</time>
      </trkpt>
      <trkpt lat="50.57994" lon="3.23968">
        <ele>52</ele>
        <time>2017-08-25T05:32:40Z</time>
      </trkpt>
      <trkpt lat="50.57993" lon="3.23942">
        <ele>53</ele>
        <time>2017-08-25T05:34:40Z</time>
      </trkpt>
      <trkpt lat="50.57992" lon="3.2393">
        <ele>53</ele>
        <time>2017-08-25T05:36:40Z</time>
      </trkpt>
      <trkpt lat="50.57989" lon="3.23903">
        <ele>53</ele>
        <time>2017-08-25T05:38:40Z</time>
      </trkpt>
      <trkpt lat="50.57984" lon="3.23874">
        <ele>53</ele>
        <time>2017-08-25T05:40:40Z</time>
      </trkpt>
      <trkpt lat="50.57978" lon="3.23842">
        <ele>53</ele>
        <time>2017-08-25T05:42:40Z</time>
      </trkpt>
      <trkpt lat="50.57973" lon="3.23814">
        <ele>53</ele>
        <time>2017-08-25T05:44:40Z</time>
      </trkpt>
      <trkpt lat="50.57965" lon="3.23765">
        <ele>53</ele>
        <time>2017-08-25T05:46:40Z</time>
      </trkpt>
      <trkpt lat="50.57958" lon="3.23718">
        <ele>53</ele>
        <time>2017-08-25T05:48:40Z</time>
      </trkpt>
      <trkpt lat="50.57954" lon="3.23697">
        <ele>53</ele>
        <time>2017-08-25T05:50:40Z</time>
      </trkpt>
      <trkpt lat="50.57947" lon="3.23652">
        <ele>53</ele>
        <time>2017-08-25T05:52:40Z</time>
      </trkpt>
      <trkpt lat="50.57943" lon="3.23628">
        <ele>53</ele>
        <time>2017-08-25T05:54:40Z</time>
      </trkpt>
      <trkpt lat="50.57928" lon="3.23546">
        <ele>52</ele>
        <time>2017-08-25T05:56:40Z</time>
      </trkpt>
      <trkpt lat="50.57928" lon="3.23546">
        <ele>52</ele>
        <time>2017-08-25T05:58:40Z</time>
      </trkpt>
      <trkpt lat="50.57993" lon="3.23527">
        <ele>53</ele>
        <time>2017-08-25T06:00:40Z</time>
      </trkpt>
      <trkpt lat="50.58008" lon="3.23527">
        <ele>53</ele>
        <time>2017-08-25T06:02:40Z</time>
      </trkpt>
      <trkpt lat="50.58039" lon="3.23523">
        <ele>53</ele>
        <time>2017-08-25T06:04:40Z</time>
      </trkpt>
      <trkpt lat="50.58073" lon="3.23512">
        <ele>53</ele>
        <time>2017-08-25T06:06:40Z</time>
      </trkpt>
      <trkpt lat="50.58113" lon="3.23495">
        <ele>53</ele>
        <time>2017-08-25T06:08:40Z</time>
      </trkpt>
      <trkpt lat="50.58166" lon="3.2347">
        <ele>54</ele>
        <time>2017-08-25T06:10:40Z</time>
      </trkpt>
      <trkpt lat="50.58213" lon="3.23452">
        <ele>52</ele>
        <time>2017-08-25T06:12:40Z</time>
      </trkpt>
      <trkpt lat="50.58261" lon="3.23433">
        <ele>52</ele>
        <time>2017-08-25T06:14:40Z</time>
      </trkpt>
      <trkpt lat="50.58299" lon="3.23416">
        <ele>51</ele>
        <time>2017-08-25T06:16:40Z</time>
      </trkpt>
      <trkpt lat="50.58354" lon="3.23386">
        <ele>51</ele>
        <time>2017-08-25T06:18:40Z</time>
      </trkpt>
      <trkpt lat="50.58427" lon="3.23347">
        <ele>50</ele>
        <time>2017-08-25T06:20:40Z</time>
      </trkpt>
      <trkpt lat="50.58462" lon="3.23326">
        <ele>50</ele>
        <time>2017-08-25T06:22:40Z</time>
      </trkpt>
      <trkpt lat="50.58473" lon="3.2332">
        <ele>51</ele>
        <time>2017-08-25T06:24:40Z</time>
      </trkpt>
      <trkpt lat="50.58509" lon="3.23294">
        <ele>51</ele>
        <time>2017-08-25T06:26:40Z</time>
      </trkpt>
      <trkpt lat="50.58526" lon="3.2328">
        <ele>51</ele>
        <time>2017-08-25T06:28:40Z</time>
      </trkpt>
      <trkpt lat="50.58534" lon="3.23271">
        <ele>51</ele>
        <time>2017-08-25T06:30:40Z</time>
      </trkpt>
      <trkpt lat="50.58547" lon="3.23258">
        <ele>51</ele>
        <time>2017-08-25T06:32:40Z</time>
      </trkpt>
      <trkpt lat="50.58612" lon="3.23194">
        <ele>51</ele>
        <time>2017-08-25T06:34:40Z</time>
      </trkpt>
      <trkpt lat="50.58615" lon="3.2319">
        <ele>51</ele>
        <time>2017-08-25T06:36:40Z</time>
      </trkpt>
      <trkpt lat="50.58625" lon="3.23182">
        <ele>51</ele>
        <time>2017-08-25T06:38:40Z</time>
      </trkpt>
      <trkpt lat="50.58625" lon="3.23182">
        <ele>51</ele>
        <time>2017-08-25T06:40:40Z</time>
      </trkpt>
      <trkpt lat="50.5867" lon="3.23139">
        <ele>51</ele>
        <time>2017-08-25T06:42:40Z</time>
      </trkpt>
      <trkpt lat="50.58693" lon="3.23125">
        <ele>50</ele>
        <time>2017-08-25T06:44:40Z</time>
      </trkpt>
      <trkpt lat="50.588" lon="3.23069">
        <ele>49</ele>
        <time>2017-08-25T06:46:40Z</time>
      </trkpt>
      <trkpt lat="50.58944" lon="3.22996">
        <ele>50</ele>
        <time>2017-08-25T06:48:40Z</time>
      </trkpt>
      <trkpt lat="50.58963" lon="3.22987">
        <ele>49</ele>
        <time>2017-08-25T06:50:40Z</time>
      </trkpt>
      <trkpt lat="50.58968" lon="3.22984">
        <ele>49</ele>
        <time>2017-08-25T06:52:40Z</time>
      </trkpt>
      <trkpt lat="50.58971" lon="3.22981">
        <ele>49</ele>
        <time>2017-08-25T06:54:40Z</time>
      </trkpt>
      <trkpt lat="50.58975" lon="3.22976">
        <ele>49</ele>
        <time>2017-08-25T06:56:40Z</time>
      </trkpt>
      <trkpt lat="50.58975" lon="3.22976">
        <ele>49</ele>
        <time>2017-08-25T06:58:40Z</time>
      </trkpt>
      <trkpt lat="50.58981" lon="3.2298">
        <ele>49</ele>
        <time>2017-08-25T07:00:40Z</time>
      </trkpt>
      <trkpt lat="50.58983" lon="3.22981">
        <ele>49</ele>
        <time>2017-08-25T07:02:40Z</time>
      </trkpt>
      <trkpt lat="50.58983" lon="3.22981">
        <ele>49</ele>
        <time>2017-08-25T07:04:40Z</time>
      </trkpt>
      <trkpt lat="50.58997" lon="3.22995">
        <ele>49</ele>
        <time>2017-08-25T07:06:40Z</time>
      </trkpt>
      <trkpt lat="50.59005" lon="3.23003">
        <ele>49</ele>
        <time>2017-08-25T07:08:40Z</time>
      </trkpt>
      <trkpt lat="50.59035" lon="3.23031">
        <ele>49</ele>
        <time>2017-08-25T07:10:40Z</time>
      </trkpt>
      <trkpt lat="50.59116" lon="3.23104">
        <ele>48</ele>
        <time>2017-08-25T07:12:40Z</time>
      </trkpt>
      <trkpt lat="50.59119" lon="3.23107">
        <ele>48</ele>
        <time>2017-08-25T07:14:40Z</time>
      </trkpt>
      <trkpt lat="50.59135" lon="3.23121">
        <ele>48</ele>
        <time>2017-08-25T07:16:40Z</time>
      </trkpt>
      <trkpt lat="50.59202" lon="3.23173">
        <ele>48</ele>
        <time>2017-08-25T07:18:40Z</time>
      </trkpt>
      <trkpt lat="50.59233" lon="3.23195">
        <ele>48</ele>
        <time>2017-08-25T07:20:40Z</time>
      </trkpt>
      <trkpt lat="50.5925" lon="3.23207">
        <ele>48</ele>
        <time>2017-08-25T07:22:40Z</time>
      </trkpt>
      <trkpt lat="50.59302" lon="3.23243">
        <ele>47</ele>
        <time>2017-08-25T07:24:40Z</time>
      </trkpt>
      <trkpt lat="50.59334" lon="3.23264">
        <ele>46</ele>
        <time>2017-08-25T07:26:40Z</time>
      </trkpt>
      <trkpt lat="50.59355" lon="3.23283">
        <ele>46</ele>
        <time>2017-08-25T07:28:40Z</time>
      </trkpt>
      <trkpt lat="50.59362" lon="3.23289">
        <ele>46</ele>
        <time>2017-08-25T07:30:40Z</time>
      </trkpt>
      <trkpt lat="50.59403" lon="3.2333">
        <ele>45</ele>
        <time>2017-08-25T07:32:40Z</time>
      </trkpt>
      <trkpt lat="50.59406" lon="3.23333">
        <ele>45</ele>
        <time>2017-08-25T07:34:40Z</time>
      </trkpt>
      <trkpt lat="50.5947" lon="3.23403">
        <ele>46</ele>
        <time>2017-08-25T07:36:40Z</time>
      </trkpt>
      <trkpt lat="50.59538" lon="3.23484">
        <ele>47</ele>
        <time>2017-08-25T07:38:40Z</time>
      </trkpt>
      <trkpt lat="50.5954" lon="3.23487">
        <ele>47</ele>
        <time>2017-08-25T07:40:40Z</time>
      </trkpt>
      <trkpt lat="50.5958" lon="3.23533">
        <ele>47</ele>
        <time>2017-08-25T07:42:40Z</time>
      </trkpt>
      <trkpt lat="50.59631" lon="3.23592">
        <ele>46</ele>
        <time>2017-08-25T07:44:40Z</time>
      </trkpt>
      <trkpt lat="50.59666" lon="3.23626">
        <ele>46</ele>
        <time>2017-08-25T07:46:40Z</time>
      </trkpt>
      <trkpt lat="50.59666" lon="3.23626">
        <ele>46</ele>
        <time>2017-08-25T07:48:40Z</time>
      </trkpt>
      <trkpt lat="50.59663" lon="3.23637">
        <ele>46</ele>
        <time>2017-08-25T07:50:40Z</time>
      </trkpt>
      <trkpt lat="50.59642" lon="3.23738">
        <ele>46</ele>
        <time>2017-08-25T07:52:40Z</time>
      </trkpt>
      <trkpt lat="50.59634" lon="3.23773">
        <ele>46</ele>
        <time>2017-08-25T07:54:40Z</time>
      </trkpt>
      <trkpt lat="50.59625" lon="3.23799">
        <ele>46</ele>
        <time>2017-08-25T07:56:40Z</time>
      </trkpt>
      <trkpt lat="50.59612" lon="3.23836">
        <ele>46</ele>
        <time>2017-08-25T07:58:40Z</time>
      </trkpt>
      <trkpt lat="50.59609" lon="3.23845">
        <ele>46</ele>
        <time>2017-08-25T08:00:40Z</time>
      </trkpt>
      <trkpt lat="50.59605" lon="3.2386">
        <ele>46</ele>
        <time>2017-08-25T08:02:40Z</time>
      </trkpt>
      <trkpt lat="50.59584" lon="3.23926">
        <ele>45</ele>
        <time>2017-08-25T08:04:40Z</time>
      </trkpt>
      <trkpt lat="50.59565" lon="3.23987">
        <ele>45</ele>
        <time>2017-08-25T08:06:40Z</time>
      </trkpt>
      <trkpt lat="50.59556" lon="3.24023">
        <ele>45</ele>
        <time>2017-08-25T08:08:40Z</time>
      </trkpt>
      <trkpt lat="50.59552" lon="3.24049">
        <ele>45</ele>
        <time>2017-08-25T08:10:40Z</time>
      </trkpt>
      <trkpt lat="50.59549" lon="3.24066">
        <ele>45</ele>
        <time>2017-08-25T08:12:40Z</time>
      </trkpt>
      <trkpt lat="50.59547" lon="3.24083">
        <ele>45</ele>
        <time>2017-08-25T08:14:40Z</time>
      </trkpt>
      <trkpt lat="50.59544" lon="3.24107">
        <ele>45</ele>
        <time>2017-08-25T08:16:40Z</time>
      </trkpt>
      <trkpt lat="50.5954" lon="3.24134">
        <ele>46</ele>
        <time>2017-08-25T08:18:40Z</time>
      </trkpt>
      <trkpt lat="50.59537" lon="3.24156">
        <ele>46</ele>
        <time>2017-08-25T08:20:40Z</time>
      </trkpt>
      <trkpt lat="50.59532" lon="3.2418">
        <ele>46</ele>
        <time>2017-08-25T08:22:40Z</time>
      </trkpt>
      <trkpt lat="50.59528" lon="3.24202">
        <ele>47</ele>
        <time>2017-08-25T08:24:40Z</time>
      </trkpt>
      <trkpt lat="50.59524" lon="3.24219">
        <ele>47</ele>
        <time>2017-08-25T08:26:40Z</time>
      </trkpt>
      <trkpt lat="50.59521" lon="3.24232">
        <ele>48</ele>
        <time>2017-08-25T08:28:40Z</time>
      </trkpt>
      <trkpt lat="50.59519" lon="3.2424">
        <ele>48</ele>
        <time>2017-08-25T08:30:40Z</time>
      </trkpt>
      <trkpt lat="50.59517" lon="3.2425">
        <ele>49</ele>
        <time>2017-08-25T08:32:40Z</time>
      </trkpt>
      <trkpt lat="50.59515" lon="3.24258">
        <ele>49</ele>
        <time>2017-08-25T08:34:40Z</time>
      </trkpt>
      <trkpt lat="50.59512" lon="3.24266">
        <ele>49</ele>
        <time>2017-08-25T08:36:40Z</time>
      </trkpt>
      <trkpt lat="50.59509" lon="3.24274">
        <ele>50</ele>
        <time>2017-08-25T08:38:40Z</time>
      </trkpt>
      <trkpt lat="50.59505" lon="3.24281">
        <ele>50</ele>
        <time>2017-08-25T08:40:40Z</time>
      </trkpt>
      <trkpt lat="50.59499" lon="3.2429">
        <ele>51</ele>
        <time>2017-08-25T08:42:40Z</time>
      </trkpt>
      <trkpt lat="50.59492" lon="3.24302">
        <ele>51</ele>
        <time>2017-08-25T08:44:40Z</time>
      </trkpt>
      <trkpt lat="50.59484" lon="3.24313">
        <ele>52</ele>
        <time>2017-08-25T08:46:40Z</time>
      </trkpt>
      <trkpt lat="50.59478" lon="3.2432">
        <ele>52</ele>
        <time>2017-08-25T08:48:40Z</time>
      </trkpt>
      <trkpt lat="50.59471" lon="3.24328">
        <ele>52</ele>
        <time>2017-08-25T08:50:40Z</time>
      </trkpt>
      <trkpt lat="50.59461" lon="3.24338">
        <ele>52</ele>
        <time>2017-08-25T08:52:40Z</time>
      </trkpt>
      <trkpt lat="50.59443" lon="3.24357">
        <ele>51</ele>
        <time>2017-08-25T08:54:40Z</time>
      </trkpt>
      <trkpt lat="50.59422" lon="3.2438">
        <ele>50</ele>
        <time>2017-08-25T08:56:40Z</time>
      </trkpt>
      <trkpt lat="50.5941" lon="3.24394">
        <ele>50</ele>
        <time>2017-08-25T08:58:40Z</time>
      </trkpt>
      <trkpt lat="50.59398" lon="3.2441">
        <ele>50</ele>
        <time>2017-08-25T09:00:40Z</time>
      </trkpt>
      <trkpt lat="50.59393" lon="3.24418">
        <ele>50</ele>
        <time>2017-08-25T09:02:40Z</time>
      </trkpt>
      <trkpt lat="50.5939" lon="3.24423">
        <ele>50</ele>
        <time>2017-08-25T09:04:40Z</time>
      </trkpt>
      <trkpt lat="50.59389" lon="3.24428">
        <ele>50</ele>
        <time>2017-08-25T09:06:40Z</time>
      </trkpt>
      <trkpt lat="50.59388" lon="3.24434">
        <ele>50</ele>
        <time>2017-08-25T09:08:40Z</time>
      </trkpt>
      <trkpt lat="50.59387" lon="3.2444">
        <ele>50</ele>
        <time>2017-08-25T09:10:40Z</time>
      </trkpt>
      <trkpt lat="50.59387" lon="3.24447">
        <ele>50</ele>
        <time>2017-08-25T09:12:40Z</time>
      </trkpt>
      <trkpt lat="50.59388" lon="3.24453">
        <ele>50</ele>
        <time>2017-08-25T09:14:40Z</time>
      </trkpt>
      <trkpt lat="50.5939" lon="3.24468">
        <ele>50</ele>
        <time>2017-08-25T09:16:40Z</time>
      </trkpt>
      <trkpt lat="50.59396" lon="3.24505">
        <ele>50</ele>
        <time>2017-08-25T09:18:40Z</time>
      </trkpt>
      <trkpt lat="50.59405" lon="3.24551">
        <ele>50</ele>
        <time>2017-08-25T09:20:40Z</time>
      </trkpt>
      <trkpt lat="50.59409" lon="3.24571">
        <ele>49</ele>
        <time>2017-08-25T09:22:40Z</time>
      </trkpt>
      <trkpt lat="50.59414" lon="3.24596">
        <ele>49</ele>
        <time>2017-08-25T09:24:40Z</time>
      </trkpt>
      <trkpt lat="50.59419" lon="3.24612">
        <ele>48</ele>
        <time>2017-08-25T09:26:40Z</time>
      </trkpt>
      <trkpt lat="50.59425" lon="3.24631">
        <ele>48</ele>
        <time>2017-08-25T09:28:40Z</time>
      </trkpt>
      <trkpt lat="50.59433" lon="3.24652">
        <ele>48</ele>
        <time>2017-08-25T09:30:40Z</time>
      </trkpt>
      <trkpt lat="50.59438" lon="3.24666">
        <ele>48</ele>
        <time>2017-08-25T09:32:40Z</time>
      </trkpt>
      <trkpt lat="50.59439" lon="3.24671">
        <ele>48</ele>
        <time>2017-08-25T09:34:40Z</time>
      </trkpt>
      <trkpt lat="50.5944" lon="3.24677">
        <ele>48</ele>
        <time>2017-08-25T09:36:40Z</time>
      </trkpt>
      <trkpt lat="50.5944" lon="3.24682">
        <ele>48</ele>
        <time>2017-08-25T09:38:40Z</time>
      </trkpt>
      <trkpt lat="50.5944" lon="3.24686">
        <ele>48</ele>
        <time>2017-08-25T09:40:40Z</time>
      </trkpt>
      <trkpt lat="50.59438" lon="3.24691">
        <ele>48</ele>
        <time>2017-08-25T09:42:40Z</time>
      </trkpt>
      <trkpt lat="50.59435" lon="3.24699">
        <ele>48</ele>
        <time>2017-08-25T09:44:40Z</time>
      </trkpt>
      <trkpt lat="50.59425" lon="3.24711">
        <ele>47</ele>
        <time>2017-08-25T09:46:40Z</time>
      </trkpt>
      <trkpt lat="50.59405" lon="3.24735">
        <ele>47</ele>
        <time>2017-08-25T09:48:40Z</time>
      </trkpt>
      <trkpt lat="50.59396" lon="3.24747">
        <ele>47</ele>
        <time>2017-08-25T09:50:40Z</time>
      </trkpt>
      <trkpt lat="50.59393" lon="3.24751">
        <ele>47</ele>
        <time>2017-08-25T09:52:40Z</time>
      </trkpt>
      <trkpt lat="50.59391" lon="3.24756">
        <ele>47</ele>
        <time>2017-08-25T09:54:40Z</time>
      </trkpt>
      <trkpt lat="50.5939" lon="3.2476">
        <ele>47</ele>
        <time>2017-08-25T09:56:40Z</time>
      </trkpt>
      <trkpt lat="50.5939" lon="3.24765">
        <ele>47</ele>
        <time>2017-08-25T09:58:40Z</time>
      </trkpt>
      <trkpt lat="50.59389" lon="3.24771">
        <ele>47</ele>
        <time>2017-08-25T10:00:40Z</time>
      </trkpt>
      <trkpt lat="50.5939" lon="3.24777">
        <ele>47</ele>
        <time>2017-08-25T10:02:40Z</time>
      </trkpt>
      <trkpt lat="50.59391" lon="3.24784">
        <ele>47</ele>
        <time>2017-08-25T10:04:40Z</time>
      </trkpt>
      <trkpt lat="50.59395" lon="3.24793">
        <ele>47</ele>
        <time>2017-08-25T10:06:40Z</time>
      </trkpt>
      <trkpt lat="50.59401" lon="3.24809">
        <ele>47</ele>
        <time>2017-08-25T10:08:40Z</time>
      </trkpt>
      <trkpt lat="50.59407" lon="3.24824">
        <ele>47</ele>
        <time>2017-08-25T10:10:40Z</time>
      </trkpt>
      <trkpt lat="50.59413" lon="3.2484">
        <ele>47</ele>
        <time>2017-08-25T10:12:40Z</time>
      </trkpt>
      <trkpt lat="50.5942" lon="3.24859">
        <ele>47</ele>
        <time>2017-08-25T10:14:40Z</time>
      </trkpt>
      <trkpt lat="50.59422" lon="3.24869">
        <ele>47</ele>
        <time>2017-08-25T10:16:40Z</time>
      </trkpt>
      <trkpt lat="50.59425" lon="3.2488">
        <ele>47</ele>
        <time>2017-08-25T10:18:40Z</time>
      </trkpt>
      <trkpt lat="50.59425" lon="3.24886">
        <ele>47</ele>
        <time>2017-08-25T10:20:40Z</time>
      </trkpt>
      <trkpt lat="50.59425" lon="3.24891">
        <ele>47</ele>
        <time>2017-08-25T10:22:40Z</time>
      </trkpt>
      <trkpt lat="50.59425" lon="3.24896">
        <ele>47</ele>
        <time>2017-08-25T10:24:40Z</time>
      </trkpt>
      <trkpt lat="50.59424" lon="3.249">
        <ele>47</ele>
        <time>2017-08-25T10:26:40Z</time>
      </trkpt>
      <trkpt lat="50.59423" lon="3.24905">
        <ele>47</ele>
        <time>2017-08-25T10:28:40Z</time>
      </trkpt>
      <trkpt lat="50.59421" lon="3.2491">
        <ele>47</ele>
        <time>2017-08-25T10:30:40Z</time>
      </trkpt>
      <trkpt lat="50.5942" lon="3.24912">
        <ele>47</ele>
        <time>2017-08-25T10:32:40Z</time>
      </trkpt>
      <trkpt lat="50.5942" lon="3.24912">
        <ele>47</ele>
        <time>2017-08-25T10:34:40Z</time>
      </trkpt>
      <trkpt lat="50.59418" lon="3.24915">
        <ele>47</ele>
        <time>2017-08-25T10:36:40Z</time>
      </trkpt>
      <trkpt lat="50.59413" lon="3.24921">
        <ele>47</ele>
        <time>2017-08-25T10:38:40Z</time>
      </trkpt>
      <trkpt lat="50.59395" lon="3.24943">
        <ele>47</ele>
        <time>2017-08-25T10:40:40Z</time>
      </trkpt>
      <trkpt lat="50.59373" lon="3.24972">
        <ele>48</ele>
        <time>2017-08-25T10:42:40Z</time>
      </trkpt>
      <trkpt lat="50.59373" lon="3.24972">
        <ele>48</ele>
        <time>2017-08-25T10:44:40Z</time>
      </trkpt>
      <trkpt lat="50.59411" lon="3.25041">
        <ele>48</ele>
        <time>2017-08-25T10:46:40Z</time>
      </trkpt>
      <trkpt lat="50.59419" lon="3.25055">
        <ele>48</ele>
        <time>2017-08-25T10:48:40Z</time>
      </trkpt>
      <trkpt lat="50.59428" lon="3.25068">
        <ele>48</ele>
        <time>2017-08-25T10:50:40Z</time>
      </trkpt>
      <trkpt lat="50.59442" lon="3.2509">
        <ele>48</ele>
        <time>2017-08-25T10:52:40Z</time>
      </trkpt>
      <trkpt lat="50.5945" lon="3.25101">
        <ele>48</ele>
        <time>2017-08-25T10:54:40Z</time>
      </trkpt>
      <trkpt lat="50.59455" lon="3.25112">
        <ele>48</ele>
        <time>2017-08-25T10:56:40Z</time>
      </trkpt>
      <trkpt lat="50.59459" lon="3.25121">
        <ele>48</ele>
        <time>2017-08-25T10:58:40Z</time>
      </trkpt>
      <trkpt lat="50.59461" lon="3.25133">
        <ele>48</ele>
        <time>2017-08-25T11:00:40Z</time>
      </trkpt>
      <trkpt lat="50.59463" lon="3.25146">
        <ele>48</ele>
        <time>2017-08-25T11:02:40Z</time>
      </trkpt>
      <trkpt lat="50.59465" lon="3.25162">
        <ele>48</ele>
        <time>2017-08-25T11:04:40Z</time>
      </trkpt>
      <trkpt lat="50.59467" lon="3.25199">
        <ele>48</ele>
        <time>2017-08-25T11:06:40Z</time>
      </trkpt>
      <trkpt lat="50.5947" lon="3.25244">
        <ele>48</ele>
        <time>2017-08-25T11:08:40Z</time>
      </trkpt>
      <trkpt lat="50.59471" lon="3.25267">
        <ele>48</ele>
        <time>2017-08-25T11:10:40Z</time>
      </trkpt>
      <trkpt lat="50.59471" lon="3.25267">
        <ele>48</ele>
        <time>2017-08-25T11:12:40Z</time>
      </trkpt>
      <trkpt lat="50.59473" lon="3.25266">
        <ele>48</ele>
        <time>2017-08-25T11:14:40Z</time>
      </trkpt>
      <trkpt lat="50.59475" lon="3.25266">
        <ele>48</ele>
        <time>2017-08-25T11:16:40Z</time>
      </trkpt>
      <trkpt lat="50.5948" lon="3.25263">
        <ele>48</ele>
        <time>2017-08-25T11:18:40Z</time>
      </trkpt>
      <trkpt lat="50.59489" lon="3.25259">
        <ele>48</ele>
        <time>2017-08-25T11:20:40Z</time>
      </trkpt>
      <trkpt lat="50.59494" lon="3.25256">
        <ele>48</ele>
        <time>2017-08-25T11:22:40Z</time>
      </trkpt>
      <trkpt lat="50.59503" lon="3.25252">
        <ele>48</ele>
        <time>2017-08-25T11:24:40Z</time>
      </trkpt>
      <trkpt lat="50.59522" lon="3.25243">
        <ele>49</ele>
        <time>2017-08-25T11:26:40Z</time>
      </trkpt>
      <trkpt lat="50.59536" lon="3.25236">
        <ele>49</ele>
        <time>2017-08-25T11:28:40Z</time>
      </trkpt>
      <trkpt lat="50.59552" lon="3.25229">
        <ele>49</ele>
        <time>2017-08-25T11:30:40Z</time>
      </trkpt>
      <trkpt lat="50.59564" lon="3.25223">
        <ele>50</ele>
        <time>2017-08-25T11:32:40Z</time>
      </trkpt>
      <trkpt lat="50.5957" lon="3.25221">
        <ele>50</ele>
        <time>2017-08-25T11:34:40Z</time>
      </trkpt>
      <trkpt lat="50.59575" lon="3.2522">
        <ele>50</ele>
        <time>2017-08-25T11:36:40Z</time>
      </trkpt>
      <trkpt lat="50.59579" lon="3.25221">
        <ele>50</ele>
        <time>2017-08-25T11:38:40Z</time>
      </trkpt>
      <trkpt lat="50.59582" lon="3.25222">
        <ele>50</ele>
        <time>2017-08-25T11:40:40Z</time>
      </trkpt>
      <trkpt lat="50.59587" lon="3.25226">
        <ele>51</ele>
        <time>2017-08-25T11:42:40Z</time>
      </trkpt>
      <trkpt lat="50.5959" lon="3.25228">
        <ele>51</ele>
        <time>2017-08-25T11:44:40Z</time>
      </trkpt>
      <trkpt lat="50.59594" lon="3.25235">
        <ele>51</ele>
        <time>2017-08-25T11:46:40Z</time>
      </trkpt>
      <trkpt lat="50.59597" lon="3.25241">
        <ele>51</ele>
        <time>2017-08-25T11:48:40Z</time>
      </trkpt>
      <trkpt lat="50.596" lon="3.25249">
        <ele>51</ele>
        <time>2017-08-25T11:50:40Z</time>
      </trkpt>
      <trkpt lat="50.59604" lon="3.25261">
        <ele>51</ele>
        <time>2017-08-25T11:52:40Z</time>
      </trkpt>
      <trkpt lat="50.59608" lon="3.25273">
        <ele>50</ele>
        <time>2017-08-25T11:54:40Z</time>
      </trkpt>
      <trkpt lat="50.59613" lon="3.25282">
        <ele>50</ele>
        <time>2017-08-25T11:56:40Z</time>
      </trkpt>
      <trkpt lat="50.59617" lon="3.25292">
        <ele>50</ele>
        <time>2017-08-25T11:58:40Z</time>
      </trkpt>
      <trkpt lat="50.59624" lon="3.253">
        <ele>50</ele>
        <time>2017-08-25T12:00:40Z</time>
      </trkpt>
      <trkpt lat="50.59631" lon="3.25308">
        <ele>50</ele>
        <time>2017-08-25T12:02:40Z</time>
      </trkpt>
      <trkpt lat="50.5964" lon="3.25317">
        <ele>49</ele>
        <time>2017-08-25T12:04:40Z</time>
      </trkpt>
      <trkpt lat="50.59655" lon="3.25328">
        <ele>49</ele>
        <time>2017-08-25T12:06:40Z</time>
      </trkpt>
      <trkpt lat="50.59664" lon="3.25336">
        <ele>49</ele>
        <time>2017-08-25T12:08:40Z</time>
      </trkpt>
      <trkpt lat="50.59673" lon="3.25342">
        <ele>49</ele>
        <time>2017-08-25T12:10:40Z</time>
      </trkpt>
      <trkpt lat="50.5968" lon="3.25348">
        <ele>50</ele>
        <time>2017-08-25T12:12:40Z</time>
      </trkpt>
      <trkpt lat="50.59687" lon="3.25354">
        <ele>50</ele>
        <time>2017-08-25T12:14:40Z</time>
      </trkpt>
      <trkpt lat="50.59697" lon="3.25364">
        <ele>50</ele>
        <time>2017-08-25T12:16:40Z</time>
      </trkpt>
      <trkpt lat="50.59704" lon="3.25373">
        <ele>50</ele>
        <time>2017-08-25T12:18:40Z</time>
      </trkpt>
      <trkpt lat="50.59712" lon="3.25385">
        <ele>50</ele>
        <time>2017-08-25T12:20:40Z</time>
      </trkpt>
      <trkpt lat="50.5972" lon="3.25398">
        <ele>50</ele>
        <time>2017-08-25T12:22:40Z</time>
      </trkpt>
      <trkpt lat="50.5972" lon="3.25399">
        <ele>50</ele>
        <time>2017-08-25T12:24:40Z</time>
      </trkpt>
      <trkpt lat="50.59727" lon="3.25412">
        <ele>50</ele>
        <time>2017-08-25T12:26:40Z</time>
      </trkpt>
      <trkpt lat="50.59736" lon="3.25428">
        <ele>49</ele>
        <time>2017-08-25T12:28:40Z</time>
      </trkpt>
      <trkpt lat="50.59744" lon="3.25444">
        <ele>49</ele>
        <time>2017-08-25T12:30:40Z</time>
      </trkpt>
      <trkpt lat="50.59751" lon="3.2546">
        <ele>48</ele>
        <time>2017-08-25T12:32:40Z</time>
      </trkpt>
      <trkpt lat="50.59758" lon="3.25476">
        <ele>48</ele>
        <time>2017-08-25T12:34:40Z</time>
      </trkpt>
      <trkpt lat="50.59766" lon="3.25496">
        <ele>47</ele>
        <time>2017-08-25T12:36:40Z</time>
      </trkpt>
      <trkpt lat="50.59773" lon="3.25514">
        <ele>47</ele>
        <time>2017-08-25T12:38:40Z</time>
      </trkpt>
      <trkpt lat="50.59773" lon="3.25514">
        <ele>47</ele>
        <time>2017-08-25T12:40:40Z</time>
      </trkpt>
      <trkpt lat="50.59831" lon="3.25439">
        <ele>50</ele>
        <time>2017-08-25T12:42:40Z</time>
      </trkpt>
      <trkpt lat="50.59852" lon="3.25413">
        <ele>51</ele>
        <time>2017-08-25T12:44:40Z</time>
      </trkpt>
      <trkpt lat="50.59861" lon="3.25401">
        <ele>51</ele>
        <time>2017-08-25T12:46:40Z</time>
      </trkpt>
      <trkpt lat="50.59877" lon="3.25381">
        <ele>50</ele>
        <time>2017-08-25T12:48:40Z</time>
      </trkpt>
      <trkpt lat="50.59893" lon="3.25362">
        <ele>50</ele>
        <time>2017-08-25T12:50:40Z</time>
      </trkpt>
      <trkpt lat="50.59906" lon="3.25346">
        <ele>49</ele>
        <time>2017-08-25T12:52:40Z</time>
      </trkpt>
      <trkpt lat="50.59916" lon="3.25336">
        <ele>48</ele>
        <time>2017-08-25T12:54:40Z</time>
      </trkpt>
      <trkpt lat="50.59925" lon="3.25327">
        <ele>48</ele>
        <time>2017-08-25T12:56:40Z</time>
      </trkpt>
      <trkpt lat="50.59929" lon="3.25324">
        <ele>48</ele>
        <time>2017-08-25T12:58:40Z</time>
      </trkpt>
      <trkpt lat="50.59934" lon="3.2532">
        <ele>49</ele>
        <time>2017-08-25T13:00:40Z</time>
      </trkpt>
      <trkpt lat="50.5994" lon="3.25318">
        <ele>49</ele>
        <time>2017-08-25T13:02:40Z</time>
      </trkpt>
      <trkpt lat="50.59945" lon="3.25316">
        <ele>49</ele>
        <time>2017-08-25T13:04:40Z</time>
      </trkpt>
      <trkpt lat="50.59949" lon="3.25315">
        <ele>49</ele>
        <time>2017-08-25T13:06:40Z</time>
      </trkpt>
      <trkpt lat="50.59953" lon="3.25314">
        <ele>49</ele>
        <time>2017-08-25T13:08:40Z</time>
      </trkpt>
      <trkpt lat="50.59958" lon="3.25313">
        <ele>49</ele>
        <time>2017-08-25T13:10:40Z</time>
      </trkpt>
      <trkpt lat="50.59966" lon="3.25312">
        <ele>49</ele>
        <time>2017-08-25T13:12:40Z</time>
      </trkpt>
      <trkpt lat="50.59968" lon="3.25312">
        <ele>49</ele>
        <time>2017-08-25T13:14:40Z</time>
      </trkpt>
      <trkpt lat="50.5997" lon="3.25311">
        <ele>49</ele>
        <time>2017-08-25T13:16:40Z</time>
      </trkpt>
      <trkpt lat="50.59972" lon="3.2531">
        <ele>49</ele>
        <time>2017-08-25T13:18:40Z</time>
      </trkpt>
      <trkpt lat="50.59974" lon="3.25308">
        <ele>49</ele>
        <time>2017-08-25T13:20:40Z</time>
      </trkpt>
      <trkpt lat="50.59977" lon="3.25304">
        <ele>50</ele>
        <time>2017-08-25T13:22:40Z</time>
      </trkpt>
      <trkpt lat="50.5998" lon="3.253">
        <ele>50</ele>
        <time>2017-08-25T13:24:40Z</time>
      </trkpt>
      <trkpt lat="50.59986" lon="3.25293">
        <ele>51</ele>
        <time>2017-08-25T13:26:40Z</time>
      </trkpt>
      <trkpt lat="50.59992" lon="3.25288">
        <ele>51</ele>
        <time>2017-08-25T13:28:40Z</time>
      </trkpt>
      <trkpt lat="50.59998" lon="3.25281">
        <ele>52</ele>
        <time>2017-08-25T13:30:40Z</time>
      </trkpt>
      <trkpt lat="50.60005" lon="3.25276">
        <ele>52</ele>
        <time>2017-08-25T13:32:40Z</time>
      </trkpt>
      <trkpt lat="50.60049" lon="3.25255">
        <ele>50</ele>
        <time>2017-08-25T13:34:40Z</time>
      </trkpt>
      <trkpt lat="50.60093" lon="3.25224">
        <ele>47</ele>
        <time>2017-08-25T13:36:40Z</time>
      </trkpt>
      <trkpt lat="50.60103" lon="3.25214">
        <ele>47</ele>
        <time>2017-08-25T13:38:40Z</time>
      </trkpt>
      <trkpt lat="50.60118" lon="3.25202">
        <ele>47</ele>
        <time>2017-08-25T13:40:40Z</time>
      </trkpt>
      <trkpt lat="50.6012" lon="3.25201">
        <ele>46</ele>
        <time>2017-08-25T13:42:40Z</time>
      </trkpt>
      <trkpt lat="50.60127" lon="3.25195">
        <ele>46</ele>
        <time>2017-08-25T13:44:40Z</time>
      </trkpt>
      <trkpt lat="50.60136" lon="3.25187">
        <ele>46</ele>
        <time>2017-08-25T13:46:40Z</time>
      </trkpt>
      <trkpt lat="50.60151" lon="3.25179">
        <ele>46</ele>
        <time>2017-08-25T13:48:40Z</time>
      </trkpt>
      <trkpt lat="50.60167" lon="3.25167">
        <ele>45</ele>
        <time>2017-08-25T13:50:40Z</time>
      </trkpt>
      <trkpt lat="50.60176" lon="3.2516">
        <ele>44</ele>
        <time>2017-08-25T13:52:40Z</time>
      </trkpt>
      <trkpt lat="50.60183" lon="3.25156">
        <ele>44</ele>
        <time>2017-08-25T13:54:40Z</time>
      </trkpt>
      <trkpt lat="50.60191" lon="3.2515">
        <ele>43</ele>
        <time>2017-08-25T13:56:40Z</time>
      </trkpt>
      <trkpt lat="50.60198" lon="3.25146">
        <ele>43</ele>
        <time>2017-08-25T13:58:40Z</time>
      </trkpt>
      <trkpt lat="50.60204" lon="3.25143">
        <ele>42</ele>
        <time>2017-08-25T14:00:40Z</time>
      </trkpt>
      <trkpt lat="50.6021" lon="3.2514">
        <ele>42</ele>
        <time>2017-08-25T14:02:40Z</time>
      </trkpt>
      <trkpt lat="50.60224" lon="3.25132">
        <ele>41</ele>
        <time>2017-08-25T14:04:40Z</time>
      </trkpt>
      <trkpt lat="50.60229" lon="3.25129">
        <ele>41</ele>
        <time>2017-08-25T14:06:40Z</time>
      </trkpt>
      <trkpt lat="50.60239" lon="3.25128">
        <ele>40</ele>
        <time>2017-08-25T14:08:40Z</time>
      </trkpt>
      <trkpt lat="50.60248" lon="3.25127">
        <ele>40</ele>
        <time>2017-08-25T14:10:40Z</time>
      </trkpt>
      <trkpt lat="50.60258" lon="3.25127">
        <ele>40</ele>
        <time>2017-08-25T14:12:40Z</time>
      </trkpt>
      <trkpt lat="50.60267" lon="3.25129">
        <ele>40</ele>
        <time>2017-08-25T14:14:40Z</time>
      </trkpt>
      <trkpt lat="50.60278" lon="3.25131">
        <ele>40</ele>
        <time>2017-08-25T14:16:40Z</time>
      </trkpt>
      <trkpt lat="50.60291" lon="3.25137">
        <ele>40</ele>
        <time>2017-08-25T14:18:40Z</time>
      </trkpt>
      <trkpt lat="50.60293" lon="3.25138">
        <ele>40</ele>
        <time>2017-08-25T14:20:40Z</time>
      </trkpt>
      <trkpt lat="50.60293" lon="3.25138">
        <ele>40</ele>
        <time>2017-08-25T14:22:40Z</time>
      </trkpt>
      <trkpt lat="50.60291" lon="3.25131">
        <ele>40</ele>
        <time>2017-08-25T14:24:40Z</time>
      </trkpt>
      <trkpt lat="50.6029" lon="3.25127">
        <ele>40</ele>
        <time>2017-08-25T14:26:40Z</time>
      </trkpt>
      <trkpt lat="50.60288" lon="3.25122">
        <ele>39</ele>
        <time>2017-08-25T14:28:40Z</time>
      </trkpt>
      <trkpt lat="50.60286" lon="3.25119">
        <ele>39</ele>
        <time>2017-08-25T14:30:40Z</time>
      </trkpt>
      <trkpt lat="50.6028" lon="3.25115">
        <ele>39</ele>
        <time>2017-08-25T14:32:40Z</time>
      </trkpt>
      <trkpt lat="50.60253" lon="3.25107">
        <ele>39</ele>
        <time>2017-08-25T14:34:40Z</time>
      </trkpt>
      <trkpt lat="50.60247" lon="3.25104">
        <ele>39</ele>
        <time>2017-08-25T14:36:40Z</time>
      </trkpt>
      <trkpt lat="50.60243" lon="3.25102">
        <ele>40</ele>
        <time>2017-08-25T14:38:40Z</time>
      </trkpt>
      <trkpt lat="50.6024" lon="3.25097">
        <ele>40</ele>
        <time>2017-08-25T14:40:40Z</time>
      </trkpt>
      <trkpt lat="50.60239" lon="3.25092">
        <ele>40</ele>
        <time>2017-08-25T14:42:40Z</time>
      </trkpt>
      <trkpt lat="50.60238" lon="3.25087">
        <ele>40</ele>
        <time>2017-08-25T14:44:40Z</time>
      </trkpt>
      <trkpt lat="50.60238" lon="3.25082">
        <ele>40</ele>
        <time>2017-08-25T14:46:40Z</time>
      </trkpt>
      <trkpt lat="50.60239" lon="3.25078">
        <ele>40</ele>
        <time>2017-08-25T14:48:40Z</time>
      </trkpt>
      <trkpt lat="50.60239" lon="3.25077">
        <ele>40</ele>
        <time>2017-08-25T14:50:40Z</time>
      </trkpt>
      <trkpt lat="50.6024" lon="3.25072">
        <ele>39</ele>
        <time>2017-08-25T14:52:40Z</time>
      </trkpt>
      <trkpt lat="50.60243" lon="3.25063">
        <ele>39</ele>
        <time>2017-08-25T14:54:40Z</time>
      </trkpt>
      <trkpt lat="50.60244" lon="3.25061">
        <ele>39</ele>
        <time>2017-08-25T14:56:40Z</time>
      </trkpt>
      <trkpt lat="50.60262" lon="3.25026">
        <ele>39</ele>
        <time>2017-08-25T14:58:40Z</time>
      </trkpt>
      <trkpt lat="50.60283" lon="3.2498">
        <ele>39</ele>
        <time>2017-08-25T15:00:40Z</time>
      </trkpt>
      <trkpt lat="50.60301" lon="3.24938">
        <ele>40</ele>
        <time>2017-08-25T15:02:40Z</time>
      </trkpt>
      <trkpt lat="50.60324" lon="3.24879">
        <ele>40</ele>
        <time>2017-08-25T15:04:40Z</time>
      </trkpt>
      <trkpt lat="50.60344" lon="3.24829">
        <ele>40</ele>
        <time>2017-08-25T15:06:40Z</time>
      </trkpt>
      <trkpt lat="50.60355" lon="3.24799">
        <ele>40</ele>
        <time>2017-08-25T15:08:40Z</time>
      </trkpt>
      <trkpt lat="50.60385" lon="3.24723">
        <ele>40</ele>
        <time>2017-08-25T15:10:40Z</time>
      </trkpt>
      <trkpt lat="50.60443" lon="3.24572">
        <ele>42</ele>
        <time>2017-08-25T15:12:40Z</time>
      </trkpt>
      <trkpt lat="50.60466" lon="3.2451">
        <ele>42</ele>
        <time>2017-08-25T15:14:40Z</time>
      </trkpt>
      <trkpt lat="50.60495" lon="3.24429">
        <ele>42</ele>
        <time>2017-08-25T15:16:40Z</time>
      </trkpt>
      <trkpt lat="50.60534" lon="3.24313">
        <ele>42</ele>
        <time>2017-08-25T15:18:40Z</time>
      </trkpt>
      <trkpt lat="50.60559" lon="3.24235">
        <ele>42</ele>
        <time>2017-08-25T15:20:40Z</time>
      </trkpt>
      <trkpt lat="50.60559" lon="3.24235">
        <ele>42</ele>
        <time>2017-08-25T15:22:40Z</time>
      </trkpt>
      <trkpt lat="50.60566" lon="3.24241">
        <ele>42</ele>
        <time>2017-08-25T15:24:40Z</time>
      </trkpt>
      <trkpt lat="50.60571" lon="3.24245">
        <ele>42</ele>
        <time>2017-08-25T15:26:40Z</time>
      </trkpt>
      <trkpt lat="50.60577" lon="3.24251">
        <ele>42</ele>
        <time>2017-08-25T15:28:40Z</time>
      </trkpt>
      <trkpt lat="50.60582" lon="3.24257">
        <ele>42</ele>
        <time>2017-08-25T15:30:40Z</time>
      </trkpt>
      <trkpt lat="50.60591" lon="3.24265">
        <ele>42</ele>
        <time>2017-08-25T15:32:40Z</time>
      </trkpt>
      <trkpt lat="50.606" lon="3.24275">
        <ele>42</ele>
        <time>2017-08-25T15:34:40Z</time>
      </trkpt>
      <trkpt lat="50.60609" lon="3.24284">
        <ele>42</ele>
        <time>2017-08-25T15:36:40Z</time>
      </trkpt>
      <trkpt lat="50.60619" lon="3.24294">
        <ele>41</ele>
        <time>2017-08-25T15:38:40Z</time>
      </trkpt>
      <trkpt lat="50.60626" lon="3.24301">
        <ele>41</ele>
        <time>2017-08-25T15:40:40Z</time>
      </trkpt>
      <trkpt lat="50.60634" lon="3.24308">
        <ele>41</ele>
        <time>2017-08-25T15:42:40Z</time>
      </trkpt>
      <trkpt lat="50.60641" lon="3.24314">
        <ele>41</ele>
        <time>2017-08-25T15:44:40Z</time>
      </trkpt>
      <trkpt lat="50.60648" lon="3.24321">
        <ele>41</ele>
        <time>2017-08-25T15:46:40Z</time>
      </trkpt>
      <trkpt lat="50.60655" lon="3.24327">
        <ele>40</ele>
        <time>2017-08-25T15:48:40Z</time>
      </trkpt>
      <trkpt lat="50.60662" lon="3.24333">
        <ele>40</ele>
        <time>2017-08-25T15:50:40Z</time>
      </trkpt>
      <trkpt lat="50.60668" lon="3.24338">
        <ele>40</ele>
        <time>2017-08-25T15:52:40Z</time>
      </trkpt>
      <trkpt lat="50.60676" lon="3.24344">
        <ele>40</ele>
        <time>2017-08-25T15:54:40Z</time>
      </trkpt>
      <trkpt lat="50.60683" lon="3.24349">
        <ele>39</ele>
        <time>2017-08-25T15:56:40Z</time>
      </trkpt>
      <trkpt lat="50.60689" lon="3.24352">
        <ele>39</ele>
        <time>2017-08-25T15:58:40Z</time>
      </trkpt>
      <trkpt lat="50.60695" lon="3.24356">
        <ele>39</ele>
        <time>2017-08-25T16:00:40Z</time>
      </trkpt>
      <trkpt lat="50.60702" lon="3.24359">
        <ele>39</ele>
        <time>2017-08-25T16:02:40Z</time>
      </trkpt>
      <trkpt lat="50.6071" lon="3.24363">
        <ele>38</ele>
        <time>2017-08-25T16:04:40Z</time>
      </trkpt>
      <trkpt lat="50.60722" lon="3.24368">
        <ele>38</ele>
        <time>2017-08-25T16:06:40Z</time>
      </trkpt>
      <trkpt lat="50.6073" lon="3.24371">
        <ele>38</ele>
        <time>2017-08-25T16:08:40Z</time>
      </trkpt>
      <trkpt lat="50.60738" lon="3.24374">
        <ele>37</ele>
        <time>2017-08-25T16:10:40Z</time>
      </trkpt>
      <trkpt lat="50.60744" lon="3.24377">
        <ele>37</ele>
        <time>2017-08-25T16:12:40Z</time>
      </trkpt>
      <trkpt lat="50.60751" lon="3.24381">
        <ele>37</ele>
        <time>2017-08-25T16:14:40Z</time>
      </trkpt>
      <trkpt lat="50.60757" lon="3.24384">
        <ele>37</ele>
        <time>2017-08-25T16:16:40Z</time>
      </trkpt>
      <trkpt lat="50.60763" lon="3.24388">
        <ele>37</ele>
        <time>2017-08-25T16:18:40Z</time>
      </trkpt>
      <trkpt lat="50.60768" lon="3.24392">
        <ele>37</ele>
        <time>2017-08-25T16:20:40Z</time>
      </trkpt>
      <trkpt lat="50.60773" lon="3.24398">
        <ele>37</ele>
        <time>2017-08-25T16:22:40Z</time>
      </trkpt>
      <trkpt lat="50.60783" lon="3.24406">
        <ele>37</ele>
        <time>2017-08-25T16:24:40Z</time>
      </trkpt>
      <trkpt lat="50.60788" lon="3.24412">
        <ele>37</ele>
        <time>2017-08-25T16:26:40Z</time>
      </trkpt>
      <trkpt lat="50.60794" lon="3.24418">
        <ele>36</ele>
        <time>2017-08-25T16:28:40Z</time>
      </trkpt>
      <trkpt lat="50.60801" lon="3.24425">
        <ele>36</ele>
        <time>2017-08-25T16:30:40Z</time>
      </trkpt>
      <trkpt lat="50.60807" lon="3.24432">
        <ele>37</ele>
        <time>2017-08-25T16:32:40Z</time>
      </trkpt>
      <trkpt lat="50.60815" lon="3.2444">
        <ele>36</ele>
        <time>2017-08-25T16:34:40Z</time>
      </trkpt>
      <trkpt lat="50.60821" lon="3.24448">
        <ele>37</ele>
        <time>2017-08-25T16:36:40Z</time>
      </trkpt>
      <trkpt lat="50.60826" lon="3.24453">
        <ele>37</ele>
        <time>2017-08-25T16:38:40Z</time>
      </trkpt>
      <trkpt lat="50.60834" lon="3.24461">
        <ele>37</ele>
        <time>2017-08-25T16:40:40Z</time>
      </trkpt>
      <trkpt lat="50.6084" lon="3.24467">
        <ele>36</ele>
        <time>2017-08-25T16:42:40Z</time>
      </trkpt>
      <trkpt lat="50.60848" lon="3.24474">
        <ele>36</ele>
        <time>2017-08-25T16:44:40Z</time>
      </trkpt>
      <trkpt lat="50.60851" lon="3.24477">
        <ele>36</ele>
        <time>2017-08-25T16:46:40Z</time>
      </trkpt>
      <trkpt lat="50.60854" lon="3.24478">
        <ele>36</ele>
        <time>2017-08-25T16:48:40Z</time>
      </trkpt>
      <trkpt lat="50.60857" lon="3.2448">
        <ele>36</ele>
        <time>2017-08-25T16:50:40Z</time>
      </trkpt>
      <trkpt lat="50.6086" lon="3.2448">
        <ele>36</ele>
        <time>2017-08-25T16:52:40Z</time>
      </trkpt>
      <trkpt lat="50.60863" lon="3.2448">
        <ele>36</ele>
        <time>2017-08-25T16:54:40Z</time>
      </trkpt>
      <trkpt lat="50.60863" lon="3.2448">
        <ele>36</ele>
        <time>2017-08-25T16:56:40Z</time>
      </trkpt>
      <trkpt lat="50.60865" lon="3.24488">
        <ele>36</ele>
        <time>2017-08-25T16:58:40Z</time>
      </trkpt>
      <trkpt lat="50.60867" lon="3.24499">
        <ele>36</ele>
        <time>2017-08-25T17:00:40Z</time>
      </trkpt>
      <trkpt lat="50.6087" lon="3.24512">
        <ele>36</ele>
        <time>2017-08-25T17:02:40Z</time>
      </trkpt>
      <trkpt lat="50.60873" lon="3.24528">
        <ele>36</ele>
        <time>2017-08-25T17:04:40Z</time>
      </trkpt>
      <trkpt lat="50.60875" lon="3.24533">
        <ele>36</ele>
        <time>2017-08-25T17:06:40Z</time>
      </trkpt>
      <trkpt lat="50.60875" lon="3.24538">
        <ele>36</ele>
        <time>2017-08-25T17:08:40Z</time>
      </trkpt>
      <trkpt lat="50.60875" lon="3.24538">
        <ele>36</ele>
        <time>2017-08-25T17:10:40Z</time>
      </trkpt>
      <trkpt lat="50.60881" lon="3.24536">
        <ele>36</ele>
        <time>2017-08-25T17:12:40Z</time>
      </trkpt>
      <trkpt lat="50.60893" lon="3.24535">
        <ele>36</ele>
        <time>2017-08-25T17:14:40Z</time>
      </trkpt>
      <trkpt lat="50.60896" lon="3.24535">
        <ele>35</ele>
        <time>2017-08-25T17:16:40Z</time>
      </trkpt>
      <trkpt lat="50.60898" lon="3.24536">
        <ele>35</ele>
        <time>2017-08-25T17:18:40Z</time>
      </trkpt>
      <trkpt lat="50.60901" lon="3.24536">
        <ele>35</ele>
        <time>2017-08-25T17:20:40Z</time>
      </trkpt>
      <trkpt lat="50.60905" lon="3.24538">
        <ele>35</ele>
        <time>2017-08-25T17:22:40Z</time>
      </trkpt>
      <trkpt lat="50.60908" lon="3.24539">
        <ele>35</ele>
        <time>2017-08-25T17:24:40Z</time>
      </trkpt>
      <trkpt lat="50.60911" lon="3.24541">
        <ele>35</ele>
        <time>2017-08-25T17:26:40Z</time>
      </trkpt>
      <trkpt lat="50.60914" lon="3.24542">
        <ele>35</ele>
        <time>2017-08-25T17:28:40Z</time>
      </trkpt>
      <trkpt lat="50.60916" lon="3.24542">
        <ele>35</ele>
        <time>2017-08-25T17:30:40Z</time>
      </trkpt>
      <trkpt lat="50.60918" lon="3.24542">
        <ele>35</ele>
        <time>2017-08-25T17:32:40Z</time>
      </trkpt>
      <trkpt lat="50.60947" lon="3.24572">
        <ele>34</ele>
        <time>2017-08-25T17:34:40Z</time>
      </trkpt>
      <trkpt lat="50.60978" lon="3.24603">
        <ele>33</ele>
        <time>2017-08-25T17:36:40Z</time>
      </trkpt>
      <trkpt lat="50.60978" lon="3.24603">
        <ele>33</ele>
        <time>2017-08-25T17:38:40Z</time>
      </trkpt>
      <trkpt lat="50.60997" lon="3.24571">
        <ele>32</ele>
        <time>2017-08-25T17:40:40Z</time>
      </trkpt>
      <trkpt lat="50.61033" lon="3.24508">
        <ele>31</ele>
        <time>2017-08-25T17:42:40Z</time>
      </trkpt>
      <trkpt lat="50.61047" lon="3.24482">
        <ele>31</ele>
        <time>2017-08-25T17:44:40Z</time>
      </trkpt>
      <trkpt lat="50.61052" lon="3.24471">
        <ele>30</ele>
        <time>2017-08-25T17:46:40Z</time>
      </trkpt>
      <trkpt lat="50.61059" lon="3.24456">
        <ele>30</ele>
        <time>2017-08-25T17:48:40Z</time>
      </trkpt>
      <trkpt lat="50.61065" lon="3.24439">
        <ele>30</ele>
        <time>2017-08-25T17:50:40Z</time>
      </trkpt>
      <trkpt lat="50.61071" lon="3.24422">
        <ele>29</ele>
        <time>2017-08-25T17:52:40Z</time>
      </trkpt>
      <trkpt lat="50.61077" lon="3.24398">
        <ele>29</ele>
        <time>2017-08-25T17:54:40Z</time>
      </trkpt>
      <trkpt lat="50.61083" lon="3.24376">
        <ele>29</ele>
        <time>2017-08-25T17:56:40Z</time>
      </trkpt>
      <trkpt lat="50.61107" lon="3.24272">
        <ele>30</ele>
        <time>2017-08-25T17:58:40Z</time>
      </trkpt>
      <trkpt lat="50.61122" lon="3.24204">
        <ele>30</ele>
        <time>2017-08-25T18:00:40Z</time>
      </trkpt>
      <trkpt lat="50.61128" lon="3.24179">
        <ele>30</ele>
        <time>2017-08-25T18:02:40Z</time>
      </trkpt>
      <trkpt lat="50.61151" lon="3.24089">
        <ele>29</ele>
        <time>2017-08-25T18:04:40Z</time>
      </trkpt>
      <trkpt lat="50.61162" lon="3.24043">
        <ele>29</ele>
        <time>2017-08-25T18:06:40Z</time>
      </trkpt>
      <trkpt lat="50.61184" lon="3.2395">
        <ele>28</ele>
        <time>2017-08-25T18:08:40Z</time>
      </trkpt>
      <trkpt lat="50.61208" lon="3.2387">
        <ele>28</ele>
        <time>2017-08-25T18:10:40Z</time>
      </trkpt>
      <trkpt lat="50.61227" lon="3.23803">
        <ele>28</ele>
        <time>2017-08-25T18:12:40Z</time>
      </trkpt>
      <trkpt lat="50.61243" lon="3.23731">
        <ele>28</ele>
        <time>2017-08-25T18:14:40Z</time>
      </trkpt>
      <trkpt lat="50.61259" lon="3.23652">
        <ele>28</ele>
        <time>2017-08-25T18:16:40Z</time>
      </trkpt>
      <trkpt lat="50.61272" lon="3.23595">
        <ele>28</ele>
        <time>2017-08-25T18:18:40Z</time>
      </trkpt>
      <trkpt lat="50.61273" lon="3.23589">
        <ele>28</ele>
        <time>2017-08-25T18:20:40Z</time>
      </trkpt>
      <trkpt lat="50.61279" lon="3.23567">
        <ele>28</ele>
        <time>2017-08-25T18:22:40Z</time>
      </trkpt>
      <trkpt lat="50.61303" lon="3.2351">
        <ele>29</ele>
        <time>2017-08-25T18:24:40Z</time>
      </trkpt>
      <trkpt lat="50.61327" lon="3.23446">
        <ele>28</ele>
        <time>2017-08-25T18:26:40Z</time>
      </trkpt>
      <trkpt lat="50.61342" lon="3.2341">
        <ele>28</ele>
        <time>2017-08-25T18:28:40Z</time>
      </trkpt>
      <trkpt lat="50.61354" lon="3.23377">
        <ele>28</ele>
        <time>2017-08-25T18:30:40Z</time>
      </trkpt>
      <trkpt lat="50.61363" lon="3.23352">
        <ele>28</ele>
        <time>2017-08-25T18:32:40Z</time>
      </trkpt>
      <trkpt lat="50.61371" lon="3.23332">
        <ele>28</ele>
        <time>2017-08-25T18:34:40Z</time>
      </trkpt>
      <trkpt lat="50.61376" lon="3.23325">
        <ele>28</ele>
        <time>2017-08-25T18:36:40Z</time>
      </trkpt>
      <trkpt lat="50.61389" lon="3.2331">
        <ele>28</ele>
        <time>2017-08-25T18:38:40Z</time>
      </trkpt>
      <trkpt lat="50.61399" lon="3.233">
        <ele>28</ele>
        <time>2017-08-25T18:40:40Z</time>
      </trkpt>
      <trkpt lat="50.61409" lon="3.23285">
        <ele>29</ele>
        <time>2017-08-25T18:42:40Z</time>
      </trkpt>
      <trkpt lat="50.61425" lon="3.23261">
        <ele>29</ele>
        <time>2017-08-25T18:44:40Z</time>
      </trkpt>
      <trkpt lat="50.61431" lon="3.23252">
        <ele>29</ele>
        <time>2017-08-25T18:46:40Z</time>
      </trkpt>
      <trkpt lat="50.61435" lon="3.23238">
        <ele>29</ele>
        <time>2017-08-25T18:48:40Z</time>
      </trkpt>
      <trkpt lat="50.61451" lon="3.23184">
        <ele>30</ele>
        <time>2017-08-25T18:50:40Z</time>
      </trkpt>
      <trkpt lat="50.61462" lon="3.23145">
        <ele>30</ele>
        <time>2017-08-25T18:52:40Z</time>
      </trkpt>
      <trkpt lat="50.61467" lon="3.23127">
        <ele>30</ele>
        <time>2017-08-25T18:54:40Z</time>
      </trkpt>
      <trkpt lat="50.61471" lon="3.23113">
        <ele>30</ele>
        <time>2017-08-25T18:56:40Z</time>
      </trkpt>
      <trkpt lat="50.61474" lon="3.23107">
        <ele>30</ele>
        <time>2017-08-25T18:58:40Z</time>
      </trkpt>
      <trkpt lat="50.61474" lon="3.23107">
        <ele>30</ele>
        <time>2017-08-25T19:00:40Z</time>
      </trkpt>
      <trkpt lat="50.61463" lon="3.23095">
        <ele>30</ele>
        <time>2017-08-25T19:02:40Z</time>
      </trkpt>
      <trkpt lat="50.61452" lon="3.23084">
        <ele>31</ele>
        <time>2017-08-25T19:04:40Z</time>
      </trkpt>
      <trkpt lat="50.61446" lon="3.23078">
        <ele>31</ele>
        <time>2017-08-25T19:06:40Z</time>
      </trkpt>
      <trkpt lat="50.61446" lon="3.23078">
        <ele>31</ele>
        <time>2017-08-25T19:08:40Z</time>
      </trkpt>
      <trkpt lat="50.61446" lon="3.23077">
        <ele>31</ele>
        <time>2017-08-25T19:10:40Z</time>
      </trkpt>
      <trkpt lat="50.61446" lon="3.23076">
        <ele>31</ele>
        <time>2017-08-25T19:12:40Z</time>
      </trkpt>
      <trkpt lat="50.61446" lon="3.23075">
        <ele>31</ele>
        <time>2017-08-25T19:14:40Z</time>
      </trkpt>
      <trkpt lat="50.61446" lon="3.23074">
        <ele>31</ele>
        <time>2017-08-25T19:16:40Z</time>
      </trkpt>
      <trkpt lat="50.61446" lon="3.23073">
        <ele>31</ele>
        <time>2017-08-25T19:18:40Z</time>
      </trkpt>
      <trkpt lat="50.61446" lon="3.23072">
        <ele>31</ele>
        <time>2017-08-25T19:20:40Z</time>
      </trkpt>
      <trkpt lat="50.61456" lon="3.23054">
        <ele>31</ele>
        <time>2017-08-25T19:22:40Z</time>
      </trkpt>
      <trkpt lat="50.6146" lon="3.2305">
        <ele>30</ele>
        <time>2017-08-25T19:24:40Z</time>
      </trkpt>
      <trkpt lat="50.61473" lon="3.23039">
        <ele>30</ele>
        <time>2017-08-25T19:26:40Z</time>
      </trkpt>
      <trkpt lat="50.61483" lon="3.2303">
        <ele>30</ele>
        <time>2017-08-25T19:28:40Z</time>
      </trkpt>
      <trkpt lat="50.61492" lon="3.23017">
        <ele>30</ele>
        <time>2017-08-25T19:30:40Z</time>
      </trkpt>
      <trkpt lat="50.61516" lon="3.22976">
        <ele>30</ele>
        <time>2017-08-25T19:32:40Z</time>
      </trkpt>
      <trkpt lat="50.61522" lon="3.22967">
        <ele>29</ele>
        <time>2017-08-25T19:34:40Z</time>
      </trkpt>
      <trkpt lat="50.61549" lon="3.22923">
        <ele>29</ele>
        <time>2017-08-25T19:36:40Z</time>
      </trkpt>
      <trkpt lat="50.61566" lon="3.22897">
        <ele>28</ele>
        <time>2017-08-25T19:38:40Z</time>
      </trkpt>
      <trkpt lat="50.61583" lon="3.22881">
        <ele>28</ele>
        <time>2017-08-25T19:40:40Z</time>
      </trkpt>
      <trkpt lat="50.61609" lon="3.22859">
        <ele>28</ele>
        <time>2017-08-25T19:42:40Z</time>
      </trkpt>
      <trkpt lat="50.61619" lon="3.2285">
        <ele>28</ele>
        <time>2017-08-25T19:44:40Z</time>
      </trkpt>
      <trkpt lat="50.61625" lon="3.22846">
        <ele>27</ele>
        <time>2017-08-25T19:46:40Z</time>
      </trkpt>
      <trkpt lat="50.61628" lon="3.22844">
        <ele>27</ele>
        <time>2017-08-25T19:48:40Z</time>
      </trkpt>
      <trkpt lat="50.61632" lon="3.22843">
        <ele>27</ele>
        <time>2017-08-25T19:50:40Z</time>
      </trkpt>
      <trkpt lat="50.61638" lon="3.22842">
        <ele>27</ele>
        <time>2017-08-25T19:52:40Z</time>
      </trkpt>
      <trkpt lat="50.61648" lon="3.22842">
        <ele>27</ele>
        <time>2017-08-25T19:54:40Z</time>
      </trkpt>
      <trkpt lat="50.61648" lon="3.22842">
        <ele>27</ele>
        <time>2017-08-25T19:56:40Z</time>
      </trkpt>
      <trkpt lat="50.61679" lon="3.2275">
        <ele>26</ele>
        <time>2017-08-25T19:58:40Z</time>
      </trkpt>
      <trkpt lat="50.61685" lon="3.2273">
        <ele>26</ele>
        <time>2017-08-25T20:00:40Z</time>
      </trkpt>
      <trkpt lat="50.61694" lon="3.22704">
        <ele>26</ele>
        <time>2017-08-25T20:02:40Z</time>
      </trkpt>
      <trkpt lat="50.61712" lon="3.22652">
        <ele>25</ele>
        <time>2017-08-25T20:04:40Z</time>
      </trkpt>
      <trkpt lat="50.61725" lon="3.22612">
        <ele>25</ele>
        <time>2017-08-25T20:06:40Z</time>
      </trkpt>
      <trkpt lat="50.61839" lon="3.22269">
        <ele>23</ele>
        <time>2017-08-25T20:08:40Z</time>
      </trkpt>
      <trkpt lat="50.61844" lon="3.22255">
        <ele>23</ele>
        <time>2017-08-25T20:10:40Z</time>
      </trkpt>
      <trkpt lat="50.61898" lon="3.22086">
        <ele>23</ele>
        <time>2017-08-25T20:12:40Z</time>
      </trkpt>
      <trkpt lat="50.61901" lon="3.22072">
        <ele>23</ele>
        <time>2017-08-25T20:14:40Z</time>
      </trkpt>
      <trkpt lat="50.61905" lon="3.22011">
        <ele>23</ele>
        <time>2017-08-25T20:16:40Z</time>
      </trkpt>
      <trkpt lat="50.61905" lon="3.22">
        <ele>23</ele>
        <time>2017-08-25T20:18:40Z</time>
      </trkpt>
      <trkpt lat="50.61902" lon="3.2199">
        <ele>23</ele>
        <time>2017-08-25T20:20:40Z</time>
      </trkpt>
      <trkpt lat="50.61902" lon="3.2199">
        <ele>23</ele>
        <time>2017-08-25T20:22:40Z</time>
      </trkpt>
      <trkpt lat="50.61911" lon="3.21993">
        <ele>23</ele>
        <time>2017-08-25T20:24:40Z</time>
      </trkpt>
      <trkpt lat="50.61911" lon="3.21993">
        <ele>23</ele>
        <time>2017-08-25T20:26:40Z</time>
      </trkpt>
      <trkpt lat="50.61912" lon="3.21977">
        <ele>23</ele>
        <time>2017-08-25T20:28:40Z</time>
      </trkpt>
      <trkpt lat="50.61918" lon="3.2186">
        <ele>25</ele>
        <time>2017-08-25T20:30:40Z</time>
      </trkpt>
      <trkpt lat="50.61918" lon="3.21859">
        <ele>25</ele>
        <time>2017-08-25T20:32:40Z</time>
      </trkpt>
      <trkpt lat="50.61925" lon="3.21707">
        <ele>25</ele>
        <time>2017-08-25T20:34:40Z</time>
      </trkpt>
      <trkpt lat="50.61935" lon="3.21479">
        <ele>24</ele>
        <time>2017-08-25T20:36:40Z</time>
      </trkpt>
      <trkpt lat="50.61938" lon="3.21432">
        <ele>24</ele>
        <time>2017-08-25T20:38:40Z</time>
      </trkpt>
      <trkpt lat="50.61939" lon="3.21416">
        <ele>24</ele>
        <time>2017-08-25T20:40:40Z</time>
      </trkpt>
      <trkpt lat="50.61939" lon="3.21416">
        <ele>24</ele>
        <time>2017-08-25T20:42:40Z</time>
      </trkpt>
      <trkpt lat="50.61941" lon="3.21404">
        <ele>24</ele>
        <time>2017-08-25T20:44:40Z</time>
      </trkpt>
      <trkpt lat="50.61941" lon="3.21404">
        <ele>24</ele>
        <time>2017-08-25T20:46:40Z</time>
      </trkpt>
      <trkpt lat="50.61945" lon="3.21406">
        <ele>24</ele>
        <time>2017-08-25T20:48:40Z</time>
      </trkpt>
      <trkpt lat="50.61949" lon="3.21408">
        <ele>24</ele>
        <time>2017-08-25T20:50:40Z</time>
      </trkpt>
      <trkpt lat="50.6195" lon="3.21409">
        <ele>24</ele>
        <time>2017-08-25T20:52:40Z</time>
      </trkpt>
      <trkpt lat="50.61952" lon="3.2141">
        <ele>24</ele>
        <time>2017-08-25T20:54:40Z</time>
      </trkpt>
      <trkpt lat="50.61952" lon="3.2141">
        <ele>24</ele>
        <time>2017-08-25T20:56:40Z</time>
      </trkpt>
      <trkpt lat="50.61953" lon="3.21397">
        <ele>24</ele>
        <time>2017-08-25T20:58:40Z</time>
      </trkpt>
      <trkpt lat="50.61954" lon="3.21396">
        <ele>24</ele>
        <time>2017-08-25T21:00:40Z</time>
      </trkpt>
      <trkpt lat="50.61955" lon="3.21396">
        <ele>24</ele>
        <time>2017-08-25T21:02:40Z</time>
      </trkpt>
      <trkpt lat="50.61973" lon="3.21408">
        <ele>23</ele>
        <time>2017-08-25T21:04:40Z</time>
      </trkpt>
      <trkpt lat="50.61986" lon="3.21416">
        <ele>23</ele>
        <time>2017-08-25T21:06:40Z</time>
      </trkpt>
      <trkpt lat="50.62001" lon="3.21424">
        <ele>23</ele>
        <time>2017-08-25T21:08:40Z</time>
      </trkpt>
      <trkpt lat="50.62018" lon="3.21433">
        <ele>23</ele>
        <time>2017-08-25T21:10:40Z</time>
      </trkpt>
      <trkpt lat="50.62032" lon="3.21441">
        <ele>23</ele>
        <time>2017-08-25T21:12:40Z</time>
      </trkpt>
      <trkpt lat="50.62049" lon="3.2145">
        <ele>23</ele>
        <time>2017-08-25T21:14:40Z</time>
      </trkpt>
      <trkpt lat="50.62053" lon="3.21452">
        <ele>23</ele>
        <time>2017-08-25T21:16:40Z</time>
      </trkpt>
      <trkpt lat="50.62075" lon="3.21463">
        <ele>22</ele>
        <time>2017-08-25T21:18:40Z</time>
      </trkpt>
      <trkpt lat="50.62095" lon="3.21473">
        <ele>22</ele>
        <time>2017-08-25T21:20:40Z</time>
      </trkpt>
      <trkpt lat="50.62116" lon="3.21485">
        <ele>22</ele>
        <time>2017-08-25T21:22:40Z</time>
      </trkpt>
      <trkpt lat="50.62132" lon="3.21494">
        <ele>23</ele>
        <time>2017-08-25T21:24:40Z</time>
      </trkpt>
      <trkpt lat="50.62158" lon="3.21507">
        <ele>23</ele>
        <time>2017-08-25T21:26:40Z</time>
      </trkpt>
      <trkpt lat="50.62169" lon="3.21514">
        <ele>23</ele>
        <time>2017-08-25T21:28:40Z</time>
      </trkpt>
      <trkpt lat="50.62195" lon="3.2153">
        <ele>24</ele>
        <time>2017-08-25T21:30:40Z</time>
      </trkpt>
      <trkpt lat="50.62205" lon="3.21535">
        <ele>24</ele>
        <time>2017-08-25T21:32:40Z</time>
      </trkpt>
      <trkpt lat="50.62214" lon="3.2154">
        <ele>24</ele>
        <time>2017-08-25T21:34:40Z</time>
      </trkpt>
      <trkpt lat="50.62227" lon="3.21546">
        <ele>25</ele>
        <time>2017-08-25T21:36:40Z</time>
      </trkpt>
      <trkpt lat="50.62227" lon="3.21546">
        <ele>25</ele>
        <time>2017-08-25T21:38:40Z</time>
      </trkpt>
      <trkpt lat="50.62233" lon="3.21523">
        <ele>24</ele>
        <time>2017-08-25T21:40:40Z</time>
      </trkpt>
      <trkpt lat="50.62258" lon="3.21461">
        <ele>23</ele>
        <time>2017-08-25T21:42:40Z</time>
      </trkpt>
      <trkpt lat="50.62263" lon="3.21446">
        <ele>23</ele>
        <time>2017-08-25T21:44:40Z</time>
      </trkpt>
      <trkpt lat="50.62285" lon="3.21388">
        <ele>22</ele>
        <time>2017-08-25T21:46:40Z</time>
      </trkpt>
      <trkpt lat="50.62291" lon="3.21373">
        <ele>22</ele>
        <time>2017-08-25T21:48:40Z</time>
      </trkpt>
      <trkpt lat="50.62302" lon="3.21344">
        <ele>22</ele>
        <time>2017-08-25T21:50:40Z</time>
      </trkpt>
      <trkpt lat="50.62305" lon="3.21337">
        <ele>22</ele>
        <time>2017-08-25T21:52:40Z</time>
      </trkpt>
      <trkpt lat="50.62313" lon="3.21315">
        <ele>22</ele>
        <time>2017-08-25T21:54:40Z</time>
      </trkpt>
      <trkpt lat="50.6232" lon="3.21297">
        <ele>22</ele>
        <time>2017-08-25T21:56:40Z</time>
      </trkpt>
      <trkpt lat="50.62337" lon="3.21253">
        <ele>22</ele>
        <time>2017-08-25T21:58:40Z</time>
      </trkpt>
      <trkpt lat="50.6234" lon="3.21246">
        <ele>22</ele>
        <time>2017-08-25T22:00:40Z</time>
      </trkpt>
      <trkpt lat="50.62342" lon="3.2124">
        <ele>22</ele>
        <time>2017-08-25T22:02:40Z</time>
      </trkpt>
      <trkpt lat="50.62345" lon="3.21231">
        <ele>22</ele>
        <time>2017-08-25T22:04:40Z</time>
      </trkpt>
      <trkpt lat="50.62359" lon="3.21199">
        <ele>22</ele>
        <time>2017-08-25T22:06:40Z</time>
      </trkpt>
      <trkpt lat="50.62367" lon="3.21179">
        <ele>22</ele>
        <time>2017-08-25T22:08:40Z</time>
      </trkpt>
      <trkpt lat="50.62379" lon="3.21149">
        <ele>23</ele>
        <time>2017-08-25T22:10:40Z</time>
      </trkpt>
      <trkpt lat="50.62392" lon="3.21114">
        <ele>25</ele>
        <time>2017-08-25T22:12:40Z</time>
      </trkpt>
      <trkpt lat="50.62406" lon="3.21075">
        <ele>26</ele>
        <time>2017-08-25T22:14:40Z</time>
      </trkpt>
      <trkpt lat="50.62419" lon="3.21042">
        <ele>28</ele>
        <time>2017-08-25T22:16:40Z</time>
      </trkpt>
      <trkpt lat="50.62427" lon="3.21023">
        <ele>29</ele>
        <time>2017-08-25T22:18:40Z</time>
      </trkpt>
      <trkpt lat="50.62433" lon="3.21007">
        <ele>30</ele>
        <time>2017-08-25T22:20:40Z</time>
      </trkpt>
      <trkpt lat="50.6244" lon="3.2099">
        <ele>30</ele>
        <time>2017-08-25T22:22:40Z</time>
      </trkpt>
      <trkpt lat="50.62442" lon="3.20987">
        <ele>30</ele>
        <time>2017-08-25T22:24:40Z</time>
      </trkpt>
      <trkpt lat="50.62446" lon="3.20986">
        <ele>30</ele>
        <time>2017-08-25T22:26:40Z</time>
      </trkpt>
      <trkpt lat="50.62451" lon="3.20988">
        <ele>30</ele>
        <time>2017-08-25T22:28:40Z</time>
      </trkpt>
      <trkpt lat="50.62466" lon="3.20999">
        <ele>30</ele>
        <time>2017-08-25T22:30:40Z</time>
      </trkpt>
      <trkpt lat="50.62474" lon="3.21006">
        <ele>30</ele>
        <time>2017-08-25T22:32:40Z</time>
      </trkpt>
      <trkpt lat="50.6253" lon="3.21049">
        <ele>27</ele>
        <time>2017-08-25T22:34:40Z</time>
      </trkpt>
      <trkpt lat="50.62621" lon="3.2112">
        <ele>23</ele>
        <time>2017-08-25T22:36:40Z</time>
      </trkpt>
      <trkpt lat="50.62636" lon="3.21134">
        <ele>23</ele>
        <time>2017-08-25T22:38:40Z</time>
      </trkpt>
      <trkpt lat="50.62641" lon="3.21138">
        <ele>22</ele>
        <time>2017-08-25T22:40:40Z</time>
      </trkpt>
      <trkpt lat="50.62713" lon="3.21193">
        <ele>21</ele>
        <time>2017-08-25T22:42:40Z</time>
      </trkpt>
      <trkpt lat="50.62751" lon="3.21222">
        <ele>21</ele>
        <time>2017-08-25T22:44:40Z</time>
      </trkpt>
      <trkpt lat="50.62773" lon="3.21238">
        <ele>21</ele>
        <time>2017-08-25T22:46:40Z</time>
      </trkpt>
      <trkpt lat="50.62796" lon="3.21256">
        <ele>21</ele>
        <time>2017-08-25T22:48:40Z</time>
      </trkpt>
      <trkpt lat="50.62801" lon="3.21261">
        <ele>21</ele>
        <time>2017-08-25T22:50:40Z</time>
      </trkpt>
      <trkpt lat="50.62809" lon="3.21267">
        <ele>21</ele>
        <time>2017-08-25T22:52:40Z</time>
      </trkpt>
      <trkpt lat="50.62819" lon="3.21274">
        <ele>21</ele>
        <time>2017-08-25T22:54:40Z</time>
      </trkpt>
      <trkpt lat="50.6285" lon="3.21298">
        <ele>22</ele>
        <time>2017-08-25T22:56:40Z</time>
      </trkpt>
      <trkpt lat="50.6288" lon="3.21321">
        <ele>22</ele>
        <time>2017-08-25T22:58:40Z</time>
      </trkpt>
      <trkpt lat="50.62916" lon="3.21349">
        <ele>23</ele>
        <time>2017-08-25T23:00:40Z</time>
      </trkpt>
      <trkpt lat="50.62972" lon="3.21394">
        <ele>23</ele>
        <time>2017-08-25T23:02:40Z</time>
      </trkpt>
      <trkpt lat="50.63009" lon="3.21422">
        <ele>23</ele>
        <time>2017-08-25T23:04:40Z</time>
      </trkpt>
      <trkpt lat="50.63017" lon="3.21428">
        <ele>23</ele>
        <time>2017-08-25T23:06:40Z</time>
      </trkpt>
      <trkpt lat="50.63019" lon="3.21429">
        <ele>23</ele>
        <time>2017-08-25T23:08:40Z</time>
      </trkpt>
      <trkpt lat="50.63024" lon="3.2143">
        <ele>23</ele>
        <time>2017-08-25T23:10:40Z</time>
      </trkpt>
      <trkpt lat="50.63024" lon="3.2143">
        <ele>23</ele>
        <time>2017-08-25T23:12:40Z</time>
      </trkpt>
      <trkpt lat="50.63024" lon="3.21433">
        <ele>23</ele>
        <time>2017-08-25T23:14:40Z</time>
      </trkpt>
      <trkpt lat="50.63025" lon="3.21434">
        <ele>23</ele>
        <time>2017-08-25T23:16:40Z</time>
      </trkpt>
      <trkpt lat="50.63026" lon="3.2144">
        <ele>23</ele>
        <time>2017-08-25T23:18:40Z</time>
      </trkpt>
      <trkpt lat="50.63044" lon="3.21486">
        <ele>23</ele>
        <time>2017-08-25T23:20:40Z</time>
      </trkpt>
      <trkpt lat="50.63056" lon="3.21518">
        <ele>24</ele>
        <time>2017-08-25T23:22:40Z</time>
      </trkpt>
      <trkpt lat="50.63059" lon="3.21525">
        <ele>24</ele>
        <time>2017-08-25T23:24:40Z</time>
      </trkpt>
      <trkpt lat="50.63061" lon="3.2153">
        <ele>24</ele>
        <time>2017-08-25T23:26:40Z</time>
      </trkpt>
      <trkpt lat="50.63064" lon="3.21534">
        <ele>24</ele>
        <time>2017-08-25T23:28:40Z</time>
      </trkpt>
      <trkpt lat="50.63066" lon="3.21537">
        <ele>24</ele>
        <time>2017-08-25T23:30:40Z</time>
      </trkpt>
      <trkpt lat="50.63067" lon="3.21539">
        <ele>24</ele>
        <time>2017-08-25T23:32:40Z</time>
      </trkpt>
      <trkpt lat="50.63075" lon="3.21549">
        <ele>24</ele>
        <time>2017-08-25T23:34:40Z</time>
      </trkpt>
      <trkpt lat="50.63086" lon="3.21562">
        <ele>24</ele>
        <time>2017-08-25T23:36:40Z</time>
      </trkpt>
      <trkpt lat="50.63092" lon="3.2157">
        <ele>24</ele>
        <time>2017-08-25T23:38:40Z</time>
      </trkpt>
      <trkpt lat="50.63096" lon="3.21576">
        <ele>24</ele>
        <time>2017-08-25T23:40:40Z</time>
      </trkpt>
      <trkpt lat="50.63097" lon="3.21577">
        <ele>24</ele>
        <time>2017-08-25T23:42:40Z</time>
      </trkpt>
      <trkpt lat="50.63104" lon="3.21592">
        <ele>25</ele>
        <time>2017-08-25T23:44:40Z</time>
      </trkpt>
      <trkpt lat="50.63112" lon="3.2161">
        <ele>25</ele>
        <time>2017-08-25T23:46:40Z</time>
      </trkpt>
      <trkpt lat="50.63118" lon="3.21623">
        <ele>25</ele>
        <time>2017-08-25T23:48:40Z</time>
      </trkpt>
      <trkpt lat="50.6314" lon="3.21678">
        <ele>25</ele>
        <time>2017-08-25T23:50:40Z</time>
      </trkpt>
      <trkpt lat="50.63151" lon="3.21705">
        <ele>25</ele>
        <time>2017-08-25T23:52:40Z</time>
      </trkpt>
      <trkpt lat="50.63167" lon="3.21745">
        <ele>26</ele>
        <time>2017-08-25T23:54:40Z</time>
      </trkpt>
      <trkpt lat="50.63171" lon="3.21754">
        <ele>26</ele>
        <time>2017-08-25T23:56:40Z</time>
      </trkpt>
      <trkpt lat="50.63176" lon="3.21769">
        <ele>26</ele>
        <time>2017-08-25T23:58:40Z</time>
      </trkpt>
      <trkpt lat="50.63181" lon="3.21779">
        <ele>27</ele>
        <time>2017-08-26T00:00:40Z</time>
      </trkpt>
      <trkpt lat="50.63181" lon="3.21779">
        <ele>27</ele>
        <time>2017-08-26T00:02:40Z</time>
      </trkpt>
      <trkpt lat="50.63188" lon="3.21772">
        <ele>27</ele>
        <time>2017-08-26T00:04:40Z</time>
      </trkpt>
      <trkpt lat="50.63191" lon="3.21769">
        <ele>27</ele>
        <time>2017-08-26T00:06:40Z</time>
      </trkpt>
      <trkpt lat="50.6321" lon="3.21756">
        <ele>27</ele>
        <time>2017-08-26T00:08:40Z</time>
      </trkpt>
      <trkpt lat="50.63251" lon="3.21728">
        <ele>27</ele>
        <time>2017-08-26T00:10:40Z</time>
      </trkpt>
      <trkpt lat="50.63263" lon="3.2172">
        <ele>27</ele>
        <time>2017-08-26T00:12:40Z</time>
      </trkpt>
      <trkpt lat="50.63307" lon="3.2169">
        <ele>27</ele>
        <time>2017-08-26T00:14:40Z</time>
      </trkpt>
      <trkpt lat="50.63329" lon="3.21675">
        <ele>27</ele>
        <time>2017-08-26T00:16:40Z</time>
      </trkpt>
      <trkpt lat="50.63379" lon="3.21641">
        <ele>26</ele>
        <time>2017-08-26T00:18:40Z</time>
      </trkpt>
      <trkpt lat="50.63444" lon="3.21597">
        <ele>26</ele>
        <time>2017-08-26T00:20:40Z</time>
      </trkpt>
      <trkpt lat="50.63456" lon="3.2159">
        <ele>26</ele>
        <time>2017-08-26T00:22:40Z</time>
      </trkpt>
      <trkpt lat="50.6346" lon="3.21587">
        <ele>26</ele>
        <time>2017-08-26T00:24:40Z</time>
      </trkpt>
      <trkpt lat="50.63463" lon="3.21585">
        <ele>26</ele>
        <time>2017-08-26T00:26:40Z</time>
      </trkpt>
      <trkpt lat="50.63466" lon="3.21583">
        <ele>26</ele>
        <time>2017-08-26T00:28:40Z</time>
      </trkpt>
      <trkpt lat="50.63484" lon="3.21569">
        <ele>27</ele>
        <time>2017-08-26T00:30:40Z</time>
      </trkpt>
      <trkpt lat="50.63484" lon="3.21569">
        <ele>27</ele>
        <time>2017-08-26T00:32:40Z</time>
      </trkpt>
      <trkpt lat="50.63503" lon="3.21551">
        <ele>27</ele>
        <time>2017-08-26T00:34:40Z</time>
      </trkpt>
      <trkpt lat="50.63513" lon="3.21542">
        <ele>27</ele>
        <time>2017-08-26T00:36:40Z</time>
      </trkpt>
      <trkpt lat="50.63517" lon="3.21538">
        <ele>27</ele>
        <time>2017-08-26T00:38:40Z</time>
      </trkpt>
      <trkpt lat="50.63535" lon="3.2152">
        <ele>27</ele>
        <time>2017-08-26T00:40:40Z</time>
      </trkpt>
      <trkpt lat="50.63544" lon="3.21508">
        <ele>27</ele>
        <time>2017-08-26T00:42:40Z</time>
      </trkpt>
      <trkpt lat="50.63552" lon="3.21497">
        <ele>27</ele>
        <time>2017-08-26T00:44:40Z</time>
      </trkpt>
      <trkpt lat="50.63605" lon="3.21423">
        <ele>26</ele>
        <time>2017-08-26T00:46:40Z</time>
      </trkpt>
      <trkpt lat="50.63634" lon="3.21381">
        <ele>26</ele>
        <time>2017-08-26T00:48:40Z</time>
      </trkpt>
      <trkpt lat="50.63637" lon="3.21377">
        <ele>26</ele>
        <time>2017-08-26T00:50:40Z</time>
      </trkpt>
      <trkpt lat="50.6364" lon="3.21373">
        <ele>27</ele>
        <time>2017-08-26T00:52:40Z</time>
      </trkpt>
      <trkpt lat="50.63694" lon="3.21289">
        <ele>26</ele>
        <time>2017-08-26T00:54:40Z</time>
      </trkpt>
      <trkpt lat="50.63713" lon="3.21261">
        <ele>26</ele>
        <time>2017-08-26T00:56:40Z</time>
      </trkpt>
      <trkpt lat="50.63721" lon="3.21251">
        <ele>26</ele>
        <time>2017-08-26T00:58:40Z</time>
      </trkpt>
      <trkpt lat="50.63726" lon="3.21249">
        <ele>26</ele>
        <time>2017-08-26T01:00:40Z</time>
      </trkpt>
      <trkpt lat="50.63731" lon="3.21248">
        <ele>26</ele>
        <time>2017-08-26T01:02:40Z</time>
      </trkpt>
      <trkpt lat="50.63736" lon="3.21249">
        <ele>26</ele>
        <time>2017-08-26T01:04:40Z</time>
      </trkpt>
      <trkpt lat="50.6374" lon="3.21252">
        <ele>26</ele>
        <time>2017-08-26T01:06:40Z</time>
      </trkpt>
      <trkpt lat="50.63747" lon="3.21261">
        <ele>26</ele>
        <time>2017-08-26T01:08:40Z</time>
      </trkpt>
      <trkpt lat="50.63757" lon="3.21276">
        <ele>26</ele>
        <time>2017-08-26T01:10:40Z</time>
      </trkpt>
      <trkpt lat="50.63764" lon="3.21284">
        <ele>26</ele>
        <time>2017-08-26T01:12:40Z</time>
      </trkpt>
      <trkpt lat="50.63769" lon="3.21286">
        <ele>26</ele>
        <time>2017-08-26T01:14:40Z</time>
      </trkpt>
      <trkpt lat="50.63774" lon="3.21286">
        <ele>26</ele>
        <time>2017-08-26T01:16:40Z</time>
      </trkpt>
      <trkpt lat="50.63776" lon="3.21285">
        <ele>26</ele>
        <time>2017-08-26T01:18:40Z</time>
      </trkpt>
      <trkpt lat="50.63778" lon="3.21283">
        <ele>26</ele>
        <time>2017-08-26T01:20:40Z</time>
      </trkpt>
      <trkpt lat="50.6378" lon="3.21281">
        <ele>26</ele>
        <time>2017-08-26T01:22:40Z</time>
      </trkpt>
      <trkpt lat="50.63782" lon="3.21278">
        <ele>26</ele>
        <time>2017-08-26T01:24:40Z</time>
      </trkpt>
      <trkpt lat="50.63783" lon="3.21276">
        <ele>26</ele>
        <time>2017-08-26T01:26:40Z</time>
      </trkpt>
      <trkpt lat="50.63784" lon="3.21274">
        <ele>26</ele>
        <time>2017-08-26T01:28:40Z</time>
      </trkpt>
      <trkpt lat="50.63793" lon="3.21247">
        <ele>26</ele>
        <time>2017-08-26T01:30:40Z</time>
      </trkpt>
      <trkpt lat="50.63802" lon="3.21219">
        <ele>26</ele>
        <time>2017-08-26T01:32:40Z</time>
      </trkpt>
      <trkpt lat="50.63816" lon="3.21185">
        <ele>26</ele>
        <time>2017-08-26T01:34:40Z</time>
      </trkpt>
      <trkpt lat="50.63822" lon="3.21172">
        <ele>26</ele>
        <time>2017-08-26T01:36:40Z</time>
      </trkpt>
      <trkpt lat="50.63823" lon="3.2117">
        <ele>26</ele>
        <time>2017-08-26T01:38:40Z</time>
      </trkpt>
      <trkpt lat="50.63831" lon="3.2115">
        <ele>26</ele>
        <time>2017-08-26T01:40:40Z</time>
      </trkpt>
      <trkpt lat="50.63832" lon="3.21146">
        <ele>26</ele>
        <time>2017-08-26T01:42:40Z</time>
      </trkpt>
      <trkpt lat="50.63836" lon="3.21133">
        <ele>26</ele>
        <time>2017-08-26T01:44:40Z</time>
      </trkpt>
      <trkpt lat="50.63838" lon="3.21125">
        <ele>27</ele>
        <time>2017-08-26T01:46:40Z</time>
      </trkpt>
      <trkpt lat="50.63838" lon="3.21116">
        <ele>27</ele>
        <time>2017-08-26T01:48:40Z</time>
      </trkpt>
      <trkpt lat="50.63838" lon="3.21109">
        <ele>27</ele>
        <time>2017-08-26T01:50:40Z</time>
      </trkpt>
      <trkpt lat="50.63837" lon="3.21105">
        <ele>27</ele>
        <time>2017-08-26T01:52:40Z</time>
      </trkpt>
      <trkpt lat="50.63837" lon="3.21098">
        <ele>27</ele>
        <time>2017-08-26T01:54:40Z</time>
      </trkpt>
      <trkpt lat="50.63836" lon="3.21094">
        <ele>27</ele>
        <time>2017-08-26T01:56:40Z</time>
      </trkpt>
      <trkpt lat="50.63835" lon="3.21088">
        <ele>27</ele>
        <time>2017-08-26T01:58:40Z</time>
      </trkpt>
      <trkpt lat="50.63835" lon="3.21083">
        <ele>27</ele>
        <time>2017-08-26T02:00:40Z</time>
      </trkpt>
      <trkpt lat="50.63835" lon="3.21079">
        <ele>27</ele>
        <time>2017-08-26T02:02:40Z</time>
      </trkpt>
      <trkpt lat="50.63835" lon="3.21073">
        <ele>27</ele>
        <time>2017-08-26T02:04:40Z</time>
      </trkpt>
      <trkpt lat="50.63836" lon="3.21068">
        <ele>27</ele>
        <time>2017-08-26T02:06:40Z</time>
      </trkpt>
      <trkpt lat="50.63837" lon="3.21063">
        <ele>27</ele>
        <time>2017-08-26T02:08:40Z</time>
      </trkpt>
      <trkpt lat="50.63837" lon="3.2106">
        <ele>27</ele>
        <time>2017-08-26T02:10:40Z</time>
      </trkpt>
      <trkpt lat="50.63839" lon="3.21056">
        <ele>27</ele>
        <time>2017-08-26T02:12:40Z</time>
      </trkpt>
      <trkpt lat="50.6384" lon="3.21051">
        <ele>27</ele>
        <time>2017-08-26T02:14:40Z</time>
      </trkpt>
      <trkpt lat="50.63841" lon="3.21048">
        <ele>27</ele>
        <time>2017-08-26T02:16:40Z</time>
      </trkpt>
      <trkpt lat="50.63847" lon="3.21036">
        <ele>27</ele>
        <time>2017-08-26T02:18:40Z</time>
      </trkpt>
      <trkpt lat="50.6385" lon="3.2103">
        <ele>27</ele>
        <time>2017-08-26T02:20:40Z</time>
      </trkpt>
      <trkpt lat="50.63854" lon="3.21024">
        <ele>27</ele>
        <time>2017-08-26T02:22:40Z</time>
      </trkpt>
      <trkpt lat="50.63864" lon="3.21005">
        <ele>27</ele>
        <time>2017-08-26T02:24:40Z</time>
      </trkpt>
      <trkpt lat="50.63874" lon="3.20988">
        <ele>27</ele>
        <time>2017-08-26T02:26:40Z</time>
      </trkpt>
      <trkpt lat="50.63893" lon="3.2096">
        <ele>27</ele>
        <time>2017-08-26T02:28:40Z</time>
      </trkpt>
      <trkpt lat="50.63915" lon="3.2093">
        <ele>27</ele>
        <time>2017-08-26T02:30:40Z</time>
      </trkpt>
      <trkpt lat="50.63923" lon="3.20919">
        <ele>27</ele>
        <time>2017-08-26T02:32:40Z</time>
      </trkpt>
      <trkpt lat="50.63932" lon="3.20904">
        <ele>27</ele>
        <time>2017-08-26T02:34:40Z</time>
      </trkpt>
      <trkpt lat="50.63942" lon="3.2089">
        <ele>28</ele>
        <time>2017-08-26T02:36:40Z</time>
      </trkpt>
      <trkpt lat="50.63951" lon="3.20877">
        <ele>28</ele>
        <time>2017-08-26T02:38:40Z</time>
      </trkpt>
      <trkpt lat="50.6396" lon="3.20867">
        <ele>28</ele>
        <time>2017-08-26T02:40:40Z</time>
      </trkpt>
      <trkpt lat="50.63963" lon="3.20857">
        <ele>28</ele>
        <time>2017-08-26T02:42:40Z</time>
      </trkpt>
      <trkpt lat="50.63964" lon="3.20847">
        <ele>28</ele>
        <time>2017-08-26T02:44:40Z</time>
      </trkpt>
      <trkpt lat="50.63965" lon="3.20828">
        <ele>28</ele>
        <time>2017-08-26T02:46:40Z</time>
      </trkpt>
      <trkpt lat="50.63963" lon="3.20801">
        <ele>28</ele>
        <time>2017-08-26T02:48:40Z</time>
      </trkpt>
      <trkpt lat="50.63962" lon="3.20788">
        <ele>28</ele>
        <time>2017-08-26T02:50:40Z</time>
      </trkpt>
      <trkpt lat="50.63961" lon="3.20783">
        <ele>28</ele>
        <time>2017-08-26T02:52:40Z</time>
      </trkpt>
      <trkpt lat="50.63961" lon="3.20772">
        <ele>28</ele>
        <time>2017-08-26T02:54:40Z</time>
      </trkpt>
      <trkpt lat="50.63961" lon="3.20761">
        <ele>28</ele>
        <time>2017-08-26T02:56:40Z</time>
      </trkpt>
      <trkpt lat="50.63962" lon="3.20753">
        <ele>28</ele>
        <time>2017-08-26T02:58:40Z</time>
      </trkpt>
      <trkpt lat="50.63964" lon="3.20744">
        <ele>28</ele>
        <time>2017-08-26T03:00:40Z</time>
      </trkpt>
      <trkpt lat="50.63974" lon="3.20702">
        <ele>27</ele>
        <time>2017-08-26T03:02:40Z</time>
      </trkpt>
      <trkpt lat="50.6398" lon="3.20687">
        <ele>27</ele>
        <time>2017-08-26T03:04:40Z</time>
      </trkpt>
      <trkpt lat="50.63982" lon="3.20683">
        <ele>27</ele>
        <time>2017-08-26T03:06:40Z</time>
      </trkpt>
      <trkpt lat="50.63994" lon="3.20664">
        <ele>27</ele>
        <time>2017-08-26T03:08:40Z</time>
      </trkpt>
      <trkpt lat="50.64001" lon="3.20652">
        <ele>27</ele>
        <time>2017-08-26T03:10:40Z</time>
      </trkpt>
      <trkpt lat="50.64009" lon="3.20637">
        <ele>27</ele>
        <time>2017-08-26T03:12:40Z</time>
      </trkpt>
      <trkpt lat="50.64016" lon="3.20623">
        <ele>26</ele>
        <time>2017-08-26T03:14:40Z</time>
      </trkpt>
      <trkpt lat="50.64019" lon="3.20621">
        <ele>26</ele>
        <time>2017-08-26T03:16:40Z</time>
      </trkpt>
      <trkpt lat="50.64023" lon="3.20618">
        <ele>26</ele>
        <time>2017-08-26T03:18:40Z</time>
      </trkpt>
      <trkpt lat="50.64026" lon="3.20617">
        <ele>26</ele>
        <time>2017-08-26T03:20:40Z</time>
      </trkpt>
      <trkpt lat="50.64028" lon="3.20616">
        <ele>26</ele>
        <time>2017-08-26T03:22:40Z</time>
      </trkpt>
      <trkpt lat="50.64032" lon="3.20616">
        <ele>26</ele>
        <time>2017-08-26T03:24:40Z</time>
      </trkpt>
      <trkpt lat="50.64048" lon="3.20623">
        <ele>26</ele>
        <time>2017-08-26T03:26:40Z</time>
      </trkpt>
      <trkpt lat="50.64054" lon="3.20627">
        <ele>27</ele>
        <time>2017-08-26T03:28:40Z</time>
      </trkpt>
      <trkpt lat="50.64062" lon="3.20628">
        <ele>27</ele>
        <time>2017-08-26T03:30:40Z</time>
      </trkpt>
      <trkpt lat="50.64067" lon="3.20627">
        <ele>27</ele>
        <time>2017-08-26T03:32:40Z</time>
      </trkpt>
      <trkpt lat="50.64075" lon="3.20624">
        <ele>26</ele>
        <time>2017-08-26T03:34:40Z</time>
      </trkpt>
      <trkpt lat="50.64096" lon="3.20614">
        <ele>26</ele>
        <time>2017-08-26T03:36:40Z</time>
      </trkpt>
      <trkpt lat="50.64124" lon="3.20598">
        <ele>26</ele>
        <time>2017-08-26T03:38:40Z</time>
      </trkpt>
      <trkpt lat="50.64143" lon="3.20586">
        <ele>26</ele>
        <time>2017-08-26T03:40:40Z</time>
      </trkpt>
      <trkpt lat="50.64154" lon="3.20575">
        <ele>26</ele>
        <time>2017-08-26T03:42:40Z</time>
      </trkpt>
      <trkpt lat="50.64165" lon="3.20563">
        <ele>26</ele>
        <time>2017-08-26T03:44:40Z</time>
      </trkpt>
      <trkpt lat="50.64177" lon="3.20545">
        <ele>26</ele>
        <time>2017-08-26T03:46:40Z</time>
      </trkpt>
      <trkpt lat="50.64188" lon="3.20525">
        <ele>27</ele>
        <time>2017-08-26T03:48:40Z</time>
      </trkpt>
      <trkpt lat="50.64206" lon="3.20487">
        <ele>27</ele>
        <time>2017-08-26T03:50:40Z</time>
      </trkpt>
      <trkpt lat="50.64214" lon="3.20471">
        <ele>27</ele>
        <time>2017-08-26T03:52:40Z</time>
      </trkpt>
      <trkpt lat="50.64223" lon="3.20453">
        <ele>27</ele>
        <time>2017-08-26T03:54:40Z</time>
      </trkpt>
      <trkpt lat="50.64231" lon="3.20439">
        <ele>27</ele>
        <time>2017-08-26T03:56:40Z</time>
      </trkpt>
      <trkpt lat="50.64234" lon="3.20435">
        <ele>27</ele>
        <time>2017-08-26T03:58:40Z</time>
      </trkpt>
      <trkpt lat="50.64236" lon="3.20432">
        <ele>27</ele>
        <time>2017-08-26T04:00:40Z</time>
      </trkpt>
      <trkpt lat="50.64238" lon="3.20431">
        <ele>27</ele>
        <time>2017-08-26T04:02:40Z</time>
      </trkpt>
      <trkpt lat="50.6424" lon="3.2043">
        <ele>27</ele>
        <time>2017-08-26T04:04:40Z</time>
      </trkpt>
      <trkpt lat="50.64243" lon="3.20429">
        <ele>27</ele>
        <time>2017-08-26T04:06:40Z</time>
      </trkpt>
      <trkpt lat="50.64246" lon="3.20429">
        <ele>27</ele>
        <time>2017-08-26T04:08:40Z</time>
      </trkpt>
      <trkpt lat="50.64249" lon="3.2043">
        <ele>27</ele>
        <time>2017-08-26T04:10:40Z</time>
      </trkpt>
      <trkpt lat="50.64252" lon="3.20432">
        <ele>27</ele>
        <time>2017-08-26T04:12:40Z</time>
      </trkpt>
      <trkpt lat="50.64255" lon="3.20434">
        <ele>28</ele>
        <time>2017-08-26T04:14:40Z</time>
      </trkpt>
      <trkpt lat="50.64259" lon="3.20438">
        <ele>28</ele>
        <time>2017-08-26T04:16:40Z</time>
      </trkpt>
      <trkpt lat="50.64265" lon="3.20447">
        <ele>28</ele>
        <time>2017-08-26T04:18:40Z</time>
      </trkpt>
      <trkpt lat="50.64302" lon="3.20501">
        <ele>30</ele>
        <time>2017-08-26T04:20:40Z</time>
      </trkpt>
      <trkpt lat="50.64314" lon="3.20518">
        <ele>31</ele>
        <time>2017-08-26T04:22:40Z</time>
      </trkpt>
      <trkpt lat="50.64328" lon="3.20538">
        <ele>31</ele>
        <time>2017-08-26T04:24:40Z</time>
      </trkpt>
      <trkpt lat="50.64335" lon="3.20547">
        <ele>31</ele>
        <time>2017-08-26T04:26:40Z</time>
      </trkpt>
      <trkpt lat="50.64341" lon="3.20555">
        <ele>31</ele>
        <time>2017-08-26T04:28:40Z</time>
      </trkpt>
      <trkpt lat="50.64341" lon="3.20555">
        <ele>31</ele>
        <time>2017-08-26T04:30:40Z</time>
      </trkpt>
      <trkpt lat="50.64345" lon="3.20549">
        <ele>31</ele>
        <time>2017-08-26T04:32:40Z</time>
      </trkpt>
      <trkpt lat="50.64352" lon="3.20541">
        <ele>31</ele>
        <time>2017-08-26T04:34:40Z</time>
      </trkpt>
      <trkpt lat="50.64358" lon="3.20531">
        <ele>31</ele>
        <time>2017-08-26T04:36:40Z</time>
      </trkpt>
      <trkpt lat="50.64368" lon="3.20518">
        <ele>31</ele>
        <time>2017-08-26T04:38:40Z</time>
      </trkpt>
      <trkpt lat="50.64377" lon="3.20503">
        <ele>30</ele>
        <time>2017-08-26T04:40:40Z</time>
      </trkpt>
      <trkpt lat="50.64382" lon="3.20494">
        <ele>30</ele>
        <time>2017-08-26T04:42:40Z</time>
      </trkpt>
      <trkpt lat="50.64385" lon="3.20486">
        <ele>30</ele>
        <time>2017-08-26T04:44:40Z</time>
      </trkpt>
      <trkpt lat="50.64392" lon="3.2047">
        <ele>30</ele>
        <time>2017-08-26T04:46:40Z</time>
      </trkpt>
      <trkpt lat="50.644" lon="3.20448">
        <ele>29</ele>
        <time>2017-08-26T04:48:40Z</time>
      </trkpt>
      <trkpt lat="50.6441" lon="3.20412">
        <ele>29</ele>
        <time>2017-08-26T04:50:40Z</time>
      </trkpt>
      <trkpt lat="50.64418" lon="3.20388">
        <ele>29</ele>
        <time>2017-08-26T04:52:40Z</time>
      </trkpt>
      <trkpt lat="50.64426" lon="3.20364">
        <ele>28</ele>
        <time>2017-08-26T04:54:40Z</time>
      </trkpt>
      <trkpt lat="50.64429" lon="3.20355">
        <ele>28</ele>
        <time>2017-08-26T04:56:40Z</time>
      </trkpt>
      <trkpt lat="50.64435" lon="3.20342">
        <ele>28</ele>
        <time>2017-08-26T04:58:40Z</time>
      </trkpt>
      <trkpt lat="50.64443" lon="3.20325">
        <ele>28</ele>
        <time>2017-08-26T05:00:40Z</time>
      </trkpt>
      <trkpt lat="50.64453" lon="3.20309">
        <ele>27</ele>
        <time>2017-08-26T05:02:40Z</time>
      </trkpt>
      <trkpt lat="50.64462" lon="3.20297">
        <ele>27</ele>
        <time>2017-08-26T05:04:40Z</time>
      </trkpt>
      <trkpt lat="50.64467" lon="3.20291">
        <ele>27</ele>
        <time>2017-08-26T05:06:40Z</time>
      </trkpt>
      <trkpt lat="50.64475" lon="3.20284">
        <ele>27</ele>
        <time>2017-08-26T05:08:40Z</time>
      </trkpt>
      <trkpt lat="50.64482" lon="3.20278">
        <ele>27</ele>
        <time>2017-08-26T05:10:40Z</time>
      </trkpt>
      <trkpt lat="50.64488" lon="3.20273">
        <ele>28</ele>
        <time>2017-08-26T05:12:40Z</time>
      </trkpt>
      <trkpt lat="50.64502" lon="3.20264">
        <ele>28</ele>
        <time>2017-08-26T05:14:40Z</time>
      </trkpt>
      <trkpt lat="50.64517" lon="3.20255">
        <ele>28</ele>
        <time>2017-08-26T05:16:40Z</time>
      </trkpt>
      <trkpt lat="50.64533" lon="3.20244">
        <ele>28</ele>
        <time>2017-08-26T05:18:40Z</time>
      </trkpt>
      <trkpt lat="50.6454" lon="3.20237">
        <ele>29</ele>
        <time>2017-08-26T05:20:40Z</time>
      </trkpt>
      <trkpt lat="50.64545" lon="3.20231">
        <ele>29</ele>
        <time>2017-08-26T05:22:40Z</time>
      </trkpt>
      <trkpt lat="50.6455" lon="3.2022">
        <ele>29</ele>
        <time>2017-08-26T05:24:40Z</time>
      </trkpt>
      <trkpt lat="50.64554" lon="3.20209">
        <ele>29</ele>
        <time>2017-08-26T05:26:40Z</time>
      </trkpt>
      <trkpt lat="50.64556" lon="3.20202">
        <ele>29</ele>
        <time>2017-08-26T05:28:40Z</time>
      </trkpt>
      <trkpt lat="50.64557" lon="3.20194">
        <ele>29</ele>
        <time>2017-08-26T05:30:40Z</time>
      </trkpt>
      <trkpt lat="50.64557" lon="3.20184">
        <ele>29</ele>
        <time>2017-08-26T05:32:40Z</time>
      </trkpt>
      <trkpt lat="50.64558" lon="3.20177">
        <ele>29</ele>
        <time>2017-08-26T05:34:40Z</time>
      </trkpt>
      <trkpt lat="50.64558" lon="3.20168">
        <ele>29</ele>
        <time>2017-08-26T05:36:40Z</time>
      </trkpt>
      <trkpt lat="50.64557" lon="3.20156">
        <ele>29</ele>
        <time>2017-08-26T05:38:40Z</time>
      </trkpt>
      <trkpt lat="50.64555" lon="3.20111">
        <ele>29</ele>
        <time>2017-08-26T05:40:40Z</time>
      </trkpt>
      <trkpt lat="50.64552" lon="3.20074">
        <ele>29</ele>
        <time>2017-08-26T05:42:40Z</time>
      </trkpt>
      <trkpt lat="50.64552" lon="3.20013">
        <ele>29</ele>
        <time>2017-08-26T05:44:40Z</time>
      </trkpt>
      <trkpt lat="50.64554" lon="3.19969">
        <ele>28</ele>
        <time>2017-08-26T05:46:40Z</time>
      </trkpt>
      <trkpt lat="50.64558" lon="3.19934">
        <ele>28</ele>
        <time>2017-08-26T05:48:40Z</time>
      </trkpt>
      <trkpt lat="50.64563" lon="3.19894">
        <ele>27</ele>
        <time>2017-08-26T05:50:40Z</time>
      </trkpt>
      <trkpt lat="50.64567" lon="3.19873">
        <ele>27</ele>
        <time>2017-08-26T05:52:40Z</time>
      </trkpt>
      <trkpt lat="50.64575" lon="3.19832">
        <ele>27</ele>
        <time>2017-08-26T05:54:40Z</time>
      </trkpt>
      <trkpt lat="50.64578" lon="3.19817">
        <ele>27</ele>
        <time>2017-08-26T05:56:40Z</time>
      </trkpt>
      <trkpt lat="50.64586" lon="3.19778">
        <ele>26</ele>
        <time>2017-08-26T05:58:40Z</time>
      </trkpt>
      <trkpt lat="50.64592" lon="3.19751">
        <ele>26</ele>
        <time>2017-08-26T06:00:40Z</time>
      </trkpt>
      <trkpt lat="50.64596" lon="3.19734">
        <ele>26</ele>
        <time>2017-08-26T06:02:40Z</time>
      </trkpt>
      <trkpt lat="50.64602" lon="3.19708">
        <ele>27</ele>
        <time>2017-08-26T06:04:40Z</time>
      </trkpt>
      <trkpt lat="50.64605" lon="3.19686">
        <ele>27</ele>
        <time>2017-08-26T06:06:40Z</time>
      </trkpt>
      <trkpt lat="50.64605" lon="3.19675">
        <ele>27</ele>
        <time>2017-08-26T06:08:40Z</time>
      </trkpt>
      <trkpt lat="50.64606" lon="3.19665">
        <ele>27</ele>
        <time>2017-08-26T06:10:40Z</time>
      </trkpt>
      <trkpt lat="50.64605" lon="3.19656">
        <ele>26</ele>
        <time>2017-08-26T06:12:40Z</time>
      </trkpt>
      <trkpt lat="50.64605" lon="3.19648">
        <ele>26</ele>
        <time>2017-08-26T06:14:40Z</time>
      </trkpt>
      <trkpt lat="50.64604" lon="3.19641">
        <ele>26</ele>
        <time>2017-08-26T06:16:40Z</time>
      </trkpt>
      <trkpt lat="50.64603" lon="3.19635">
        <ele>26</ele>
        <time>2017-08-26T06:18:40Z</time>
      </trkpt>
      <trkpt lat="50.64601" lon="3.19628">
        <ele>26</ele>
        <time>2017-08-26T06:20:40Z</time>
      </trkpt>
      <trkpt lat="50.646" lon="3.19622">
        <ele>26</ele>
        <time>2017-08-26T06:22:40Z</time>
      </trkpt>
      <trkpt lat="50.64598" lon="3.19614">
        <ele>26</ele>
        <time>2017-08-26T06:24:40Z</time>
      </trkpt>
      <trkpt lat="50.64594" lon="3.19604">
        <ele>26</ele>
        <time>2017-08-26T06:26:40Z</time>
      </trkpt>
      <trkpt lat="50.64588" lon="3.19586">
        <ele>25</ele>
        <time>2017-08-26T06:28:40Z</time>
      </trkpt>
      <trkpt lat="50.64576" lon="3.19554">
        <ele>25</ele>
        <time>2017-08-26T06:30:40Z</time>
      </trkpt>
      <trkpt lat="50.64576" lon="3.19554">
        <ele>25</ele>
        <time>2017-08-26T06:32:40Z</time>
      </trkpt>
      <trkpt lat="50.64569" lon="3.1954">
        <ele>25</ele>
        <time>2017-08-26T06:34:40Z</time>
      </trkpt>
      <trkpt lat="50.64567" lon="3.19535">
        <ele>25</ele>
        <time>2017-08-26T06:36:40Z</time>
      </trkpt>
      <trkpt lat="50.64565" lon="3.19529">
        <ele>25</ele>
        <time>2017-08-26T06:38:40Z</time>
      </trkpt>
      <trkpt lat="50.64564" lon="3.1952">
        <ele>25</ele>
        <time>2017-08-26T06:40:40Z</time>
      </trkpt>
      <trkpt lat="50.64564" lon="3.19513">
        <ele>25</ele>
        <time>2017-08-26T06:42:40Z</time>
      </trkpt>
      <trkpt lat="50.64565" lon="3.19505">
        <ele>25</ele>
        <time>2017-08-26T06:44:40Z</time>
      </trkpt>
      <trkpt lat="50.64565" lon="3.19505">
        <ele>25</ele>
        <time>2017-08-26T06:46:40Z</time>
      </trkpt>
      <trkpt lat="50.64566" lon="3.19497">
        <ele>25</ele>
        <time>2017-08-26T06:48:40Z</time>
      </trkpt>
      <trkpt lat="50.64568" lon="3.19494">
        <ele>25</ele>
        <time>2017-08-26T06:50:40Z</time>
      </trkpt>
      <trkpt lat="50.6466" lon="3.19417">
        <ele>26</ele>
        <time>2017-08-26T06:52:40Z</time>
      </trkpt>
      <trkpt lat="50.64676" lon="3.19293">
        <ele>24</ele>
        <time>2017-08-26T06:54:40Z</time>
      </trkpt>
      <trkpt lat="50.64685" lon="3.19254">
        <ele>25</ele>
        <time>2017-08-26T06:56:40Z</time>
      </trkpt>
      <trkpt lat="50.64685" lon="3.19254">
        <ele>25</ele>
        <time>2017-08-26T06:58:40Z</time>
      </trkpt>
      <trkpt lat="50.64691" lon="3.19208">
        <ele>25</ele>
        <time>2017-08-26T07:00:40Z</time>
      </trkpt>
      <trkpt lat="50.6471" lon="3.19078">
        <ele>24</ele>
        <time>2017-08-26T07:02:40Z</time>
      </trkpt>
      <trkpt lat="50.64715" lon="3.19042">
        <ele>24</ele>
        <time>2017-08-26T07:04:40Z</time>
      </trkpt>
      <trkpt lat="50.64715" lon="3.19035">
        <ele>24</ele>
        <time>2017-08-26T07:06:40Z</time>
      </trkpt>
      <trkpt lat="50.64715" lon="3.19031">
        <ele>24</ele>
        <time>2017-08-26T07:08:40Z</time>
      </trkpt>
      <trkpt lat="50.64715" lon="3.19028">
        <ele>24</ele>
        <time>2017-08-26T07:10:40Z</time>
      </trkpt>
      <trkpt lat="50.64715" lon="3.19026">
        <ele>24</ele>
        <time>2017-08-26T07:12:40Z</time>
      </trkpt>
      <trkpt lat="50.64714" lon="3.19024">
        <ele>24</ele>
        <time>2017-08-26T07:14:40Z</time>
      </trkpt>
      <trkpt lat="50.64714" lon="3.19023">
        <ele>24</ele>
        <time>2017-08-26T07:16:40Z</time>
      </trkpt>
      <trkpt lat="50.64713" lon="3.19022">
        <ele>24</ele>
        <time>2017-08-26T07:18:40Z</time>
      </trkpt>
      <trkpt lat="50.64712" lon="3.1902">
        <ele>24</ele>
        <time>2017-08-26T07:20:40Z</time>
      </trkpt>
      <trkpt lat="50.64711" lon="3.1902">
        <ele>24</ele>
        <time>2017-08-26T07:22:40Z</time>
      </trkpt>
      <trkpt lat="50.64706" lon="3.19018">
        <ele>24</ele>
        <time>2017-08-26T07:24:40Z</time>
      </trkpt>
      <trkpt lat="50.64706" lon="3.19018">
        <ele>24</ele>
        <time>2017-08-26T07:26:40Z</time>
      </trkpt>
      <trkpt lat="50.64709" lon="3.19011">
        <ele>24</ele>
        <time>2017-08-26T07:28:40Z</time>
      </trkpt>
      <trkpt lat="50.6471" lon="3.1901">
        <ele>24</ele>
        <time>2017-08-26T07:30:40Z</time>
      </trkpt>
      <trkpt lat="50.64711" lon="3.19009">
        <ele>24</ele>
        <time>2017-08-26T07:32:40Z</time>
      </trkpt>
      <trkpt lat="50.64712" lon="3.19009">
        <ele>24</ele>
        <time>2017-08-26T07:34:40Z</time>
      </trkpt>
      <trkpt lat="50.64713" lon="3.19009">
        <ele>24</ele>
        <time>2017-08-26T07:36:40Z</time>
      </trkpt>
      <trkpt lat="50.64714" lon="3.19009">
        <ele>24</ele>
        <time>2017-08-26T07:38:40Z</time>
      </trkpt>
      <trkpt lat="50.64719" lon="3.19009">
        <ele>24</ele>
        <time>2017-08-26T07:40:40Z</time>
      </trkpt>
      <trkpt lat="50.64732" lon="3.19012">
        <ele>24</ele>
        <time>2017-08-26T07:42:40Z</time>
      </trkpt>
      <trkpt lat="50.64734" lon="3.19012">
        <ele>24</ele>
        <time>2017-08-26T07:44:40Z</time>
      </trkpt>
      <trkpt lat="50.64741" lon="3.19014">
        <ele>24</ele>
        <time>2017-08-26T07:46:40Z</time>
      </trkpt>
      <trkpt lat="50.64742" lon="3.19014">
        <ele>24</ele>
        <time>2017-08-26T07:48:40Z</time>
      </trkpt>
      <trkpt lat="50.64754" lon="3.19017">
        <ele>24</ele>
        <time>2017-08-26T07:50:40Z</time>
      </trkpt>
      <trkpt lat="50.64755" lon="3.19018">
        <ele>24</ele>
        <time>2017-08-26T07:52:40Z</time>
      </trkpt>
      <trkpt lat="50.64756" lon="3.19019">
        <ele>24</ele>
        <time>2017-08-26T07:54:40Z</time>
      </trkpt>
      <trkpt lat="50.64756" lon="3.1902">
        <ele>24</ele>
        <time>2017-08-26T07:56:40Z</time>
      </trkpt>
      <trkpt lat="50.64756" lon="3.19022">
        <ele>24</ele>
        <time>2017-08-26T07:58:40Z</time>
      </trkpt>
      <trkpt lat="50.64755" lon="3.19043">
        <ele>25</ele>
        <time>2017-08-26T08:00:40Z</time>
      </trkpt>
      <trkpt lat="50.64755" lon="3.19044">
        <ele>25</ele>
        <time>2017-08-26T08:02:40Z</time>
      </trkpt>
      <trkpt lat="50.64756" lon="3.19045">
        <ele>25</ele>
        <time>2017-08-26T08:04:40Z</time>
      </trkpt>
      <trkpt lat="50.64756" lon="3.19046">
        <ele>25</ele>
        <time>2017-08-26T08:06:40Z</time>
      </trkpt>
      <trkpt lat="50.64756" lon="3.19047">
        <ele>25</ele>
        <time>2017-08-26T08:08:40Z</time>
      </trkpt>
      <trkpt lat="50.64757" lon="3.19048">
        <ele>25</ele>
        <time>2017-08-26T08:10:40Z</time>
      </trkpt>
      <trkpt lat="50.64758" lon="3.19048">
        <ele>25</ele>
        <time>2017-08-26T08:12:40Z</time>
      </trkpt>
      <trkpt lat="50.64758" lon="3.19047">
        <ele>25</ele>
        <time>2017-08-26T08:14:40Z</time>
      </trkpt>
      <trkpt lat="50.64759" lon="3.19047">
        <ele>25</ele>
        <time>2017-08-26T08:16:40Z</time>
      </trkpt>
      <trkpt lat="50.64759" lon="3.19046">
        <ele>25</ele>
        <time>2017-08-26T08:18:40Z</time>
      </trkpt>
      <trkpt lat="50.64759" lon="3.19045">
        <ele>25</ele>
        <time>2017-08-26T08:20:40Z</time>
      </trkpt>
      <trkpt lat="50.6476" lon="3.19035">
        <ele>25</ele>
        <time>2017-08-26T08:22:40Z</time>
      </trkpt>
      <trkpt lat="50.64761" lon="3.19024">
        <ele>25</ele>
        <time>2017-08-26T08:24:40Z</time>
      </trkpt>
      <trkpt lat="50.64762" lon="3.19021">
        <ele>25</ele>
        <time>2017-08-26T08:26:40Z</time>
      </trkpt>
      <trkpt lat="50.64762" lon="3.1902">
        <ele>25</ele>
        <time>2017-08-26T08:28:40Z</time>
      </trkpt>
      <trkpt lat="50.64762" lon="3.19019">
        <ele>25</ele>
        <time>2017-08-26T08:30:40Z</time>
      </trkpt>
      <trkpt lat="50.64762" lon="3.19018">
        <ele>25</ele>
        <time>2017-08-26T08:32:40Z</time>
      </trkpt>
      <trkpt lat="50.64763" lon="3.19018">
        <ele>25</ele>
        <time>2017-08-26T08:34:40Z</time>
      </trkpt>
      <trkpt lat="50.64764" lon="3.19018">
        <ele>25</ele>
        <time>2017-08-26T08:36:40Z</time>
      </trkpt>
      <trkpt lat="50.64764" lon="3.19019">
        <ele>25</ele>
        <time>2017-08-26T08:38:40Z</time>
      </trkpt>
      <trkpt lat="50.64764" lon="3.1902">
        <ele>25</ele>
        <time>2017-08-26T08:40:40Z</time>
      </trkpt>
      <trkpt lat="50.64763" lon="3.19032">
        <ele>25</ele>
        <time>2017-08-26T08:42:40Z</time>
      </trkpt>
      <trkpt lat="50.64763" lon="3.19042">
        <ele>25</ele>
        <time>2017-08-26T08:44:40Z</time>
      </trkpt>
      <trkpt lat="50.64763" lon="3.19043">
        <ele>25</ele>
        <time>2017-08-26T08:46:40Z</time>
      </trkpt>
      <trkpt lat="50.64764" lon="3.19044">
        <ele>25</ele>
        <time>2017-08-26T08:48:40Z</time>
      </trkpt>
      <trkpt lat="50.64764" lon="3.19045">
        <ele>25</ele>
        <time>2017-08-26T08:50:40Z</time>
      </trkpt>
      <trkpt lat="50.64765" lon="3.19046">
        <ele>25</ele>
        <time>2017-08-26T08:52:40Z</time>
      </trkpt>
      <trkpt lat="50.64771" lon="3.19051">
        <ele>25</ele>
        <time>2017-08-26T08:54:40Z</time>
      </trkpt>
      <trkpt lat="50.64772" lon="3.19052">
        <ele>25</ele>
        <time>2017-08-26T08:56:40Z</time>
      </trkpt>
      <trkpt lat="50.64782" lon="3.19057">
        <ele>26</ele>
        <time>2017-08-26T08:58:40Z</time>
      </trkpt>
      <trkpt lat="50.64792" lon="3.19064">
        <ele>26</ele>
        <time>2017-08-26T09:00:40Z</time>
      </trkpt>
      <trkpt lat="50.64815" lon="3.19078">
        <ele>27</ele>
        <time>2017-08-26T09:02:40Z</time>
      </trkpt>
      <trkpt lat="50.64833" lon="3.19089">
        <ele>28</ele>
        <time>2017-08-26T09:04:40Z</time>
      </trkpt>
      <trkpt lat="50.64842" lon="3.19095">
        <ele>28</ele>
        <time>2017-08-26T09:06:40Z</time>
      </trkpt>
      <trkpt lat="50.64849" lon="3.19098">
        <ele>29</ele>
        <time>2017-08-26T09:08:40Z</time>
      </trkpt>
      <trkpt lat="50.6488" lon="3.19116">
        <ele>30</ele>
        <time>2017-08-26T09:10:40Z</time>
      </trkpt>
      <trkpt lat="50.64887" lon="3.19121">
        <ele>30</ele>
        <time>2017-08-26T09:12:40Z</time>
      </trkpt>
      <trkpt lat="50.64932" lon="3.1915">
        <ele>32</ele>
        <time>2017-08-26T09:14:40Z</time>
      </trkpt>
      <trkpt lat="50.64934" lon="3.19151">
        <ele>32</ele>
        <time>2017-08-26T09:16:40Z</time>
      </trkpt>
      <trkpt lat="50.64936" lon="3.19153">
        <ele>32</ele>
        <time>2017-08-26T09:18:40Z</time>
      </trkpt>
      <trkpt lat="50.64937" lon="3.19155">
        <ele>32</ele>
        <time>2017-08-26T09:20:40Z</time>
      </trkpt>
      <trkpt lat="50.64939" lon="3.19157">
        <ele>32</ele>
        <time>2017-08-26T09:22:40Z</time>
      </trkpt>
      <trkpt lat="50.6494" lon="3.19164">
        <ele>33</ele>
        <time>2017-08-26T09:24:40Z</time>
      </trkpt>
      <trkpt lat="50.6494" lon="3.19164">
        <ele>33</ele>
        <time>2017-08-26T09:26:40Z</time>
      </trkpt>
      <trkpt lat="50.64942" lon="3.19175">
        <ele>33</ele>
        <time>2017-08-26T09:28:40Z</time>
      </trkpt>
      <trkpt lat="50.64943" lon="3.1918">
        <ele>33</ele>
        <time>2017-08-26T09:30:40Z</time>
      </trkpt>
      <trkpt lat="50.64942" lon="3.19185">
        <ele>33</ele>
        <time>2017-08-26T09:32:40Z</time>
      </trkpt>
      <trkpt lat="50.64941" lon="3.19192">
        <ele>32</ele>
        <time>2017-08-26T09:34:40Z</time>
      </trkpt>
      <trkpt lat="50.64939" lon="3.19202">
        <ele>32</ele>
        <time>2017-08-26T09:36:40Z</time>
      </trkpt>
      <trkpt lat="50.64937" lon="3.19212">
        <ele>32</ele>
        <time>2017-08-26T09:38:40Z</time>
      </trkpt>
      <trkpt lat="50.64913" lon="3.19336">
        <ele>31</ele>
        <time>2017-08-26T09:40:40Z</time>
      </trkpt>
      <trkpt lat="50.64902" lon="3.19396">
        <ele>30</ele>
        <time>2017-08-26T09:42:40Z</time>
      </trkpt>
      <trkpt lat="50.64901" lon="3.194">
        <ele>30</ele>
        <time>2017-08-26T09:44:40Z</time>
      </trkpt>
      <trkpt lat="50.64897" lon="3.19432">
        <ele>30</ele>
        <time>2017-08-26T09:46:40Z</time>
      </trkpt>
      <trkpt lat="50.64895" lon="3.19456">
        <ele>29</ele>
        <time>2017-08-26T09:48:40Z</time>
      </trkpt>
      <trkpt lat="50.64895" lon="3.19456">
        <ele>29</ele>
        <time>2017-08-26T09:50:40Z</time>
      </trkpt>
      <trkpt lat="50.64893" lon="3.19464">
        <ele>29</ele>
        <time>2017-08-26T09:52:40Z</time>
      </trkpt>
      <trkpt lat="50.64889" lon="3.19477">
        <ele>29</ele>
        <time>2017-08-26T09:54:40Z</time>
      </trkpt>
      <trkpt lat="50.64882" lon="3.19512">
        <ele>29</ele>
        <time>2017-08-26T09:56:40Z</time>
      </trkpt>
      <trkpt lat="50.64865" lon="3.19602">
        <ele>29</ele>
        <time>2017-08-26T09:58:40Z</time>
      </trkpt>
      <trkpt lat="50.64851" lon="3.1967">
        <ele>29</ele>
        <time>2017-08-26T10:00:40Z</time>
      </trkpt>
      <trkpt lat="50.64846" lon="3.19697">
        <ele>29</ele>
        <time>2017-08-26T10:02:40Z</time>
      </trkpt>
      <trkpt lat="50.64844" lon="3.19707">
        <ele>29</ele>
        <time>2017-08-26T10:04:40Z</time>
      </trkpt>
      <trkpt lat="50.64839" lon="3.19723">
        <ele>29</ele>
        <time>2017-08-26T10:06:40Z</time>
      </trkpt>
      <trkpt lat="50.64834" lon="3.19741">
        <ele>29</ele>
        <time>2017-08-26T10:08:40Z</time>
      </trkpt>
      <trkpt lat="50.64825" lon="3.19765">
        <ele>29</ele>
        <time>2017-08-26T10:10:40Z</time>
      </trkpt>
      <trkpt lat="50.64823" lon="3.19771">
        <ele>29</ele>
        <time>2017-08-26T10:12:40Z</time>
      </trkpt>
      <trkpt lat="50.64812" lon="3.19794">
        <ele>30</ele>
        <time>2017-08-26T10:14:40Z</time>
      </trkpt>
      <trkpt lat="50.64794" lon="3.19824">
        <ele>30</ele>
        <time>2017-08-26T10:16:40Z</time>
      </trkpt>
      <trkpt lat="50.64759" lon="3.19882">
        <ele>31</ele>
        <time>2017-08-26T10:18:40Z</time>
      </trkpt>
      <trkpt lat="50.64756" lon="3.19888">
        <ele>31</ele>
        <time>2017-08-26T10:20:40Z</time>
      </trkpt>
      <trkpt lat="50.64716" lon="3.19952">
        <ele>31</ele>
        <time>2017-08-26T10:22:40Z</time>
      </trkpt>
      <trkpt lat="50.64686" lon="3.2">
        <ele>30</ele>
        <time>2017-08-26T10:24:40Z</time>
      </trkpt>
      <trkpt lat="50.64664" lon="3.20033">
        <ele>30</ele>
        <time>2017-08-26T10:26:40Z</time>
      </trkpt>
      <trkpt lat="50.64647" lon="3.20059">
        <ele>30</ele>
        <time>2017-08-26T10:28:40Z</time>
      </trkpt>
      <trkpt lat="50.64634" lon="3.20077">
        <ele>30</ele>
        <time>2017-08-26T10:30:40Z</time>
      </trkpt>
      <trkpt lat="50.6463" lon="3.20085">
        <ele>30</ele>
        <time>2017-08-26T10:32:40Z</time>
      </trkpt>
      <trkpt lat="50.64624" lon="3.201">
        <ele>30</ele>
        <time>2017-08-26T10:34:40Z</time>
      </trkpt>
      <trkpt lat="50.64619" lon="3.20115">
        <ele>30</ele>
        <time>2017-08-26T10:36:40Z</time>
      </trkpt>
      <trkpt lat="50.64613" lon="3.20138">
        <ele>30</ele>
        <time>2017-08-26T10:38:40Z</time>
      </trkpt>
      <trkpt lat="50.64609" lon="3.20161">
        <ele>30</ele>
        <time>2017-08-26T10:40:40Z</time>
      </trkpt>
      <trkpt lat="50.64609" lon="3.20165">
        <ele>30</ele>
        <time>2017-08-26T10:42:40Z</time>
      </trkpt>
      <trkpt lat="50.64608" lon="3.20172">
        <ele>30</ele>
        <time>2017-08-26T10:44:40Z</time>
      </trkpt>
      <trkpt lat="50.64609" lon="3.20184">
        <ele>30</ele>
        <time>2017-08-26T10:46:40Z</time>
      </trkpt>
      <trkpt lat="50.6461" lon="3.20199">
        <ele>30</ele>
        <time>2017-08-26T10:48:40Z</time>
      </trkpt>
      <trkpt lat="50.64611" lon="3.20217">
        <ele>30</ele>
        <time>2017-08-26T10:50:40Z</time>
      </trkpt>
      <trkpt lat="50.64615" lon="3.20245">
        <ele>30</ele>
        <time>2017-08-26T10:52:40Z</time>
      </trkpt>
      <trkpt lat="50.64619" lon="3.20263">
        <ele>30</ele>
        <time>2017-08-26T10:54:40Z</time>
      </trkpt>
      <trkpt lat="50.64628" lon="3.20291">
        <ele>30</ele>
        <time>2017-08-26T10:56:40Z</time>
      </trkpt>
      <trkpt lat="50.64633" lon="3.20302">
        <ele>31</ele>
        <time>2017-08-26T10:58:40Z</time>
      </trkpt>
      <trkpt lat="50.64638" lon="3.20312">
        <ele>31</ele>
        <time>2017-08-26T11:00:40Z</time>
      </trkpt>
      <trkpt lat="50.64654" lon="3.20336">
        <ele>32</ele>
        <time>2017-08-26T11:02:40Z</time>
      </trkpt>
      <trkpt lat="50.64673" lon="3.20368">
        <ele>32</ele>
        <time>2017-08-26T11:04:40Z</time>
      </trkpt>
      <trkpt lat="50.64684" lon="3.20387">
        <ele>33</ele>
        <time>2017-08-26T11:06:40Z</time>
      </trkpt>
      <trkpt lat="50.64698" lon="3.2041">
        <ele>33</ele>
        <time>2017-08-26T11:08:40Z</time>
      </trkpt>
      <trkpt lat="50.64709" lon="3.20422">
        <ele>34</ele>
        <time>2017-08-26T11:10:40Z</time>
      </trkpt>
      <trkpt lat="50.64724" lon="3.20438">
        <ele>34</ele>
        <time>2017-08-26T11:12:40Z</time>
      </trkpt>
      <trkpt lat="50.64741" lon="3.20454">
        <ele>35</ele>
        <time>2017-08-26T11:14:40Z</time>
      </trkpt>
      <trkpt lat="50.64751" lon="3.2047">
        <ele>36</ele>
        <time>2017-08-26T11:16:40Z</time>
      </trkpt>
      <trkpt lat="50.64761" lon="3.2049">
        <ele>37</ele>
        <time>2017-08-26T11:18:40Z</time>
      </trkpt>
      <trkpt lat="50.64776" lon="3.20519">
        <ele>37</ele>
        <time>2017-08-26T11:20:40Z</time>
      </trkpt>
      <trkpt lat="50.64783" lon="3.20531">
        <ele>37</ele>
        <time>2017-08-26T11:22:40Z</time>
      </trkpt>
      <trkpt lat="50.6479" lon="3.20538">
        <ele>38</ele>
        <time>2017-08-26T11:24:40Z</time>
      </trkpt>
      <trkpt lat="50.64801" lon="3.20546">
        <ele>38</ele>
        <time>2017-08-26T11:26:40Z</time>
      </trkpt>
      <trkpt lat="50.64813" lon="3.20552">
        <ele>39</ele>
        <time>2017-08-26T11:28:40Z</time>
      </trkpt>
      <trkpt lat="50.64837" lon="3.20564">
        <ele>40</ele>
        <time>2017-08-26T11:30:40Z</time>
      </trkpt>
      <trkpt lat="50.64865" lon="3.20573">
        <ele>41</ele>
        <time>2017-08-26T11:32:40Z</time>
      </trkpt>
      <trkpt lat="50.64896" lon="3.20582">
        <ele>42</ele>
        <time>2017-08-26T11:34:40Z</time>
      </trkpt>
      <trkpt lat="50.64918" lon="3.20592">
        <ele>43</ele>
        <time>2017-08-26T11:36:40Z</time>
      </trkpt>
      <trkpt lat="50.64979" lon="3.20611">
        <ele>44</ele>
        <time>2017-08-26T11:38:40Z</time>
      </trkpt>
      <trkpt lat="50.65029" lon="3.20628">
        <ele>44</ele>
        <time>2017-08-26T11:40:40Z</time>
      </trkpt>
      <trkpt lat="50.65077" lon="3.20644">
        <ele>45</ele>
        <time>2017-08-26T11:42:40Z</time>
      </trkpt>
      <trkpt lat="50.6511" lon="3.20654">
        <ele>46</ele>
        <time>2017-08-26T11:44:40Z</time>
      </trkpt>
      <trkpt lat="50.6514" lon="3.20665">
        <ele>46</ele>
        <time>2017-08-26T11:46:40Z</time>
      </trkpt>
      <trkpt lat="50.65204" lon="3.20693">
        <ele>48</ele>
        <time>2017-08-26T11:48:40Z</time>
      </trkpt>
      <trkpt lat="50.65239" lon="3.20712">
        <ele>49</ele>
        <time>2017-08-26T11:50:40Z</time>
      </trkpt>
      <trkpt lat="50.65263" lon="3.20725">
        <ele>49</ele>
        <time>2017-08-26T11:52:40Z</time>
      </trkpt>
      <trkpt lat="50.65289" lon="3.20738">
        <ele>49</ele>
        <time>2017-08-26T11:54:40Z</time>
      </trkpt>
      <trkpt lat="50.6534" lon="3.20771">
        <ele>48</ele>
        <time>2017-08-26T11:56:40Z</time>
      </trkpt>
      <trkpt lat="50.65388" lon="3.20805">
        <ele>49</ele>
        <time>2017-08-26T11:58:40Z</time>
      </trkpt>
      <trkpt lat="50.65432" lon="3.2084">
        <ele>49</ele>
        <time>2017-08-26T12:00:40Z</time>
      </trkpt>
      <trkpt lat="50.65469" lon="3.20871">
        <ele>48</ele>
        <time>2017-08-26T12:02:40Z</time>
      </trkpt>
      <trkpt lat="50.65499" lon="3.209">
        <ele>48</ele>
        <time>2017-08-26T12:04:40Z</time>
      </trkpt>
      <trkpt lat="50.65558" lon="3.20962">
        <ele>47</ele>
        <time>2017-08-26T12:06:40Z</time>
      </trkpt>
      <trkpt lat="50.65589" lon="3.20997">
        <ele>47</ele>
        <time>2017-08-26T12:08:40Z</time>
      </trkpt>
      <trkpt lat="50.65597" lon="3.21007">
        <ele>47</ele>
        <time>2017-08-26T12:10:40Z</time>
      </trkpt>
      <trkpt lat="50.65608" lon="3.21017">
        <ele>46</ele>
        <time>2017-08-26T12:12:40Z</time>
      </trkpt>
      <trkpt lat="50.65626" lon="3.21038">
        <ele>46</ele>
        <time>2017-08-26T12:14:40Z</time>
      </trkpt>
      <trkpt lat="50.6563" lon="3.21043">
        <ele>46</ele>
        <time>2017-08-26T12:16:40Z</time>
      </trkpt>
      <trkpt lat="50.65658" lon="3.21078">
        <ele>45</ele>
        <time>2017-08-26T12:18:40Z</time>
      </trkpt>
      <trkpt lat="50.65685" lon="3.2111">
        <ele>45</ele>
        <time>2017-08-26T12:20:40Z</time>
      </trkpt>
      <trkpt lat="50.65707" lon="3.21141">
        <ele>45</ele>
        <time>2017-08-26T12:22:40Z</time>
      </trkpt>
      <trkpt lat="50.65721" lon="3.21164">
        <ele>45</ele>
        <time>2017-08-26T12:24:40Z</time>
      </trkpt>
      <trkpt lat="50.65734" lon="3.21182">
        <ele>45</ele>
        <time>2017-08-26T12:26:40Z</time>
      </trkpt>
      <trkpt lat="50.65752" lon="3.21196">
        <ele>45</ele>
        <time>2017-08-26T12:28:40Z</time>
      </trkpt>
      <trkpt lat="50.65764" lon="3.21205">
        <ele>44</ele>
        <time>2017-08-26T12:30:40Z</time>
      </trkpt>
      <trkpt lat="50.65773" lon="3.21212">
        <ele>44</ele>
        <time>2017-08-26T12:32:40Z</time>
      </trkpt>
      <trkpt lat="50.65773" lon="3.21212">
        <ele>44</ele>
        <time>2017-08-26T12:34:40Z</time>
      </trkpt>
      <trkpt lat="50.6579" lon="3.21159">
        <ele>44</ele>
        <time>2017-08-26T12:36:40Z</time>
      </trkpt>
      <trkpt lat="50.65794" lon="3.21147">
        <ele>43</ele>
        <time>2017-08-26T12:38:40Z</time>
      </trkpt>
      <trkpt lat="50.658" lon="3.21122">
        <ele>43</ele>
        <time>2017-08-26T12:40:40Z</time>
      </trkpt>
      <trkpt lat="50.65814" lon="3.2108">
        <ele>42</ele>
        <time>2017-08-26T12:42:40Z</time>
      </trkpt>
      <trkpt lat="50.65816" lon="3.21073">
        <ele>42</ele>
        <time>2017-08-26T12:44:40Z</time>
      </trkpt>
      <trkpt lat="50.6583" lon="3.21031">
        <ele>42</ele>
        <time>2017-08-26T12:46:40Z</time>
      </trkpt>
      <trkpt lat="50.65853" lon="3.20961">
        <ele>42</ele>
        <time>2017-08-26T12:48:40Z</time>
      </trkpt>
      <trkpt lat="50.65875" lon="3.20894">
        <ele>41</ele>
        <time>2017-08-26T12:50:40Z</time>
      </trkpt>
      <trkpt lat="50.65881" lon="3.20876">
        <ele>41</ele>
        <time>2017-08-26T12:52:40Z</time>
      </trkpt>
      <trkpt lat="50.65883" lon="3.20868">
        <ele>41</ele>
        <time>2017-08-26T12:54:40Z</time>
      </trkpt>
      <trkpt lat="50.65885" lon="3.2086">
        <ele>41</ele>
        <time>2017-08-26T12:56:40Z</time>
      </trkpt>
      <trkpt lat="50.65889" lon="3.20856">
        <ele>41</ele>
        <time>2017-08-26T12:58:40Z</time>
      </trkpt>
      <trkpt lat="50.65896" lon="3.20847">
        <ele>40</ele>
        <time>2017-08-26T13:00:40Z</time>
      </trkpt>
      <trkpt lat="50.65901" lon="3.20842">
        <ele>40</ele>
        <time>2017-08-26T13:02:40Z</time>
      </trkpt>
      <trkpt lat="50.65901" lon="3.20842">
        <ele>40</ele>
        <time>2017-08-26T13:04:40Z</time>
      </trkpt>
      <trkpt lat="50.65908" lon="3.20823">
        <ele>40</ele>
        <time>2017-08-26T13:06:40Z</time>
      </trkpt>
      <trkpt lat="50.65926" lon="3.20779">
        <ele>39</ele>
        <time>2017-08-26T13:08:40Z</time>
      </trkpt>
      <trkpt lat="50.65951" lon="3.20712">
        <ele>39</ele>
        <time>2017-08-26T13:10:40Z</time>
      </trkpt>
      <trkpt lat="50.65972" lon="3.20659">
        <ele>38</ele>
        <time>2017-08-26T13:12:40Z</time>
      </trkpt>
      <trkpt lat="50.65989" lon="3.20619">
        <ele>38</ele>
        <time>2017-08-26T13:14:40Z</time>
      </trkpt>
      <trkpt lat="50.66002" lon="3.20593">
        <ele>38</ele>
        <time>2017-08-26T13:16:40Z</time>
      </trkpt>
      <trkpt lat="50.66013" lon="3.20575">
        <ele>38</ele>
        <time>2017-08-26T13:18:40Z</time>
      </trkpt>
      <trkpt lat="50.66028" lon="3.20552">
        <ele>38</ele>
        <time>2017-08-26T13:20:40Z</time>
      </trkpt>
      <trkpt lat="50.66051" lon="3.20518">
        <ele>37</ele>
        <time>2017-08-26T13:22:40Z</time>
      </trkpt>
      <trkpt lat="50.66071" lon="3.20487">
        <ele>37</ele>
        <time>2017-08-26T13:24:40Z</time>
      </trkpt>
      <trkpt lat="50.66082" lon="3.20473">
        <ele>37</ele>
        <time>2017-08-26T13:26:40Z</time>
      </trkpt>
      <trkpt lat="50.661" lon="3.20454">
        <ele>37</ele>
        <time>2017-08-26T13:28:40Z</time>
      </trkpt>
      <trkpt lat="50.66109" lon="3.20445">
        <ele>37</ele>
        <time>2017-08-26T13:30:40Z</time>
      </trkpt>
      <trkpt lat="50.6612" lon="3.20433">
        <ele>37</ele>
        <time>2017-08-26T13:32:40Z</time>
      </trkpt>
      <trkpt lat="50.66131" lon="3.20421">
        <ele>37</ele>
        <time>2017-08-26T13:34:40Z</time>
      </trkpt>
      <trkpt lat="50.66135" lon="3.20416">
        <ele>37</ele>
        <time>2017-08-26T13:36:40Z</time>
      </trkpt>
      <trkpt lat="50.66152" lon="3.20396">
        <ele>37</ele>
        <time>2017-08-26T13:38:40Z</time>
      </trkpt>
      <trkpt lat="50.66175" lon="3.20361">
        <ele>37</ele>
        <time>2017-08-26T13:40:40Z</time>
      </trkpt>
      <trkpt lat="50.66185" lon="3.20346">
        <ele>37</ele>
        <time>2017-08-26T13:42:40Z</time>
      </trkpt>
      <trkpt lat="50.66225" lon="3.20288">
        <ele>38</ele>
        <time>2017-08-26T13:44:40Z</time>
      </trkpt>
      <trkpt lat="50.66233" lon="3.20277">
        <ele>38</ele>
        <time>2017-08-26T13:46:40Z</time>
      </trkpt>
      <trkpt lat="50.66267" lon="3.20233">
        <ele>38</ele>
        <time>2017-08-26T13:48:40Z</time>
      </trkpt>
      <trkpt lat="50.66299" lon="3.20195">
        <ele>38</ele>
        <time>2017-08-26T13:50:40Z</time>
      </trkpt>
      <trkpt lat="50.66299" lon="3.20195">
        <ele>38</ele>
        <time>2017-08-26T13:52:40Z</time>
      </trkpt>
      <trkpt lat="50.66287" lon="3.20168">
        <ele>38</ele>
        <time>2017-08-26T13:54:40Z</time>
      </trkpt>
      <trkpt lat="50.66273" lon="3.20133">
        <ele>38</ele>
        <time>2017-08-26T13:56:40Z</time>
      </trkpt>
      <trkpt lat="50.66265" lon="3.20114">
        <ele>39</ele>
        <time>2017-08-26T13:58:40Z</time>
      </trkpt>
      <trkpt lat="50.6626" lon="3.20099">
        <ele>39</ele>
        <time>2017-08-26T14:00:40Z</time>
      </trkpt>
      <trkpt lat="50.66254" lon="3.20081">
        <ele>39</ele>
        <time>2017-08-26T14:02:40Z</time>
      </trkpt>
      <trkpt lat="50.66254" lon="3.20081">
        <ele>39</ele>
        <time>2017-08-26T14:04:40Z</time>
      </trkpt>
      <trkpt lat="50.66261" lon="3.20076">
        <ele>39</ele>
        <time>2017-08-26T14:06:40Z</time>
      </trkpt>
      <trkpt lat="50.66261" lon="3.20076">
        <ele>39</ele>
        <time>2017-08-26T14:08:40Z</time>
      </trkpt>
      <trkpt lat="50.66269" lon="3.20087">
        <ele>39</ele>
        <time>2017-08-26T14:10:40Z</time>
      </trkpt>
      <trkpt lat="50.66275" lon="3.2009">
        <ele>39</ele>
        <time>2017-08-26T14:12:40Z</time>
      </trkpt>
      <trkpt lat="50.66284" lon="3.20095">
        <ele>39</ele>
        <time>2017-08-26T14:14:40Z</time>
      </trkpt>
      <trkpt lat="50.66294" lon="3.20097">
        <ele>38</ele>
        <time>2017-08-26T14:16:40Z</time>
      </trkpt>
      <trkpt lat="50.66305" lon="3.20107">
        <ele>38</ele>
        <time>2017-08-26T14:18:40Z</time>
      </trkpt>
      <trkpt lat="50.66311" lon="3.20113">
        <ele>38</ele>
        <time>2017-08-26T14:20:40Z</time>
      </trkpt>
      <trkpt lat="50.66322" lon="3.20124">
        <ele>38</ele>
        <time>2017-08-26T14:22:40Z</time>
      </trkpt>
      <trkpt lat="50.6634" lon="3.20139">
        <ele>38</ele>
        <time>2017-08-26T14:24:40Z</time>
      </trkpt>
      <trkpt lat="50.66349" lon="3.20146">
        <ele>38</ele>
        <time>2017-08-26T14:26:40Z</time>
      </trkpt>
      <trkpt lat="50.66359" lon="3.20153">
        <ele>38</ele>
        <time>2017-08-26T14:28:40Z</time>
      </trkpt>
      <trkpt lat="50.66367" lon="3.2016">
        <ele>38</ele>
        <time>2017-08-26T14:30:40Z</time>
      </trkpt>
      <trkpt lat="50.66383" lon="3.20174">
        <ele>37</ele>
        <time>2017-08-26T14:32:40Z</time>
      </trkpt>
      <trkpt lat="50.66401" lon="3.20188">
        <ele>37</ele>
        <time>2017-08-26T14:34:40Z</time>
      </trkpt>
      <trkpt lat="50.664" lon="3.20192">
        <ele>37</ele>
        <time>2017-08-26T14:36:40Z</time>
      </trkpt>
      <trkpt lat="50.6702" lon="3.20636">
        <ele>35</ele>
        <time>2017-08-26T14:38:40Z</time>
      </trkpt>
      <trkpt lat="50.67077" lon="3.20674">
        <ele>37</ele>
        <time>2017-08-26T14:40:40Z</time>
      </trkpt>
      <trkpt lat="50.67077" lon="3.20674">
        <ele>37</ele>
        <time>2017-08-26T14:42:40Z</time>
      </trkpt>
      <trkpt lat="50.67088" lon="3.20681">
        <ele>37</ele>
        <time>2017-08-26T14:44:40Z</time>
      </trkpt>
      <trkpt lat="50.67088" lon="3.20681">
        <ele>37</ele>
        <time>2017-08-26T14:46:40Z</time>
      </trkpt>
      <trkpt lat="50.67097" lon="3.20653">
        <ele>37</ele>
        <time>2017-08-26T14:48:40Z</time>
      </trkpt>
      <trkpt lat="50.67101" lon="3.20646">
        <ele>37</ele>
        <time>2017-08-26T14:50:40Z</time>
      </trkpt>
      <trkpt lat="50.67113" lon="3.20634">
        <ele>38</ele>
        <time>2017-08-26T14:52:40Z</time>
      </trkpt>
      <trkpt lat="50.67125" lon="3.20624">
        <ele>38</ele>
        <time>2017-08-26T14:54:40Z</time>
      </trkpt>
      <trkpt lat="50.67134" lon="3.20616">
        <ele>38</ele>
        <time>2017-08-26T14:56:40Z</time>
      </trkpt>
      <trkpt lat="50.67141" lon="3.2061">
        <ele>38</ele>
        <time>2017-08-26T14:58:40Z</time>
      </trkpt>
      <trkpt lat="50.67171" lon="3.20588">
        <ele>38</ele>
        <time>2017-08-26T15:00:40Z</time>
      </trkpt>
      <trkpt lat="50.67183" lon="3.20578">
        <ele>38</ele>
        <time>2017-08-26T15:02:40Z</time>
      </trkpt>
      <trkpt lat="50.67196" lon="3.20567">
        <ele>38</ele>
        <time>2017-08-26T15:04:40Z</time>
      </trkpt>
      <trkpt lat="50.67199" lon="3.20564">
        <ele>38</ele>
        <time>2017-08-26T15:06:40Z</time>
      </trkpt>
      <trkpt lat="50.67204" lon="3.20558">
        <ele>38</ele>
        <time>2017-08-26T15:08:40Z</time>
      </trkpt>
      <trkpt lat="50.67211" lon="3.20546">
        <ele>38</ele>
        <time>2017-08-26T15:10:40Z</time>
      </trkpt>
      <trkpt lat="50.67235" lon="3.20505">
        <ele>39</ele>
        <time>2017-08-26T15:12:40Z</time>
      </trkpt>
      <trkpt lat="50.67237" lon="3.20501">
        <ele>39</ele>
        <time>2017-08-26T15:14:40Z</time>
      </trkpt>
      <trkpt lat="50.67238" lon="3.20499">
        <ele>39</ele>
        <time>2017-08-26T15:16:40Z</time>
      </trkpt>
      <trkpt lat="50.67243" lon="3.2049">
        <ele>39</ele>
        <time>2017-08-26T15:18:40Z</time>
      </trkpt>
      <trkpt lat="50.67252" lon="3.20475">
        <ele>39</ele>
        <time>2017-08-26T15:20:40Z</time>
      </trkpt>
      <trkpt lat="50.67261" lon="3.20462">
        <ele>39</ele>
        <time>2017-08-26T15:22:40Z</time>
      </trkpt>
      <trkpt lat="50.67269" lon="3.20455">
        <ele>39</ele>
        <time>2017-08-26T15:24:40Z</time>
      </trkpt>
      <trkpt lat="50.67283" lon="3.20439">
        <ele>39</ele>
        <time>2017-08-26T15:26:40Z</time>
      </trkpt>
      <trkpt lat="50.67297" lon="3.20425">
        <ele>39</ele>
        <time>2017-08-26T15:28:40Z</time>
      </trkpt>
      <trkpt lat="50.67318" lon="3.20403">
        <ele>39</ele>
        <time>2017-08-26T15:30:40Z</time>
      </trkpt>
      <trkpt lat="50.67345" lon="3.2038">
        <ele>39</ele>
        <time>2017-08-26T15:32:40Z</time>
      </trkpt>
      <trkpt lat="50.67361" lon="3.20363">
        <ele>39</ele>
        <time>2017-08-26T15:34:40Z</time>
      </trkpt>
      <trkpt lat="50.67365" lon="3.20359">
        <ele>39</ele>
        <time>2017-08-26T15:36:40Z</time>
      </trkpt>
      <trkpt lat="50.67388" lon="3.20337">
        <ele>38</ele>
        <time>2017-08-26T15:38:40Z</time>
      </trkpt>
      <trkpt lat="50.67401" lon="3.20327">
        <ele>38</ele>
        <time>2017-08-26T15:40:40Z</time>
      </trkpt>
      <trkpt lat="50.67405" lon="3.20325">
        <ele>38</ele>
        <time>2017-08-26T15:42:40Z</time>
      </trkpt>
      <trkpt lat="50.67414" lon="3.20318">
        <ele>38</ele>
        <time>2017-08-26T15:44:40Z</time>
      </trkpt>
      <trkpt lat="50.67424" lon="3.20312">
        <ele>38</ele>
        <time>2017-08-26T15:46:40Z</time>
      </trkpt>
      <trkpt lat="50.67433" lon="3.2031">
        <ele>38</ele>
        <time>2017-08-26T15:48:40Z</time>
      </trkpt>
      <trkpt lat="50.67441" lon="3.20308">
        <ele>38</ele>
        <time>2017-08-26T15:50:40Z</time>
      </trkpt>
      <trkpt lat="50.67466" lon="3.20302">
        <ele>37</ele>
        <time>2017-08-26T15:52:40Z</time>
      </trkpt>
      <trkpt lat="50.67479" lon="3.20296">
        <ele>37</ele>
        <time>2017-08-26T15:54:40Z</time>
      </trkpt>
      <trkpt lat="50.6749" lon="3.20288">
        <ele>37</ele>
        <time>2017-08-26T15:56:40Z</time>
      </trkpt>
      <trkpt lat="50.67498" lon="3.20282">
        <ele>37</ele>
        <time>2017-08-26T15:58:40Z</time>
      </trkpt>
      <trkpt lat="50.67513" lon="3.20268">
        <ele>37</ele>
        <time>2017-08-26T16:00:40Z</time>
      </trkpt>
      <trkpt lat="50.67525" lon="3.20254">
        <ele>37</ele>
        <time>2017-08-26T16:02:40Z</time>
      </trkpt>
      <trkpt lat="50.67526" lon="3.20254">
        <ele>37</ele>
        <time>2017-08-26T16:04:40Z</time>
      </trkpt>
      <trkpt lat="50.67534" lon="3.20244">
        <ele>37</ele>
        <time>2017-08-26T16:06:40Z</time>
      </trkpt>
      <trkpt lat="50.67539" lon="3.20236">
        <ele>37</ele>
        <time>2017-08-26T16:08:40Z</time>
      </trkpt>
      <trkpt lat="50.67551" lon="3.20218">
        <ele>37</ele>
        <time>2017-08-26T16:10:40Z</time>
      </trkpt>
      <trkpt lat="50.67567" lon="3.20193">
        <ele>37</ele>
        <time>2017-08-26T16:12:40Z</time>
      </trkpt>
      <trkpt lat="50.67604" lon="3.20136">
        <ele>37</ele>
        <time>2017-08-26T16:14:40Z</time>
      </trkpt>
      <trkpt lat="50.67613" lon="3.20123">
        <ele>36</ele>
        <time>2017-08-26T16:16:40Z</time>
      </trkpt>
      <trkpt lat="50.67633" lon="3.20092">
        <ele>36</ele>
        <time>2017-08-26T16:18:40Z</time>
      </trkpt>
      <trkpt lat="50.67664" lon="3.20042">
        <ele>37</ele>
        <time>2017-08-26T16:20:40Z</time>
      </trkpt>
      <trkpt lat="50.67684" lon="3.20009">
        <ele>37</ele>
        <time>2017-08-26T16:22:40Z</time>
      </trkpt>
      <trkpt lat="50.67743" lon="3.19916">
        <ele>36</ele>
        <time>2017-08-26T16:24:40Z</time>
      </trkpt>
      <trkpt lat="50.67743" lon="3.19916">
        <ele>36</ele>
        <time>2017-08-26T16:26:40Z</time>
      </trkpt>
      <trkpt lat="50.67756" lon="3.19934">
        <ele>36</ele>
        <time>2017-08-26T16:28:40Z</time>
      </trkpt>
      <trkpt lat="50.67804" lon="3.20006">
        <ele>34</ele>
        <time>2017-08-26T16:30:40Z</time>
      </trkpt>
      <trkpt lat="50.67813" lon="3.2002">
        <ele>34</ele>
        <time>2017-08-26T16:32:40Z</time>
      </trkpt>
      <trkpt lat="50.67845" lon="3.20069">
        <ele>33</ele>
        <time>2017-08-26T16:34:40Z</time>
      </trkpt>
      <trkpt lat="50.67876" lon="3.20117">
        <ele>33</ele>
        <time>2017-08-26T16:36:40Z</time>
      </trkpt>
      <trkpt lat="50.67881" lon="3.20126">
        <ele>33</ele>
        <time>2017-08-26T16:38:40Z</time>
      </trkpt>
      <trkpt lat="50.67894" lon="3.20153">
        <ele>33</ele>
        <time>2017-08-26T16:40:40Z</time>
      </trkpt>
      <trkpt lat="50.67908" lon="3.20175">
        <ele>32</ele>
        <time>2017-08-26T16:42:40Z</time>
      </trkpt>
      <trkpt lat="50.67927" lon="3.20204">
        <ele>32</ele>
        <time>2017-08-26T16:44:40Z</time>
      </trkpt>
      <trkpt lat="50.67934" lon="3.20218">
        <ele>32</ele>
        <time>2017-08-26T16:46:40Z</time>
      </trkpt>
      <trkpt lat="50.67934" lon="3.20218">
        <ele>32</ele>
        <time>2017-08-26T16:48:40Z</time>
      </trkpt>
      <trkpt lat="50.67925" lon="3.20226">
        <ele>32</ele>
        <time>2017-08-26T16:50:40Z</time>
      </trkpt>
      <trkpt lat="50.67915" lon="3.20234">
        <ele>32</ele>
        <time>2017-08-26T16:52:40Z</time>
      </trkpt>
      <trkpt lat="50.67899" lon="3.20244">
        <ele>32</ele>
        <time>2017-08-26T16:54:40Z</time>
      </trkpt>
      <trkpt lat="50.67879" lon="3.20257">
        <ele>32</ele>
        <time>2017-08-26T16:56:40Z</time>
      </trkpt>
      <trkpt lat="50.67864" lon="3.20267">
        <ele>32</ele>
        <time>2017-08-26T16:58:40Z</time>
      </trkpt>
      <trkpt lat="50.6785" lon="3.20277">
        <ele>32</ele>
        <time>2017-08-26T17:00:40Z</time>
      </trkpt>
      <trkpt lat="50.67843" lon="3.20283">
        <ele>32</ele>
        <time>2017-08-26T17:02:40Z</time>
      </trkpt>
      <trkpt lat="50.67837" lon="3.20293">
        <ele>32</ele>
        <time>2017-08-26T17:04:40Z</time>
      </trkpt>
      <trkpt lat="50.67828" lon="3.20309">
        <ele>32</ele>
        <time>2017-08-26T17:06:40Z</time>
      </trkpt>
      <trkpt lat="50.67823" lon="3.20326">
        <ele>31</ele>
        <time>2017-08-26T17:08:40Z</time>
      </trkpt>
      <trkpt lat="50.67821" lon="3.20342">
        <ele>31</ele>
        <time>2017-08-26T17:10:40Z</time>
      </trkpt>
      <trkpt lat="50.6782" lon="3.20359">
        <ele>31</ele>
        <time>2017-08-26T17:12:40Z</time>
      </trkpt>
      <trkpt lat="50.67822" lon="3.20371">
        <ele>31</ele>
        <time>2017-08-26T17:14:40Z</time>
      </trkpt>
      <trkpt lat="50.67822" lon="3.20374">
        <ele>31</ele>
        <time>2017-08-26T17:16:40Z</time>
      </trkpt>
      <trkpt lat="50.67827" lon="3.20392">
        <ele>31</ele>
        <time>2017-08-26T17:18:40Z</time>
      </trkpt>
      <trkpt lat="50.67835" lon="3.20409">
        <ele>31</ele>
        <time>2017-08-26T17:20:40Z</time>
      </trkpt>
      <trkpt lat="50.67848" lon="3.2043">
        <ele>31</ele>
        <time>2017-08-26T17:22:40Z</time>
      </trkpt>
      <trkpt lat="50.6785" lon="3.20434">
        <ele>31</ele>
        <time>2017-08-26T17:24:40Z</time>
      </trkpt>
    </trkseg>
  </trk>
</gpx>